<?xml version='1.0' encoding='UTF-8'?><gpx version="1.1" creator="JPX - https://github.com/jenetics/jpx" xmlns="http://www.topografix.com/GPX/1/1"><trk><trkseg><trkpt lat="43.3447351" lon="12.9984953"><ele>240.0</ele><time>2026-04-11T11:59:05.004Z</time></trkpt><trkpt lat="43.3447607" lon="12.9985937"><ele>240.0</ele><time>2026-04-11T11:59:10.002Z</time></trkpt><trkpt lat="43.3447065" lon="12.9986717"><ele>240.0</ele><time>2026-04-11T12:00:33.006Z</time></trkpt><trkpt lat="43.3446125" lon="12.9986445"><ele>240.0</ele><time>2026-04-11T12:01:01.007Z</time></trkpt><trkpt lat="43.344649" lon="12.9985729"><ele>240.0</ele><time>2026-04-11T12:01:21.026Z</time></trkpt><trkpt lat="43.3446752" lon="12.9983547"><ele>240.25</ele><time>2026-04-11T12:01:25.007Z</time></trkpt><trkpt lat="43.3445183" lon="12.9982617"><ele>240.5</ele><time>2026-04-11T12:01:30.007Z</time></trkpt><trkpt lat="43.3444083" lon="12.99821"><ele>240.75</ele><time>2026-04-11T12:01:31.007Z</time></trkpt><trkpt lat="43.3443017" lon="12.9981733"><ele>241.0</ele><time>2026-04-11T12:01:32.008Z</time></trkpt><trkpt lat="43.344205" lon="12.9981633"><ele>241.0</ele><time>2026-04-11T12:01:33.007Z</time></trkpt><trkpt lat="43.3440583" lon="12.9981817"><ele>241.0</ele><time>2026-04-11T12:01:34.007Z</time></trkpt><trkpt lat="43.3439067" lon="12.9981983"><ele>241.0</ele><time>2026-04-11T12:01:35.006Z</time></trkpt><trkpt lat="43.34374" lon="12.99821"><ele>241.66666666666666</ele><time>2026-04-11T12:01:36.008Z</time></trkpt><trkpt lat="43.343575" lon="12.99823"><ele>242.33333333333331</ele><time>2026-04-11T12:01:37.008Z</time></trkpt><trkpt lat="43.3434033" lon="12.998245"><ele>243.0</ele><time>2026-04-11T12:01:38.007Z</time></trkpt><trkpt lat="43.3432367" lon="12.9982683"><ele>243.0</ele><time>2026-04-11T12:01:39.007Z</time></trkpt><trkpt lat="43.34305" lon="12.998285"><ele>243.0</ele><time>2026-04-11T12:01:40.006Z</time></trkpt><trkpt lat="43.3428717" lon="12.9983117"><ele>243.0</ele><time>2026-04-11T12:01:41.005Z</time></trkpt><trkpt lat="43.342695" lon="12.9983283"><ele>246.33333333333331</ele><time>2026-04-11T12:01:42.007Z</time></trkpt><trkpt lat="43.34252" lon="12.9983533"><ele>249.66666666666666</ele><time>2026-04-11T12:01:43.007Z</time></trkpt><trkpt lat="43.342345" lon="12.9983767"><ele>253.0</ele><time>2026-04-11T12:01:44.007Z</time></trkpt><trkpt lat="43.3421733" lon="12.9983983"><ele>253.66666666666666</ele><time>2026-04-11T12:01:45.007Z</time></trkpt><trkpt lat="43.342005" lon="12.9984183"><ele>254.33333333333331</ele><time>2026-04-11T12:01:46.008Z</time></trkpt><trkpt lat="43.3418433" lon="12.998445"><ele>255.0</ele><time>2026-04-11T12:01:47.007Z</time></trkpt><trkpt lat="43.3416783" lon="12.9984683"><ele>255.0</ele><time>2026-04-11T12:01:48.006Z</time></trkpt><trkpt lat="43.3415083" lon="12.99849"><ele>255.0</ele><time>2026-04-11T12:01:49.007Z</time></trkpt><trkpt lat="43.34134" lon="12.9985117"><ele>255.0</ele><time>2026-04-11T12:01:50.007Z</time></trkpt><trkpt lat="43.3411683" lon="12.998535"><ele>254.33333333333331</ele><time>2026-04-11T12:01:51.008Z</time></trkpt><trkpt lat="43.3409967" lon="12.9985567"><ele>253.66666666666666</ele><time>2026-04-11T12:01:52.007Z</time></trkpt><trkpt lat="43.340825" lon="12.998575"><ele>253.0</ele><time>2026-04-11T12:01:53.007Z</time></trkpt><trkpt lat="43.3406517" lon="12.9985867"><ele>253.33333333333331</ele><time>2026-04-11T12:01:54.007Z</time></trkpt><trkpt lat="43.3404817" lon="12.9986083"><ele>253.66666666666669</ele><time>2026-04-11T12:01:55.007Z</time></trkpt><trkpt lat="43.3403133" lon="12.9986367"><ele>254.0</ele><time>2026-04-11T12:01:56.009Z</time></trkpt><trkpt lat="43.3401383" lon="12.99866"><ele>254.0</ele><time>2026-04-11T12:01:57.008Z</time></trkpt><trkpt lat="43.3399633" lon="12.99868"><ele>254.0</ele><time>2026-04-11T12:01:58.007Z</time></trkpt><trkpt lat="43.339785" lon="12.998695"><ele>254.0</ele><time>2026-04-11T12:01:59.007Z</time></trkpt><trkpt lat="43.3396017" lon="12.9987167"><ele>253.66666666666669</ele><time>2026-04-11T12:02:00.009Z</time></trkpt><trkpt lat="43.3394167" lon="12.9987433"><ele>253.33333333333331</ele><time>2026-04-11T12:02:01.007Z</time></trkpt><trkpt lat="43.33923" lon="12.998765"><ele>253.0</ele><time>2026-04-11T12:02:02.008Z</time></trkpt><trkpt lat="43.33905" lon="12.99879"><ele>252.33333333333331</ele><time>2026-04-11T12:02:03.007Z</time></trkpt><trkpt lat="43.33887" lon="12.998815"><ele>251.66666666666669</ele><time>2026-04-11T12:02:04.008Z</time></trkpt><trkpt lat="43.33869" lon="12.9988367"><ele>251.0</ele><time>2026-04-11T12:02:05.006Z</time></trkpt><trkpt lat="43.3385083" lon="12.9988617"><ele>251.0</ele><time>2026-04-11T12:02:06.008Z</time></trkpt><trkpt lat="43.3383217" lon="12.9988883"><ele>251.0</ele><time>2026-04-11T12:02:07.006Z</time></trkpt><trkpt lat="43.3381333" lon="12.9989167"><ele>251.0</ele><time>2026-04-11T12:02:08.007Z</time></trkpt><trkpt lat="43.33794" lon="12.998945"><ele>250.33333333333334</ele><time>2026-04-11T12:02:09.007Z</time></trkpt><trkpt lat="43.3377483" lon="12.9989717"><ele>249.66666666666669</ele><time>2026-04-11T12:02:10.008Z</time></trkpt><trkpt lat="43.3375567" lon="12.998995"><ele>249.0</ele><time>2026-04-11T12:02:11.007Z</time></trkpt><trkpt lat="43.337365" lon="12.9990133"><ele>249.33333333333331</ele><time>2026-04-11T12:02:12.004Z</time></trkpt><trkpt lat="43.3371717" lon="12.9990283"><ele>249.66666666666666</ele><time>2026-04-11T12:02:13.006Z</time></trkpt><trkpt lat="43.33698" lon="12.999035"><ele>250.0</ele><time>2026-04-11T12:02:14.008Z</time></trkpt><trkpt lat="43.3367883" lon="12.99903"><ele>250.0</ele><time>2026-04-11T12:02:15.009Z</time></trkpt><trkpt lat="43.3365983" lon="12.9990167"><ele>250.0</ele><time>2026-04-11T12:02:16.009Z</time></trkpt><trkpt lat="43.3364117" lon="12.9989967"><ele>250.0</ele><time>2026-04-11T12:02:17.007Z</time></trkpt><trkpt lat="43.336225" lon="12.99897"><ele>251.33333333333331</ele><time>2026-04-11T12:02:18.008Z</time></trkpt><trkpt lat="43.3360417" lon="12.998935"><ele>252.66666666666669</ele><time>2026-04-11T12:02:19.007Z</time></trkpt><trkpt lat="43.3358567" lon="12.9988933"><ele>254.0</ele><time>2026-04-11T12:02:20.007Z</time></trkpt><trkpt lat="43.3356767" lon="12.9988433"><ele>255.66666666666669</ele><time>2026-04-11T12:02:21.009Z</time></trkpt><trkpt lat="43.3354983" lon="12.9987833"><ele>257.3333333333333</ele><time>2026-04-11T12:02:22.007Z</time></trkpt><trkpt lat="43.33532" lon="12.9987117"><ele>259.0</ele><time>2026-04-11T12:02:23.007Z</time></trkpt><trkpt lat="43.33514" lon="12.9986333"><ele>259.0</ele><time>2026-04-11T12:02:24.008Z</time></trkpt><trkpt lat="43.3349567" lon="12.9985433"><ele>259.0</ele><time>2026-04-11T12:02:25.008Z</time></trkpt><trkpt lat="43.3347717" lon="12.9984467"><ele>259.0</ele><time>2026-04-11T12:02:26.008Z</time></trkpt><trkpt lat="43.3345883" lon="12.9983417"><ele>257.0</ele><time>2026-04-11T12:02:27.009Z</time></trkpt><trkpt lat="43.33441" lon="12.998225"><ele>255.0</ele><time>2026-04-11T12:02:28.008Z</time></trkpt><trkpt lat="43.334235" lon="12.9981017"><ele>253.0</ele><time>2026-04-11T12:02:29.007Z</time></trkpt><trkpt lat="43.3340617" lon="12.99797"><ele>253.0</ele><time>2026-04-11T12:02:30.008Z</time></trkpt><trkpt lat="43.3338917" lon="12.9978267"><ele>253.0</ele><time>2026-04-11T12:02:31.004Z</time></trkpt><trkpt lat="43.3337217" lon="12.9976767"><ele>253.0</ele><time>2026-04-11T12:02:32.008Z</time></trkpt><trkpt lat="43.3335583" lon="12.9975217"><ele>253.0</ele><time>2026-04-11T12:02:33.008Z</time></trkpt><trkpt lat="43.3333967" lon="12.997365"><ele>253.0</ele><time>2026-04-11T12:02:34.011Z</time></trkpt><trkpt lat="43.33324" lon="12.9972067"><ele>253.0</ele><time>2026-04-11T12:02:35.007Z</time></trkpt><trkpt lat="43.3330833" lon="12.9970483"><ele>252.66666666666666</ele><time>2026-04-11T12:02:36.007Z</time></trkpt><trkpt lat="43.332925" lon="12.9968917"><ele>252.33333333333331</ele><time>2026-04-11T12:02:37.009Z</time></trkpt><trkpt lat="43.3327683" lon="12.996735"><ele>252.0</ele><time>2026-04-11T12:02:38.007Z</time></trkpt><trkpt lat="43.33261" lon="12.99658"><ele>252.0</ele><time>2026-04-11T12:02:39.009Z</time></trkpt><trkpt lat="43.33245" lon="12.996425"><ele>252.0</ele><time>2026-04-11T12:02:40.007Z</time></trkpt><trkpt lat="43.3322883" lon="12.9962683"><ele>252.0</ele><time>2026-04-11T12:02:41.006Z</time></trkpt><trkpt lat="43.3321283" lon="12.9961133"><ele>252.33333333333331</ele><time>2026-04-11T12:02:42.007Z</time></trkpt><trkpt lat="43.3319683" lon="12.99596"><ele>252.66666666666666</ele><time>2026-04-11T12:02:43.007Z</time></trkpt><trkpt lat="43.33181" lon="12.9958067"><ele>253.0</ele><time>2026-04-11T12:02:44.007Z</time></trkpt><trkpt lat="43.3316533" lon="12.9956517"><ele>253.0</ele><time>2026-04-11T12:02:45.009Z</time></trkpt><trkpt lat="43.3315" lon="12.9954917"><ele>253.0</ele><time>2026-04-11T12:02:46.008Z</time></trkpt><trkpt lat="43.33135" lon="12.9953267"><ele>253.0</ele><time>2026-04-11T12:02:47.007Z</time></trkpt><trkpt lat="43.3311983" lon="12.9951617"><ele>253.0</ele><time>2026-04-11T12:02:48.007Z</time></trkpt><trkpt lat="43.331045" lon="12.9949983"><ele>253.0</ele><time>2026-04-11T12:02:49.007Z</time></trkpt><trkpt lat="43.33089" lon="12.99484"><ele>253.0</ele><time>2026-04-11T12:02:50.007Z</time></trkpt><trkpt lat="43.33073" lon="12.9946833"><ele>253.0</ele><time>2026-04-11T12:02:51.007Z</time></trkpt><trkpt lat="43.33057" lon="12.9945267"><ele>253.0</ele><time>2026-04-11T12:02:52.007Z</time></trkpt><trkpt lat="43.3304083" lon="12.9943717"><ele>253.0</ele><time>2026-04-11T12:02:53.006Z</time></trkpt><trkpt lat="43.3302483" lon="12.9942167"><ele>253.66666666666666</ele><time>2026-04-11T12:02:54.008Z</time></trkpt><trkpt lat="43.3300917" lon="12.99406"><ele>254.33333333333331</ele><time>2026-04-11T12:02:55.007Z</time></trkpt><trkpt lat="43.3299383" lon="12.9939017"><ele>255.0</ele><time>2026-04-11T12:02:56.008Z</time></trkpt><trkpt lat="43.3297817" lon="12.9937433"><ele>255.33333333333331</ele><time>2026-04-11T12:02:57.007Z</time></trkpt><trkpt lat="43.329625" lon="12.993585"><ele>255.66666666666666</ele><time>2026-04-11T12:02:58.009Z</time></trkpt><trkpt lat="43.3294683" lon="12.9934267"><ele>256.0</ele><time>2026-04-11T12:02:59.007Z</time></trkpt><trkpt lat="43.32931" lon="12.9932717"><ele>256.3333333333333</ele><time>2026-04-11T12:03:00.009Z</time></trkpt><trkpt lat="43.329155" lon="12.99312"><ele>256.6666666666667</ele><time>2026-04-11T12:03:01.008Z</time></trkpt><trkpt lat="43.3290067" lon="12.9929733"><ele>257.0</ele><time>2026-04-11T12:03:02.009Z</time></trkpt><trkpt lat="43.32886" lon="12.99283"><ele>258.0</ele><time>2026-04-11T12:03:03.007Z</time></trkpt><trkpt lat="43.3287167" lon="12.99269"><ele>259.0</ele><time>2026-04-11T12:03:04.007Z</time></trkpt><trkpt lat="43.3285733" lon="12.9925517"><ele>260.0</ele><time>2026-04-11T12:03:05.007Z</time></trkpt><trkpt lat="43.3284333" lon="12.9924117"><ele>260.0</ele><time>2026-04-11T12:03:06.008Z</time></trkpt><trkpt lat="43.328295" lon="12.99227"><ele>260.0</ele><time>2026-04-11T12:03:07.009Z</time></trkpt><trkpt lat="43.3281517" lon="12.992125"><ele>260.0</ele><time>2026-04-11T12:03:08.007Z</time></trkpt><trkpt lat="43.3280067" lon="12.99198"><ele>260.33333333333337</ele><time>2026-04-11T12:03:09.007Z</time></trkpt><trkpt lat="43.3278617" lon="12.9918367"><ele>260.6666666666667</ele><time>2026-04-11T12:03:10.009Z</time></trkpt><trkpt lat="43.3277167" lon="12.9916883"><ele>261.0</ele><time>2026-04-11T12:03:11.007Z</time></trkpt><trkpt lat="43.32757" lon="12.99154"><ele>261.0</ele><time>2026-04-11T12:03:12.007Z</time></trkpt><trkpt lat="43.3274217" lon="12.9913917"><ele>261.0</ele><time>2026-04-11T12:03:13.007Z</time></trkpt><trkpt lat="43.3272717" lon="12.99124"><ele>261.0</ele><time>2026-04-11T12:03:14.007Z</time></trkpt><trkpt lat="43.3271217" lon="12.99109"><ele>261.0</ele><time>2026-04-11T12:03:15.01Z</time></trkpt><trkpt lat="43.32697" lon="12.9909383"><ele>261.0</ele><time>2026-04-11T12:03:16.006Z</time></trkpt><trkpt lat="43.32682" lon="12.9907867"><ele>261.0</ele><time>2026-04-11T12:03:17.005Z</time></trkpt><trkpt lat="43.32667" lon="12.990635"><ele>261.0</ele><time>2026-04-11T12:03:18.008Z</time></trkpt><trkpt lat="43.3265183" lon="12.9904833"><ele>261.0</ele><time>2026-04-11T12:03:19.009Z</time></trkpt><trkpt lat="43.3263633" lon="12.9903317"><ele>261.0</ele><time>2026-04-11T12:03:20.005Z</time></trkpt><trkpt lat="43.326215" lon="12.9901833"><ele>261.0</ele><time>2026-04-11T12:03:21.006Z</time></trkpt><trkpt lat="43.3260717" lon="12.990035"><ele>261.0</ele><time>2026-04-11T12:03:22.008Z</time></trkpt><trkpt lat="43.32593" lon="12.989895"><ele>261.0</ele><time>2026-04-11T12:03:23.007Z</time></trkpt><trkpt lat="43.3257933" lon="12.98976"><ele>260.6666666666667</ele><time>2026-04-11T12:03:24.008Z</time></trkpt><trkpt lat="43.3256567" lon="12.9896283"><ele>260.33333333333337</ele><time>2026-04-11T12:03:25.007Z</time></trkpt><trkpt lat="43.32552" lon="12.9894917"><ele>260.0</ele><time>2026-04-11T12:03:26.008Z</time></trkpt><trkpt lat="43.3253783" lon="12.9893533"><ele>261.0</ele><time>2026-04-11T12:03:27.009Z</time></trkpt><trkpt lat="43.32524" lon="12.9892267"><ele>262.0</ele><time>2026-04-11T12:03:28.008Z</time></trkpt><trkpt lat="43.3251083" lon="12.9890983"><ele>263.0</ele><time>2026-04-11T12:03:29.002Z</time></trkpt><trkpt lat="43.3249783" lon="12.988965"><ele>263.33333333333337</ele><time>2026-04-11T12:03:30.009Z</time></trkpt><trkpt lat="43.3248433" lon="12.98883"><ele>263.6666666666667</ele><time>2026-04-11T12:03:31.009Z</time></trkpt><trkpt lat="43.3247067" lon="12.9886917"><ele>264.0</ele><time>2026-04-11T12:03:32.008Z</time></trkpt><trkpt lat="43.324565" lon="12.9885517"><ele>265.0</ele><time>2026-04-11T12:03:33.007Z</time></trkpt><trkpt lat="43.3244217" lon="12.9884067"><ele>266.0</ele><time>2026-04-11T12:03:34.008Z</time></trkpt><trkpt lat="43.324275" lon="12.9882583"><ele>267.0</ele><time>2026-04-11T12:03:35.008Z</time></trkpt><trkpt lat="43.32413" lon="12.98811"><ele>267.0</ele><time>2026-04-11T12:03:36.009Z</time></trkpt><trkpt lat="43.3239833" lon="12.9879617"><ele>267.0</ele><time>2026-04-11T12:03:37.007Z</time></trkpt><trkpt lat="43.3238367" lon="12.98781"><ele>267.0</ele><time>2026-04-11T12:03:38.008Z</time></trkpt><trkpt lat="43.32369" lon="12.9876617"><ele>267.3333333333333</ele><time>2026-04-11T12:03:39.008Z</time></trkpt><trkpt lat="43.323545" lon="12.987515"><ele>267.66666666666663</ele><time>2026-04-11T12:03:40.01Z</time></trkpt><trkpt lat="43.3234017" lon="12.9873667"><ele>268.0</ele><time>2026-04-11T12:03:41.006Z</time></trkpt><trkpt lat="43.32326" lon="12.9872217"><ele>268.3333333333333</ele><time>2026-04-11T12:03:42.006Z</time></trkpt><trkpt lat="43.3231167" lon="12.9870733"><ele>268.6666666666667</ele><time>2026-04-11T12:03:43.006Z</time></trkpt><trkpt lat="43.3229767" lon="12.9869267"><ele>269.0</ele><time>2026-04-11T12:03:44.008Z</time></trkpt><trkpt lat="43.3228367" lon="12.9867767"><ele>268.6666666666667</ele><time>2026-04-11T12:03:45.007Z</time></trkpt><trkpt lat="43.3227" lon="12.98663"><ele>268.3333333333333</ele><time>2026-04-11T12:03:46.006Z</time></trkpt><trkpt lat="43.3225633" lon="12.9864933"><ele>268.0</ele><time>2026-04-11T12:03:47.007Z</time></trkpt><trkpt lat="43.3224267" lon="12.98636"><ele>268.0</ele><time>2026-04-11T12:03:48.007Z</time></trkpt><trkpt lat="43.3222883" lon="12.9862267"><ele>268.0</ele><time>2026-04-11T12:03:49.009Z</time></trkpt><trkpt lat="43.3221483" lon="12.9860983"><ele>268.0</ele><time>2026-04-11T12:03:50.009Z</time></trkpt><trkpt lat="43.32201" lon="12.9859717"><ele>269.3333333333333</ele><time>2026-04-11T12:03:51.008Z</time></trkpt><trkpt lat="43.3218767" lon="12.9858433"><ele>270.6666666666667</ele><time>2026-04-11T12:03:52.007Z</time></trkpt><trkpt lat="43.3217317" lon="12.9857317"><ele>272.0</ele><time>2026-04-11T12:03:53.007Z</time></trkpt><trkpt lat="43.3215783" lon="12.98564"><ele>272.0</ele><time>2026-04-11T12:03:54.007Z</time></trkpt><trkpt lat="43.32142" lon="12.98558"><ele>272.0</ele><time>2026-04-11T12:03:55.008Z</time></trkpt><trkpt lat="43.3212633" lon="12.9855433"><ele>272.0</ele><time>2026-04-11T12:03:56.007Z</time></trkpt><trkpt lat="43.32111" lon="12.9855183"><ele>272.25</ele><time>2026-04-11T12:03:57.009Z</time></trkpt><trkpt lat="43.3209683" lon="12.9854933"><ele>272.5</ele><time>2026-04-11T12:03:58.007Z</time></trkpt><trkpt lat="43.32084" lon="12.9854667"><ele>272.75</ele><time>2026-04-11T12:03:59.006Z</time></trkpt><trkpt lat="43.32073" lon="12.9854383"><ele>273.0</ele><time>2026-04-11T12:04:00.009Z</time></trkpt><trkpt lat="43.3206517" lon="12.9853867"><ele>273.0</ele><time>2026-04-11T12:04:01.008Z</time></trkpt><trkpt lat="43.3205967" lon="12.985315"><ele>273.0</ele><time>2026-04-11T12:04:02.008Z</time></trkpt><trkpt lat="43.3205617" lon="12.9852167"><ele>273.0</ele><time>2026-04-11T12:04:03.008Z</time></trkpt><trkpt lat="43.32055" lon="12.985095"><ele>273.0</ele><time>2026-04-11T12:04:04.006Z</time></trkpt><trkpt lat="43.32056" lon="12.9849517"><ele>273.0</ele><time>2026-04-11T12:04:05.007Z</time></trkpt><trkpt lat="43.3205933" lon="12.9848067"><ele>273.0</ele><time>2026-04-11T12:04:06.008Z</time></trkpt><trkpt lat="43.320675" lon="12.9846533"><ele>273.0</ele><time>2026-04-11T12:04:07.009Z</time></trkpt><trkpt lat="43.3207583" lon="12.9844817"><ele>273.0</ele><time>2026-04-11T12:04:08.008Z</time></trkpt><trkpt lat="43.3208567" lon="12.9843133"><ele>273.0</ele><time>2026-04-11T12:04:09.009Z</time></trkpt><trkpt lat="43.3209567" lon="12.98414"><ele>273.0</ele><time>2026-04-11T12:04:10.008Z</time></trkpt><trkpt lat="43.3210583" lon="12.983965"><ele>273.0</ele><time>2026-04-11T12:04:11.005Z</time></trkpt><trkpt lat="43.32116" lon="12.983795"><ele>273.0</ele><time>2026-04-11T12:04:12.007Z</time></trkpt><trkpt lat="43.3212517" lon="12.98364"><ele>273.0</ele><time>2026-04-11T12:04:13.007Z</time></trkpt><trkpt lat="43.321345" lon="12.9835033"><ele>273.0</ele><time>2026-04-11T12:04:14.008Z</time></trkpt><trkpt lat="43.321445" lon="12.983395"><ele>273.0</ele><time>2026-04-11T12:04:15.009Z</time></trkpt><trkpt lat="43.321555" lon="12.9833267"><ele>273.0</ele><time>2026-04-11T12:04:16.008Z</time></trkpt><trkpt lat="43.32167" lon="12.98331"><ele>273.5</ele><time>2026-04-11T12:04:17.007Z</time></trkpt><trkpt lat="43.321785" lon="12.9833367"><ele>274.0</ele><time>2026-04-11T12:04:18.008Z</time></trkpt><trkpt lat="43.3219017" lon="12.9833917"><ele>274.5</ele><time>2026-04-11T12:04:19.009Z</time></trkpt><trkpt lat="43.32201" lon="12.98348"><ele>275.0</ele><time>2026-04-11T12:04:20.007Z</time></trkpt><trkpt lat="43.3221083" lon="12.983585"><ele>275.0</ele><time>2026-04-11T12:04:21.009Z</time></trkpt><trkpt lat="43.3221967" lon="12.9836933"><ele>275.0</ele><time>2026-04-11T12:04:22.007Z</time></trkpt><trkpt lat="43.322275" lon="12.9837967"><ele>275.0</ele><time>2026-04-11T12:04:23.004Z</time></trkpt><trkpt lat="43.3223383" lon="12.983885"><ele>275.0</ele><time>2026-04-11T12:04:24.008Z</time></trkpt><trkpt lat="43.32239" lon="12.983945"><ele>275.0</ele><time>2026-04-11T12:04:25.007Z</time></trkpt><trkpt lat="43.3224567" lon="12.984005"><ele>274.5</ele><time>2026-04-11T12:04:27.007Z</time></trkpt><trkpt lat="43.32253" lon="12.984035"><ele>274.0</ele><time>2026-04-11T12:04:29.007Z</time></trkpt><trkpt lat="43.3226133" lon="12.9840583"><ele>273.5</ele><time>2026-04-11T12:04:32.007Z</time></trkpt><trkpt lat="43.3226833" lon="12.98409"><ele>273.0</ele><time>2026-04-11T12:04:35.007Z</time></trkpt><trkpt lat="43.32261" lon="12.9840217"><ele>272.5</ele><time>2026-04-11T12:07:55.004Z</time></trkpt><trkpt lat="43.3226" lon="12.9841117"><ele>272.0</ele><time>2026-04-11T12:07:57.008Z</time></trkpt><trkpt lat="43.3226783" lon="12.9842167"><ele>272.0</ele><time>2026-04-11T12:07:59.006Z</time></trkpt><trkpt lat="43.3227917" lon="12.98425"><ele>272.0</ele><time>2026-04-11T12:08:01.005Z</time></trkpt><trkpt lat="43.3228533" lon="12.9842317"><ele>272.0</ele><time>2026-04-11T12:08:02.004Z</time></trkpt><trkpt lat="43.3229183" lon="12.984195"><ele>272.0</ele><time>2026-04-11T12:08:03.006Z</time></trkpt><trkpt lat="43.3229717" lon="12.9841383"><ele>272.0</ele><time>2026-04-11T12:08:04.001Z</time></trkpt><trkpt lat="43.32296" lon="12.9840133"><ele>272.0</ele><time>2026-04-11T12:08:05.005Z</time></trkpt><trkpt lat="43.3229033" lon="12.98388"><ele>271.0</ele><time>2026-04-11T12:08:06.007Z</time></trkpt><trkpt lat="43.3228367" lon="12.98373"><ele>270.0</ele><time>2026-04-11T12:08:07.004Z</time></trkpt><trkpt lat="43.3227683" lon="12.9835733"><ele>269.0</ele><time>2026-04-11T12:08:08.004Z</time></trkpt><trkpt lat="43.3227067" lon="12.9834167"><ele>268.0</ele><time>2026-04-11T12:08:09.005Z</time></trkpt><trkpt lat="43.32265" lon="12.9832583"><ele>265.25</ele><time>2026-04-11T12:08:10.006Z</time></trkpt><trkpt lat="43.3225933" lon="12.9830917"><ele>262.5</ele><time>2026-04-11T12:08:11.004Z</time></trkpt><trkpt lat="43.3225383" lon="12.9829183"><ele>259.75</ele><time>2026-04-11T12:08:12.006Z</time></trkpt><trkpt lat="43.32249" lon="12.98275"><ele>257.0</ele><time>2026-04-11T12:08:13.005Z</time></trkpt><trkpt lat="43.3224417" lon="12.9825883"><ele>257.0</ele><time>2026-04-11T12:08:14.006Z</time></trkpt><trkpt lat="43.32239" lon="12.9824333"><ele>257.0</ele><time>2026-04-11T12:08:15.006Z</time></trkpt><trkpt lat="43.3223317" lon="12.9822967"><ele>257.0</ele><time>2026-04-11T12:08:16.005Z</time></trkpt><trkpt lat="43.3222667" lon="12.9821967"><ele>257.0</ele><time>2026-04-11T12:08:17.005Z</time></trkpt><trkpt lat="43.3222" lon="12.9821283"><ele>257.0</ele><time>2026-04-11T12:08:18.006Z</time></trkpt><trkpt lat="43.32213" lon="12.9820983"><ele>257.0</ele><time>2026-04-11T12:08:19.006Z</time></trkpt><trkpt lat="43.3220567" lon="12.9821067"><ele>257.0</ele><time>2026-04-11T12:08:20.005Z</time></trkpt><trkpt lat="43.321985" lon="12.982125"><ele>257.0</ele><time>2026-04-11T12:08:21.007Z</time></trkpt><trkpt lat="43.3219067" lon="12.9821433"><ele>257.0</ele><time>2026-04-11T12:08:22.004Z</time></trkpt><trkpt lat="43.3218333" lon="12.9821517"><ele>257.0</ele><time>2026-04-11T12:08:23.006Z</time></trkpt><trkpt lat="43.321735" lon="12.9821617"><ele>257.0</ele><time>2026-04-11T12:08:25.006Z</time></trkpt><trkpt lat="43.3216733" lon="12.982065"><ele>257.0</ele><time>2026-04-11T12:08:27.006Z</time></trkpt><trkpt lat="43.3216567" lon="12.9819433"><ele>257.0</ele><time>2026-04-11T12:08:28.005Z</time></trkpt><trkpt lat="43.3216383" lon="12.9817967"><ele>257.0</ele><time>2026-04-11T12:08:29.006Z</time></trkpt><trkpt lat="43.32162" lon="12.9816333"><ele>257.0</ele><time>2026-04-11T12:08:30.005Z</time></trkpt><trkpt lat="43.3216117" lon="12.9814667"><ele>257.0</ele><time>2026-04-11T12:08:31.006Z</time></trkpt><trkpt lat="43.3216283" lon="12.981305"><ele>256.2</ele><time>2026-04-11T12:08:32.006Z</time></trkpt><trkpt lat="43.3216767" lon="12.9811633"><ele>255.39999999999998</ele><time>2026-04-11T12:08:33.006Z</time></trkpt><trkpt lat="43.3217467" lon="12.9810417"><ele>254.60000000000002</ele><time>2026-04-11T12:08:34.005Z</time></trkpt><trkpt lat="43.3218067" lon="12.98093"><ele>253.8</ele><time>2026-04-11T12:08:35.006Z</time></trkpt><trkpt lat="43.32184" lon="12.9808267"><ele>253.0</ele><time>2026-04-11T12:08:36.007Z</time></trkpt><trkpt lat="43.3218367" lon="12.9807267"><ele>252.99999999999997</ele><time>2026-04-11T12:08:37.006Z</time></trkpt><trkpt lat="43.3217983" lon="12.9806383"><ele>253.0</ele><time>2026-04-11T12:08:38.006Z</time></trkpt><trkpt lat="43.3217267" lon="12.9805767"><ele>253.0</ele><time>2026-04-11T12:08:39.007Z</time></trkpt><trkpt lat="43.321645" lon="12.9805267"><ele>253.0</ele><time>2026-04-11T12:08:40.006Z</time></trkpt><trkpt lat="43.3215633" lon="12.9804717"><ele>252.99999999999997</ele><time>2026-04-11T12:08:41.005Z</time></trkpt><trkpt lat="43.3214933" lon="12.980395"><ele>253.0</ele><time>2026-04-11T12:08:42.006Z</time></trkpt><trkpt lat="43.3214433" lon="12.9802883"><ele>253.0</ele><time>2026-04-11T12:08:43.007Z</time></trkpt><trkpt lat="43.3214117" lon="12.9801683"><ele>253.0</ele><time>2026-04-11T12:08:44.005Z</time></trkpt><trkpt lat="43.32139" lon="12.9800433"><ele>253.0</ele><time>2026-04-11T12:08:45.007Z</time></trkpt><trkpt lat="43.32137" lon="12.9799083"><ele>253.0</ele><time>2026-04-11T12:08:46.001Z</time></trkpt><trkpt lat="43.3213467" lon="12.9797633"><ele>253.0</ele><time>2026-04-11T12:08:47Z</time></trkpt><trkpt lat="43.3213183" lon="12.9796167"><ele>254.0</ele><time>2026-04-11T12:08:48Z</time></trkpt><trkpt lat="43.3212783" lon="12.9794667"><ele>255.0</ele><time>2026-04-11T12:08:49Z</time></trkpt><trkpt lat="43.3212233" lon="12.9793183"><ele>256.0</ele><time>2026-04-11T12:08:50.005Z</time></trkpt><trkpt lat="43.3211567" lon="12.9791783"><ele>257.0</ele><time>2026-04-11T12:08:51.007Z</time></trkpt><trkpt lat="43.3210817" lon="12.9790467"><ele>257.4</ele><time>2026-04-11T12:08:52.003Z</time></trkpt><trkpt lat="43.3210083" lon="12.9789233"><ele>257.79999999999995</ele><time>2026-04-11T12:08:53.005Z</time></trkpt><trkpt lat="43.320945" lon="12.9788117"><ele>258.2</ele><time>2026-04-11T12:08:54.006Z</time></trkpt><trkpt lat="43.3208967" lon="12.9787067"><ele>258.59999999999997</ele><time>2026-04-11T12:08:55.005Z</time></trkpt><trkpt lat="43.3208683" lon="12.9786"><ele>259.0</ele><time>2026-04-11T12:08:56.005Z</time></trkpt><trkpt lat="43.3208717" lon="12.9784983"><ele>259.0</ele><time>2026-04-11T12:08:57.007Z</time></trkpt><trkpt lat="43.320885" lon="12.9784017"><ele>259.0</ele><time>2026-04-11T12:08:58.005Z</time></trkpt><trkpt lat="43.3208917" lon="12.9783133"><ele>259.0</ele><time>2026-04-11T12:08:59.006Z</time></trkpt><trkpt lat="43.3208733" lon="12.9782267"><ele>259.0</ele><time>2026-04-11T12:09:00.001Z</time></trkpt><trkpt lat="43.3207833" lon="12.9781467"><ele>259.0</ele><time>2026-04-11T12:09:02.005Z</time></trkpt><trkpt lat="43.3207217" lon="12.9781667"><ele>259.0</ele><time>2026-04-11T12:09:03.006Z</time></trkpt><trkpt lat="43.3206533" lon="12.9782017"><ele>259.0</ele><time>2026-04-11T12:09:04.005Z</time></trkpt><trkpt lat="43.32057" lon="12.9782333"><ele>258.59999999999997</ele><time>2026-04-11T12:09:05.006Z</time></trkpt><trkpt lat="43.3204883" lon="12.9782467"><ele>258.2</ele><time>2026-04-11T12:09:06.006Z</time></trkpt><trkpt lat="43.3203983" lon="12.97821"><ele>257.79999999999995</ele><time>2026-04-11T12:09:07.006Z</time></trkpt><trkpt lat="43.3202917" lon="12.9781267"><ele>257.4</ele><time>2026-04-11T12:09:08.006Z</time></trkpt><trkpt lat="43.3201717" lon="12.978035"><ele>257.0</ele><time>2026-04-11T12:09:09.007Z</time></trkpt><trkpt lat="43.32004" lon="12.9779467"><ele>257.0</ele><time>2026-04-11T12:09:10.005Z</time></trkpt><trkpt lat="43.3198983" lon="12.9778667"><ele>257.0</ele><time>2026-04-11T12:09:11.007Z</time></trkpt><trkpt lat="43.3197483" lon="12.977795"><ele>257.0</ele><time>2026-04-11T12:09:12.005Z</time></trkpt><trkpt lat="43.3195983" lon="12.9777333"><ele>257.0</ele><time>2026-04-11T12:09:13.006Z</time></trkpt><trkpt lat="43.319445" lon="12.9776833"><ele>257.0</ele><time>2026-04-11T12:09:14.008Z</time></trkpt><trkpt lat="43.31928" lon="12.9776517"><ele>257.0</ele><time>2026-04-11T12:09:15.008Z</time></trkpt><trkpt lat="43.3191133" lon="12.977645"><ele>257.0</ele><time>2026-04-11T12:09:16.004Z</time></trkpt><trkpt lat="43.3189417" lon="12.9776567"><ele>257.0</ele><time>2026-04-11T12:09:17.005Z</time></trkpt><trkpt lat="43.3187683" lon="12.9776733"><ele>257.0</ele><time>2026-04-11T12:09:18.003Z</time></trkpt><trkpt lat="43.3185983" lon="12.977685"><ele>257.0</ele><time>2026-04-11T12:09:19.006Z</time></trkpt><trkpt lat="43.3184267" lon="12.977695"><ele>257.0</ele><time>2026-04-11T12:09:20.006Z</time></trkpt><trkpt lat="43.3182517" lon="12.9777067"><ele>257.0</ele><time>2026-04-11T12:09:21.007Z</time></trkpt><trkpt lat="43.3180767" lon="12.9777183"><ele>257.0</ele><time>2026-04-11T12:09:22.006Z</time></trkpt><trkpt lat="43.3178983" lon="12.97773"><ele>257.0</ele><time>2026-04-11T12:09:23.005Z</time></trkpt><trkpt lat="43.3177217" lon="12.9777417"><ele>257.0</ele><time>2026-04-11T12:09:24.007Z</time></trkpt><trkpt lat="43.3175483" lon="12.977755"><ele>257.0</ele><time>2026-04-11T12:09:25.006Z</time></trkpt><trkpt lat="43.3173783" lon="12.97777"><ele>257.0</ele><time>2026-04-11T12:09:26.005Z</time></trkpt><trkpt lat="43.317205" lon="12.977785"><ele>257.0</ele><time>2026-04-11T12:09:27.008Z</time></trkpt><trkpt lat="43.3170333" lon="12.9778067"><ele>258.0</ele><time>2026-04-11T12:09:28.005Z</time></trkpt><trkpt lat="43.31686" lon="12.9778317"><ele>259.0</ele><time>2026-04-11T12:09:29.005Z</time></trkpt><trkpt lat="43.3166867" lon="12.9778533"><ele>260.0</ele><time>2026-04-11T12:09:30.006Z</time></trkpt><trkpt lat="43.3165167" lon="12.977865"><ele>260.33333333333337</ele><time>2026-04-11T12:09:31.005Z</time></trkpt><trkpt lat="43.3163483" lon="12.9778617"><ele>260.6666666666667</ele><time>2026-04-11T12:09:32.006Z</time></trkpt><trkpt lat="43.3161967" lon="12.9778233"><ele>261.0</ele><time>2026-04-11T12:09:33.007Z</time></trkpt><trkpt lat="43.3160617" lon="12.977735"><ele>261.0</ele><time>2026-04-11T12:09:34.005Z</time></trkpt><trkpt lat="43.31594" lon="12.9776033"><ele>261.0</ele><time>2026-04-11T12:09:35.007Z</time></trkpt><trkpt lat="43.3158267" lon="12.97745"><ele>261.0</ele><time>2026-04-11T12:09:36.006Z</time></trkpt><trkpt lat="43.3157167" lon="12.9772883"><ele>261.5</ele><time>2026-04-11T12:09:37.006Z</time></trkpt><trkpt lat="43.3156183" lon="12.9771183"><ele>262.0</ele><time>2026-04-11T12:09:38.006Z</time></trkpt><trkpt lat="43.3155483" lon="12.9769417"><ele>262.5</ele><time>2026-04-11T12:09:39.007Z</time></trkpt><trkpt lat="43.3155083" lon="12.97675"><ele>263.0</ele><time>2026-04-11T12:09:40.005Z</time></trkpt><trkpt lat="43.31549" lon="12.9765467"><ele>265.33333333333337</ele><time>2026-04-11T12:09:41.006Z</time></trkpt><trkpt lat="43.3154633" lon="12.9763433"><ele>267.6666666666667</ele><time>2026-04-11T12:09:42.006Z</time></trkpt><trkpt lat="43.31541" lon="12.9761483"><ele>270.0</ele><time>2026-04-11T12:09:43.006Z</time></trkpt><trkpt lat="43.31533" lon="12.975965"><ele>271.3333333333333</ele><time>2026-04-11T12:09:44.007Z</time></trkpt><trkpt lat="43.315225" lon="12.9757917"><ele>272.66666666666663</ele><time>2026-04-11T12:09:45.008Z</time></trkpt><trkpt lat="43.3151033" lon="12.9756383"><ele>274.0</ele><time>2026-04-11T12:09:46.006Z</time></trkpt><trkpt lat="43.31497" lon="12.9755"><ele>274.0</ele><time>2026-04-11T12:09:47.006Z</time></trkpt><trkpt lat="43.3148283" lon="12.9753733"><ele>274.0</ele><time>2026-04-11T12:09:48.006Z</time></trkpt><trkpt lat="43.3146833" lon="12.9752583"><ele>274.0</ele><time>2026-04-11T12:09:49.003Z</time></trkpt><trkpt lat="43.31453" lon="12.97515"><ele>274.0</ele><time>2026-04-11T12:09:50.006Z</time></trkpt><trkpt lat="43.3143783" lon="12.9750567"><ele>274.0</ele><time>2026-04-11T12:09:51.006Z</time></trkpt><trkpt lat="43.3142167" lon="12.9749867"><ele>274.0</ele><time>2026-04-11T12:09:52.005Z</time></trkpt><trkpt lat="43.3140533" lon="12.9749467"><ele>274.66666666666663</ele><time>2026-04-11T12:09:53.006Z</time></trkpt><trkpt lat="43.3138867" lon="12.974935"><ele>275.3333333333333</ele><time>2026-04-11T12:09:54.007Z</time></trkpt><trkpt lat="43.3137217" lon="12.97495"><ele>276.0</ele><time>2026-04-11T12:09:55.005Z</time></trkpt><trkpt lat="43.3135633" lon="12.9749933"><ele>275.5</ele><time>2026-04-11T12:09:56.006Z</time></trkpt><trkpt lat="43.3134233" lon="12.9750633"><ele>275.0</ele><time>2026-04-11T12:09:57.007Z</time></trkpt><trkpt lat="43.3133067" lon="12.975145"><ele>274.5</ele><time>2026-04-11T12:09:58.006Z</time></trkpt><trkpt lat="43.31321" lon="12.9752183"><ele>274.0</ele><time>2026-04-11T12:09:59.006Z</time></trkpt><trkpt lat="43.31313" lon="12.9752533"><ele>274.16666666666663</ele><time>2026-04-11T12:10:00.006Z</time></trkpt><trkpt lat="43.3130533" lon="12.9752583"><ele>274.3333333333333</ele><time>2026-04-11T12:10:01.005Z</time></trkpt><trkpt lat="43.3129933" lon="12.9752217"><ele>274.5</ele><time>2026-04-11T12:10:02.006Z</time></trkpt><trkpt lat="43.3129583" lon="12.9751417"><ele>274.6666666666667</ele><time>2026-04-11T12:10:03.007Z</time></trkpt><trkpt lat="43.3129567" lon="12.9749933"><ele>274.83333333333337</ele><time>2026-04-11T12:10:04.005Z</time></trkpt><trkpt lat="43.3129517" lon="12.9748267"><ele>275.0</ele><time>2026-04-11T12:10:05.006Z</time></trkpt><trkpt lat="43.31294" lon="12.9746483"><ele>275.0</ele><time>2026-04-11T12:10:06.006Z</time></trkpt><trkpt lat="43.3129283" lon="12.9744617"><ele>275.0</ele><time>2026-04-11T12:10:07.005Z</time></trkpt><trkpt lat="43.3129117" lon="12.97428"><ele>275.0</ele><time>2026-04-11T12:10:08.006Z</time></trkpt><trkpt lat="43.31288" lon="12.9741167"><ele>275.0</ele><time>2026-04-11T12:10:09.008Z</time></trkpt><trkpt lat="43.3128183" lon="12.9739583"><ele>274.6666666666667</ele><time>2026-04-11T12:10:10.005Z</time></trkpt><trkpt lat="43.3127233" lon="12.9738133"><ele>274.3333333333333</ele><time>2026-04-11T12:10:11.006Z</time></trkpt><trkpt lat="43.312605" lon="12.97368"><ele>274.0</ele><time>2026-04-11T12:10:12.006Z</time></trkpt><trkpt lat="43.312485" lon="12.9735367"><ele>274.0</ele><time>2026-04-11T12:10:13.004Z</time></trkpt><trkpt lat="43.3123733" lon="12.9733767"><ele>274.0</ele><time>2026-04-11T12:10:14.004Z</time></trkpt><trkpt lat="43.3122783" lon="12.9732067"><ele>274.0</ele><time>2026-04-11T12:10:15.006Z</time></trkpt><trkpt lat="43.312195" lon="12.973025"><ele>275.5</ele><time>2026-04-11T12:10:16.007Z</time></trkpt><trkpt lat="43.3121233" lon="12.9728383"><ele>277.0</ele><time>2026-04-11T12:10:17.006Z</time></trkpt><trkpt lat="43.3120633" lon="12.9726633"><ele>278.5</ele><time>2026-04-11T12:10:18.006Z</time></trkpt><trkpt lat="43.3120067" lon="12.97251"><ele>280.0</ele><time>2026-04-11T12:10:19.005Z</time></trkpt><trkpt lat="43.3119433" lon="12.9723817"><ele>280.25</ele><time>2026-04-11T12:10:20.006Z</time></trkpt><trkpt lat="43.3118567" lon="12.972285"><ele>280.5</ele><time>2026-04-11T12:10:21.007Z</time></trkpt><trkpt lat="43.3117467" lon="12.9722233"><ele>280.75</ele><time>2026-04-11T12:10:22.005Z</time></trkpt><trkpt lat="43.311615" lon="12.9721917"><ele>281.0</ele><time>2026-04-11T12:10:23.006Z</time></trkpt><trkpt lat="43.3114683" lon="12.9721817"><ele>284.0</ele><time>2026-04-11T12:10:24.005Z</time></trkpt><trkpt lat="43.31131" lon="12.9721633"><ele>287.0</ele><time>2026-04-11T12:10:25.005Z</time></trkpt><trkpt lat="43.3111533" lon="12.9721233"><ele>290.0</ele><time>2026-04-11T12:10:26.007Z</time></trkpt><trkpt lat="43.311005" lon="12.972055"><ele>290.0</ele><time>2026-04-11T12:10:27.007Z</time></trkpt><trkpt lat="43.3108733" lon="12.9719417"><ele>290.0</ele><time>2026-04-11T12:10:28.005Z</time></trkpt><trkpt lat="43.3107483" lon="12.9718183"><ele>290.0</ele><time>2026-04-11T12:10:29.005Z</time></trkpt><trkpt lat="43.310615" lon="12.9717133"><ele>294.6666666666667</ele><time>2026-04-11T12:10:30.007Z</time></trkpt><trkpt lat="43.3104783" lon="12.9716217"><ele>299.3333333333333</ele><time>2026-04-11T12:10:31.006Z</time></trkpt><trkpt lat="43.3103417" lon="12.97153"><ele>304.0</ele><time>2026-04-11T12:10:32.006Z</time></trkpt><trkpt lat="43.3102017" lon="12.9714367"><ele>304.0</ele><time>2026-04-11T12:10:33.007Z</time></trkpt><trkpt lat="43.3100617" lon="12.9713483"><ele>304.0</ele><time>2026-04-11T12:10:34.006Z</time></trkpt><trkpt lat="43.3099267" lon="12.9712667"><ele>304.0</ele><time>2026-04-11T12:10:35.006Z</time></trkpt><trkpt lat="43.30979" lon="12.9711883"><ele>305.75</ele><time>2026-04-11T12:10:36.005Z</time></trkpt><trkpt lat="43.3096567" lon="12.9711067"><ele>307.5</ele><time>2026-04-11T12:10:37.006Z</time></trkpt><trkpt lat="43.309535" lon="12.971015"><ele>309.25</ele><time>2026-04-11T12:10:38.006Z</time></trkpt><trkpt lat="43.3094133" lon="12.9709267"><ele>311.0</ele><time>2026-04-11T12:10:39.008Z</time></trkpt><trkpt lat="43.3092883" lon="12.970845"><ele>312.5</ele><time>2026-04-11T12:10:40.006Z</time></trkpt><trkpt lat="43.3091567" lon="12.9707883"><ele>314.0</ele><time>2026-04-11T12:10:41.005Z</time></trkpt><trkpt lat="43.3090183" lon="12.9707717"><ele>315.5</ele><time>2026-04-11T12:10:42.006Z</time></trkpt><trkpt lat="43.3088767" lon="12.970795"><ele>317.0</ele><time>2026-04-11T12:10:43.006Z</time></trkpt><trkpt lat="43.3087317" lon="12.970835"><ele>317.6666666666667</ele><time>2026-04-11T12:10:44.006Z</time></trkpt><trkpt lat="43.3085817" lon="12.9708667"><ele>318.3333333333333</ele><time>2026-04-11T12:10:45.007Z</time></trkpt><trkpt lat="43.3084317" lon="12.9708667"><ele>319.0</ele><time>2026-04-11T12:10:46.005Z</time></trkpt><trkpt lat="43.3082817" lon="12.970835"><ele>320.5</ele><time>2026-04-11T12:10:47.006Z</time></trkpt><trkpt lat="43.3081367" lon="12.9707783"><ele>322.0</ele><time>2026-04-11T12:10:48.006Z</time></trkpt><trkpt lat="43.3079933" lon="12.9707183"><ele>323.5</ele><time>2026-04-11T12:10:49.006Z</time></trkpt><trkpt lat="43.3078483" lon="12.9706733"><ele>325.0</ele><time>2026-04-11T12:10:50.006Z</time></trkpt><trkpt lat="43.3077017" lon="12.9706417"><ele>327.66666666666663</ele><time>2026-04-11T12:10:51.006Z</time></trkpt><trkpt lat="43.3075517" lon="12.970615"><ele>330.3333333333333</ele><time>2026-04-11T12:10:52.007Z</time></trkpt><trkpt lat="43.3074" lon="12.9705917"><ele>333.0</ele><time>2026-04-11T12:10:53.006Z</time></trkpt><trkpt lat="43.3072467" lon="12.9705717"><ele>334.3333333333333</ele><time>2026-04-11T12:10:54.007Z</time></trkpt><trkpt lat="43.307095" lon="12.9705367"><ele>335.66666666666663</ele><time>2026-04-11T12:10:55.006Z</time></trkpt><trkpt lat="43.3069467" lon="12.97049"><ele>337.0</ele><time>2026-04-11T12:10:56.006Z</time></trkpt><trkpt lat="43.306805" lon="12.9704417"><ele>337.0</ele><time>2026-04-11T12:10:57.006Z</time></trkpt><trkpt lat="43.3066717" lon="12.9704033"><ele>337.0</ele><time>2026-04-11T12:10:58.005Z</time></trkpt><trkpt lat="43.3065483" lon="12.9703683"><ele>337.0</ele><time>2026-04-11T12:10:59.005Z</time></trkpt><trkpt lat="43.3064333" lon="12.97034"><ele>337.0</ele><time>2026-04-11T12:11:00.006Z</time></trkpt><trkpt lat="43.30632" lon="12.9703133"><ele>338.40000000000003</ele><time>2026-04-11T12:11:01.003Z</time></trkpt><trkpt lat="43.3062083" lon="12.9702933"><ele>339.8</ele><time>2026-04-11T12:11:02.005Z</time></trkpt><trkpt lat="43.306105" lon="12.970275"><ele>341.2</ele><time>2026-04-11T12:11:03.007Z</time></trkpt><trkpt lat="43.3060083" lon="12.9702567"><ele>342.6</ele><time>2026-04-11T12:11:04.004Z</time></trkpt><trkpt lat="43.3059133" lon="12.9702333"><ele>344.0</ele><time>2026-04-11T12:11:05.005Z</time></trkpt><trkpt lat="43.30582" lon="12.97019"><ele>344.0</ele><time>2026-04-11T12:11:06.007Z</time></trkpt><trkpt lat="43.305725" lon="12.9701417"><ele>344.0</ele><time>2026-04-11T12:11:07.005Z</time></trkpt><trkpt lat="43.3056267" lon="12.970085"><ele>344.0</ele><time>2026-04-11T12:11:08.006Z</time></trkpt><trkpt lat="43.3055283" lon="12.9700267"><ele>344.0</ele><time>2026-04-11T12:11:09.007Z</time></trkpt><trkpt lat="43.3054267" lon="12.9699767"><ele>344.0</ele><time>2026-04-11T12:11:10.005Z</time></trkpt><trkpt lat="43.3053283" lon="12.9699433"><ele>345.25</ele><time>2026-04-11T12:11:11.006Z</time></trkpt><trkpt lat="43.3052217" lon="12.969945"><ele>346.5</ele><time>2026-04-11T12:11:12.006Z</time></trkpt><trkpt lat="43.305105" lon="12.9699833"><ele>347.75</ele><time>2026-04-11T12:11:13.005Z</time></trkpt><trkpt lat="43.3049917" lon="12.9700383"><ele>349.0</ele><time>2026-04-11T12:11:14.004Z</time></trkpt><trkpt lat="43.3048783" lon="12.970115"><ele>349.0</ele><time>2026-04-11T12:11:15.007Z</time></trkpt><trkpt lat="43.3047783" lon="12.9702067"><ele>349.0</ele><time>2026-04-11T12:11:16.003Z</time></trkpt><trkpt lat="43.3046917" lon="12.9702967"><ele>349.0</ele><time>2026-04-11T12:11:17.003Z</time></trkpt><trkpt lat="43.3046133" lon="12.9703667"><ele>349.0</ele><time>2026-04-11T12:11:18.006Z</time></trkpt><trkpt lat="43.3045367" lon="12.9704117"><ele>349.0</ele><time>2026-04-11T12:11:19.007Z</time></trkpt><trkpt lat="43.3044617" lon="12.9704217"><ele>350.6</ele><time>2026-04-11T12:11:20.006Z</time></trkpt><trkpt lat="43.3044017" lon="12.9703667"><ele>352.2</ele><time>2026-04-11T12:11:21.007Z</time></trkpt><trkpt lat="43.3043367" lon="12.970285"><ele>353.8</ele><time>2026-04-11T12:11:22.007Z</time></trkpt><trkpt lat="43.3042783" lon="12.9701667"><ele>355.40000000000003</ele><time>2026-04-11T12:11:23.006Z</time></trkpt><trkpt lat="43.3042183" lon="12.970035"><ele>357.0</ele><time>2026-04-11T12:11:24.008Z</time></trkpt><trkpt lat="43.3041517" lon="12.9699"><ele>358.75</ele><time>2026-04-11T12:11:25.006Z</time></trkpt><trkpt lat="43.3040867" lon="12.9697583"><ele>360.5</ele><time>2026-04-11T12:11:26.006Z</time></trkpt><trkpt lat="43.3040233" lon="12.9696083"><ele>362.25</ele><time>2026-04-11T12:11:27.007Z</time></trkpt><trkpt lat="43.3039567" lon="12.9694667"><ele>364.0</ele><time>2026-04-11T12:11:28.005Z</time></trkpt><trkpt lat="43.3038883" lon="12.9693317"><ele>364.0</ele><time>2026-04-11T12:11:29.004Z</time></trkpt><trkpt lat="43.303825" lon="12.9692117"><ele>364.0</ele><time>2026-04-11T12:11:30.007Z</time></trkpt><trkpt lat="43.30376" lon="12.969105"><ele>364.0</ele><time>2026-04-11T12:11:31.006Z</time></trkpt><trkpt lat="43.3036867" lon="12.9690067"><ele>364.0</ele><time>2026-04-11T12:11:32.005Z</time></trkpt><trkpt lat="43.3035933" lon="12.9689217"><ele>364.0</ele><time>2026-04-11T12:11:33.008Z</time></trkpt><trkpt lat="43.3034833" lon="12.9688417"><ele>367.25</ele><time>2026-04-11T12:11:34.006Z</time></trkpt><trkpt lat="43.303375" lon="12.968745"><ele>370.5</ele><time>2026-04-11T12:11:35.005Z</time></trkpt><trkpt lat="43.30326" lon="12.968645"><ele>373.75</ele><time>2026-04-11T12:11:36.005Z</time></trkpt><trkpt lat="43.303145" lon="12.9685333"><ele>377.0</ele><time>2026-04-11T12:11:37.006Z</time></trkpt><trkpt lat="43.3030283" lon="12.9684117"><ele>379.0</ele><time>2026-04-11T12:11:38.005Z</time></trkpt><trkpt lat="43.3029183" lon="12.96829"><ele>381.0</ele><time>2026-04-11T12:11:39.007Z</time></trkpt><trkpt lat="43.302805" lon="12.96817"><ele>383.0</ele><time>2026-04-11T12:11:40.006Z</time></trkpt><trkpt lat="43.3027" lon="12.96804"><ele>385.0</ele><time>2026-04-11T12:11:41.004Z</time></trkpt><trkpt lat="43.302615" lon="12.967905"><ele>385.0</ele><time>2026-04-11T12:11:42.006Z</time></trkpt><trkpt lat="43.30254" lon="12.9677667"><ele>385.0</ele><time>2026-04-11T12:11:43.007Z</time></trkpt><trkpt lat="43.3024617" lon="12.96762"><ele>385.0</ele><time>2026-04-11T12:11:44.006Z</time></trkpt><trkpt lat="43.302385" lon="12.9674817"><ele>385.0</ele><time>2026-04-11T12:11:45.007Z</time></trkpt><trkpt lat="43.3023017" lon="12.96737"><ele>386.6</ele><time>2026-04-11T12:11:46.006Z</time></trkpt><trkpt lat="43.3022083" lon="12.9672817"><ele>388.2</ele><time>2026-04-11T12:11:47.007Z</time></trkpt><trkpt lat="43.30211" lon="12.9672133"><ele>389.79999999999995</ele><time>2026-04-11T12:11:48.007Z</time></trkpt><trkpt lat="43.3019983" lon="12.9671583"><ele>391.4</ele><time>2026-04-11T12:11:49.014Z</time></trkpt><trkpt lat="43.301895" lon="12.9671283"><ele>393.0</ele><time>2026-04-11T12:11:50.007Z</time></trkpt><trkpt lat="43.3017917" lon="12.9671"><ele>393.0</ele><time>2026-04-11T12:11:51.008Z</time></trkpt><trkpt lat="43.30167" lon="12.9670583"><ele>393.0</ele><time>2026-04-11T12:11:52.006Z</time></trkpt><trkpt lat="43.3015417" lon="12.967"><ele>393.0</ele><time>2026-04-11T12:11:53.006Z</time></trkpt><trkpt lat="43.301425" lon="12.9669167"><ele>393.0</ele><time>2026-04-11T12:11:54.008Z</time></trkpt><trkpt lat="43.3013167" lon="12.9668017"><ele>395.0</ele><time>2026-04-11T12:11:55.005Z</time></trkpt><trkpt lat="43.301215" lon="12.96667"><ele>397.0</ele><time>2026-04-11T12:11:56.005Z</time></trkpt><trkpt lat="43.3011167" lon="12.9665467"><ele>399.0</ele><time>2026-04-11T12:11:57.007Z</time></trkpt><trkpt lat="43.3010167" lon="12.9664533"><ele>401.0</ele><time>2026-04-11T12:11:58.006Z</time></trkpt><trkpt lat="43.3009017" lon="12.9663833"><ele>401.0</ele><time>2026-04-11T12:11:59.006Z</time></trkpt><trkpt lat="43.3007883" lon="12.9662983"><ele>401.0</ele><time>2026-04-11T12:12:00.006Z</time></trkpt><trkpt lat="43.3006867" lon="12.9661783"><ele>401.0</ele><time>2026-04-11T12:12:01.006Z</time></trkpt><trkpt lat="43.3005867" lon="12.9660367"><ele>401.0</ele><time>2026-04-11T12:12:02.005Z</time></trkpt><trkpt lat="43.3004733" lon="12.9658967"><ele>403.66666666666663</ele><time>2026-04-11T12:12:03.007Z</time></trkpt><trkpt lat="43.3003567" lon="12.9657583"><ele>406.33333333333337</ele><time>2026-04-11T12:12:04.007Z</time></trkpt><trkpt lat="43.3002333" lon="12.9656167"><ele>409.0</ele><time>2026-04-11T12:12:05.005Z</time></trkpt><trkpt lat="43.3001033" lon="12.9654833"><ele>409.0</ele><time>2026-04-11T12:12:06.006Z</time></trkpt><trkpt lat="43.299965" lon="12.9653583"><ele>409.0</ele><time>2026-04-11T12:12:07.006Z</time></trkpt><trkpt lat="43.2998217" lon="12.9652383"><ele>409.0</ele><time>2026-04-11T12:12:08.006Z</time></trkpt><trkpt lat="43.2996767" lon="12.96512"><ele>410.0</ele><time>2026-04-11T12:12:09.007Z</time></trkpt><trkpt lat="43.29953" lon="12.965005"><ele>411.0</ele><time>2026-04-11T12:12:10.005Z</time></trkpt><trkpt lat="43.2993783" lon="12.9648967"><ele>412.0</ele><time>2026-04-11T12:12:11.003Z</time></trkpt><trkpt lat="43.2992267" lon="12.964795"><ele>412.0</ele><time>2026-04-11T12:12:12.006Z</time></trkpt><trkpt lat="43.2990783" lon="12.964695"><ele>412.0</ele><time>2026-04-11T12:12:13.007Z</time></trkpt><trkpt lat="43.2989333" lon="12.9645917"><ele>412.0</ele><time>2026-04-11T12:12:14.006Z</time></trkpt><trkpt lat="43.2987833" lon="12.9645"><ele>412.33333333333337</ele><time>2026-04-11T12:12:15.006Z</time></trkpt><trkpt lat="43.2986317" lon="12.9644267"><ele>412.66666666666663</ele><time>2026-04-11T12:12:16.006Z</time></trkpt><trkpt lat="43.2984783" lon="12.9643717"><ele>413.0</ele><time>2026-04-11T12:12:17.005Z</time></trkpt><trkpt lat="43.2983317" lon="12.9643083"><ele>413.0</ele><time>2026-04-11T12:12:18.008Z</time></trkpt><trkpt lat="43.2981933" lon="12.9642183"><ele>413.0</ele><time>2026-04-11T12:12:19.006Z</time></trkpt><trkpt lat="43.2980667" lon="12.9641067"><ele>413.0</ele><time>2026-04-11T12:12:20.007Z</time></trkpt><trkpt lat="43.2979467" lon="12.9639783"><ele>416.25</ele><time>2026-04-11T12:12:21.008Z</time></trkpt><trkpt lat="43.297835" lon="12.9638383"><ele>419.5</ele><time>2026-04-11T12:12:22.007Z</time></trkpt><trkpt lat="43.2977333" lon="12.96369"><ele>422.75</ele><time>2026-04-11T12:12:23.005Z</time></trkpt><trkpt lat="43.2976417" lon="12.9635317"><ele>426.0</ele><time>2026-04-11T12:12:24.007Z</time></trkpt><trkpt lat="43.2975567" lon="12.963365"><ele>427.25</ele><time>2026-04-11T12:12:25.004Z</time></trkpt><trkpt lat="43.2974783" lon="12.9631983"><ele>428.5</ele><time>2026-04-11T12:12:26.004Z</time></trkpt><trkpt lat="43.2974167" lon="12.9630383"><ele>429.75</ele><time>2026-04-11T12:12:27.006Z</time></trkpt><trkpt lat="43.29737" lon="12.9628817"><ele>431.0</ele><time>2026-04-11T12:12:28.005Z</time></trkpt><trkpt lat="43.297345" lon="12.9627217"><ele>431.0</ele><time>2026-04-11T12:12:29.006Z</time></trkpt><trkpt lat="43.2973467" lon="12.96256"><ele>431.0</ele><time>2026-04-11T12:12:30.006Z</time></trkpt><trkpt lat="43.2973783" lon="12.9624033"><ele>431.0</ele><time>2026-04-11T12:12:31.006Z</time></trkpt><trkpt lat="43.2974383" lon="12.9622617"><ele>431.0</ele><time>2026-04-11T12:12:32.006Z</time></trkpt><trkpt lat="43.2975217" lon="12.9621383"><ele>430.25</ele><time>2026-04-11T12:12:33.007Z</time></trkpt><trkpt lat="43.297615" lon="12.9620217"><ele>429.5</ele><time>2026-04-11T12:12:34.006Z</time></trkpt><trkpt lat="43.2977133" lon="12.9619083"><ele>428.75</ele><time>2026-04-11T12:12:35.006Z</time></trkpt><trkpt lat="43.2978033" lon="12.9618"><ele>428.0</ele><time>2026-04-11T12:12:36.006Z</time></trkpt><trkpt lat="43.2978767" lon="12.96169"><ele>427.2</ele><time>2026-04-11T12:12:37.006Z</time></trkpt><trkpt lat="43.2979267" lon="12.961575"><ele>426.4</ele><time>2026-04-11T12:12:38.006Z</time></trkpt><trkpt lat="43.29795" lon="12.9614533"><ele>425.59999999999997</ele><time>2026-04-11T12:12:39.008Z</time></trkpt><trkpt lat="43.29794" lon="12.9613233"><ele>424.79999999999995</ele><time>2026-04-11T12:12:40.005Z</time></trkpt><trkpt lat="43.2979017" lon="12.96117"><ele>424.0</ele><time>2026-04-11T12:12:41.006Z</time></trkpt><trkpt lat="43.297845" lon="12.961"><ele>422.25</ele><time>2026-04-11T12:12:42.006Z</time></trkpt><trkpt lat="43.2977833" lon="12.9608283"><ele>420.5</ele><time>2026-04-11T12:12:43.006Z</time></trkpt><trkpt lat="43.2977283" lon="12.960655"><ele>418.75</ele><time>2026-04-11T12:12:44.005Z</time></trkpt><trkpt lat="43.297685" lon="12.9604883"><ele>417.0</ele><time>2026-04-11T12:12:45.009Z</time></trkpt><trkpt lat="43.2976567" lon="12.9603283"><ele>417.0</ele><time>2026-04-11T12:12:46.006Z</time></trkpt><trkpt lat="43.2976333" lon="12.96016"><ele>417.0</ele><time>2026-04-11T12:12:47.006Z</time></trkpt><trkpt lat="43.2976133" lon="12.9599817"><ele>417.0</ele><time>2026-04-11T12:12:48.006Z</time></trkpt><trkpt lat="43.297595" lon="12.959805"><ele>417.0</ele><time>2026-04-11T12:12:49.008Z</time></trkpt><trkpt lat="43.2975717" lon="12.959635"><ele>415.25</ele><time>2026-04-11T12:12:50.007Z</time></trkpt><trkpt lat="43.29755" lon="12.95947"><ele>413.5</ele><time>2026-04-11T12:12:51.007Z</time></trkpt><trkpt lat="43.2975283" lon="12.9593083"><ele>411.75</ele><time>2026-04-11T12:12:52.006Z</time></trkpt><trkpt lat="43.2975083" lon="12.959145"><ele>410.0</ele><time>2026-04-11T12:12:53.007Z</time></trkpt><trkpt lat="43.2974883" lon="12.9589817"><ele>409.25</ele><time>2026-04-11T12:12:54.007Z</time></trkpt><trkpt lat="43.2974683" lon="12.9588183"><ele>408.5</ele><time>2026-04-11T12:12:55.005Z</time></trkpt><trkpt lat="43.2974517" lon="12.9586567"><ele>407.75</ele><time>2026-04-11T12:12:56.006Z</time></trkpt><trkpt lat="43.2974383" lon="12.958495"><ele>407.0</ele><time>2026-04-11T12:12:57.007Z</time></trkpt><trkpt lat="43.2974233" lon="12.95833"><ele>407.0</ele><time>2026-04-11T12:12:58.006Z</time></trkpt><trkpt lat="43.297405" lon="12.95816"><ele>407.0</ele><time>2026-04-11T12:12:59.009Z</time></trkpt><trkpt lat="43.29738" lon="12.9579917"><ele>407.0</ele><time>2026-04-11T12:13:00.007Z</time></trkpt><trkpt lat="43.2973533" lon="12.957825"><ele>407.0</ele><time>2026-04-11T12:13:01.006Z</time></trkpt><trkpt lat="43.29733" lon="12.9576667"><ele>407.25</ele><time>2026-04-11T12:13:02.006Z</time></trkpt><trkpt lat="43.2973267" lon="12.95751"><ele>407.5</ele><time>2026-04-11T12:13:03.008Z</time></trkpt><trkpt lat="43.2973533" lon="12.957365"><ele>407.75</ele><time>2026-04-11T12:13:04.006Z</time></trkpt><trkpt lat="43.2974067" lon="12.9572283"><ele>408.0</ele><time>2026-04-11T12:13:05.006Z</time></trkpt><trkpt lat="43.2974817" lon="12.9570833"><ele>408.0</ele><time>2026-04-11T12:13:06.007Z</time></trkpt><trkpt lat="43.2975667" lon="12.9569333"><ele>408.0</ele><time>2026-04-11T12:13:07.006Z</time></trkpt><trkpt lat="43.2976583" lon="12.956785"><ele>408.0</ele><time>2026-04-11T12:13:08.006Z</time></trkpt><trkpt lat="43.2977483" lon="12.9566283"><ele>408.0</ele><time>2026-04-11T12:13:09.007Z</time></trkpt><trkpt lat="43.297835" lon="12.9564733"><ele>409.0</ele><time>2026-04-11T12:13:10.007Z</time></trkpt><trkpt lat="43.2979067" lon="12.9563183"><ele>410.0</ele><time>2026-04-11T12:13:11.007Z</time></trkpt><trkpt lat="43.2979533" lon="12.9561517"><ele>411.0</ele><time>2026-04-11T12:13:12.006Z</time></trkpt><trkpt lat="43.2979683" lon="12.955965"><ele>412.0</ele><time>2026-04-11T12:13:13.007Z</time></trkpt><trkpt lat="43.2979633" lon="12.9557733"><ele>412.6</ele><time>2026-04-11T12:13:14.006Z</time></trkpt><trkpt lat="43.2979533" lon="12.9555883"><ele>413.20000000000005</ele><time>2026-04-11T12:13:15.008Z</time></trkpt><trkpt lat="43.29795" lon="12.9554283"><ele>413.8</ele><time>2026-04-11T12:13:16.007Z</time></trkpt><trkpt lat="43.2979533" lon="12.955295"><ele>414.4</ele><time>2026-04-11T12:13:17.006Z</time></trkpt><trkpt lat="43.2979517" lon="12.9551933"><ele>415.0</ele><time>2026-04-11T12:13:18.007Z</time></trkpt><trkpt lat="43.2979183" lon="12.9550483"><ele>415.83333333333337</ele><time>2026-04-11T12:13:20.007Z</time></trkpt><trkpt lat="43.2979317" lon="12.9548917"><ele>416.6666666666667</ele><time>2026-04-11T12:13:22.007Z</time></trkpt><trkpt lat="43.297945" lon="12.9547917"><ele>417.5</ele><time>2026-04-11T12:13:23.005Z</time></trkpt><trkpt lat="43.2979567" lon="12.9546933"><ele>418.33333333333337</ele><time>2026-04-11T12:13:24.007Z</time></trkpt><trkpt lat="43.297965" lon="12.9546033"><ele>419.1666666666667</ele><time>2026-04-11T12:13:25.008Z</time></trkpt><trkpt lat="43.29796" lon="12.9545067"><ele>420.0</ele><time>2026-04-11T12:13:26.008Z</time></trkpt><trkpt lat="43.2979533" lon="12.9544"><ele>420.0</ele><time>2026-04-11T12:13:27.008Z</time></trkpt><trkpt lat="43.2979417" lon="12.954285"><ele>420.0</ele><time>2026-04-11T12:13:28.007Z</time></trkpt><trkpt lat="43.2979283" lon="12.9541633"><ele>420.0</ele><time>2026-04-11T12:13:29.007Z</time></trkpt><trkpt lat="43.2979117" lon="12.9540417"><ele>420.0</ele><time>2026-04-11T12:13:30.007Z</time></trkpt><trkpt lat="43.29789" lon="12.953935"><ele>420.0</ele><time>2026-04-11T12:13:31.006Z</time></trkpt><trkpt lat="43.2978617" lon="12.95384"><ele>420.0</ele><time>2026-04-11T12:13:32.007Z</time></trkpt><trkpt lat="43.2978217" lon="12.953735"><ele>421.4</ele><time>2026-04-11T12:13:33.008Z</time></trkpt><trkpt lat="43.2977817" lon="12.9536433"><ele>422.8</ele><time>2026-04-11T12:13:34.007Z</time></trkpt><trkpt lat="43.2977233" lon="12.95356"><ele>424.20000000000005</ele><time>2026-04-11T12:13:35.006Z</time></trkpt><trkpt lat="43.2976417" lon="12.9534817"><ele>425.6</ele><time>2026-04-11T12:13:36.005Z</time></trkpt><trkpt lat="43.2975467" lon="12.9533967"><ele>427.0</ele><time>2026-04-11T12:13:37.006Z</time></trkpt><trkpt lat="43.297455" lon="12.9533167"><ele>428.33333333333337</ele><time>2026-04-11T12:13:38.005Z</time></trkpt><trkpt lat="43.2973733" lon="12.9532483"><ele>429.6666666666667</ele><time>2026-04-11T12:13:39.007Z</time></trkpt><trkpt lat="43.2973117" lon="12.9531933"><ele>431.0</ele><time>2026-04-11T12:13:40.005Z</time></trkpt><trkpt lat="43.297245" lon="12.95315"><ele>432.33333333333337</ele><time>2026-04-11T12:13:41.006Z</time></trkpt><trkpt lat="43.2971783" lon="12.953105"><ele>433.6666666666667</ele><time>2026-04-11T12:13:42.006Z</time></trkpt><trkpt lat="43.2970917" lon="12.9530467"><ele>435.0</ele><time>2026-04-11T12:13:43.005Z</time></trkpt><trkpt lat="43.2969883" lon="12.9529933"><ele>435.0</ele><time>2026-04-11T12:13:44.005Z</time></trkpt><trkpt lat="43.2968767" lon="12.952945"><ele>435.0</ele><time>2026-04-11T12:13:45.007Z</time></trkpt><trkpt lat="43.2967683" lon="12.9529067"><ele>435.0</ele><time>2026-04-11T12:13:46.005Z</time></trkpt><trkpt lat="43.2966683" lon="12.9528883"><ele>435.0</ele><time>2026-04-11T12:13:47.005Z</time></trkpt><trkpt lat="43.2965817" lon="12.9528867"><ele>435.0</ele><time>2026-04-11T12:13:48.006Z</time></trkpt><trkpt lat="43.2965017" lon="12.9529083"><ele>435.0</ele><time>2026-04-11T12:13:49.006Z</time></trkpt><trkpt lat="43.2964267" lon="12.952955"><ele>435.0</ele><time>2026-04-11T12:13:50.003Z</time></trkpt><trkpt lat="43.2963683" lon="12.95301"><ele>435.0</ele><time>2026-04-11T12:13:51.007Z</time></trkpt><trkpt lat="43.2963033" lon="12.9530967"><ele>435.0</ele><time>2026-04-11T12:13:53.005Z</time></trkpt><trkpt lat="43.2962" lon="12.953195"><ele>435.0</ele><time>2026-04-11T12:14:10.008Z</time></trkpt><trkpt lat="43.296145" lon="12.953255"><ele>435.0</ele><time>2026-04-11T12:14:12.006Z</time></trkpt><trkpt lat="43.2960917" lon="12.9533117"><ele>434.3333333333333</ele><time>2026-04-11T12:14:14.005Z</time></trkpt><trkpt lat="43.2960467" lon="12.95338"><ele>433.66666666666663</ele><time>2026-04-11T12:14:16.006Z</time></trkpt><trkpt lat="43.2959917" lon="12.953445"><ele>433.0</ele><time>2026-04-11T12:14:19.007Z</time></trkpt><trkpt lat="43.2959217" lon="12.953505"><ele>432.3333333333333</ele><time>2026-04-11T12:14:22.005Z</time></trkpt><trkpt lat="43.2958533" lon="12.9535617"><ele>431.66666666666663</ele><time>2026-04-11T12:14:25.006Z</time></trkpt><trkpt lat="43.2957983" lon="12.95361"><ele>431.0</ele><time>2026-04-11T12:14:27.008Z</time></trkpt><trkpt lat="43.2957833" lon="12.95377"><ele>431.0</ele><time>2026-04-11T12:15:11.006Z</time></trkpt><trkpt lat="43.2957133" lon="12.95381"><ele>431.0</ele><time>2026-04-11T12:15:14.007Z</time></trkpt><trkpt lat="43.29565" lon="12.9538367"><ele>431.0</ele><time>2026-04-11T12:15:16.007Z</time></trkpt><trkpt lat="43.29558" lon="12.953865"><ele>431.0</ele><time>2026-04-11T12:15:18.006Z</time></trkpt><trkpt lat="43.2955067" lon="12.953895"><ele>431.0</ele><time>2026-04-11T12:15:20.007Z</time></trkpt><trkpt lat="43.295425" lon="12.9539133"><ele>431.0</ele><time>2026-04-11T12:15:22.006Z</time></trkpt><trkpt lat="43.29536" lon="12.9539083"><ele>431.0</ele><time>2026-04-11T12:15:24.008Z</time></trkpt><trkpt lat="43.2952617" lon="12.953955"><ele>432.14285714285717</ele><time>2026-04-11T12:15:46.005Z</time></trkpt><trkpt lat="43.2951967" lon="12.9539883"><ele>433.2857142857143</ele><time>2026-04-11T12:15:51.007Z</time></trkpt><trkpt lat="43.2951467" lon="12.9539133"><ele>434.42857142857144</ele><time>2026-04-11T12:15:54.005Z</time></trkpt><trkpt lat="43.2950833" lon="12.9538617"><ele>435.57142857142856</ele><time>2026-04-11T12:15:56.007Z</time></trkpt><trkpt lat="43.2950117" lon="12.9538233"><ele>436.71428571428567</ele><time>2026-04-11T12:15:58.008Z</time></trkpt><trkpt lat="43.2949417" lon="12.9537883"><ele>437.85714285714283</ele><time>2026-04-11T12:16:01.004Z</time></trkpt><trkpt lat="43.2948767" lon="12.9537483"><ele>439.0</ele><time>2026-04-11T12:16:04.006Z</time></trkpt><trkpt lat="43.2947867" lon="12.9537183"><ele>438.75</ele><time>2026-04-11T12:16:07.006Z</time></trkpt><trkpt lat="43.29466" lon="12.9536683"><ele>438.5</ele><time>2026-04-11T12:16:09.007Z</time></trkpt><trkpt lat="43.2945683" lon="12.9536333"><ele>438.25</ele><time>2026-04-11T12:16:10.005Z</time></trkpt><trkpt lat="43.294455" lon="12.9535867"><ele>438.0</ele><time>2026-04-11T12:16:11.006Z</time></trkpt><trkpt lat="43.2943583" lon="12.95349"><ele>438.0</ele><time>2026-04-11T12:16:12.006Z</time></trkpt><trkpt lat="43.294245" lon="12.9533783"><ele>438.0</ele><time>2026-04-11T12:16:13.006Z</time></trkpt><trkpt lat="43.2941367" lon="12.9532533"><ele>438.0</ele><time>2026-04-11T12:16:14.005Z</time></trkpt><trkpt lat="43.2940267" lon="12.953115"><ele>438.0</ele><time>2026-04-11T12:16:15.006Z</time></trkpt><trkpt lat="43.2939283" lon="12.95297"><ele>438.0</ele><time>2026-04-11T12:16:16.006Z</time></trkpt><trkpt lat="43.293825" lon="12.9528117"><ele>438.0</ele><time>2026-04-11T12:16:17.005Z</time></trkpt><trkpt lat="43.2937183" lon="12.9526433"><ele>438.0</ele><time>2026-04-11T12:16:18.005Z</time></trkpt><trkpt lat="43.2936183" lon="12.952475"><ele>442.5</ele><time>2026-04-11T12:16:19.009Z</time></trkpt><trkpt lat="43.29352" lon="12.952305"><ele>447.0</ele><time>2026-04-11T12:16:20.006Z</time></trkpt><trkpt lat="43.2934317" lon="12.9521367"><ele>451.5</ele><time>2026-04-11T12:16:21.008Z</time></trkpt><trkpt lat="43.2933517" lon="12.9519867"><ele>456.0</ele><time>2026-04-11T12:16:22.006Z</time></trkpt><trkpt lat="43.293285" lon="12.95185"><ele>456.0</ele><time>2026-04-11T12:16:23.006Z</time></trkpt><trkpt lat="43.2932217" lon="12.95171"><ele>456.0</ele><time>2026-04-11T12:16:24.002Z</time></trkpt><trkpt lat="43.2931617" lon="12.9515733"><ele>456.0</ele><time>2026-04-11T12:16:25.007Z</time></trkpt><trkpt lat="43.2931" lon="12.9514367"><ele>456.0</ele><time>2026-04-11T12:16:26.007Z</time></trkpt><trkpt lat="43.2930417" lon="12.95131"><ele>460.75</ele><time>2026-04-11T12:16:27.008Z</time></trkpt><trkpt lat="43.2929733" lon="12.9512067"><ele>465.5</ele><time>2026-04-11T12:16:28.005Z</time></trkpt><trkpt lat="43.2928767" lon="12.9511283"><ele>470.25</ele><time>2026-04-11T12:16:29.006Z</time></trkpt><trkpt lat="43.292765" lon="12.9510617"><ele>475.0</ele><time>2026-04-11T12:16:30.006Z</time></trkpt><trkpt lat="43.292635" lon="12.9509917"><ele>475.0</ele><time>2026-04-11T12:16:31.006Z</time></trkpt><trkpt lat="43.292505" lon="12.95092"><ele>475.0</ele><time>2026-04-11T12:16:32.006Z</time></trkpt><trkpt lat="43.2923683" lon="12.9508433"><ele>475.0</ele><time>2026-04-11T12:16:33.007Z</time></trkpt><trkpt lat="43.292245" lon="12.9507583"><ele>475.0</ele><time>2026-04-11T12:16:34.005Z</time></trkpt><trkpt lat="43.29212" lon="12.95067"><ele>477.0</ele><time>2026-04-11T12:16:35.006Z</time></trkpt><trkpt lat="43.292" lon="12.9505833"><ele>479.0</ele><time>2026-04-11T12:16:36.008Z</time></trkpt><trkpt lat="43.2918933" lon="12.9504983"><ele>481.0</ele><time>2026-04-11T12:16:37.009Z</time></trkpt><trkpt lat="43.29182" lon="12.95042"><ele>483.0</ele><time>2026-04-11T12:16:38.006Z</time></trkpt><trkpt lat="43.2917583" lon="12.950335"><ele>485.0</ele><time>2026-04-11T12:16:39.007Z</time></trkpt><trkpt lat="43.2916917" lon="12.950245"><ele>484.99999999999994</ele><time>2026-04-11T12:16:40.006Z</time></trkpt><trkpt lat="43.2916367" lon="12.9501283"><ele>485.0</ele><time>2026-04-11T12:16:41.006Z</time></trkpt><trkpt lat="43.2915867" lon="12.9500067"><ele>485.0</ele><time>2026-04-11T12:16:42.006Z</time></trkpt><trkpt lat="43.2915383" lon="12.9499067"><ele>485.0</ele><time>2026-04-11T12:16:43.006Z</time></trkpt><trkpt lat="43.2915" lon="12.9498117"><ele>484.99999999999994</ele><time>2026-04-11T12:16:44.006Z</time></trkpt><trkpt lat="43.2914783" lon="12.9497133"><ele>485.0</ele><time>2026-04-11T12:16:45.007Z</time></trkpt><trkpt lat="43.2914667" lon="12.9496217"><ele>486.16666666666663</ele><time>2026-04-11T12:16:46.004Z</time></trkpt><trkpt lat="43.2914733" lon="12.9495333"><ele>487.3333333333333</ele><time>2026-04-11T12:16:47.005Z</time></trkpt><trkpt lat="43.291515" lon="12.9494583"><ele>488.5</ele><time>2026-04-11T12:16:48.006Z</time></trkpt><trkpt lat="43.291565" lon="12.9493883"><ele>489.66666666666663</ele><time>2026-04-11T12:16:49.007Z</time></trkpt><trkpt lat="43.2916467" lon="12.9493067"><ele>490.8333333333333</ele><time>2026-04-11T12:16:51.008Z</time></trkpt><trkpt lat="43.2915933" lon="12.9491733"><ele>492.0</ele><time>2026-04-11T12:16:54.007Z</time></trkpt><trkpt lat="43.29153" lon="12.9491333"><ele>492.0</ele><time>2026-04-11T12:16:55.007Z</time></trkpt><trkpt lat="43.2914533" lon="12.9490933"><ele>492.00000000000006</ele><time>2026-04-11T12:16:56.005Z</time></trkpt><trkpt lat="43.2913717" lon="12.9490567"><ele>492.00000000000006</ele><time>2026-04-11T12:16:57.007Z</time></trkpt><trkpt lat="43.29129" lon="12.9490017"><ele>492.0</ele><time>2026-04-11T12:16:58.005Z</time></trkpt><trkpt lat="43.2912233" lon="12.9489133"><ele>492.0</ele><time>2026-04-11T12:16:59.006Z</time></trkpt><trkpt lat="43.2911867" lon="12.9487667"><ele>492.75</ele><time>2026-04-11T12:17:00.007Z</time></trkpt><trkpt lat="43.2911583" lon="12.948605"><ele>493.5</ele><time>2026-04-11T12:17:01.006Z</time></trkpt><trkpt lat="43.291125" lon="12.948435"><ele>494.25</ele><time>2026-04-11T12:17:02.005Z</time></trkpt><trkpt lat="43.291075" lon="12.948275"><ele>495.0</ele><time>2026-04-11T12:17:03.007Z</time></trkpt><trkpt lat="43.2910133" lon="12.9481317"><ele>495.0</ele><time>2026-04-11T12:17:04.006Z</time></trkpt><trkpt lat="43.2909367" lon="12.9480017"><ele>495.0</ele><time>2026-04-11T12:17:05.004Z</time></trkpt><trkpt lat="43.290855" lon="12.9478967"><ele>495.0</ele><time>2026-04-11T12:17:06.005Z</time></trkpt><trkpt lat="43.2907717" lon="12.947815"><ele>495.0</ele><time>2026-04-11T12:17:07.006Z</time></trkpt><trkpt lat="43.2906817" lon="12.94775"><ele>495.0</ele><time>2026-04-11T12:17:08.004Z</time></trkpt><trkpt lat="43.2905817" lon="12.9477083"><ele>495.0</ele><time>2026-04-11T12:17:09.006Z</time></trkpt><trkpt lat="43.290475" lon="12.9476833"><ele>495.0</ele><time>2026-04-11T12:17:10.007Z</time></trkpt><trkpt lat="43.290365" lon="12.9476783"><ele>495.0</ele><time>2026-04-11T12:17:11.004Z</time></trkpt><trkpt lat="43.2902583" lon="12.9476567"><ele>495.0</ele><time>2026-04-11T12:17:12.006Z</time></trkpt><trkpt lat="43.2901567" lon="12.947635"><ele>495.0</ele><time>2026-04-11T12:17:13.005Z</time></trkpt><trkpt lat="43.290075" lon="12.9475933"><ele>495.0</ele><time>2026-04-11T12:17:14.004Z</time></trkpt><trkpt lat="43.2899967" lon="12.947545"><ele>495.0</ele><time>2026-04-11T12:17:15.007Z</time></trkpt><trkpt lat="43.2899133" lon="12.9474417"><ele>495.0</ele><time>2026-04-11T12:17:16.005Z</time></trkpt><trkpt lat="43.2898267" lon="12.9473067"><ele>495.0</ele><time>2026-04-11T12:17:17.004Z</time></trkpt><trkpt lat="43.289735" lon="12.94717"><ele>492.25</ele><time>2026-04-11T12:17:18.006Z</time></trkpt><trkpt lat="43.2896383" lon="12.9470417"><ele>489.5</ele><time>2026-04-11T12:17:19.007Z</time></trkpt><trkpt lat="43.2895433" lon="12.946925"><ele>486.75</ele><time>2026-04-11T12:17:20.004Z</time></trkpt><trkpt lat="43.28944" lon="12.9468167"><ele>484.0</ele><time>2026-04-11T12:17:21.007Z</time></trkpt><trkpt lat="43.2893217" lon="12.9467183"><ele>483.33333333333337</ele><time>2026-04-11T12:17:22.006Z</time></trkpt><trkpt lat="43.2891967" lon="12.9466167"><ele>482.66666666666663</ele><time>2026-04-11T12:17:23.006Z</time></trkpt><trkpt lat="43.2890667" lon="12.9465167"><ele>482.0</ele><time>2026-04-11T12:17:24.007Z</time></trkpt><trkpt lat="43.2889267" lon="12.9464167"><ele>478.66666666666663</ele><time>2026-04-11T12:17:25.007Z</time></trkpt><trkpt lat="43.2887917" lon="12.9463017"><ele>475.33333333333337</ele><time>2026-04-11T12:17:26.007Z</time></trkpt><trkpt lat="43.2886517" lon="12.946195"><ele>472.0</ele><time>2026-04-11T12:17:27.008Z</time></trkpt><trkpt lat="43.2885167" lon="12.9460967"><ele>472.0</ele><time>2026-04-11T12:17:28.001Z</time></trkpt><trkpt lat="43.2883883" lon="12.9459933"><ele>472.0</ele><time>2026-04-11T12:17:29.006Z</time></trkpt><trkpt lat="43.2882683" lon="12.9458883"><ele>472.0</ele><time>2026-04-11T12:17:30.007Z</time></trkpt><trkpt lat="43.2881567" lon="12.9457717"><ele>472.0</ele><time>2026-04-11T12:17:31.006Z</time></trkpt><trkpt lat="43.28806" lon="12.9456333"><ele>471.6666666666667</ele><time>2026-04-11T12:17:32.007Z</time></trkpt><trkpt lat="43.2879767" lon="12.9454683"><ele>471.33333333333337</ele><time>2026-04-11T12:17:33.007Z</time></trkpt><trkpt lat="43.2879" lon="12.9452867"><ele>471.0</ele><time>2026-04-11T12:17:34.006Z</time></trkpt><trkpt lat="43.2878283" lon="12.9451"><ele>471.66666666666663</ele><time>2026-04-11T12:17:35.005Z</time></trkpt><trkpt lat="43.28776" lon="12.9449133"><ele>472.3333333333333</ele><time>2026-04-11T12:17:36.007Z</time></trkpt><trkpt lat="43.287695" lon="12.9447267"><ele>473.0</ele><time>2026-04-11T12:17:37.006Z</time></trkpt><trkpt lat="43.287625" lon="12.944545"><ele>473.0</ele><time>2026-04-11T12:17:38.006Z</time></trkpt><trkpt lat="43.287555" lon="12.944365"><ele>473.0</ele><time>2026-04-11T12:17:39.008Z</time></trkpt><trkpt lat="43.28748" lon="12.9441883"><ele>473.0</ele><time>2026-04-11T12:17:40.006Z</time></trkpt><trkpt lat="43.2874067" lon="12.944015"><ele>473.0</ele><time>2026-04-11T12:17:41.005Z</time></trkpt><trkpt lat="43.287325" lon="12.9438483"><ele>473.0</ele><time>2026-04-11T12:17:42.007Z</time></trkpt><trkpt lat="43.2872267" lon="12.9436867"><ele>473.0</ele><time>2026-04-11T12:17:43.005Z</time></trkpt><trkpt lat="43.2871117" lon="12.9435333"><ele>473.0</ele><time>2026-04-11T12:17:44.005Z</time></trkpt><trkpt lat="43.2869933" lon="12.94338"><ele>470.0</ele><time>2026-04-11T12:17:45.007Z</time></trkpt><trkpt lat="43.286875" lon="12.9432267"><ele>467.0</ele><time>2026-04-11T12:17:46.006Z</time></trkpt><trkpt lat="43.2867617" lon="12.94307"><ele>464.0</ele><time>2026-04-11T12:17:47.006Z</time></trkpt><trkpt lat="43.2866433" lon="12.9429133"><ele>464.0</ele><time>2026-04-11T12:17:48.007Z</time></trkpt><trkpt lat="43.286525" lon="12.9427533"><ele>464.0</ele><time>2026-04-11T12:17:49.007Z</time></trkpt><trkpt lat="43.286405" lon="12.9425933"><ele>464.0</ele><time>2026-04-11T12:17:50.006Z</time></trkpt><trkpt lat="43.2862833" lon="12.942435"><ele>462.66666666666663</ele><time>2026-04-11T12:17:51.008Z</time></trkpt><trkpt lat="43.2861633" lon="12.9422783"><ele>461.33333333333337</ele><time>2026-04-11T12:17:52.007Z</time></trkpt><trkpt lat="43.2860433" lon="12.9421233"><ele>460.0</ele><time>2026-04-11T12:17:53.006Z</time></trkpt><trkpt lat="43.2859283" lon="12.9419733"><ele>460.0</ele><time>2026-04-11T12:17:54.008Z</time></trkpt><trkpt lat="43.2858183" lon="12.94183"><ele>460.0</ele><time>2026-04-11T12:17:55.007Z</time></trkpt><trkpt lat="43.2857133" lon="12.94169"><ele>460.0</ele><time>2026-04-11T12:17:56.005Z</time></trkpt><trkpt lat="43.285615" lon="12.9415567"><ele>460.0</ele><time>2026-04-11T12:17:57.007Z</time></trkpt><trkpt lat="43.2855133" lon="12.9414283"><ele>457.5</ele><time>2026-04-11T12:17:58.006Z</time></trkpt><trkpt lat="43.2854117" lon="12.9413083"><ele>455.0</ele><time>2026-04-11T12:17:59.005Z</time></trkpt><trkpt lat="43.2853167" lon="12.9412033"><ele>452.5</ele><time>2026-04-11T12:18:00.006Z</time></trkpt><trkpt lat="43.2852217" lon="12.9411233"><ele>450.0</ele><time>2026-04-11T12:18:01.006Z</time></trkpt><trkpt lat="43.285135" lon="12.9410733"><ele>450.0</ele><time>2026-04-11T12:18:02.006Z</time></trkpt><trkpt lat="43.2850667" lon="12.9410433"><ele>450.0</ele><time>2026-04-11T12:18:03.007Z</time></trkpt><trkpt lat="43.2849983" lon="12.9410083"><ele>450.0</ele><time>2026-04-11T12:18:05.005Z</time></trkpt><trkpt lat="43.28503" lon="12.9409217"><ele>450.0</ele><time>2026-04-11T12:18:07.006Z</time></trkpt><trkpt lat="43.2850833" lon="12.9408667"><ele>450.0</ele><time>2026-04-11T12:18:08.006Z</time></trkpt><trkpt lat="43.2851717" lon="12.940825"><ele>450.0</ele><time>2026-04-11T12:18:09.007Z</time></trkpt><trkpt lat="43.2852633" lon="12.9407967"><ele>448.8</ele><time>2026-04-11T12:18:10.006Z</time></trkpt><trkpt lat="43.2853617" lon="12.9407533"><ele>447.6</ele><time>2026-04-11T12:18:11.006Z</time></trkpt><trkpt lat="43.28545" lon="12.9407133"><ele>446.4</ele><time>2026-04-11T12:18:12.006Z</time></trkpt><trkpt lat="43.2855367" lon="12.9406567"><ele>445.2</ele><time>2026-04-11T12:18:13.007Z</time></trkpt><trkpt lat="43.2856383" lon="12.940535"><ele>444.0</ele><time>2026-04-11T12:18:14.005Z</time></trkpt><trkpt lat="43.2857367" lon="12.9404067"><ele>443.5</ele><time>2026-04-11T12:18:15.007Z</time></trkpt><trkpt lat="43.2858333" lon="12.9402733"><ele>443.0</ele><time>2026-04-11T12:18:16.007Z</time></trkpt><trkpt lat="43.2859283" lon="12.9401417"><ele>442.5</ele><time>2026-04-11T12:18:17.008Z</time></trkpt><trkpt lat="43.2860133" lon="12.9400433"><ele>442.0</ele><time>2026-04-11T12:18:18.006Z</time></trkpt><trkpt lat="43.2860867" lon="12.9399633"><ele>440.00000000000006</ele><time>2026-04-11T12:18:19.006Z</time></trkpt><trkpt lat="43.2861567" lon="12.9399"><ele>438.0</ele><time>2026-04-11T12:18:20.006Z</time></trkpt><trkpt lat="43.286225" lon="12.939835"><ele>436.0</ele><time>2026-04-11T12:18:21.008Z</time></trkpt><trkpt lat="43.2863" lon="12.9397733"><ele>434.0</ele><time>2026-04-11T12:18:22.006Z</time></trkpt><trkpt lat="43.2863767" lon="12.939725"><ele>432.00000000000006</ele><time>2026-04-11T12:18:23.007Z</time></trkpt><trkpt lat="43.28646" lon="12.9397083"><ele>430.0</ele><time>2026-04-11T12:18:24.007Z</time></trkpt><trkpt lat="43.2865367" lon="12.9397067"><ele>428.50000000000006</ele><time>2026-04-11T12:18:25.006Z</time></trkpt><trkpt lat="43.2866067" lon="12.9396983"><ele>427.0</ele><time>2026-04-11T12:18:26.006Z</time></trkpt><trkpt lat="43.2866667" lon="12.93966"><ele>425.5</ele><time>2026-04-11T12:18:27.009Z</time></trkpt><trkpt lat="43.2867133" lon="12.9395867"><ele>424.0</ele><time>2026-04-11T12:18:28.006Z</time></trkpt><trkpt lat="43.2867233" lon="12.9394467"><ele>422.50000000000006</ele><time>2026-04-11T12:18:29.009Z</time></trkpt><trkpt lat="43.28672" lon="12.939295"><ele>421.0</ele><time>2026-04-11T12:18:30.007Z</time></trkpt><trkpt lat="43.2867333" lon="12.9391833"><ele>419.6666666666667</ele><time>2026-04-11T12:18:31.01Z</time></trkpt><trkpt lat="43.2868233" lon="12.939075"><ele>418.33333333333337</ele><time>2026-04-11T12:18:33.008Z</time></trkpt><trkpt lat="43.2869033" lon="12.9390583"><ele>417.0</ele><time>2026-04-11T12:18:34.007Z</time></trkpt><trkpt lat="43.2869867" lon="12.939045"><ele>415.66666666666663</ele><time>2026-04-11T12:18:35.008Z</time></trkpt><trkpt lat="43.2870683" lon="12.9390317"><ele>414.3333333333333</ele><time>2026-04-11T12:18:36.006Z</time></trkpt><trkpt lat="43.2871483" lon="12.939005"><ele>413.0</ele><time>2026-04-11T12:18:37.006Z</time></trkpt><trkpt lat="43.2872233" lon="12.9389633"><ele>411.4</ele><time>2026-04-11T12:18:38.006Z</time></trkpt><trkpt lat="43.2872983" lon="12.9389183"><ele>409.79999999999995</ele><time>2026-04-11T12:18:39.007Z</time></trkpt><trkpt lat="43.2873833" lon="12.938865"><ele>408.2</ele><time>2026-04-11T12:18:40.005Z</time></trkpt><trkpt lat="43.287475" lon="12.9388133"><ele>406.6</ele><time>2026-04-11T12:18:41.006Z</time></trkpt><trkpt lat="43.287575" lon="12.938755"><ele>405.0</ele><time>2026-04-11T12:18:42.005Z</time></trkpt><trkpt lat="43.2876783" lon="12.9386967"><ele>405.0</ele><time>2026-04-11T12:18:43.006Z</time></trkpt><trkpt lat="43.2877817" lon="12.93864"><ele>405.0</ele><time>2026-04-11T12:18:44.006Z</time></trkpt><trkpt lat="43.2878883" lon="12.93857"><ele>405.0</ele><time>2026-04-11T12:18:45.007Z</time></trkpt><trkpt lat="43.287995" lon="12.9384933"><ele>405.0</ele><time>2026-04-11T12:18:46.006Z</time></trkpt><trkpt lat="43.2880933" lon="12.9384233"><ele>403.2</ele><time>2026-04-11T12:18:47.007Z</time></trkpt><trkpt lat="43.2881833" lon="12.9383583"><ele>401.4</ele><time>2026-04-11T12:18:48.006Z</time></trkpt><trkpt lat="43.2882683" lon="12.938295"><ele>399.6</ele><time>2026-04-11T12:18:49.005Z</time></trkpt><trkpt lat="43.2883517" lon="12.93824"><ele>397.8</ele><time>2026-04-11T12:18:50.008Z</time></trkpt><trkpt lat="43.28843" lon="12.93819"><ele>396.0</ele><time>2026-04-11T12:18:51.01Z</time></trkpt><trkpt lat="43.2885017" lon="12.93815"><ele>396.0</ele><time>2026-04-11T12:18:52.007Z</time></trkpt><trkpt lat="43.288575" lon="12.9381133"><ele>396.0</ele><time>2026-04-11T12:18:53.007Z</time></trkpt><trkpt lat="43.28865" lon="12.9380767"><ele>396.0</ele><time>2026-04-11T12:18:54.005Z</time></trkpt><trkpt lat="43.28872" lon="12.938045"><ele>396.0</ele><time>2026-04-11T12:18:55Z</time></trkpt><trkpt lat="43.28879" lon="12.9380033"><ele>396.0</ele><time>2026-04-11T12:18:56.006Z</time></trkpt><trkpt lat="43.288865" lon="12.937955"><ele>396.0</ele><time>2026-04-11T12:18:57.007Z</time></trkpt><trkpt lat="43.2889383" lon="12.93791"><ele>395.20000000000005</ele><time>2026-04-11T12:18:58.006Z</time></trkpt><trkpt lat="43.2890017" lon="12.9378783"><ele>394.40000000000003</ele><time>2026-04-11T12:18:59.006Z</time></trkpt><trkpt lat="43.2890933" lon="12.93781"><ele>393.6</ele><time>2026-04-11T12:19:01.007Z</time></trkpt><trkpt lat="43.28912" lon="12.937655"><ele>392.8</ele><time>2026-04-11T12:19:03.013Z</time></trkpt><trkpt lat="43.28911" lon="12.9375483"><ele>392.0</ele><time>2026-04-11T12:19:04.003Z</time></trkpt><trkpt lat="43.2890933" lon="12.9374283"><ele>391.0</ele><time>2026-04-11T12:19:05.003Z</time></trkpt><trkpt lat="43.2890583" lon="12.9373017"><ele>390.0</ele><time>2026-04-11T12:19:06.003Z</time></trkpt><trkpt lat="43.289005" lon="12.937175"><ele>389.0</ele><time>2026-04-11T12:19:07.001Z</time></trkpt><trkpt lat="43.288935" lon="12.9370517"><ele>388.0</ele><time>2026-04-11T12:19:08.004Z</time></trkpt><trkpt lat="43.2888583" lon="12.9369267"><ele>387.0</ele><time>2026-04-11T12:19:09.002Z</time></trkpt><trkpt lat="43.2887817" lon="12.9368083"><ele>388.6</ele><time>2026-04-11T12:19:10.002Z</time></trkpt><trkpt lat="43.2887033" lon="12.9366933"><ele>390.20000000000005</ele><time>2026-04-11T12:19:11.003Z</time></trkpt><trkpt lat="43.2886233" lon="12.93658"><ele>391.8</ele><time>2026-04-11T12:19:12.002Z</time></trkpt><trkpt lat="43.288555" lon="12.9364783"><ele>393.4</ele><time>2026-04-11T12:19:13.004Z</time></trkpt><trkpt lat="43.2884967" lon="12.9363983"><ele>395.0</ele><time>2026-04-11T12:19:14.004Z</time></trkpt><trkpt lat="43.2884517" lon="12.9363333"><ele>394.99999999999994</ele><time>2026-04-11T12:19:15.004Z</time></trkpt><trkpt lat="43.2884033" lon="12.9362633"><ele>395.0</ele><time>2026-04-11T12:19:17.003Z</time></trkpt><trkpt lat="43.28837" lon="12.936185"><ele>395.0</ele><time>2026-04-11T12:19:21.001Z</time></trkpt><trkpt lat="43.288365" lon="12.9360867"><ele>395.0</ele><time>2026-04-11T12:19:23.002Z</time></trkpt><trkpt lat="43.2883583" lon="12.9359467"><ele>394.99999999999994</ele><time>2026-04-11T12:19:25.002Z</time></trkpt><trkpt lat="43.2883967" lon="12.9358667"><ele>395.0</ele><time>2026-04-11T12:19:27.004Z</time></trkpt><trkpt lat="43.288525" lon="12.9358067"><ele>395.66666666666663</ele><time>2026-04-11T12:19:29.003Z</time></trkpt><trkpt lat="43.288615" lon="12.9357917"><ele>396.3333333333333</ele><time>2026-04-11T12:19:30.002Z</time></trkpt><trkpt lat="43.288715" lon="12.935775"><ele>397.0</ele><time>2026-04-11T12:19:31.003Z</time></trkpt><trkpt lat="43.2888133" lon="12.935755"><ele>397.66666666666663</ele><time>2026-04-11T12:19:32.003Z</time></trkpt><trkpt lat="43.2888983" lon="12.93574"><ele>398.3333333333333</ele><time>2026-04-11T12:19:33.003Z</time></trkpt><trkpt lat="43.2889667" lon="12.93572"><ele>399.0</ele><time>2026-04-11T12:19:34.003Z</time></trkpt><trkpt lat="43.2890333" lon="12.935655"><ele>399.0</ele><time>2026-04-11T12:19:36.003Z</time></trkpt><trkpt lat="43.2890883" lon="12.93557"><ele>399.0</ele><time>2026-04-11T12:19:38.003Z</time></trkpt><trkpt lat="43.2891833" lon="12.9355133"><ele>399.0</ele><time>2026-04-11T12:19:40.002Z</time></trkpt><trkpt lat="43.2892883" lon="12.9354717"><ele>399.0</ele><time>2026-04-11T12:19:42.002Z</time></trkpt><trkpt lat="43.289395" lon="12.93542"><ele>399.0</ele><time>2026-04-11T12:19:44.003Z</time></trkpt><trkpt lat="43.2894933" lon="12.9354"><ele>399.0</ele><time>2026-04-11T12:19:46.007Z</time></trkpt><trkpt lat="43.28957" lon="12.93541"><ele>399.0</ele><time>2026-04-11T12:19:48.006Z</time></trkpt><trkpt lat="43.2896167" lon="12.9353517"><ele>399.0</ele><time>2026-04-11T12:19:50.008Z</time></trkpt><trkpt lat="43.289685" lon="12.93529"><ele>399.0</ele><time>2026-04-11T12:19:52.006Z</time></trkpt><trkpt lat="43.2897717" lon="12.9352217"><ele>399.0</ele><time>2026-04-11T12:19:54.008Z</time></trkpt><trkpt lat="43.2898617" lon="12.9351333"><ele>399.0</ele><time>2026-04-11T12:19:56.006Z</time></trkpt><trkpt lat="43.289915" lon="12.935"><ele>400.6666666666667</ele><time>2026-04-11T12:19:58.006Z</time></trkpt><trkpt lat="43.2899417" lon="12.934915"><ele>402.33333333333337</ele><time>2026-04-11T12:19:59.006Z</time></trkpt><trkpt lat="43.28998" lon="12.934815"><ele>404.0</ele><time>2026-04-11T12:20:00.007Z</time></trkpt><trkpt lat="43.2900333" lon="12.9347067"><ele>405.6666666666667</ele><time>2026-04-11T12:20:01.006Z</time></trkpt><trkpt lat="43.2900867" lon="12.9345967"><ele>407.33333333333337</ele><time>2026-04-11T12:20:02.006Z</time></trkpt><trkpt lat="43.290135" lon="12.9344967"><ele>409.0</ele><time>2026-04-11T12:20:03.007Z</time></trkpt><trkpt lat="43.2901767" lon="12.9343867"><ele>409.0</ele><time>2026-04-11T12:20:04.007Z</time></trkpt><trkpt lat="43.2901917" lon="12.93426"><ele>409.0</ele><time>2026-04-11T12:20:05.006Z</time></trkpt><trkpt lat="43.2901967" lon="12.9341183"><ele>409.0</ele><time>2026-04-11T12:20:06.008Z</time></trkpt><trkpt lat="43.29019" lon="12.9339617"><ele>409.0</ele><time>2026-04-11T12:20:07.007Z</time></trkpt><trkpt lat="43.2901783" lon="12.933795"><ele>409.0</ele><time>2026-04-11T12:20:08.007Z</time></trkpt><trkpt lat="43.29017" lon="12.9336383"><ele>410.75</ele><time>2026-04-11T12:20:09.008Z</time></trkpt><trkpt lat="43.2901617" lon="12.9334817"><ele>412.5</ele><time>2026-04-11T12:20:10.006Z</time></trkpt><trkpt lat="43.2901617" lon="12.9333317"><ele>414.25</ele><time>2026-04-11T12:20:11.007Z</time></trkpt><trkpt lat="43.290175" lon="12.9331733"><ele>416.0</ele><time>2026-04-11T12:20:12.006Z</time></trkpt><trkpt lat="43.29019" lon="12.9330167"><ele>416.49999999999994</ele><time>2026-04-11T12:20:13.007Z</time></trkpt><trkpt lat="43.2902" lon="12.9328667"><ele>417.0</ele><time>2026-04-11T12:20:14.004Z</time></trkpt><trkpt lat="43.2902083" lon="12.9327533"><ele>417.5</ele><time>2026-04-11T12:20:15.009Z</time></trkpt><trkpt lat="43.2902183" lon="12.9326533"><ele>418.0</ele><time>2026-04-11T12:20:16.007Z</time></trkpt><trkpt lat="43.2902333" lon="12.9325617"><ele>418.49999999999994</ele><time>2026-04-11T12:20:17.006Z</time></trkpt><trkpt lat="43.2902883" lon="12.932495"><ele>419.0</ele><time>2026-04-11T12:20:18.006Z</time></trkpt><trkpt lat="43.2903467" lon="12.9324433"><ele>418.8333333333333</ele><time>2026-04-11T12:20:19.006Z</time></trkpt><trkpt lat="43.290415" lon="12.932415"><ele>418.66666666666663</ele><time>2026-04-11T12:20:20.006Z</time></trkpt><trkpt lat="43.290485" lon="12.9323767"><ele>418.5</ele><time>2026-04-11T12:20:21.008Z</time></trkpt><trkpt lat="43.2905467" lon="12.93234"><ele>418.33333333333337</ele><time>2026-04-11T12:20:22.007Z</time></trkpt><trkpt lat="43.29064" lon="12.932315"><ele>418.1666666666667</ele><time>2026-04-11T12:20:24.008Z</time></trkpt><trkpt lat="43.2907117" lon="12.932265"><ele>418.0</ele><time>2026-04-11T12:20:27.008Z</time></trkpt><trkpt lat="43.2908033" lon="12.9321933"><ele>418.0</ele><time>2026-04-11T12:20:29.006Z</time></trkpt><trkpt lat="43.29087" lon="12.9321417"><ele>418.0</ele><time>2026-04-11T12:20:30.004Z</time></trkpt><trkpt lat="43.290955" lon="12.9320717"><ele>418.0</ele><time>2026-04-11T12:20:31.006Z</time></trkpt><trkpt lat="43.2910483" lon="12.9319833"><ele>418.0</ele><time>2026-04-11T12:20:32.005Z</time></trkpt><trkpt lat="43.2911433" lon="12.931885"><ele>418.0</ele><time>2026-04-11T12:20:33.007Z</time></trkpt><trkpt lat="43.291235" lon="12.9317833"><ele>417.0</ele><time>2026-04-11T12:20:34.006Z</time></trkpt><trkpt lat="43.29132" lon="12.931685"><ele>416.0</ele><time>2026-04-11T12:20:35.006Z</time></trkpt><trkpt lat="43.2913867" lon="12.9315933"><ele>415.0</ele><time>2026-04-11T12:20:36.008Z</time></trkpt><trkpt lat="43.29143" lon="12.9315033"><ele>414.0</ele><time>2026-04-11T12:20:37.006Z</time></trkpt><trkpt lat="43.2914667" lon="12.9314033"><ele>413.0</ele><time>2026-04-11T12:20:38.007Z</time></trkpt><trkpt lat="43.2914667" lon="12.9312717"><ele>413.0</ele><time>2026-04-11T12:20:39.008Z</time></trkpt><trkpt lat="43.2914467" lon="12.9310983"><ele>413.0</ele><time>2026-04-11T12:20:40.005Z</time></trkpt><trkpt lat="43.291415" lon="12.9308917"><ele>413.0</ele><time>2026-04-11T12:20:41.005Z</time></trkpt><trkpt lat="43.2913867" lon="12.9306767"><ele>413.0</ele><time>2026-04-11T12:20:42.005Z</time></trkpt><trkpt lat="43.291355" lon="12.930455"><ele>418.0</ele><time>2026-04-11T12:20:43.007Z</time></trkpt><trkpt lat="43.29133" lon="12.9302583"><ele>423.0</ele><time>2026-04-11T12:20:44.006Z</time></trkpt><trkpt lat="43.291315" lon="12.93007"><ele>428.0</ele><time>2026-04-11T12:20:45.008Z</time></trkpt><trkpt lat="43.2912917" lon="12.929885"><ele>433.0</ele><time>2026-04-11T12:20:46.006Z</time></trkpt><trkpt lat="43.2912483" lon="12.9296983"><ele>433.0</ele><time>2026-04-11T12:20:47.005Z</time></trkpt><trkpt lat="43.291195" lon="12.9295267"><ele>433.0</ele><time>2026-04-11T12:20:48.006Z</time></trkpt><trkpt lat="43.2911467" lon="12.9293717"><ele>433.0</ele><time>2026-04-11T12:20:49.007Z</time></trkpt><trkpt lat="43.29109" lon="12.9292383"><ele>433.0</ele><time>2026-04-11T12:20:50.005Z</time></trkpt><trkpt lat="43.291025" lon="12.9291233"><ele>429.6666666666667</ele><time>2026-04-11T12:20:51.008Z</time></trkpt><trkpt lat="43.2909567" lon="12.929025"><ele>426.33333333333337</ele><time>2026-04-11T12:20:52.006Z</time></trkpt><trkpt lat="43.2908833" lon="12.928945"><ele>423.0</ele><time>2026-04-11T12:20:53.006Z</time></trkpt><trkpt lat="43.29082" lon="12.9288717"><ele>419.66666666666663</ele><time>2026-04-11T12:20:54.005Z</time></trkpt><trkpt lat="43.2907583" lon="12.9288"><ele>416.3333333333333</ele><time>2026-04-11T12:20:55.006Z</time></trkpt><trkpt lat="43.2907283" lon="12.9287233"><ele>413.0</ele><time>2026-04-11T12:20:56.006Z</time></trkpt><trkpt lat="43.2907617" lon="12.9286367"><ele>413.0</ele><time>2026-04-11T12:20:57.007Z</time></trkpt><trkpt lat="43.290805" lon="12.9285483"><ele>413.0</ele><time>2026-04-11T12:20:58.007Z</time></trkpt><trkpt lat="43.2908767" lon="12.92845"><ele>413.0</ele><time>2026-04-11T12:20:59.006Z</time></trkpt><trkpt lat="43.2909717" lon="12.928325"><ele>413.0</ele><time>2026-04-11T12:21:00.005Z</time></trkpt><trkpt lat="43.29105" lon="12.9282033"><ele>413.0</ele><time>2026-04-11T12:21:01.007Z</time></trkpt><trkpt lat="43.291115" lon="12.9281133"><ele>410.4</ele><time>2026-04-11T12:21:02.008Z</time></trkpt><trkpt lat="43.2911717" lon="12.9280483"><ele>407.79999999999995</ele><time>2026-04-11T12:21:03.008Z</time></trkpt><trkpt lat="43.291225" lon="12.928"><ele>405.2</ele><time>2026-04-11T12:21:04.008Z</time></trkpt><trkpt lat="43.2913517" lon="12.9279983"><ele>402.6</ele><time>2026-04-11T12:21:06.006Z</time></trkpt><trkpt lat="43.2914233" lon="12.9280467"><ele>400.0</ele><time>2026-04-11T12:21:07.006Z</time></trkpt><trkpt lat="43.2915067" lon="12.9281367"><ele>399.0</ele><time>2026-04-11T12:21:08.006Z</time></trkpt><trkpt lat="43.291615" lon="12.9282517"><ele>398.0</ele><time>2026-04-11T12:21:09.008Z</time></trkpt><trkpt lat="43.29172" lon="12.9283633"><ele>397.0</ele><time>2026-04-11T12:21:10.006Z</time></trkpt><trkpt lat="43.2918217" lon="12.928445"><ele>396.0</ele><time>2026-04-11T12:21:11.006Z</time></trkpt><trkpt lat="43.291935" lon="12.9284917"><ele>396.0</ele><time>2026-04-11T12:21:12.004Z</time></trkpt><trkpt lat="43.292055" lon="12.9285133"><ele>396.0</ele><time>2026-04-11T12:21:13.007Z</time></trkpt><trkpt lat="43.2921767" lon="12.928525"><ele>396.0</ele><time>2026-04-11T12:21:14.006Z</time></trkpt><trkpt lat="43.292295" lon="12.9285467"><ele>396.0</ele><time>2026-04-11T12:21:15.005Z</time></trkpt><trkpt lat="43.2924167" lon="12.9285983"><ele>395.0</ele><time>2026-04-11T12:21:16.007Z</time></trkpt><trkpt lat="43.2925433" lon="12.9286733"><ele>394.0</ele><time>2026-04-11T12:21:17.007Z</time></trkpt><trkpt lat="43.2926683" lon="12.9287667"><ele>393.0</ele><time>2026-04-11T12:21:18.007Z</time></trkpt><trkpt lat="43.292795" lon="12.9288583"><ele>392.0</ele><time>2026-04-11T12:21:19.007Z</time></trkpt><trkpt lat="43.2929167" lon="12.9289517"><ele>392.0</ele><time>2026-04-11T12:21:20.007Z</time></trkpt><trkpt lat="43.2930317" lon="12.929045"><ele>392.0</ele><time>2026-04-11T12:21:21.009Z</time></trkpt><trkpt lat="43.2931333" lon="12.9291383"><ele>392.0</ele><time>2026-04-11T12:21:22.005Z</time></trkpt><trkpt lat="43.2932167" lon="12.92923"><ele>392.0</ele><time>2026-04-11T12:21:23.007Z</time></trkpt><trkpt lat="43.2932867" lon="12.9293117"><ele>390.8</ele><time>2026-04-11T12:21:24.003Z</time></trkpt><trkpt lat="43.2933533" lon="12.92937"><ele>389.6</ele><time>2026-04-11T12:21:25.007Z</time></trkpt><trkpt lat="43.2934367" lon="12.929405"><ele>388.40000000000003</ele><time>2026-04-11T12:21:26.006Z</time></trkpt><trkpt lat="43.29353" lon="12.9294183"><ele>387.20000000000005</ele><time>2026-04-11T12:21:27.009Z</time></trkpt><trkpt lat="43.293635" lon="12.9294167"><ele>386.0</ele><time>2026-04-11T12:21:28.006Z</time></trkpt><trkpt lat="43.2937317" lon="12.9293983"><ele>385.99999999999994</ele><time>2026-04-11T12:21:29.006Z</time></trkpt><trkpt lat="43.29381" lon="12.9294083"><ele>386.0</ele><time>2026-04-11T12:21:30.005Z</time></trkpt><trkpt lat="43.29388" lon="12.9294167"><ele>386.0</ele><time>2026-04-11T12:21:31.007Z</time></trkpt><trkpt lat="43.2939467" lon="12.9294217"><ele>386.0</ele><time>2026-04-11T12:21:32.008Z</time></trkpt><trkpt lat="43.2939983" lon="12.9294817"><ele>385.99999999999994</ele><time>2026-04-11T12:21:33.008Z</time></trkpt><trkpt lat="43.294065" lon="12.9295733"><ele>386.0</ele><time>2026-04-11T12:21:34.005Z</time></trkpt><trkpt lat="43.2941333" lon="12.929655"><ele>386.4</ele><time>2026-04-11T12:21:35.007Z</time></trkpt><trkpt lat="43.294225" lon="12.92972"><ele>386.8</ele><time>2026-04-11T12:21:36.007Z</time></trkpt><trkpt lat="43.2943167" lon="12.929765"><ele>387.2</ele><time>2026-04-11T12:21:37.008Z</time></trkpt><trkpt lat="43.2944067" lon="12.9297817"><ele>387.59999999999997</ele><time>2026-04-11T12:21:38.007Z</time></trkpt><trkpt lat="43.29449" lon="12.9297683"><ele>388.0</ele><time>2026-04-11T12:21:39.008Z</time></trkpt><trkpt lat="43.2945617" lon="12.9297283"><ele>388.00000000000006</ele><time>2026-04-11T12:21:40.007Z</time></trkpt><trkpt lat="43.294615" lon="12.929655"><ele>388.0</ele><time>2026-04-11T12:21:41.006Z</time></trkpt><trkpt lat="43.2946567" lon="12.9295617"><ele>388.0</ele><time>2026-04-11T12:21:42.008Z</time></trkpt><trkpt lat="43.2946833" lon="12.9294583"><ele>388.0</ele><time>2026-04-11T12:21:43.007Z</time></trkpt><trkpt lat="43.2947033" lon="12.9293367"><ele>388.00000000000006</ele><time>2026-04-11T12:21:44.008Z</time></trkpt><trkpt lat="43.2947183" lon="12.9291883"><ele>388.0</ele><time>2026-04-11T12:21:45.007Z</time></trkpt><trkpt lat="43.29472" lon="12.9290317"><ele>391.0</ele><time>2026-04-11T12:21:46.008Z</time></trkpt><trkpt lat="43.2947267" lon="12.9288633"><ele>394.0</ele><time>2026-04-11T12:21:47.008Z</time></trkpt><trkpt lat="43.294735" lon="12.9286917"><ele>397.0</ele><time>2026-04-11T12:21:48.008Z</time></trkpt><trkpt lat="43.2947517" lon="12.9285267"><ele>400.0</ele><time>2026-04-11T12:21:49.008Z</time></trkpt><trkpt lat="43.2947817" lon="12.9283517"><ele>402.5</ele><time>2026-04-11T12:21:50.009Z</time></trkpt><trkpt lat="43.2948183" lon="12.92817"><ele>405.0</ele><time>2026-04-11T12:21:51.009Z</time></trkpt><trkpt lat="43.294865" lon="12.9279817"><ele>407.5</ele><time>2026-04-11T12:21:52.009Z</time></trkpt><trkpt lat="43.29491" lon="12.927795"><ele>410.0</ele><time>2026-04-11T12:21:53.008Z</time></trkpt><trkpt lat="43.2949617" lon="12.9276183"><ele>412.25</ele><time>2026-04-11T12:21:54.007Z</time></trkpt><trkpt lat="43.2950333" lon="12.9274533"><ele>414.5</ele><time>2026-04-11T12:21:55.008Z</time></trkpt><trkpt lat="43.2951317" lon="12.9273083"><ele>416.75</ele><time>2026-04-11T12:21:56.009Z</time></trkpt><trkpt lat="43.29525" lon="12.927185"><ele>419.0</ele><time>2026-04-11T12:21:57.009Z</time></trkpt><trkpt lat="43.2953767" lon="12.927075"><ele>419.0</ele><time>2026-04-11T12:21:58.007Z</time></trkpt><trkpt lat="43.295505" lon="12.926965"><ele>419.0</ele><time>2026-04-11T12:21:59.009Z</time></trkpt><trkpt lat="43.2956283" lon="12.9268583"><ele>419.0</ele><time>2026-04-11T12:22:00.008Z</time></trkpt><trkpt lat="43.2957467" lon="12.926745"><ele>419.0</ele><time>2026-04-11T12:22:01.006Z</time></trkpt><trkpt lat="43.2958583" lon="12.9266283"><ele>420.25</ele><time>2026-04-11T12:22:02.008Z</time></trkpt><trkpt lat="43.2959683" lon="12.92653"><ele>421.5</ele><time>2026-04-11T12:22:03.008Z</time></trkpt><trkpt lat="43.2960717" lon="12.9264633"><ele>422.75</ele><time>2026-04-11T12:22:04.007Z</time></trkpt><trkpt lat="43.296175" lon="12.9264217"><ele>424.0</ele><time>2026-04-11T12:22:05.006Z</time></trkpt><trkpt lat="43.2962867" lon="12.9264267"><ele>424.0</ele><time>2026-04-11T12:22:06.006Z</time></trkpt><trkpt lat="43.2964067" lon="12.9264433"><ele>424.0</ele><time>2026-04-11T12:22:07.005Z</time></trkpt><trkpt lat="43.2965367" lon="12.9264367"><ele>424.0</ele><time>2026-04-11T12:22:08.008Z</time></trkpt><trkpt lat="43.2966683" lon="12.9264183"><ele>424.0</ele><time>2026-04-11T12:22:09.008Z</time></trkpt><trkpt lat="43.2968" lon="12.9264033"><ele>427.25</ele><time>2026-04-11T12:22:10.006Z</time></trkpt><trkpt lat="43.29693" lon="12.9264"><ele>430.5</ele><time>2026-04-11T12:22:11.007Z</time></trkpt><trkpt lat="43.2970633" lon="12.9263967"><ele>433.75</ele><time>2026-04-11T12:22:12.006Z</time></trkpt><trkpt lat="43.297205" lon="12.926385"><ele>437.0</ele><time>2026-04-11T12:22:13.006Z</time></trkpt><trkpt lat="43.2973517" lon="12.9263617"><ele>441.0</ele><time>2026-04-11T12:22:14.006Z</time></trkpt><trkpt lat="43.2974867" lon="12.92634"><ele>445.0</ele><time>2026-04-11T12:22:15.007Z</time></trkpt><trkpt lat="43.2976067" lon="12.9263183"><ele>449.0</ele><time>2026-04-11T12:22:16.007Z</time></trkpt><trkpt lat="43.2977183" lon="12.926335"><ele>453.0</ele><time>2026-04-11T12:22:17.007Z</time></trkpt><trkpt lat="43.2978317" lon="12.926365"><ele>453.0</ele><time>2026-04-11T12:22:18.006Z</time></trkpt><trkpt lat="43.297955" lon="12.9263767"><ele>453.0</ele><time>2026-04-11T12:22:19.007Z</time></trkpt><trkpt lat="43.2980783" lon="12.9263583"><ele>453.0</ele><time>2026-04-11T12:22:20.006Z</time></trkpt><trkpt lat="43.2982067" lon="12.9263133"><ele>453.0</ele><time>2026-04-11T12:22:21.009Z</time></trkpt><trkpt lat="43.2983417" lon="12.926255"><ele>457.0</ele><time>2026-04-11T12:22:22.007Z</time></trkpt><trkpt lat="43.2984817" lon="12.92619"><ele>461.0</ele><time>2026-04-11T12:22:23.006Z</time></trkpt><trkpt lat="43.2986167" lon="12.9261217"><ele>465.0</ele><time>2026-04-11T12:22:24.007Z</time></trkpt><trkpt lat="43.2987617" lon="12.9260433"><ele>469.0</ele><time>2026-04-11T12:22:25.009Z</time></trkpt><trkpt lat="43.2988917" lon="12.9259567"><ele>468.83333333333337</ele><time>2026-04-11T12:22:26.008Z</time></trkpt><trkpt lat="43.29899" lon="12.9258667"><ele>468.6666666666667</ele><time>2026-04-11T12:22:27.008Z</time></trkpt><trkpt lat="43.2990667" lon="12.9258017"><ele>468.5</ele><time>2026-04-11T12:22:28.006Z</time></trkpt><trkpt lat="43.2991383" lon="12.92575"><ele>468.33333333333337</ele><time>2026-04-11T12:22:29.005Z</time></trkpt><trkpt lat="43.299205" lon="12.9257183"><ele>468.1666666666667</ele><time>2026-04-11T12:22:30.007Z</time></trkpt><trkpt lat="43.2992783" lon="12.9257017"><ele>468.0</ele><time>2026-04-11T12:22:31.006Z</time></trkpt><trkpt lat="43.29936" lon="12.9257083"><ele>468.0</ele><time>2026-04-11T12:22:32.007Z</time></trkpt><trkpt lat="43.2994533" lon="12.9257283"><ele>467.99999999999994</ele><time>2026-04-11T12:22:33.007Z</time></trkpt><trkpt lat="43.29956" lon="12.925755"><ele>467.99999999999994</ele><time>2026-04-11T12:22:34.005Z</time></trkpt><trkpt lat="43.299675" lon="12.9257717"><ele>468.0</ele><time>2026-04-11T12:22:35.007Z</time></trkpt><trkpt lat="43.2998017" lon="12.9257817"><ele>468.0</ele><time>2026-04-11T12:22:36.008Z</time></trkpt><trkpt lat="43.2999367" lon="12.9257883"><ele>466.0</ele><time>2026-04-11T12:22:37.007Z</time></trkpt><trkpt lat="43.300075" lon="12.9257783"><ele>464.0</ele><time>2026-04-11T12:22:38.006Z</time></trkpt><trkpt lat="43.3002083" lon="12.92577"><ele>462.0</ele><time>2026-04-11T12:22:39.006Z</time></trkpt><trkpt lat="43.3003433" lon="12.9257433"><ele>460.0</ele><time>2026-04-11T12:22:40.004Z</time></trkpt><trkpt lat="43.3004733" lon="12.9257033"><ele>457.25</ele><time>2026-04-11T12:22:41.005Z</time></trkpt><trkpt lat="43.3005933" lon="12.9256467"><ele>454.5</ele><time>2026-04-11T12:22:42.006Z</time></trkpt><trkpt lat="43.3007267" lon="12.9255883"><ele>451.75</ele><time>2026-04-11T12:22:43.007Z</time></trkpt><trkpt lat="43.3008517" lon="12.9255167"><ele>449.0</ele><time>2026-04-11T12:22:44.007Z</time></trkpt><trkpt lat="43.3009583" lon="12.9254367"><ele>449.0</ele><time>2026-04-11T12:22:45.008Z</time></trkpt><trkpt lat="43.3010617" lon="12.925365"><ele>449.0</ele><time>2026-04-11T12:22:46.006Z</time></trkpt><trkpt lat="43.3011367" lon="12.9252633"><ele>449.0</ele><time>2026-04-11T12:22:47.006Z</time></trkpt><trkpt lat="43.3012133" lon="12.9251683"><ele>449.0</ele><time>2026-04-11T12:22:48.007Z</time></trkpt><trkpt lat="43.3013017" lon="12.925085"><ele>449.0</ele><time>2026-04-11T12:22:49.008Z</time></trkpt><trkpt lat="43.30141" lon="12.9250133"><ele>442.75</ele><time>2026-04-11T12:22:50.007Z</time></trkpt><trkpt lat="43.3015333" lon="12.924945"><ele>436.5</ele><time>2026-04-11T12:22:51.009Z</time></trkpt><trkpt lat="43.301655" lon="12.9248817"><ele>430.25</ele><time>2026-04-11T12:22:52.007Z</time></trkpt><trkpt lat="43.3017683" lon="12.9248333"><ele>424.0</ele><time>2026-04-11T12:22:53.006Z</time></trkpt><trkpt lat="43.30188" lon="12.924785"><ele>424.0</ele><time>2026-04-11T12:22:54.008Z</time></trkpt><trkpt lat="43.3019933" lon="12.9247217"><ele>424.0</ele><time>2026-04-11T12:22:55.006Z</time></trkpt><trkpt lat="43.3021067" lon="12.92463"><ele>424.0</ele><time>2026-04-11T12:22:56.006Z</time></trkpt><trkpt lat="43.3022117" lon="12.9244983"><ele>424.0</ele><time>2026-04-11T12:22:57.007Z</time></trkpt><trkpt lat="43.3023167" lon="12.9243383"><ele>419.33333333333337</ele><time>2026-04-11T12:22:58.006Z</time></trkpt><trkpt lat="43.3024217" lon="12.9241733"><ele>414.66666666666663</ele><time>2026-04-11T12:22:59.006Z</time></trkpt><trkpt lat="43.302525" lon="12.9240067"><ele>410.0</ele><time>2026-04-11T12:23:00.008Z</time></trkpt><trkpt lat="43.3026283" lon="12.9238383"><ele>410.0</ele><time>2026-04-11T12:23:01.007Z</time></trkpt><trkpt lat="43.3027217" lon="12.9236817"><ele>410.0</ele><time>2026-04-11T12:23:02.007Z</time></trkpt><trkpt lat="43.3027967" lon="12.9235533"><ele>410.0</ele><time>2026-04-11T12:23:03.007Z</time></trkpt><trkpt lat="43.3028517" lon="12.9234533"><ele>410.0</ele><time>2026-04-11T12:23:04.006Z</time></trkpt><trkpt lat="43.3028867" lon="12.9233683"><ele>410.0</ele><time>2026-04-11T12:23:05.007Z</time></trkpt><trkpt lat="43.3029683" lon="12.9232483"><ele>409.8333333333333</ele><time>2026-04-11T12:23:07.006Z</time></trkpt><trkpt lat="43.303025" lon="12.9232067"><ele>409.66666666666663</ele><time>2026-04-11T12:23:08.006Z</time></trkpt><trkpt lat="43.303095" lon="12.923175"><ele>409.5</ele><time>2026-04-11T12:23:09.007Z</time></trkpt><trkpt lat="43.3031833" lon="12.92316"><ele>409.33333333333337</ele><time>2026-04-11T12:23:10.006Z</time></trkpt><trkpt lat="43.30329" lon="12.9231667"><ele>409.1666666666667</ele><time>2026-04-11T12:23:11.007Z</time></trkpt><trkpt lat="43.3034033" lon="12.92319"><ele>409.0</ele><time>2026-04-11T12:23:12.006Z</time></trkpt><trkpt lat="43.3035167" lon="12.9232233"><ele>409.0</ele><time>2026-04-11T12:23:13.006Z</time></trkpt><trkpt lat="43.3036167" lon="12.92325"><ele>409.0</ele><time>2026-04-11T12:23:14.006Z</time></trkpt><trkpt lat="43.3037117" lon="12.9232633"><ele>409.0</ele><time>2026-04-11T12:23:15.007Z</time></trkpt><trkpt lat="43.3038183" lon="12.92327"><ele>409.0</ele><time>2026-04-11T12:23:16.006Z</time></trkpt><trkpt lat="43.30393" lon="12.9232617"><ele>409.0</ele><time>2026-04-11T12:23:17.007Z</time></trkpt><trkpt lat="43.3040367" lon="12.92324"><ele>408.0</ele><time>2026-04-11T12:23:18.007Z</time></trkpt><trkpt lat="43.3041333" lon="12.92321"><ele>407.0</ele><time>2026-04-11T12:23:19.007Z</time></trkpt><trkpt lat="43.304225" lon="12.9231417"><ele>406.0</ele><time>2026-04-11T12:23:20.007Z</time></trkpt><trkpt lat="43.3043033" lon="12.9230483"><ele>405.0</ele><time>2026-04-11T12:23:21.009Z</time></trkpt><trkpt lat="43.304375" lon="12.9229583"><ele>404.0</ele><time>2026-04-11T12:23:22.009Z</time></trkpt><trkpt lat="43.3044467" lon="12.92289"><ele>403.99999999999994</ele><time>2026-04-11T12:23:23.007Z</time></trkpt><trkpt lat="43.3045133" lon="12.922835"><ele>404.0</ele><time>2026-04-11T12:23:24.009Z</time></trkpt><trkpt lat="43.3045917" lon="12.9228017"><ele>404.0</ele><time>2026-04-11T12:23:25.006Z</time></trkpt><trkpt lat="43.30468" lon="12.9227833"><ele>404.0</ele><time>2026-04-11T12:23:26.006Z</time></trkpt><trkpt lat="43.3047733" lon="12.9227767"><ele>403.99999999999994</ele><time>2026-04-11T12:23:27.008Z</time></trkpt><trkpt lat="43.3048733" lon="12.9227667"><ele>404.0</ele><time>2026-04-11T12:23:28.006Z</time></trkpt><trkpt lat="43.3049717" lon="12.9227583"><ele>402.8333333333333</ele><time>2026-04-11T12:23:29.006Z</time></trkpt><trkpt lat="43.30505" lon="12.9227517"><ele>401.66666666666663</ele><time>2026-04-11T12:23:30.005Z</time></trkpt><trkpt lat="43.305135" lon="12.922715"><ele>400.5</ele><time>2026-04-11T12:23:32.007Z</time></trkpt><trkpt lat="43.3051233" lon="12.9226217"><ele>399.33333333333337</ele><time>2026-04-11T12:23:34.006Z</time></trkpt><trkpt lat="43.3050733" lon="12.922555"><ele>398.1666666666667</ele><time>2026-04-11T12:23:35.006Z</time></trkpt><trkpt lat="43.304985" lon="12.9224867"><ele>397.0</ele><time>2026-04-11T12:23:36.006Z</time></trkpt><trkpt lat="43.3048917" lon="12.9224317"><ele>397.00000000000006</ele><time>2026-04-11T12:23:37.005Z</time></trkpt><trkpt lat="43.30482" lon="12.9223767"><ele>397.0</ele><time>2026-04-11T12:23:38.006Z</time></trkpt><trkpt lat="43.3047617" lon="12.922315"><ele>397.0</ele><time>2026-04-11T12:23:39.006Z</time></trkpt><trkpt lat="43.3047267" lon="12.9222267"><ele>397.0</ele><time>2026-04-11T12:23:40.008Z</time></trkpt><trkpt lat="43.30471" lon="12.9221"><ele>397.00000000000006</ele><time>2026-04-11T12:23:41.006Z</time></trkpt><trkpt lat="43.3047033" lon="12.9219667"><ele>397.0</ele><time>2026-04-11T12:23:42.005Z</time></trkpt><trkpt lat="43.3046967" lon="12.9218383"><ele>400.40000000000003</ele><time>2026-04-11T12:23:43.006Z</time></trkpt><trkpt lat="43.3047033" lon="12.9217033"><ele>403.8</ele><time>2026-04-11T12:23:44.006Z</time></trkpt><trkpt lat="43.3047033" lon="12.92156"><ele>407.2</ele><time>2026-04-11T12:23:45.005Z</time></trkpt><trkpt lat="43.3046867" lon="12.9214117"><ele>410.6</ele><time>2026-04-11T12:23:46.005Z</time></trkpt><trkpt lat="43.3046583" lon="12.92126"><ele>414.0</ele><time>2026-04-11T12:23:47.005Z</time></trkpt><trkpt lat="43.3046267" lon="12.921105"><ele>414.0</ele><time>2026-04-11T12:23:48.006Z</time></trkpt><trkpt lat="43.3045817" lon="12.9209567"><ele>414.0</ele><time>2026-04-11T12:23:49.006Z</time></trkpt><trkpt lat="43.3045317" lon="12.9208267"><ele>414.0</ele><time>2026-04-11T12:23:50.006Z</time></trkpt><trkpt lat="43.3044817" lon="12.920715"><ele>414.0</ele><time>2026-04-11T12:23:51.008Z</time></trkpt><trkpt lat="43.3044283" lon="12.9206267"><ele>414.0</ele><time>2026-04-11T12:23:52.007Z</time></trkpt><trkpt lat="43.30436" lon="12.9205533"><ele>415.25</ele><time>2026-04-11T12:23:53.006Z</time></trkpt><trkpt lat="43.304275" lon="12.92049"><ele>416.5</ele><time>2026-04-11T12:23:54.007Z</time></trkpt><trkpt lat="43.3041517" lon="12.92047"><ele>417.75</ele><time>2026-04-11T12:23:55.008Z</time></trkpt><trkpt lat="43.304025" lon="12.920465"><ele>419.0</ele><time>2026-04-11T12:23:56.005Z</time></trkpt><trkpt lat="43.30391" lon="12.9204617"><ele>419.0</ele><time>2026-04-11T12:23:57.008Z</time></trkpt><trkpt lat="43.3038083" lon="12.9204567"><ele>419.0</ele><time>2026-04-11T12:23:58.006Z</time></trkpt><trkpt lat="43.303725" lon="12.9204467"><ele>419.0</ele><time>2026-04-11T12:23:59.006Z</time></trkpt><trkpt lat="43.30366" lon="12.92043"><ele>419.0</ele><time>2026-04-11T12:24:00.006Z</time></trkpt><trkpt lat="43.3035783" lon="12.9203567"><ele>419.0</ele><time>2026-04-11T12:24:02.007Z</time></trkpt><trkpt lat="43.303725" lon="12.92031"><ele>419.0</ele><time>2026-04-11T12:24:06.004Z</time></trkpt><trkpt lat="43.3038067" lon="12.9203033"><ele>419.0</ele><time>2026-04-11T12:24:07.008Z</time></trkpt><trkpt lat="43.3039067" lon="12.9202567"><ele>419.0</ele><time>2026-04-11T12:24:08.006Z</time></trkpt><trkpt lat="43.303995" lon="12.920195"><ele>419.0</ele><time>2026-04-11T12:24:09.007Z</time></trkpt><trkpt lat="43.3040833" lon="12.9201383"><ele>419.0</ele><time>2026-04-11T12:24:10.007Z</time></trkpt><trkpt lat="43.304165" lon="12.9200733"><ele>415.79999999999995</ele><time>2026-04-11T12:24:11.006Z</time></trkpt><trkpt lat="43.3042517" lon="12.9200183"><ele>412.59999999999997</ele><time>2026-04-11T12:24:12.005Z</time></trkpt><trkpt lat="43.3043433" lon="12.9199917"><ele>409.4</ele><time>2026-04-11T12:24:13.006Z</time></trkpt><trkpt lat="43.3044383" lon="12.920005"><ele>406.2</ele><time>2026-04-11T12:24:14.007Z</time></trkpt><trkpt lat="43.304545" lon="12.9200583"><ele>403.0</ele><time>2026-04-11T12:24:15.007Z</time></trkpt><trkpt lat="43.3046583" lon="12.9201317"><ele>398.0</ele><time>2026-04-11T12:24:16.006Z</time></trkpt><trkpt lat="43.30477" lon="12.92021"><ele>393.0</ele><time>2026-04-11T12:24:17.006Z</time></trkpt><trkpt lat="43.3048917" lon="12.9202917"><ele>388.0</ele><time>2026-04-11T12:24:18.006Z</time></trkpt><trkpt lat="43.30501" lon="12.9203767"><ele>383.0</ele><time>2026-04-11T12:24:19.008Z</time></trkpt><trkpt lat="43.305115" lon="12.92047"><ele>383.0</ele><time>2026-04-11T12:24:20.006Z</time></trkpt><trkpt lat="43.3052083" lon="12.920565"><ele>383.0</ele><time>2026-04-11T12:24:21.009Z</time></trkpt><trkpt lat="43.3052767" lon="12.920695"><ele>383.0</ele><time>2026-04-11T12:24:22.006Z</time></trkpt><trkpt lat="43.30534" lon="12.9208083"><ele>383.0</ele><time>2026-04-11T12:24:23.006Z</time></trkpt><trkpt lat="43.3053933" lon="12.9209067"><ele>383.0</ele><time>2026-04-11T12:24:24.007Z</time></trkpt><trkpt lat="43.305435" lon="12.9210017"><ele>383.0</ele><time>2026-04-11T12:24:25.007Z</time></trkpt><trkpt lat="43.30548" lon="12.9210667"><ele>383.0</ele><time>2026-04-11T12:24:26.007Z</time></trkpt><trkpt lat="43.305555" lon="12.9211367"><ele>383.0</ele><time>2026-04-11T12:24:28.006Z</time></trkpt><trkpt lat="43.3055183" lon="12.9210433"><ele>383.0</ele><time>2026-04-11T12:28:05.006Z</time></trkpt><trkpt lat="43.3054417" lon="12.9209033"><ele>383.0</ele><time>2026-04-11T12:28:07.007Z</time></trkpt><trkpt lat="43.3053917" lon="12.920785"><ele>383.0</ele><time>2026-04-11T12:28:09.009Z</time></trkpt><trkpt lat="43.3054317" lon="12.9206917"><ele>383.0</ele><time>2026-04-11T12:28:11.006Z</time></trkpt><trkpt lat="43.305535" lon="12.92061"><ele>383.0</ele><time>2026-04-11T12:28:13.006Z</time></trkpt><trkpt lat="43.3055933" lon="12.9205767"><ele>383.0</ele><time>2026-04-11T12:28:14.006Z</time></trkpt><trkpt lat="43.305655" lon="12.9205383"><ele>383.0</ele><time>2026-04-11T12:28:15.008Z</time></trkpt><trkpt lat="43.3057167" lon="12.9204883"><ele>383.0</ele><time>2026-04-11T12:28:16.006Z</time></trkpt><trkpt lat="43.3057767" lon="12.9204333"><ele>382.7142857142857</ele><time>2026-04-11T12:28:17.006Z</time></trkpt><trkpt lat="43.305835" lon="12.9203767"><ele>382.42857142857144</ele><time>2026-04-11T12:28:18.005Z</time></trkpt><trkpt lat="43.3058867" lon="12.9203183"><ele>382.1428571428571</ele><time>2026-04-11T12:28:19.007Z</time></trkpt><trkpt lat="43.3059317" lon="12.9202533"><ele>381.8571428571429</ele><time>2026-04-11T12:28:20.007Z</time></trkpt><trkpt lat="43.3059633" lon="12.9201683"><ele>381.5714285714286</ele><time>2026-04-11T12:28:21.007Z</time></trkpt><trkpt lat="43.3059767" lon="12.9200717"><ele>381.2857142857143</ele><time>2026-04-11T12:28:22.007Z</time></trkpt><trkpt lat="43.3059817" lon="12.9199683"><ele>381.0</ele><time>2026-04-11T12:28:23.005Z</time></trkpt><trkpt lat="43.30598" lon="12.9198483"><ele>383.0</ele><time>2026-04-11T12:28:24.006Z</time></trkpt><trkpt lat="43.3059867" lon="12.9197133"><ele>385.0</ele><time>2026-04-11T12:28:25.007Z</time></trkpt><trkpt lat="43.3059983" lon="12.9195683"><ele>387.0</ele><time>2026-04-11T12:28:26.007Z</time></trkpt><trkpt lat="43.306015" lon="12.91942"><ele>389.0</ele><time>2026-04-11T12:28:27.008Z</time></trkpt><trkpt lat="43.306025" lon="12.9192667"><ele>391.0</ele><time>2026-04-11T12:28:28.007Z</time></trkpt><trkpt lat="43.3060233" lon="12.9191067"><ele>393.25</ele><time>2026-04-11T12:28:29.007Z</time></trkpt><trkpt lat="43.306015" lon="12.918935"><ele>395.5</ele><time>2026-04-11T12:28:30.006Z</time></trkpt><trkpt lat="43.30602" lon="12.918755"><ele>397.75</ele><time>2026-04-11T12:28:31.006Z</time></trkpt><trkpt lat="43.306025" lon="12.9185883"><ele>400.0</ele><time>2026-04-11T12:28:32.006Z</time></trkpt><trkpt lat="43.3060317" lon="12.9184217"><ele>402.75</ele><time>2026-04-11T12:28:33.007Z</time></trkpt><trkpt lat="43.3060383" lon="12.9182517"><ele>405.5</ele><time>2026-04-11T12:28:34.007Z</time></trkpt><trkpt lat="43.3060483" lon="12.91808"><ele>408.25</ele><time>2026-04-11T12:28:35.008Z</time></trkpt><trkpt lat="43.30606" lon="12.9179183"><ele>411.0</ele><time>2026-04-11T12:28:36.005Z</time></trkpt><trkpt lat="43.3060833" lon="12.91778"><ele>411.0</ele><time>2026-04-11T12:28:37.005Z</time></trkpt><trkpt lat="43.3061033" lon="12.9176717"><ele>411.0</ele><time>2026-04-11T12:28:38.008Z</time></trkpt><trkpt lat="43.30615" lon="12.9176083"><ele>411.0</ele><time>2026-04-11T12:28:40.007Z</time></trkpt><trkpt lat="43.3062133" lon="12.9176867"><ele>411.0</ele><time>2026-04-11T12:28:42.006Z</time></trkpt><trkpt lat="43.3062467" lon="12.9177783"><ele>411.0</ele><time>2026-04-11T12:28:43.005Z</time></trkpt><trkpt lat="43.3062883" lon="12.9178867"><ele>411.0</ele><time>2026-04-11T12:28:44.003Z</time></trkpt><trkpt lat="43.3063317" lon="12.9180117"><ele>411.0</ele><time>2026-04-11T12:28:45.005Z</time></trkpt><trkpt lat="43.3063933" lon="12.91814"><ele>411.0</ele><time>2026-04-11T12:28:46.002Z</time></trkpt><trkpt lat="43.306455" lon="12.9182517"><ele>411.0</ele><time>2026-04-11T12:28:47.003Z</time></trkpt><trkpt lat="43.30652" lon="12.91834"><ele>411.0</ele><time>2026-04-11T12:28:48.004Z</time></trkpt><trkpt lat="43.3065767" lon="12.9184183"><ele>411.0</ele><time>2026-04-11T12:28:49.006Z</time></trkpt><trkpt lat="43.3066333" lon="12.91849"><ele>414.1666666666667</ele><time>2026-04-11T12:28:50.007Z</time></trkpt><trkpt lat="43.3066883" lon="12.9185583"><ele>417.33333333333337</ele><time>2026-04-11T12:28:51.008Z</time></trkpt><trkpt lat="43.3067467" lon="12.91861"><ele>420.5</ele><time>2026-04-11T12:28:52.007Z</time></trkpt><trkpt lat="43.3068083" lon="12.9186367"><ele>423.6666666666667</ele><time>2026-04-11T12:28:53.007Z</time></trkpt><trkpt lat="43.3068717" lon="12.9186517"><ele>426.83333333333337</ele><time>2026-04-11T12:28:54.009Z</time></trkpt><trkpt lat="43.306985" lon="12.9186717"><ele>430.0</ele><time>2026-04-11T12:28:56.008Z</time></trkpt><trkpt lat="43.3070483" lon="12.9186667"><ele>430.0</ele><time>2026-04-11T12:28:58.002Z</time></trkpt><trkpt lat="43.307065" lon="12.9185383"><ele>430.0</ele><time>2026-04-11T12:29:02.005Z</time></trkpt><trkpt lat="43.3070283" lon="12.9183667"><ele>430.0</ele><time>2026-04-11T12:29:04.005Z</time></trkpt><trkpt lat="43.3069983" lon="12.91827"><ele>430.0</ele><time>2026-04-11T12:29:05.005Z</time></trkpt><trkpt lat="43.3069617" lon="12.9181767"><ele>430.0</ele><time>2026-04-11T12:29:06.006Z</time></trkpt><trkpt lat="43.3069267" lon="12.9180833"><ele>432.00000000000006</ele><time>2026-04-11T12:29:07.005Z</time></trkpt><trkpt lat="43.3068933" lon="12.9179833"><ele>434.0</ele><time>2026-04-11T12:29:08.007Z</time></trkpt><trkpt lat="43.30686" lon="12.91788"><ele>436.0</ele><time>2026-04-11T12:29:09.008Z</time></trkpt><trkpt lat="43.30683" lon="12.91777"><ele>438.0</ele><time>2026-04-11T12:29:10.006Z</time></trkpt><trkpt lat="43.3068017" lon="12.9176633"><ele>440.00000000000006</ele><time>2026-04-11T12:29:11.005Z</time></trkpt><trkpt lat="43.3067867" lon="12.91757"><ele>442.0</ele><time>2026-04-11T12:29:12.008Z</time></trkpt><trkpt lat="43.30679" lon="12.9174683"><ele>443.6666666666667</ele><time>2026-04-11T12:29:13.006Z</time></trkpt><trkpt lat="43.3068033" lon="12.9173517"><ele>445.33333333333337</ele><time>2026-04-11T12:29:14.007Z</time></trkpt><trkpt lat="43.306815" lon="12.9172283"><ele>447.0</ele><time>2026-04-11T12:29:15.007Z</time></trkpt><trkpt lat="43.30683" lon="12.9171067"><ele>448.66666666666663</ele><time>2026-04-11T12:29:16.005Z</time></trkpt><trkpt lat="43.3068467" lon="12.9170033"><ele>450.3333333333333</ele><time>2026-04-11T12:29:17.006Z</time></trkpt><trkpt lat="43.30687" lon="12.916865"><ele>452.0</ele><time>2026-04-11T12:29:19.006Z</time></trkpt><trkpt lat="43.3068667" lon="12.9167533"><ele>453.6</ele><time>2026-04-11T12:29:37.005Z</time></trkpt><trkpt lat="43.30687" lon="12.916595"><ele>455.20000000000005</ele><time>2026-04-11T12:29:39.006Z</time></trkpt><trkpt lat="43.3068683" lon="12.9164817"><ele>456.8</ele><time>2026-04-11T12:29:40.006Z</time></trkpt><trkpt lat="43.3068717" lon="12.916355"><ele>458.4</ele><time>2026-04-11T12:29:41.006Z</time></trkpt><trkpt lat="43.30687" lon="12.9162167"><ele>460.0</ele><time>2026-04-11T12:29:42.007Z</time></trkpt><trkpt lat="43.3068683" lon="12.916055"><ele>461.75</ele><time>2026-04-11T12:29:43.005Z</time></trkpt><trkpt lat="43.30686" lon="12.91588"><ele>463.5</ele><time>2026-04-11T12:29:44.006Z</time></trkpt><trkpt lat="43.306855" lon="12.9156983"><ele>465.25</ele><time>2026-04-11T12:29:45.006Z</time></trkpt><trkpt lat="43.30685" lon="12.915515"><ele>467.0</ele><time>2026-04-11T12:29:46.006Z</time></trkpt><trkpt lat="43.3068417" lon="12.9153283"><ele>467.0</ele><time>2026-04-11T12:29:47.006Z</time></trkpt><trkpt lat="43.3068317" lon="12.9151433"><ele>467.0</ele><time>2026-04-11T12:29:48.005Z</time></trkpt><trkpt lat="43.3068283" lon="12.9149583"><ele>467.0</ele><time>2026-04-11T12:29:49.003Z</time></trkpt><trkpt lat="43.306825" lon="12.9147733"><ele>467.0</ele><time>2026-04-11T12:29:50.007Z</time></trkpt><trkpt lat="43.306825" lon="12.914595"><ele>469.5</ele><time>2026-04-11T12:29:51.013Z</time></trkpt><trkpt lat="43.3068233" lon="12.9144183"><ele>472.0</ele><time>2026-04-11T12:29:52.006Z</time></trkpt><trkpt lat="43.3068217" lon="12.9142383"><ele>474.5</ele><time>2026-04-11T12:29:53.006Z</time></trkpt><trkpt lat="43.306815" lon="12.9140533"><ele>477.0</ele><time>2026-04-11T12:29:54.007Z</time></trkpt><trkpt lat="43.3068117" lon="12.913865"><ele>479.25</ele><time>2026-04-11T12:29:55.008Z</time></trkpt><trkpt lat="43.3068117" lon="12.91368"><ele>481.5</ele><time>2026-04-11T12:29:56.007Z</time></trkpt><trkpt lat="43.3068083" lon="12.91349"><ele>483.75</ele><time>2026-04-11T12:29:57.008Z</time></trkpt><trkpt lat="43.3068067" lon="12.9133067"><ele>486.0</ele><time>2026-04-11T12:29:58.007Z</time></trkpt><trkpt lat="43.306805" lon="12.913135"><ele>488.0</ele><time>2026-04-11T12:29:59.002Z</time></trkpt><trkpt lat="43.3068033" lon="12.9129633"><ele>490.0</ele><time>2026-04-11T12:30:00.007Z</time></trkpt><trkpt lat="43.3068033" lon="12.912795"><ele>492.0</ele><time>2026-04-11T12:30:01.007Z</time></trkpt><trkpt lat="43.306805" lon="12.9126367"><ele>494.0</ele><time>2026-04-11T12:30:02.006Z</time></trkpt><trkpt lat="43.306805" lon="12.9124933"><ele>496.0</ele><time>2026-04-11T12:30:03.009Z</time></trkpt><trkpt lat="43.3068083" lon="12.9123367"><ele>498.0</ele><time>2026-04-11T12:30:04.016Z</time></trkpt><trkpt lat="43.3068083" lon="12.9121867"><ele>500.0</ele><time>2026-04-11T12:30:05.007Z</time></trkpt><trkpt lat="43.306805" lon="12.912035"><ele>502.0</ele><time>2026-04-11T12:30:06.007Z</time></trkpt><trkpt lat="43.3068067" lon="12.9118917"><ele>504.0</ele><time>2026-04-11T12:30:07.007Z</time></trkpt><trkpt lat="43.3068067" lon="12.91174"><ele>505.25</ele><time>2026-04-11T12:30:08.007Z</time></trkpt><trkpt lat="43.30681" lon="12.9115733"><ele>506.5</ele><time>2026-04-11T12:30:09.008Z</time></trkpt><trkpt lat="43.306815" lon="12.9114067"><ele>507.75</ele><time>2026-04-11T12:30:10.007Z</time></trkpt><trkpt lat="43.3068267" lon="12.91123"><ele>509.0</ele><time>2026-04-11T12:30:11.006Z</time></trkpt><trkpt lat="43.306835" lon="12.91105"><ele>508.75</ele><time>2026-04-11T12:30:12.005Z</time></trkpt><trkpt lat="43.3068433" lon="12.9108717"><ele>508.5</ele><time>2026-04-11T12:30:13.008Z</time></trkpt><trkpt lat="43.3068633" lon="12.9106933"><ele>508.25</ele><time>2026-04-11T12:30:14.005Z</time></trkpt><trkpt lat="43.3068917" lon="12.910525"><ele>508.0</ele><time>2026-04-11T12:30:15.007Z</time></trkpt><trkpt lat="43.3069167" lon="12.9103567"><ele>508.0</ele><time>2026-04-11T12:30:16.007Z</time></trkpt><trkpt lat="43.3069433" lon="12.9101933"><ele>508.0</ele><time>2026-04-11T12:30:17.007Z</time></trkpt><trkpt lat="43.3069783" lon="12.9100367"><ele>508.0</ele><time>2026-04-11T12:30:18.007Z</time></trkpt><trkpt lat="43.3070217" lon="12.9098817"><ele>508.0</ele><time>2026-04-11T12:30:19.006Z</time></trkpt><trkpt lat="43.3070683" lon="12.9097367"><ele>507.0</ele><time>2026-04-11T12:30:20.009Z</time></trkpt><trkpt lat="43.30712" lon="12.9095917"><ele>506.0</ele><time>2026-04-11T12:30:21.008Z</time></trkpt><trkpt lat="43.30718" lon="12.90945"><ele>505.0</ele><time>2026-04-11T12:30:22.007Z</time></trkpt><trkpt lat="43.307245" lon="12.9093067"><ele>504.0</ele><time>2026-04-11T12:30:23.006Z</time></trkpt><trkpt lat="43.307315" lon="12.9091717"><ele>511.79999999999995</ele><time>2026-04-11T12:30:24.008Z</time></trkpt><trkpt lat="43.30738" lon="12.9090483"><ele>519.5999999999999</ele><time>2026-04-11T12:30:25.006Z</time></trkpt><trkpt lat="43.3074367" lon="12.90892"><ele>527.4</ele><time>2026-04-11T12:30:26.008Z</time></trkpt><trkpt lat="43.3074967" lon="12.9087983"><ele>535.1999999999999</ele><time>2026-04-11T12:30:27.006Z</time></trkpt><trkpt lat="43.307555" lon="12.908685"><ele>543.0</ele><time>2026-04-11T12:30:28.007Z</time></trkpt><trkpt lat="43.30761" lon="12.9085883"><ele>543.0</ele><time>2026-04-11T12:30:29.007Z</time></trkpt><trkpt lat="43.30768" lon="12.90851"><ele>543.0</ele><time>2026-04-11T12:30:30.006Z</time></trkpt><trkpt lat="43.307765" lon="12.908435"><ele>543.0</ele><time>2026-04-11T12:30:31.006Z</time></trkpt><trkpt lat="43.3078517" lon="12.90837"><ele>543.0</ele><time>2026-04-11T12:30:32.006Z</time></trkpt><trkpt lat="43.307945" lon="12.908295"><ele>543.0</ele><time>2026-04-11T12:30:33.007Z</time></trkpt><trkpt lat="43.3080417" lon="12.9082217"><ele>545.5</ele><time>2026-04-11T12:30:34.008Z</time></trkpt><trkpt lat="43.3081483" lon="12.9081383"><ele>548.0</ele><time>2026-04-11T12:30:34.999Z</time></trkpt><trkpt lat="43.3082583" lon="12.908055"><ele>550.5</ele><time>2026-04-11T12:30:36.001Z</time></trkpt><trkpt lat="43.3083567" lon="12.9079767"><ele>553.0</ele><time>2026-04-11T12:30:37.006Z</time></trkpt><trkpt lat="43.3084483" lon="12.9079267"><ele>553.0</ele><time>2026-04-11T12:30:38.005Z</time></trkpt><trkpt lat="43.3085183" lon="12.907895"><ele>553.0</ele><time>2026-04-11T12:30:39.006Z</time></trkpt><trkpt lat="43.3086083" lon="12.90789"><ele>553.0</ele><time>2026-04-11T12:30:41.006Z</time></trkpt><trkpt lat="43.3085433" lon="12.9078483"><ele>553.0</ele><time>2026-04-11T12:30:56.006Z</time></trkpt><trkpt lat="43.308495" lon="12.9077833"><ele>553.0</ele><time>2026-04-11T12:30:58.006Z</time></trkpt><trkpt lat="43.3084383" lon="12.9077283"><ele>553.0</ele><time>2026-04-11T12:31:00.007Z</time></trkpt><trkpt lat="43.308415" lon="12.90762"><ele>552.0</ele><time>2026-04-11T12:31:02.007Z</time></trkpt><trkpt lat="43.3084083" lon="12.9075233"><ele>551.0</ele><time>2026-04-11T12:31:03.008Z</time></trkpt><trkpt lat="43.3084067" lon="12.9074117"><ele>550.0</ele><time>2026-04-11T12:31:04.006Z</time></trkpt><trkpt lat="43.308405" lon="12.9073083"><ele>549.0</ele><time>2026-04-11T12:31:05.007Z</time></trkpt><trkpt lat="43.3083767" lon="12.90722"><ele>548.0</ele><time>2026-04-11T12:31:10.002Z</time></trkpt><trkpt lat="43.3083083" lon="12.9072417"><ele>547.0</ele><time>2026-04-11T12:31:12.007Z</time></trkpt><trkpt lat="43.3082583" lon="12.9073117"><ele>546.0</ele><time>2026-04-11T12:31:14.001Z</time></trkpt><trkpt lat="43.3081933" lon="12.9073633"><ele>546.0</ele><time>2026-04-11T12:31:17.001Z</time></trkpt><trkpt lat="43.30813" lon="12.9073867"><ele>546.0</ele><time>2026-04-11T12:31:20.006Z</time></trkpt><trkpt lat="43.3080533" lon="12.9073283"><ele>546.0</ele><time>2026-04-11T12:31:27.007Z</time></trkpt><trkpt lat="43.3079817" lon="12.9073617"><ele>546.0</ele><time>2026-04-11T12:31:34.008Z</time></trkpt><trkpt lat="43.3079433" lon="12.9074817"><ele>546.0</ele><time>2026-04-11T12:31:36.007Z</time></trkpt><trkpt lat="43.3079033" lon="12.9075517"><ele>546.0</ele><time>2026-04-11T12:31:38.007Z</time></trkpt><trkpt lat="43.307815" lon="12.9076083"><ele>541.8</ele><time>2026-04-11T12:31:41.005Z</time></trkpt><trkpt lat="43.3077183" lon="12.9077217"><ele>537.6</ele><time>2026-04-11T12:31:43.006Z</time></trkpt><trkpt lat="43.3076283" lon="12.9078333"><ele>533.4</ele><time>2026-04-11T12:31:45.006Z</time></trkpt><trkpt lat="43.307575" lon="12.9078933"><ele>529.2</ele><time>2026-04-11T12:31:46.005Z</time></trkpt><trkpt lat="43.3075217" lon="12.9079483"><ele>525.0</ele><time>2026-04-11T12:31:47.007Z</time></trkpt><trkpt lat="43.3074767" lon="12.9080183"><ele>525.0</ele><time>2026-04-11T12:31:48.006Z</time></trkpt><trkpt lat="43.3074233" lon="12.908095"><ele>525.0</ele><time>2026-04-11T12:31:49.008Z</time></trkpt><trkpt lat="43.30737" lon="12.908165"><ele>525.0</ele><time>2026-04-11T12:31:50.006Z</time></trkpt><trkpt lat="43.307315" lon="12.908235"><ele>525.0</ele><time>2026-04-11T12:31:51.007Z</time></trkpt><trkpt lat="43.307255" lon="12.90831"><ele>525.0</ele><time>2026-04-11T12:31:52.006Z</time></trkpt><trkpt lat="43.3071967" lon="12.908395"><ele>525.0</ele><time>2026-04-11T12:31:53.006Z</time></trkpt><trkpt lat="43.3071417" lon="12.908485"><ele>520.5</ele><time>2026-04-11T12:31:54.005Z</time></trkpt><trkpt lat="43.3070917" lon="12.9085767"><ele>516.0</ele><time>2026-04-11T12:31:55.005Z</time></trkpt><trkpt lat="43.3070467" lon="12.9086633"><ele>511.5</ele><time>2026-04-11T12:31:56.005Z</time></trkpt><trkpt lat="43.3070067" lon="12.9087433"><ele>507.0</ele><time>2026-04-11T12:31:57.007Z</time></trkpt><trkpt lat="43.306965" lon="12.9088217"><ele>502.5</ele><time>2026-04-11T12:31:58.007Z</time></trkpt><trkpt lat="43.3069283" lon="12.90891"><ele>498.0</ele><time>2026-04-11T12:31:59.007Z</time></trkpt><trkpt lat="43.306885" lon="12.9089917"><ele>498.0</ele><time>2026-04-11T12:32:00.006Z</time></trkpt><trkpt lat="43.3068483" lon="12.9090883"><ele>498.0</ele><time>2026-04-11T12:32:01.007Z</time></trkpt><trkpt lat="43.3068117" lon="12.9091883"><ele>498.0</ele><time>2026-04-11T12:32:02.008Z</time></trkpt><trkpt lat="43.3067733" lon="12.9092883"><ele>498.0</ele><time>2026-04-11T12:32:03.008Z</time></trkpt><trkpt lat="43.306735" lon="12.9093883"><ele>498.0</ele><time>2026-04-11T12:32:04.006Z</time></trkpt><trkpt lat="43.3067" lon="12.909495"><ele>498.0</ele><time>2026-04-11T12:32:05.006Z</time></trkpt><trkpt lat="43.3066683" lon="12.9096033"><ele>499.0</ele><time>2026-04-11T12:32:06.007Z</time></trkpt><trkpt lat="43.3066367" lon="12.9097017"><ele>500.0</ele><time>2026-04-11T12:32:07.006Z</time></trkpt><trkpt lat="43.3066067" lon="12.9098033"><ele>501.0</ele><time>2026-04-11T12:32:08.006Z</time></trkpt><trkpt lat="43.3065783" lon="12.9099067"><ele>502.0</ele><time>2026-04-11T12:32:09.001Z</time></trkpt><trkpt lat="43.3065567" lon="12.9100067"><ele>503.0</ele><time>2026-04-11T12:32:10.005Z</time></trkpt><trkpt lat="43.3065333" lon="12.9101"><ele>504.0</ele><time>2026-04-11T12:32:11.006Z</time></trkpt><trkpt lat="43.3065167" lon="12.9101983"><ele>504.79999999999995</ele><time>2026-04-11T12:32:12.006Z</time></trkpt><trkpt lat="43.306495" lon="12.9103083"><ele>505.59999999999997</ele><time>2026-04-11T12:32:13.006Z</time></trkpt><trkpt lat="43.3064733" lon="12.910425"><ele>506.4</ele><time>2026-04-11T12:32:14.007Z</time></trkpt><trkpt lat="43.30645" lon="12.9105433"><ele>507.2</ele><time>2026-04-11T12:32:15.008Z</time></trkpt><trkpt lat="43.30643" lon="12.91067"><ele>508.0</ele><time>2026-04-11T12:32:16.007Z</time></trkpt><trkpt lat="43.3064033" lon="12.9107983"><ele>498.2</ele><time>2026-04-11T12:32:17.006Z</time></trkpt><trkpt lat="43.306385" lon="12.9109283"><ele>488.4</ele><time>2026-04-11T12:32:18.004Z</time></trkpt><trkpt lat="43.306365" lon="12.91105"><ele>478.59999999999997</ele><time>2026-04-11T12:32:19.004Z</time></trkpt><trkpt lat="43.3063483" lon="12.911175"><ele>468.79999999999995</ele><time>2026-04-11T12:32:20.007Z</time></trkpt><trkpt lat="43.30633" lon="12.911295"><ele>459.0</ele><time>2026-04-11T12:32:21.006Z</time></trkpt><trkpt lat="43.3063133" lon="12.9114183"><ele>459.0</ele><time>2026-04-11T12:32:22.007Z</time></trkpt><trkpt lat="43.3062917" lon="12.91155"><ele>459.0</ele><time>2026-04-11T12:32:23.005Z</time></trkpt><trkpt lat="43.3062733" lon="12.91169"><ele>459.0</ele><time>2026-04-11T12:32:24.006Z</time></trkpt><trkpt lat="43.3062567" lon="12.9118333"><ele>459.0</ele><time>2026-04-11T12:32:25.006Z</time></trkpt><trkpt lat="43.3062383" lon="12.91198"><ele>459.0</ele><time>2026-04-11T12:32:26.005Z</time></trkpt><trkpt lat="43.3062133" lon="12.9121183"><ele>458.8333333333333</ele><time>2026-04-11T12:32:27.008Z</time></trkpt><trkpt lat="43.3061933" lon="12.9122467"><ele>458.66666666666663</ele><time>2026-04-11T12:32:28.005Z</time></trkpt><trkpt lat="43.3061783" lon="12.91237"><ele>458.5</ele><time>2026-04-11T12:32:29.006Z</time></trkpt><trkpt lat="43.3061667" lon="12.9124867"><ele>458.3333333333333</ele><time>2026-04-11T12:32:30.006Z</time></trkpt><trkpt lat="43.3061583" lon="12.91259"><ele>458.16666666666663</ele><time>2026-04-11T12:32:31.007Z</time></trkpt><trkpt lat="43.3061483" lon="12.9127017"><ele>458.0</ele><time>2026-04-11T12:32:33.006Z</time></trkpt><trkpt lat="43.30611" lon="12.9125367"><ele>457.99999999999994</ele><time>2026-04-11T12:33:54.005Z</time></trkpt><trkpt lat="43.3060867" lon="12.9124383"><ele>458.0</ele><time>2026-04-11T12:33:55.007Z</time></trkpt><trkpt lat="43.3060633" lon="12.912335"><ele>458.0</ele><time>2026-04-11T12:33:56.005Z</time></trkpt><trkpt lat="43.3060383" lon="12.9122267"><ele>458.0</ele><time>2026-04-11T12:33:57.008Z</time></trkpt><trkpt lat="43.30601" lon="12.9121033"><ele>457.99999999999994</ele><time>2026-04-11T12:33:58.006Z</time></trkpt><trkpt lat="43.3059833" lon="12.9119867"><ele>458.0</ele><time>2026-04-11T12:33:59.007Z</time></trkpt><trkpt lat="43.3059533" lon="12.9118783"><ele>457.99999999999994</ele><time>2026-04-11T12:34:00.006Z</time></trkpt><trkpt lat="43.30593" lon="12.91177"><ele>458.0</ele><time>2026-04-11T12:34:01.006Z</time></trkpt><trkpt lat="43.30591" lon="12.9116667"><ele>458.0</ele><time>2026-04-11T12:34:02.005Z</time></trkpt><trkpt lat="43.305895" lon="12.9115667"><ele>458.0</ele><time>2026-04-11T12:34:03.006Z</time></trkpt><trkpt lat="43.3058733" lon="12.911465"><ele>457.99999999999994</ele><time>2026-04-11T12:34:04.007Z</time></trkpt><trkpt lat="43.3058433" lon="12.911355"><ele>458.0</ele><time>2026-04-11T12:34:05.006Z</time></trkpt><trkpt lat="43.3058133" lon="12.9112367"><ele>458.16666666666663</ele><time>2026-04-11T12:34:06.006Z</time></trkpt><trkpt lat="43.305785" lon="12.91113"><ele>458.3333333333333</ele><time>2026-04-11T12:34:07.005Z</time></trkpt><trkpt lat="43.3057583" lon="12.9110333"><ele>458.5</ele><time>2026-04-11T12:34:08.001Z</time></trkpt><trkpt lat="43.305735" lon="12.910945"><ele>458.66666666666663</ele><time>2026-04-11T12:34:09.009Z</time></trkpt><trkpt lat="43.3057217" lon="12.910845"><ele>458.8333333333333</ele><time>2026-04-11T12:34:10.007Z</time></trkpt><trkpt lat="43.3057033" lon="12.91074"><ele>459.0</ele><time>2026-04-11T12:34:11.006Z</time></trkpt><trkpt lat="43.3056833" lon="12.9106467"><ele>459.2</ele><time>2026-04-11T12:34:12.006Z</time></trkpt><trkpt lat="43.3056417" lon="12.9105183"><ele>459.4</ele><time>2026-04-11T12:34:14.006Z</time></trkpt><trkpt lat="43.3055267" lon="12.910465"><ele>459.6</ele><time>2026-04-11T12:34:16.005Z</time></trkpt><trkpt lat="43.3054633" lon="12.9104467"><ele>459.8</ele><time>2026-04-11T12:34:17.005Z</time></trkpt><trkpt lat="43.3053967" lon="12.9104367"><ele>460.0</ele><time>2026-04-11T12:34:18.005Z</time></trkpt><trkpt lat="43.3052767" lon="12.91041"><ele>454.4</ele><time>2026-04-11T12:34:20.005Z</time></trkpt><trkpt lat="43.3051783" lon="12.9104217"><ele>448.8</ele><time>2026-04-11T12:34:22.005Z</time></trkpt><trkpt lat="43.30508" lon="12.9103733"><ele>443.20000000000005</ele><time>2026-04-11T12:34:25.005Z</time></trkpt><trkpt lat="43.3050033" lon="12.9103383"><ele>437.6</ele><time>2026-04-11T12:34:27.007Z</time></trkpt><trkpt lat="43.3049133" lon="12.9102767"><ele>432.0</ele><time>2026-04-11T12:34:29.006Z</time></trkpt><trkpt lat="43.304825" lon="12.91024"><ele>432.0</ele><time>2026-04-11T12:34:31.007Z</time></trkpt><trkpt lat="43.3047583" lon="12.9101733"><ele>432.00000000000006</ele><time>2026-04-11T12:34:34.006Z</time></trkpt><trkpt lat="43.3047233" lon="12.9100867"><ele>432.00000000000006</ele><time>2026-04-11T12:34:36.007Z</time></trkpt><trkpt lat="43.3047733" lon="12.9100017"><ele>432.0</ele><time>2026-04-11T12:38:37.006Z</time></trkpt><trkpt lat="43.3048783" lon="12.9098767"><ele>432.0</ele><time>2026-04-11T12:38:39.007Z</time></trkpt><trkpt lat="43.3049383" lon="12.90979"><ele>432.0</ele><time>2026-04-11T12:38:40.007Z</time></trkpt><trkpt lat="43.305" lon="12.9097033"><ele>432.00000000000006</ele><time>2026-04-11T12:38:41.006Z</time></trkpt><trkpt lat="43.3050667" lon="12.90961"><ele>432.00000000000006</ele><time>2026-04-11T12:38:42.007Z</time></trkpt><trkpt lat="43.3051367" lon="12.909505"><ele>432.0</ele><time>2026-04-11T12:38:43.005Z</time></trkpt><trkpt lat="43.3052" lon="12.9094017"><ele>432.0</ele><time>2026-04-11T12:38:44Z</time></trkpt><trkpt lat="43.3052617" lon="12.9092983"><ele>434.40000000000003</ele><time>2026-04-11T12:38:45.007Z</time></trkpt><trkpt lat="43.305325" lon="12.9092067"><ele>436.80000000000007</ele><time>2026-04-11T12:38:46Z</time></trkpt><trkpt lat="43.3053933" lon="12.90912"><ele>439.2</ele><time>2026-04-11T12:38:46.999Z</time></trkpt><trkpt lat="43.3054617" lon="12.9090183"><ele>441.6</ele><time>2026-04-11T12:38:48Z</time></trkpt><trkpt lat="43.3055133" lon="12.9089167"><ele>444.0</ele><time>2026-04-11T12:38:49.003Z</time></trkpt><trkpt lat="43.305565" lon="12.9088167"><ele>445.1666666666667</ele><time>2026-04-11T12:38:50.006Z</time></trkpt><trkpt lat="43.3056233" lon="12.9087283"><ele>446.33333333333337</ele><time>2026-04-11T12:38:51.006Z</time></trkpt><trkpt lat="43.3056767" lon="12.9086433"><ele>447.5</ele><time>2026-04-11T12:38:52.006Z</time></trkpt><trkpt lat="43.3057167" lon="12.908555"><ele>448.6666666666667</ele><time>2026-04-11T12:38:53.005Z</time></trkpt><trkpt lat="43.3057433" lon="12.9084667"><ele>449.83333333333337</ele><time>2026-04-11T12:38:54.006Z</time></trkpt><trkpt lat="43.3057683" lon="12.9083817"><ele>451.0</ele><time>2026-04-11T12:38:55.006Z</time></trkpt><trkpt lat="43.30581" lon="12.9082267"><ele>451.00000000000006</ele><time>2026-04-11T12:38:57.002Z</time></trkpt><trkpt lat="43.3058267" lon="12.9080683"><ele>451.0</ele><time>2026-04-11T12:38:59.001Z</time></trkpt><trkpt lat="43.305845" lon="12.907985"><ele>451.0</ele><time>2026-04-11T12:39:00.009Z</time></trkpt><trkpt lat="43.30587" lon="12.9079017"><ele>451.0</ele><time>2026-04-11T12:39:01.006Z</time></trkpt><trkpt lat="43.3059083" lon="12.9078083"><ele>451.00000000000006</ele><time>2026-04-11T12:39:02.007Z</time></trkpt><trkpt lat="43.305955" lon="12.9077183"><ele>451.0</ele><time>2026-04-11T12:39:03.008Z</time></trkpt><trkpt lat="43.3060083" lon="12.9076267"><ele>453.1666666666667</ele><time>2026-04-11T12:39:04.006Z</time></trkpt><trkpt lat="43.3060467" lon="12.907535"><ele>455.33333333333337</ele><time>2026-04-11T12:39:05.002Z</time></trkpt><trkpt lat="43.3060883" lon="12.9074367"><ele>457.5</ele><time>2026-04-11T12:39:06.006Z</time></trkpt><trkpt lat="43.3061317" lon="12.9073383"><ele>459.66666666666663</ele><time>2026-04-11T12:39:07.004Z</time></trkpt><trkpt lat="43.306185" lon="12.9072417"><ele>461.8333333333333</ele><time>2026-04-11T12:39:08.004Z</time></trkpt><trkpt lat="43.3062433" lon="12.9071467"><ele>464.0</ele><time>2026-04-11T12:39:09.001Z</time></trkpt><trkpt lat="43.3063" lon="12.90706"><ele>464.0</ele><time>2026-04-11T12:39:10.007Z</time></trkpt><trkpt lat="43.3063433" lon="12.9069533"><ele>464.0</ele><time>2026-04-11T12:39:11.006Z</time></trkpt><trkpt lat="43.3063767" lon="12.9068417"><ele>464.0</ele><time>2026-04-11T12:39:12.007Z</time></trkpt><trkpt lat="43.3064" lon="12.9067283"><ele>464.0</ele><time>2026-04-11T12:39:13.008Z</time></trkpt><trkpt lat="43.3064317" lon="12.9066117"><ele>464.0</ele><time>2026-04-11T12:39:14.011Z</time></trkpt><trkpt lat="43.3064717" lon="12.90648"><ele>463.8333333333333</ele><time>2026-04-11T12:39:15.009Z</time></trkpt><trkpt lat="43.306515" lon="12.90635"><ele>463.66666666666663</ele><time>2026-04-11T12:39:16.006Z</time></trkpt><trkpt lat="43.30656" lon="12.9062367"><ele>463.5</ele><time>2026-04-11T12:39:17.006Z</time></trkpt><trkpt lat="43.3066" lon="12.9061333"><ele>463.33333333333337</ele><time>2026-04-11T12:39:18.007Z</time></trkpt><trkpt lat="43.3066267" lon="12.9060367"><ele>463.1666666666667</ele><time>2026-04-11T12:39:19.006Z</time></trkpt><trkpt lat="43.3066467" lon="12.9059283"><ele>463.0</ele><time>2026-04-11T12:39:20.007Z</time></trkpt><trkpt lat="43.306665" lon="12.9058167"><ele>465.50000000000006</ele><time>2026-04-11T12:39:21.008Z</time></trkpt><trkpt lat="43.3066767" lon="12.905695"><ele>468.0</ele><time>2026-04-11T12:39:22.006Z</time></trkpt><trkpt lat="43.306675" lon="12.9055717"><ele>470.5</ele><time>2026-04-11T12:39:23.007Z</time></trkpt><trkpt lat="43.3066617" lon="12.9054517"><ele>473.0</ele><time>2026-04-11T12:39:24.006Z</time></trkpt><trkpt lat="43.3066417" lon="12.90533"><ele>475.50000000000006</ele><time>2026-04-11T12:39:25.007Z</time></trkpt><trkpt lat="43.30663" lon="12.9052317"><ele>478.0</ele><time>2026-04-11T12:39:26.006Z</time></trkpt><trkpt lat="43.3066167" lon="12.9051033"><ele>482.2</ele><time>2026-04-11T12:39:27.008Z</time></trkpt><trkpt lat="43.3066067" lon="12.9049667"><ele>486.4</ele><time>2026-04-11T12:39:28.007Z</time></trkpt><trkpt lat="43.3066" lon="12.9048267"><ele>490.59999999999997</ele><time>2026-04-11T12:39:29.006Z</time></trkpt><trkpt lat="43.3065933" lon="12.90471"><ele>494.79999999999995</ele><time>2026-04-11T12:39:30.006Z</time></trkpt><trkpt lat="43.3065667" lon="12.9045683"><ele>499.0</ele><time>2026-04-11T12:39:31.006Z</time></trkpt><trkpt lat="43.30653" lon="12.9044367"><ele>499.0</ele><time>2026-04-11T12:39:32.006Z</time></trkpt><trkpt lat="43.3064983" lon="12.9043017"><ele>499.0</ele><time>2026-04-11T12:39:33.008Z</time></trkpt><trkpt lat="43.3064583" lon="12.9041783"><ele>499.0</ele><time>2026-04-11T12:39:34.006Z</time></trkpt><trkpt lat="43.306425" lon="12.9040733"><ele>499.0</ele><time>2026-04-11T12:39:35.006Z</time></trkpt><trkpt lat="43.3063883" lon="12.9039433"><ele>499.0</ele><time>2026-04-11T12:39:36.006Z</time></trkpt><trkpt lat="43.30636" lon="12.903815"><ele>508.50000000000006</ele><time>2026-04-11T12:39:37.006Z</time></trkpt><trkpt lat="43.3063367" lon="12.90369"><ele>518.0</ele><time>2026-04-11T12:39:38.006Z</time></trkpt><trkpt lat="43.3063217" lon="12.9035717"><ele>527.5</ele><time>2026-04-11T12:39:39.006Z</time></trkpt><trkpt lat="43.3062867" lon="12.9034567"><ele>537.0</ele><time>2026-04-11T12:39:40.008Z</time></trkpt><trkpt lat="43.30625" lon="12.9033533"><ele>546.5</ele><time>2026-04-11T12:39:41.005Z</time></trkpt><trkpt lat="43.3062167" lon="12.903245"><ele>556.0</ele><time>2026-04-11T12:39:42.006Z</time></trkpt><trkpt lat="43.30621" lon="12.9031367"><ele>556.0</ele><time>2026-04-11T12:39:43.006Z</time></trkpt><trkpt lat="43.3061917" lon="12.9030267"><ele>556.0</ele><time>2026-04-11T12:39:44.005Z</time></trkpt><trkpt lat="43.3061733" lon="12.9029167"><ele>556.0</ele><time>2026-04-11T12:39:45.008Z</time></trkpt><trkpt lat="43.3061533" lon="12.9028017"><ele>556.0</ele><time>2026-04-11T12:39:46.005Z</time></trkpt><trkpt lat="43.306145" lon="12.9026867"><ele>556.0</ele><time>2026-04-11T12:39:47.007Z</time></trkpt><trkpt lat="43.3061483" lon="12.9025817"><ele>556.0</ele><time>2026-04-11T12:39:48.006Z</time></trkpt><trkpt lat="43.30617" lon="12.9024917"><ele>556.0</ele><time>2026-04-11T12:39:49.006Z</time></trkpt><trkpt lat="43.306195" lon="12.90236"><ele>556.0</ele><time>2026-04-11T12:39:51.006Z</time></trkpt><trkpt lat="43.3061517" lon="12.902455"><ele>556.0</ele><time>2026-04-11T12:39:59.006Z</time></trkpt><trkpt lat="43.30608" lon="12.90252"><ele>556.0</ele><time>2026-04-11T12:40:02.006Z</time></trkpt><trkpt lat="43.3060117" lon="12.9025783"><ele>556.0</ele><time>2026-04-11T12:40:04.005Z</time></trkpt><trkpt lat="43.3059383" lon="12.90268"><ele>556.0</ele><time>2026-04-11T12:40:06.006Z</time></trkpt><trkpt lat="43.305885" lon="12.9028017"><ele>556.0</ele><time>2026-04-11T12:40:08.006Z</time></trkpt><trkpt lat="43.3058467" lon="12.9029133"><ele>556.0</ele><time>2026-04-11T12:40:10.006Z</time></trkpt><trkpt lat="43.305795" lon="12.9030283"><ele>556.0</ele><time>2026-04-11T12:40:12.006Z</time></trkpt><trkpt lat="43.305755" lon="12.9031"><ele>556.0</ele><time>2026-04-11T12:40:13.007Z</time></trkpt><trkpt lat="43.30567" lon="12.9031883"><ele>556.0</ele><time>2026-04-11T12:40:15.008Z</time></trkpt><trkpt lat="43.30562" lon="12.9033167"><ele>556.0</ele><time>2026-04-11T12:40:17.005Z</time></trkpt><trkpt lat="43.3055917" lon="12.9034333"><ele>556.0</ele><time>2026-04-11T12:40:19.006Z</time></trkpt><trkpt lat="43.3055583" lon="12.9035367"><ele>556.0</ele><time>2026-04-11T12:40:22.009Z</time></trkpt><trkpt lat="43.3055967" lon="12.9036383"><ele>556.0</ele><time>2026-04-11T12:40:52.006Z</time></trkpt><trkpt lat="43.3056533" lon="12.9035867"><ele>556.0</ele><time>2026-04-11T12:41:18.006Z</time></trkpt><trkpt lat="43.3055945" lon="12.9035498"><ele>569.0</ele><time>2026-04-11T12:41:43.005Z</time></trkpt><trkpt lat="43.3055484" lon="12.9036156"><ele>582.0</ele><time>2026-04-11T12:41:53.006Z</time></trkpt><trkpt lat="43.3054808" lon="12.9038161"><ele>595.0</ele><time>2026-04-11T12:41:58.006Z</time></trkpt><trkpt lat="43.3054474" lon="12.9039055"><ele>608.0</ele><time>2026-04-11T12:42:00.007Z</time></trkpt><trkpt lat="43.3054064" lon="12.9040032"><ele>621.0</ele><time>2026-04-11T12:42:03.007Z</time></trkpt><trkpt lat="43.3053751" lon="12.9040855"><ele>621.0</ele><time>2026-04-11T12:42:05.005Z</time></trkpt><trkpt lat="43.3053412" lon="12.9041817"><ele>621.0</ele><time>2026-04-11T12:42:07.032Z</time></trkpt><trkpt lat="43.3052895" lon="12.9042856"><ele>621.0</ele><time>2026-04-11T12:42:09.009Z</time></trkpt><trkpt lat="43.3052424" lon="12.9043888"><ele>621.0</ele><time>2026-04-11T12:42:12.002Z</time></trkpt><trkpt lat="43.3051988" lon="12.9044744"><ele>621.0</ele><time>2026-04-11T12:42:14.006Z</time></trkpt><trkpt lat="43.305153" lon="12.9045373"><ele>621.0</ele><time>2026-04-11T12:42:16.006Z</time></trkpt><trkpt lat="43.3050888" lon="12.9045931"><ele>618.9999999999999</ele><time>2026-04-11T12:42:19.006Z</time></trkpt><trkpt lat="43.3050605" lon="12.9046741"><ele>617.0</ele><time>2026-04-11T12:42:22.054Z</time></trkpt><trkpt lat="43.3050014" lon="12.9047628"><ele>615.0</ele><time>2026-04-11T12:42:25.035Z</time></trkpt><trkpt lat="43.3049579" lon="12.9048503"><ele>613.0</ele><time>2026-04-11T12:42:28.016Z</time></trkpt><trkpt lat="43.3049185" lon="12.9049312"><ele>611.0</ele><time>2026-04-11T12:42:31.006Z</time></trkpt><trkpt lat="43.3048734" lon="12.9050085"><ele>608.9999999999999</ele><time>2026-04-11T12:42:35.05Z</time></trkpt><trkpt lat="43.3048227" lon="12.905078"><ele>607.0</ele><time>2026-04-11T12:42:41.011Z</time></trkpt><trkpt lat="43.3047633" lon="12.9051338"><ele>606.1666666666667</ele><time>2026-04-11T12:42:49.006Z</time></trkpt><trkpt lat="43.3047002" lon="12.9051303"><ele>605.3333333333334</ele><time>2026-04-11T12:44:36.006Z</time></trkpt><trkpt lat="43.3046375" lon="12.9050875"><ele>604.5</ele><time>2026-04-11T12:44:41.005Z</time></trkpt><trkpt lat="43.3045573" lon="12.9050425"><ele>603.6666666666666</ele><time>2026-04-11T12:44:43.005Z</time></trkpt><trkpt lat="43.3044759" lon="12.9050062"><ele>602.8333333333333</ele><time>2026-04-11T12:44:45.01Z</time></trkpt><trkpt lat="43.3043971" lon="12.9050113"><ele>602.0</ele><time>2026-04-11T12:44:46.998Z</time></trkpt><trkpt lat="43.3043033" lon="12.90487"><ele>607.4</ele><time>2026-04-11T12:44:48.006Z</time></trkpt><trkpt lat="43.3042217" lon="12.9048167"><ele>612.8000000000001</ele><time>2026-04-11T12:44:50.006Z</time></trkpt><trkpt lat="43.30412" lon="12.9047517"><ele>618.2</ele><time>2026-04-11T12:44:52.008Z</time></trkpt><trkpt lat="43.3040133" lon="12.9046683"><ele>623.6</ele><time>2026-04-11T12:44:54.005Z</time></trkpt><trkpt lat="43.3039217" lon="12.90461"><ele>629.0</ele><time>2026-04-11T12:44:56.007Z</time></trkpt><trkpt lat="43.3038133" lon="12.9045467"><ele>629.0</ele><time>2026-04-11T12:44:58.007Z</time></trkpt><trkpt lat="43.3037033" lon="12.9044833"><ele>629.0</ele><time>2026-04-11T12:45:00.008Z</time></trkpt><trkpt lat="43.3036483" lon="12.9044333"><ele>629.0</ele><time>2026-04-11T12:45:01.006Z</time></trkpt><trkpt lat="43.3035917" lon="12.9043733"><ele>629.0</ele><time>2026-04-11T12:45:02.007Z</time></trkpt><trkpt lat="43.30353" lon="12.9043267"><ele>629.0</ele><time>2026-04-11T12:45:03.009Z</time></trkpt><trkpt lat="43.303455" lon="12.904275"><ele>629.0</ele><time>2026-04-11T12:45:04.006Z</time></trkpt><trkpt lat="43.3033767" lon="12.9042167"><ele>630.6666666666666</ele><time>2026-04-11T12:45:05.006Z</time></trkpt><trkpt lat="43.303305" lon="12.9041517"><ele>632.3333333333333</ele><time>2026-04-11T12:45:06.006Z</time></trkpt><trkpt lat="43.303235" lon="12.9040867"><ele>634.0</ele><time>2026-04-11T12:45:07.007Z</time></trkpt><trkpt lat="43.3031667" lon="12.904025"><ele>635.6666666666666</ele><time>2026-04-11T12:45:08.006Z</time></trkpt><trkpt lat="43.3031" lon="12.903965"><ele>637.3333333333334</ele><time>2026-04-11T12:45:09.006Z</time></trkpt><trkpt lat="43.3030317" lon="12.9038917"><ele>639.0</ele><time>2026-04-11T12:45:10.005Z</time></trkpt><trkpt lat="43.3029617" lon="12.9038267"><ele>639.0</ele><time>2026-04-11T12:45:11.006Z</time></trkpt><trkpt lat="43.30289" lon="12.903765"><ele>639.0</ele><time>2026-04-11T12:45:12.007Z</time></trkpt><trkpt lat="43.302825" lon="12.90371"><ele>639.0</ele><time>2026-04-11T12:45:13.007Z</time></trkpt><trkpt lat="43.3027717" lon="12.9036483"><ele>639.0</ele><time>2026-04-11T12:45:14.008Z</time></trkpt><trkpt lat="43.3027183" lon="12.90358"><ele>639.0</ele><time>2026-04-11T12:45:15.008Z</time></trkpt><trkpt lat="43.3026633" lon="12.903505"><ele>639.0</ele><time>2026-04-11T12:45:16.006Z</time></trkpt><trkpt lat="43.3026017" lon="12.903435"><ele>641.5</ele><time>2026-04-11T12:45:17.006Z</time></trkpt><trkpt lat="43.3025367" lon="12.9033717"><ele>644.0</ele><time>2026-04-11T12:45:18.007Z</time></trkpt><trkpt lat="43.302475" lon="12.903305"><ele>646.5</ele><time>2026-04-11T12:45:19.005Z</time></trkpt><trkpt lat="43.3024133" lon="12.90324"><ele>649.0</ele><time>2026-04-11T12:45:20.006Z</time></trkpt><trkpt lat="43.3023533" lon="12.903165"><ele>651.5</ele><time>2026-04-11T12:45:21.008Z</time></trkpt><trkpt lat="43.3023" lon="12.9030917"><ele>654.0</ele><time>2026-04-11T12:45:22.005Z</time></trkpt><trkpt lat="43.3022" lon="12.9030017"><ele>654.0</ele><time>2026-04-11T12:45:24.005Z</time></trkpt><trkpt lat="43.302135" lon="12.9029483"><ele>654.0</ele><time>2026-04-11T12:45:25.005Z</time></trkpt><trkpt lat="43.3020633" lon="12.9028883"><ele>654.0</ele><time>2026-04-11T12:45:26.007Z</time></trkpt><trkpt lat="43.301995" lon="12.9028383"><ele>654.0</ele><time>2026-04-11T12:45:27.004Z</time></trkpt><trkpt lat="43.30193" lon="12.9027967"><ele>654.0</ele><time>2026-04-11T12:45:28.007Z</time></trkpt><trkpt lat="43.301865" lon="12.9027783"><ele>654.0</ele><time>2026-04-11T12:45:29.005Z</time></trkpt><trkpt lat="43.301795" lon="12.90276"><ele>654.0</ele><time>2026-04-11T12:45:30.006Z</time></trkpt><trkpt lat="43.3017283" lon="12.9027417"><ele>654.0</ele><time>2026-04-11T12:45:31.004Z</time></trkpt><trkpt lat="43.3016617" lon="12.9027317"><ele>654.0</ele><time>2026-04-11T12:45:32.006Z</time></trkpt><trkpt lat="43.3015867" lon="12.90271"><ele>654.0</ele><time>2026-04-11T12:45:33.009Z</time></trkpt><trkpt lat="43.30152" lon="12.9026833"><ele>654.0</ele><time>2026-04-11T12:45:34.005Z</time></trkpt><trkpt lat="43.3014533" lon="12.9026567"><ele>654.0</ele><time>2026-04-11T12:45:35.005Z</time></trkpt><trkpt lat="43.3013833" lon="12.9026433"><ele>654.0</ele><time>2026-04-11T12:45:36.005Z</time></trkpt><trkpt lat="43.3013167" lon="12.9026233"><ele>654.0</ele><time>2026-04-11T12:45:37.006Z</time></trkpt><trkpt lat="43.3012533" lon="12.9025917"><ele>655.6666666666666</ele><time>2026-04-11T12:45:38.004Z</time></trkpt><trkpt lat="43.30119" lon="12.90255"><ele>657.3333333333334</ele><time>2026-04-11T12:45:39.008Z</time></trkpt><trkpt lat="43.3011233" lon="12.9025083"><ele>659.0</ele><time>2026-04-11T12:45:40.007Z</time></trkpt><trkpt lat="43.301065" lon="12.90246"><ele>660.6666666666667</ele><time>2026-04-11T12:45:41.006Z</time></trkpt><trkpt lat="43.3009883" lon="12.9023833"><ele>662.3333333333334</ele><time>2026-04-11T12:45:42.007Z</time></trkpt><trkpt lat="43.3009067" lon="12.902305"><ele>664.0</ele><time>2026-04-11T12:45:43.005Z</time></trkpt><trkpt lat="43.30082" lon="12.9022233"><ele>664.0</ele><time>2026-04-11T12:45:44.006Z</time></trkpt><trkpt lat="43.3007317" lon="12.9021283"><ele>664.0</ele><time>2026-04-11T12:45:45.007Z</time></trkpt><trkpt lat="43.3006433" lon="12.9020383"><ele>664.0</ele><time>2026-04-11T12:45:46.006Z</time></trkpt><trkpt lat="43.30057" lon="12.9019683"><ele>664.0</ele><time>2026-04-11T12:45:47.005Z</time></trkpt><trkpt lat="43.3005117" lon="12.90192"><ele>664.0</ele><time>2026-04-11T12:45:48.004Z</time></trkpt><trkpt lat="43.3004" lon="12.9018433"><ele>665.3333333333334</ele><time>2026-04-11T12:45:50.004Z</time></trkpt><trkpt lat="43.3003267" lon="12.901815"><ele>666.6666666666667</ele><time>2026-04-11T12:45:51.007Z</time></trkpt><trkpt lat="43.3002633" lon="12.9017867"><ele>668.0</ele><time>2026-04-11T12:45:52.006Z</time></trkpt><trkpt lat="43.300205" lon="12.9017367"><ele>669.3333333333334</ele><time>2026-04-11T12:45:53.006Z</time></trkpt><trkpt lat="43.300135" lon="12.9016683"><ele>670.6666666666666</ele><time>2026-04-11T12:45:54.006Z</time></trkpt><trkpt lat="43.30006" lon="12.901605"><ele>672.0</ele><time>2026-04-11T12:45:55.005Z</time></trkpt><trkpt lat="43.2999883" lon="12.9015317"><ele>672.0</ele><time>2026-04-11T12:45:56.006Z</time></trkpt><trkpt lat="43.2999167" lon="12.9014667"><ele>672.0</ele><time>2026-04-11T12:45:57.008Z</time></trkpt><trkpt lat="43.2998417" lon="12.9014167"><ele>672.0</ele><time>2026-04-11T12:45:58.006Z</time></trkpt><trkpt lat="43.299775" lon="12.901375"><ele>672.0</ele><time>2026-04-11T12:45:59.006Z</time></trkpt><trkpt lat="43.2997017" lon="12.9013333"><ele>672.0</ele><time>2026-04-11T12:46:00.006Z</time></trkpt><trkpt lat="43.299625" lon="12.9012867"><ele>672.0</ele><time>2026-04-11T12:46:01.002Z</time></trkpt><trkpt lat="43.299555" lon="12.9012433"><ele>673.3333333333334</ele><time>2026-04-11T12:46:02.006Z</time></trkpt><trkpt lat="43.2995017" lon="12.9011883"><ele>674.6666666666666</ele><time>2026-04-11T12:46:03.007Z</time></trkpt><trkpt lat="43.2994467" lon="12.9011417"><ele>676.0</ele><time>2026-04-11T12:46:04.007Z</time></trkpt><trkpt lat="43.2993883" lon="12.9010733"><ele>677.3333333333333</ele><time>2026-04-11T12:46:05.003Z</time></trkpt><trkpt lat="43.299325" lon="12.901"><ele>678.6666666666666</ele><time>2026-04-11T12:46:06.003Z</time></trkpt><trkpt lat="43.2992583" lon="12.900925"><ele>680.0</ele><time>2026-04-11T12:46:07.008Z</time></trkpt><trkpt lat="43.299195" lon="12.9008433"><ele>680.0</ele><time>2026-04-11T12:46:08.006Z</time></trkpt><trkpt lat="43.2991333" lon="12.9007833"><ele>680.0</ele><time>2026-04-11T12:46:09.008Z</time></trkpt><trkpt lat="43.2990767" lon="12.900735"><ele>680.0</ele><time>2026-04-11T12:46:10.005Z</time></trkpt><trkpt lat="43.29902" lon="12.9006917"><ele>680.0</ele><time>2026-04-11T12:46:11.003Z</time></trkpt><trkpt lat="43.298935" lon="12.9006367"><ele>680.0</ele><time>2026-04-11T12:46:13.008Z</time></trkpt><trkpt lat="43.2988867" lon="12.9005717"><ele>680.0</ele><time>2026-04-11T12:46:15.007Z</time></trkpt><trkpt lat="43.2988183" lon="12.9004733"><ele>678.4</ele><time>2026-04-11T12:46:17.007Z</time></trkpt><trkpt lat="43.298735" lon="12.9003717"><ele>676.8</ele><time>2026-04-11T12:46:19.002Z</time></trkpt><trkpt lat="43.29864" lon="12.9002517"><ele>675.2</ele><time>2026-04-11T12:46:21.007Z</time></trkpt><trkpt lat="43.29858" lon="12.9001917"><ele>673.6</ele><time>2026-04-11T12:46:22.007Z</time></trkpt><trkpt lat="43.298525" lon="12.900145"><ele>672.0</ele><time>2026-04-11T12:46:23.006Z</time></trkpt><trkpt lat="43.298465" lon="12.9000733"><ele>672.0</ele><time>2026-04-11T12:46:25.007Z</time></trkpt><trkpt lat="43.29839" lon="12.9000033"><ele>672.0</ele><time>2026-04-11T12:46:53.007Z</time></trkpt><trkpt lat="43.2983783" lon="12.8999183"><ele>672.0</ele><time>2026-04-11T12:46:56Z</time></trkpt><trkpt lat="43.2983367" lon="12.8997517"><ele>672.0</ele><time>2026-04-11T12:46:58.008Z</time></trkpt><trkpt lat="43.2983083" lon="12.8996383"><ele>672.0</ele><time>2026-04-11T12:46:59.005Z</time></trkpt><trkpt lat="43.2982783" lon="12.8995183"><ele>672.0</ele><time>2026-04-11T12:47:00.006Z</time></trkpt><trkpt lat="43.2982467" lon="12.8993983"><ele>672.0</ele><time>2026-04-11T12:47:01.006Z</time></trkpt><trkpt lat="43.2982167" lon="12.899285"><ele>672.0</ele><time>2026-04-11T12:47:02.005Z</time></trkpt><trkpt lat="43.2981833" lon="12.8991767"><ele>672.0</ele><time>2026-04-11T12:47:03.007Z</time></trkpt><trkpt lat="43.2981533" lon="12.899065"><ele>672.0</ele><time>2026-04-11T12:47:04.005Z</time></trkpt><trkpt lat="43.2981233" lon="12.89895"><ele>672.0</ele><time>2026-04-11T12:47:05.008Z</time></trkpt><trkpt lat="43.298095" lon="12.8988317"><ele>670.0</ele><time>2026-04-11T12:47:06.002Z</time></trkpt><trkpt lat="43.29807" lon="12.8987267"><ele>668.0</ele><time>2026-04-11T12:47:07.006Z</time></trkpt><trkpt lat="43.29805" lon="12.89864"><ele>666.0</ele><time>2026-04-11T12:47:08.006Z</time></trkpt><trkpt lat="43.29804" lon="12.8984583"><ele>664.0</ele><time>2026-04-11T12:47:10.006Z</time></trkpt><trkpt lat="43.2980467" lon="12.89836"><ele>662.0</ele><time>2026-04-11T12:47:11.005Z</time></trkpt><trkpt lat="43.2980483" lon="12.8982583"><ele>660.0</ele><time>2026-04-11T12:47:12.008Z</time></trkpt><trkpt lat="43.298045" lon="12.8981583"><ele>660.0</ele><time>2026-04-11T12:47:13.005Z</time></trkpt><trkpt lat="43.29804" lon="12.898065"><ele>660.0</ele><time>2026-04-11T12:47:14.007Z</time></trkpt><trkpt lat="43.2980333" lon="12.8979617"><ele>660.0</ele><time>2026-04-11T12:47:15.006Z</time></trkpt><trkpt lat="43.2980083" lon="12.8978417"><ele>660.0</ele><time>2026-04-11T12:47:16.005Z</time></trkpt><trkpt lat="43.2979783" lon="12.8977167"><ele>660.0</ele><time>2026-04-11T12:47:17.007Z</time></trkpt><trkpt lat="43.2979467" lon="12.8975983"><ele>660.0</ele><time>2026-04-11T12:47:18.007Z</time></trkpt><trkpt lat="43.297905" lon="12.8974867"><ele>663.5</ele><time>2026-04-11T12:47:19.006Z</time></trkpt><trkpt lat="43.2978517" lon="12.8973867"><ele>667.0</ele><time>2026-04-11T12:47:20.008Z</time></trkpt><trkpt lat="43.2978" lon="12.8972883"><ele>670.5</ele><time>2026-04-11T12:47:21.007Z</time></trkpt><trkpt lat="43.297765" lon="12.8972017"><ele>674.0</ele><time>2026-04-11T12:47:22.006Z</time></trkpt><trkpt lat="43.2977333" lon="12.8971117"><ele>677.5</ele><time>2026-04-11T12:47:23.007Z</time></trkpt><trkpt lat="43.2976967" lon="12.8970217"><ele>681.0</ele><time>2026-04-11T12:47:24.007Z</time></trkpt><trkpt lat="43.2976483" lon="12.8969067"><ele>681.0</ele><time>2026-04-11T12:47:25.009Z</time></trkpt><trkpt lat="43.297575" lon="12.8967867"><ele>681.0</ele><time>2026-04-11T12:47:26.008Z</time></trkpt><trkpt lat="43.2975083" lon="12.8966883"><ele>681.0</ele><time>2026-04-11T12:47:27.007Z</time></trkpt><trkpt lat="43.2974383" lon="12.8966033"><ele>681.0</ele><time>2026-04-11T12:47:28.007Z</time></trkpt><trkpt lat="43.297385" lon="12.89655"><ele>681.0</ele><time>2026-04-11T12:47:29.005Z</time></trkpt><trkpt lat="43.2972967" lon="12.8964683"><ele>678.8</ele><time>2026-04-11T12:47:31.006Z</time></trkpt><trkpt lat="43.297275" lon="12.8963183"><ele>676.5999999999999</ele><time>2026-04-11T12:47:33.007Z</time></trkpt><trkpt lat="43.2972683" lon="12.8962067"><ele>674.4</ele><time>2026-04-11T12:47:34.005Z</time></trkpt><trkpt lat="43.2972567" lon="12.8960817"><ele>672.2</ele><time>2026-04-11T12:47:35.007Z</time></trkpt><trkpt lat="43.297235" lon="12.8959383"><ele>670.0</ele><time>2026-04-11T12:47:36.006Z</time></trkpt><trkpt lat="43.2971883" lon="12.89581"><ele>670.0</ele><time>2026-04-11T12:47:37.005Z</time></trkpt><trkpt lat="43.2971367" lon="12.8956733"><ele>670.0</ele><time>2026-04-11T12:47:38.006Z</time></trkpt><trkpt lat="43.2970817" lon="12.8955383"><ele>670.0</ele><time>2026-04-11T12:47:39.007Z</time></trkpt><trkpt lat="43.2970233" lon="12.8954067"><ele>670.0</ele><time>2026-04-11T12:47:40.007Z</time></trkpt><trkpt lat="43.2969533" lon="12.8952817"><ele>670.0</ele><time>2026-04-11T12:47:41.006Z</time></trkpt><trkpt lat="43.2968817" lon="12.8951483"><ele>670.0</ele><time>2026-04-11T12:47:42.007Z</time></trkpt><trkpt lat="43.296805" lon="12.8949983"><ele>670.0</ele><time>2026-04-11T12:47:43.007Z</time></trkpt><trkpt lat="43.2967133" lon="12.89486"><ele>670.0</ele><time>2026-04-11T12:47:44.007Z</time></trkpt><trkpt lat="43.2966217" lon="12.89477"><ele>670.8333333333334</ele><time>2026-04-11T12:47:45.007Z</time></trkpt><trkpt lat="43.2965283" lon="12.8946733"><ele>671.6666666666667</ele><time>2026-04-11T12:47:46.008Z</time></trkpt><trkpt lat="43.29646" lon="12.8945767"><ele>672.5</ele><time>2026-04-11T12:47:47.006Z</time></trkpt><trkpt lat="43.2963983" lon="12.8944967"><ele>673.3333333333334</ele><time>2026-04-11T12:47:48.007Z</time></trkpt><trkpt lat="43.2963517" lon="12.8944317"><ele>674.1666666666666</ele><time>2026-04-11T12:47:50.007Z</time></trkpt><trkpt lat="43.29628" lon="12.8943883"><ele>675.0</ele><time>2026-04-11T12:47:58.006Z</time></trkpt><trkpt lat="43.2962183" lon="12.8943583"><ele>675.0</ele><time>2026-04-11T12:48:00.008Z</time></trkpt><trkpt lat="43.2961267" lon="12.89433"><ele>675.0</ele><time>2026-04-11T12:48:02.002Z</time></trkpt><trkpt lat="43.2960683" lon="12.894295"><ele>675.0</ele><time>2026-04-11T12:48:03.007Z</time></trkpt><trkpt lat="43.2960017" lon="12.8942783"><ele>675.0</ele><time>2026-04-11T12:48:04.005Z</time></trkpt><trkpt lat="43.2959267" lon="12.89427"><ele>675.0</ele><time>2026-04-11T12:48:05.004Z</time></trkpt><trkpt lat="43.2958517" lon="12.89425"><ele>675.0</ele><time>2026-04-11T12:48:06.008Z</time></trkpt><trkpt lat="43.29577" lon="12.8942267"><ele>678.2</ele><time>2026-04-11T12:48:07.007Z</time></trkpt><trkpt lat="43.2956783" lon="12.8942033"><ele>681.4</ele><time>2026-04-11T12:48:08.007Z</time></trkpt><trkpt lat="43.2955883" lon="12.8941783"><ele>684.5999999999999</ele><time>2026-04-11T12:48:09.007Z</time></trkpt><trkpt lat="43.2954933" lon="12.894155"><ele>687.8</ele><time>2026-04-11T12:48:10.007Z</time></trkpt><trkpt lat="43.2954067" lon="12.894105"><ele>691.0</ele><time>2026-04-11T12:48:11.007Z</time></trkpt><trkpt lat="43.2953183" lon="12.8940667"><ele>691.0</ele><time>2026-04-11T12:48:12.006Z</time></trkpt><trkpt lat="43.2952233" lon="12.8940333"><ele>691.0</ele><time>2026-04-11T12:48:13.009Z</time></trkpt><trkpt lat="43.295125" lon="12.894005"><ele>691.0</ele><time>2026-04-11T12:48:14.006Z</time></trkpt><trkpt lat="43.2950317" lon="12.89398"><ele>691.0</ele><time>2026-04-11T12:48:15.009Z</time></trkpt><trkpt lat="43.2949433" lon="12.893965"><ele>691.0</ele><time>2026-04-11T12:48:16.008Z</time></trkpt><trkpt lat="43.2948617" lon="12.8939483"><ele>691.0</ele><time>2026-04-11T12:48:17.006Z</time></trkpt><trkpt lat="43.29478" lon="12.893935"><ele>691.0</ele><time>2026-04-11T12:48:18.006Z</time></trkpt><trkpt lat="43.2947" lon="12.8939183"><ele>691.0</ele><time>2026-04-11T12:48:19.008Z</time></trkpt><trkpt lat="43.2946083" lon="12.8939283"><ele>691.0</ele><time>2026-04-11T12:48:20.007Z</time></trkpt><trkpt lat="43.294515" lon="12.8939667"><ele>691.0</ele><time>2026-04-11T12:48:21.007Z</time></trkpt><trkpt lat="43.2944117" lon="12.89402"><ele>691.0</ele><time>2026-04-11T12:48:22.006Z</time></trkpt><trkpt lat="43.2943183" lon="12.894095"><ele>691.0</ele><time>2026-04-11T12:48:23.005Z</time></trkpt><trkpt lat="43.29422" lon="12.8941867"><ele>691.0</ele><time>2026-04-11T12:48:24.007Z</time></trkpt><trkpt lat="43.2941167" lon="12.8942883"><ele>691.0</ele><time>2026-04-11T12:48:25.007Z</time></trkpt><trkpt lat="43.2940367" lon="12.8943833"><ele>688.8333333333334</ele><time>2026-04-11T12:48:26.006Z</time></trkpt><trkpt lat="43.2939733" lon="12.8944767"><ele>686.6666666666667</ele><time>2026-04-11T12:48:27.007Z</time></trkpt><trkpt lat="43.293915" lon="12.8945633"><ele>684.5</ele><time>2026-04-11T12:48:28.007Z</time></trkpt><trkpt lat="43.2938533" lon="12.8946367"><ele>682.3333333333334</ele><time>2026-04-11T12:48:29.006Z</time></trkpt><trkpt lat="43.2937867" lon="12.894705"><ele>680.1666666666666</ele><time>2026-04-11T12:48:30.007Z</time></trkpt><trkpt lat="43.2937017" lon="12.8947583"><ele>678.0</ele><time>2026-04-11T12:48:31.008Z</time></trkpt><trkpt lat="43.2936083" lon="12.8947917"><ele>678.0</ele><time>2026-04-11T12:48:32.006Z</time></trkpt><trkpt lat="43.2935167" lon="12.8948117"><ele>678.0</ele><time>2026-04-11T12:48:33.007Z</time></trkpt><trkpt lat="43.2934333" lon="12.8948333"><ele>678.0</ele><time>2026-04-11T12:48:34.005Z</time></trkpt><trkpt lat="43.2933567" lon="12.8948483"><ele>678.0</ele><time>2026-04-11T12:48:35.006Z</time></trkpt><trkpt lat="43.2932767" lon="12.8948533"><ele>678.0</ele><time>2026-04-11T12:48:36.007Z</time></trkpt><trkpt lat="43.2932017" lon="12.894845"><ele>678.0</ele><time>2026-04-11T12:48:37.006Z</time></trkpt><trkpt lat="43.293125" lon="12.8948283"><ele>676.0</ele><time>2026-04-11T12:48:38.006Z</time></trkpt><trkpt lat="43.29305" lon="12.8947933"><ele>674.0</ele><time>2026-04-11T12:48:39.007Z</time></trkpt><trkpt lat="43.2929683" lon="12.8947683"><ele>672.0</ele><time>2026-04-11T12:48:40.006Z</time></trkpt><trkpt lat="43.2928833" lon="12.8947417"><ele>670.0</ele><time>2026-04-11T12:48:41.006Z</time></trkpt><trkpt lat="43.2928067" lon="12.8947267"><ele>668.0</ele><time>2026-04-11T12:48:42.006Z</time></trkpt><trkpt lat="43.2927317" lon="12.8947033"><ele>666.0</ele><time>2026-04-11T12:48:43.006Z</time></trkpt><trkpt lat="43.2926567" lon="12.8946967"><ele>666.0</ele><time>2026-04-11T12:48:44.006Z</time></trkpt><trkpt lat="43.2925783" lon="12.8946817"><ele>666.0</ele><time>2026-04-11T12:48:45.009Z</time></trkpt><trkpt lat="43.2924867" lon="12.8946683"><ele>666.0</ele><time>2026-04-11T12:48:46.002Z</time></trkpt><trkpt lat="43.29242" lon="12.8946583"><ele>666.0</ele><time>2026-04-11T12:48:47.005Z</time></trkpt><trkpt lat="43.2923417" lon="12.894635"><ele>666.0</ele><time>2026-04-11T12:48:48.007Z</time></trkpt><trkpt lat="43.2922333" lon="12.8945833"><ele>666.0</ele><time>2026-04-11T12:48:49.007Z</time></trkpt><trkpt lat="43.2921167" lon="12.89453"><ele>662.0</ele><time>2026-04-11T12:48:50.007Z</time></trkpt><trkpt lat="43.2920017" lon="12.89447"><ele>658.0</ele><time>2026-04-11T12:48:51.009Z</time></trkpt><trkpt lat="43.2918867" lon="12.89441"><ele>654.0</ele><time>2026-04-11T12:48:52.005Z</time></trkpt><trkpt lat="43.2917733" lon="12.89435"><ele>650.0</ele><time>2026-04-11T12:48:53.007Z</time></trkpt><trkpt lat="43.2916717" lon="12.894295"><ele>652.1666666666666</ele><time>2026-04-11T12:48:54.007Z</time></trkpt><trkpt lat="43.2915917" lon="12.894245"><ele>654.3333333333333</ele><time>2026-04-11T12:48:55.003Z</time></trkpt><trkpt lat="43.29151" lon="12.894195"><ele>656.5</ele><time>2026-04-11T12:48:56.003Z</time></trkpt><trkpt lat="43.2914383" lon="12.894145"><ele>658.6666666666666</ele><time>2026-04-11T12:48:57.008Z</time></trkpt><trkpt lat="43.2913717" lon="12.8941117"><ele>660.8333333333334</ele><time>2026-04-11T12:48:58.008Z</time></trkpt><trkpt lat="43.2913067" lon="12.8940833"><ele>663.0</ele><time>2026-04-11T12:48:59.007Z</time></trkpt><trkpt lat="43.29119" lon="12.8940683"><ele>663.0</ele><time>2026-04-11T12:49:01.008Z</time></trkpt><trkpt lat="43.2911283" lon="12.894095"><ele>663.0</ele><time>2026-04-11T12:49:02.008Z</time></trkpt><trkpt lat="43.2910567" lon="12.8941333"><ele>663.0</ele><time>2026-04-11T12:49:03.01Z</time></trkpt><trkpt lat="43.2909867" lon="12.894175"><ele>663.0</ele><time>2026-04-11T12:49:04.007Z</time></trkpt><trkpt lat="43.2909117" lon="12.8942067"><ele>663.0</ele><time>2026-04-11T12:49:05.006Z</time></trkpt><trkpt lat="43.2908417" lon="12.894245"><ele>663.0</ele><time>2026-04-11T12:49:06.009Z</time></trkpt><trkpt lat="43.2907683" lon="12.8942917"><ele>661.3333333333334</ele><time>2026-04-11T12:49:07.01Z</time></trkpt><trkpt lat="43.2907067" lon="12.894345"><ele>659.6666666666666</ele><time>2026-04-11T12:49:08.009Z</time></trkpt><trkpt lat="43.2906433" lon="12.8944"><ele>658.0</ele><time>2026-04-11T12:49:09.007Z</time></trkpt><trkpt lat="43.2905867" lon="12.8944517"><ele>656.3333333333333</ele><time>2026-04-11T12:49:10.006Z</time></trkpt><trkpt lat="43.2905317" lon="12.894505"><ele>654.6666666666666</ele><time>2026-04-11T12:49:11.005Z</time></trkpt><trkpt lat="43.29043" lon="12.8945783"><ele>653.0</ele><time>2026-04-11T12:49:13.005Z</time></trkpt><trkpt lat="43.2903533" lon="12.894625"><ele>655.5</ele><time>2026-04-11T12:49:15.007Z</time></trkpt><trkpt lat="43.29029" lon="12.89467"><ele>658.0</ele><time>2026-04-11T12:49:17.004Z</time></trkpt><trkpt lat="43.2903433" lon="12.8945433"><ele>660.5</ele><time>2026-04-11T12:54:04.007Z</time></trkpt><trkpt lat="43.29039" lon="12.8944533"><ele>663.0</ele><time>2026-04-11T12:54:05.007Z</time></trkpt><trkpt lat="43.2904383" lon="12.894365"><ele>665.5</ele><time>2026-04-11T12:54:06.006Z</time></trkpt><trkpt lat="43.2904783" lon="12.8942967"><ele>668.0</ele><time>2026-04-11T12:54:07.006Z</time></trkpt><trkpt lat="43.2904633" lon="12.8941583"><ele>668.0</ele><time>2026-04-11T12:54:09.007Z</time></trkpt><trkpt lat="43.2904217" lon="12.894085"><ele>668.0</ele><time>2026-04-11T12:54:10Z</time></trkpt><trkpt lat="43.290375" lon="12.894"><ele>668.0</ele><time>2026-04-11T12:54:11.006Z</time></trkpt><trkpt lat="43.2903283" lon="12.8939017"><ele>668.0</ele><time>2026-04-11T12:54:12.006Z</time></trkpt><trkpt lat="43.2902733" lon="12.8938067"><ele>668.0</ele><time>2026-04-11T12:54:13.005Z</time></trkpt><trkpt lat="43.2902083" lon="12.89372"><ele>668.0</ele><time>2026-04-11T12:54:14.008Z</time></trkpt><trkpt lat="43.2901367" lon="12.8936417"><ele>668.0</ele><time>2026-04-11T12:54:15.007Z</time></trkpt><trkpt lat="43.2900683" lon="12.89358"><ele>668.0</ele><time>2026-04-11T12:54:16.005Z</time></trkpt><trkpt lat="43.2900083" lon="12.8935217"><ele>668.0</ele><time>2026-04-11T12:54:17.006Z</time></trkpt><trkpt lat="43.28994" lon="12.8934167"><ele>668.0</ele><time>2026-04-11T12:54:19.007Z</time></trkpt><trkpt lat="43.2899167" lon="12.8932967"><ele>668.0</ele><time>2026-04-11T12:54:21.009Z</time></trkpt><trkpt lat="43.2898983" lon="12.8931667"><ele>668.0</ele><time>2026-04-11T12:54:23.006Z</time></trkpt><trkpt lat="43.289845" lon="12.893105"><ele>668.0</ele><time>2026-04-11T12:54:25.007Z</time></trkpt><trkpt lat="43.2897717" lon="12.8930683"><ele>668.0</ele><time>2026-04-11T12:54:27.007Z</time></trkpt><trkpt lat="43.2896867" lon="12.8930667"><ele>668.0</ele><time>2026-04-11T12:54:29.007Z</time></trkpt><trkpt lat="43.2896" lon="12.8930617"><ele>668.0</ele><time>2026-04-11T12:54:31.008Z</time></trkpt><trkpt lat="43.28952" lon="12.89297"><ele>668.0</ele><time>2026-04-11T12:54:33.007Z</time></trkpt><trkpt lat="43.28946" lon="12.8928533"><ele>667.8</ele><time>2026-04-11T12:54:35.007Z</time></trkpt><trkpt lat="43.2893817" lon="12.8927767"><ele>667.5999999999999</ele><time>2026-04-11T12:54:37.006Z</time></trkpt><trkpt lat="43.2893317" lon="12.8926683"><ele>667.4000000000001</ele><time>2026-04-11T12:54:39.007Z</time></trkpt><trkpt lat="43.289265" lon="12.8925483"><ele>667.2</ele><time>2026-04-11T12:54:41.007Z</time></trkpt><trkpt lat="43.289205" lon="12.892425"><ele>667.0</ele><time>2026-04-11T12:54:43.007Z</time></trkpt><trkpt lat="43.28914" lon="12.8923683"><ele>663.6666666666667</ele><time>2026-04-11T12:54:44.007Z</time></trkpt><trkpt lat="43.2890683" lon="12.8922467"><ele>660.3333333333334</ele><time>2026-04-11T12:54:46.007Z</time></trkpt><trkpt lat="43.289025" lon="12.8921833"><ele>657.0</ele><time>2026-04-11T12:54:47.006Z</time></trkpt><trkpt lat="43.2889717" lon="12.8921233"><ele>653.6666666666666</ele><time>2026-04-11T12:54:48.006Z</time></trkpt><trkpt lat="43.288925" lon="12.8920583"><ele>650.3333333333333</ele><time>2026-04-11T12:54:49.006Z</time></trkpt><trkpt lat="43.2888833" lon="12.891975"><ele>647.0</ele><time>2026-04-11T12:54:50.007Z</time></trkpt><trkpt lat="43.2888267" lon="12.8919283"><ele>644.5</ele><time>2026-04-11T12:54:51.004Z</time></trkpt><trkpt lat="43.28874" lon="12.8918167"><ele>642.0</ele><time>2026-04-11T12:54:53.007Z</time></trkpt><trkpt lat="43.288685" lon="12.891755"><ele>639.5</ele><time>2026-04-11T12:54:54.006Z</time></trkpt><trkpt lat="43.2886417" lon="12.8916917"><ele>637.0</ele><time>2026-04-11T12:54:55.008Z</time></trkpt><trkpt lat="43.2885917" lon="12.8916133"><ele>634.5</ele><time>2026-04-11T12:54:56.007Z</time></trkpt><trkpt lat="43.2885317" lon="12.891535"><ele>632.0</ele><time>2026-04-11T12:54:57.007Z</time></trkpt><trkpt lat="43.2884817" lon="12.8914417"><ele>627.2</ele><time>2026-04-11T12:54:58.006Z</time></trkpt><trkpt lat="43.2884083" lon="12.8913367"><ele>622.4000000000001</ele><time>2026-04-11T12:54:59.007Z</time></trkpt><trkpt lat="43.2883433" lon="12.8912483"><ele>617.5999999999999</ele><time>2026-04-11T12:55:00.007Z</time></trkpt><trkpt lat="43.28828" lon="12.89117"><ele>612.8</ele><time>2026-04-11T12:55:01.007Z</time></trkpt><trkpt lat="43.2882183" lon="12.891085"><ele>608.0</ele><time>2026-04-11T12:55:02.006Z</time></trkpt><trkpt lat="43.2881233" lon="12.89102"><ele>600.75</ele><time>2026-04-11T12:55:03.002Z</time></trkpt><trkpt lat="43.2880283" lon="12.8909417"><ele>593.5</ele><time>2026-04-11T12:55:04.006Z</time></trkpt><trkpt lat="43.2879217" lon="12.8908817"><ele>586.25</ele><time>2026-04-11T12:55:05.005Z</time></trkpt><trkpt lat="43.2878033" lon="12.89081"><ele>579.0</ele><time>2026-04-11T12:55:06.006Z</time></trkpt><trkpt lat="43.2876617" lon="12.89076"><ele>576.4</ele><time>2026-04-11T12:55:07.006Z</time></trkpt><trkpt lat="43.2875467" lon="12.890705"><ele>573.8</ele><time>2026-04-11T12:55:08.005Z</time></trkpt><trkpt lat="43.2874417" lon="12.8906617"><ele>571.2</ele><time>2026-04-11T12:55:09.003Z</time></trkpt><trkpt lat="43.287345" lon="12.890635"><ele>568.6</ele><time>2026-04-11T12:55:10.008Z</time></trkpt><trkpt lat="43.2872683" lon="12.8906183"><ele>566.0</ele><time>2026-04-11T12:55:11.007Z</time></trkpt><trkpt lat="43.2872017" lon="12.8906"><ele>564.6666666666666</ele><time>2026-04-11T12:55:12.007Z</time></trkpt><trkpt lat="43.287085" lon="12.8905567"><ele>563.3333333333333</ele><time>2026-04-11T12:55:14.007Z</time></trkpt><trkpt lat="43.2869967" lon="12.8905483"><ele>562.0</ele><time>2026-04-11T12:55:16.005Z</time></trkpt><trkpt lat="43.2869383" lon="12.89047"><ele>560.6666666666666</ele><time>2026-04-11T12:55:18.007Z</time></trkpt><trkpt lat="43.286905" lon="12.8903833"><ele>559.3333333333334</ele><time>2026-04-11T12:55:19.005Z</time></trkpt><trkpt lat="43.28688" lon="12.890275"><ele>558.0</ele><time>2026-04-11T12:55:20.005Z</time></trkpt><trkpt lat="43.286855" lon="12.8901467"><ele>556.0</ele><time>2026-04-11T12:55:21.007Z</time></trkpt><trkpt lat="43.2868267" lon="12.8900267"><ele>554.0</ele><time>2026-04-11T12:55:22.007Z</time></trkpt><trkpt lat="43.286795" lon="12.8899083"><ele>552.0</ele><time>2026-04-11T12:55:23.008Z</time></trkpt><trkpt lat="43.2867617" lon="12.889785"><ele>550.0</ele><time>2026-04-11T12:55:24.005Z</time></trkpt><trkpt lat="43.2867283" lon="12.889665"><ele>548.0</ele><time>2026-04-11T12:55:25.006Z</time></trkpt><trkpt lat="43.28669" lon="12.889545"><ele>548.0</ele><time>2026-04-11T12:55:26.005Z</time></trkpt><trkpt lat="43.2866433" lon="12.88943"><ele>548.0</ele><time>2026-04-11T12:55:27.009Z</time></trkpt><trkpt lat="43.286595" lon="12.8893233"><ele>548.0</ele><time>2026-04-11T12:55:28.005Z</time></trkpt><trkpt lat="43.2865483" lon="12.8892283"><ele>548.0</ele><time>2026-04-11T12:55:29.006Z</time></trkpt><trkpt lat="43.2865117" lon="12.8891367"><ele>548.0</ele><time>2026-04-11T12:55:30.005Z</time></trkpt><trkpt lat="43.286495" lon="12.889035"><ele>548.0</ele><time>2026-04-11T12:55:31.005Z</time></trkpt><trkpt lat="43.2864967" lon="12.8889017"><ele>547.0</ele><time>2026-04-11T12:55:32.006Z</time></trkpt><trkpt lat="43.2864967" lon="12.8887617"><ele>546.0</ele><time>2026-04-11T12:55:33.006Z</time></trkpt><trkpt lat="43.28649" lon="12.8886217"><ele>545.0</ele><time>2026-04-11T12:55:34.006Z</time></trkpt><trkpt lat="43.2864783" lon="12.888495"><ele>544.0</ele><time>2026-04-11T12:55:35.007Z</time></trkpt><trkpt lat="43.28647" lon="12.88837"><ele>543.0</ele><time>2026-04-11T12:55:36.005Z</time></trkpt><trkpt lat="43.28647" lon="12.8882317"><ele>540.4</ele><time>2026-04-11T12:55:37.006Z</time></trkpt><trkpt lat="43.2864683" lon="12.8880817"><ele>537.8</ele><time>2026-04-11T12:55:38.007Z</time></trkpt><trkpt lat="43.2864567" lon="12.88793"><ele>535.2</ele><time>2026-04-11T12:55:39.007Z</time></trkpt><trkpt lat="43.28644" lon="12.8877817"><ele>532.6</ele><time>2026-04-11T12:55:40.006Z</time></trkpt><trkpt lat="43.2864033" lon="12.887635"><ele>530.0</ele><time>2026-04-11T12:55:41.005Z</time></trkpt><trkpt lat="43.2863717" lon="12.8875133"><ele>528.3333333333333</ele><time>2026-04-11T12:55:42.007Z</time></trkpt><trkpt lat="43.2863433" lon="12.88741"><ele>526.6666666666666</ele><time>2026-04-11T12:55:43.006Z</time></trkpt><trkpt lat="43.2863067" lon="12.887275"><ele>525.0</ele><time>2026-04-11T12:55:45.007Z</time></trkpt><trkpt lat="43.2862833" lon="12.887185"><ele>523.3333333333334</ele><time>2026-04-11T12:55:47.007Z</time></trkpt><trkpt lat="43.2863583" lon="12.8871267"><ele>521.6666666666667</ele><time>2026-04-11T12:56:01.007Z</time></trkpt><trkpt lat="43.286445" lon="12.8871033"><ele>520.0</ele><time>2026-04-11T12:56:03.009Z</time></trkpt><trkpt lat="43.2865667" lon="12.887095"><ele>520.0</ele><time>2026-04-11T12:56:05.007Z</time></trkpt><trkpt lat="43.286645" lon="12.8871017"><ele>520.0</ele><time>2026-04-11T12:56:06.006Z</time></trkpt><trkpt lat="43.2867333" lon="12.88711"><ele>520.0</ele><time>2026-04-11T12:56:07.007Z</time></trkpt><trkpt lat="43.2868317" lon="12.8871083"><ele>520.0</ele><time>2026-04-11T12:56:08.007Z</time></trkpt><trkpt lat="43.2869233" lon="12.8871"><ele>520.0</ele><time>2026-04-11T12:56:09.007Z</time></trkpt><trkpt lat="43.28701" lon="12.8870833"><ele>520.0</ele><time>2026-04-11T12:56:10.007Z</time></trkpt><trkpt lat="43.2871083" lon="12.8870683"><ele>520.0</ele><time>2026-04-11T12:56:11.006Z</time></trkpt><trkpt lat="43.2872067" lon="12.88705"><ele>520.0</ele><time>2026-04-11T12:56:12.008Z</time></trkpt><trkpt lat="43.2873133" lon="12.8870317"><ele>520.0</ele><time>2026-04-11T12:56:13.006Z</time></trkpt><trkpt lat="43.2874283" lon="12.88699"><ele>520.0</ele><time>2026-04-11T12:56:14.007Z</time></trkpt><trkpt lat="43.2875433" lon="12.88694"><ele>520.0</ele><time>2026-04-11T12:56:15.007Z</time></trkpt><trkpt lat="43.28765" lon="12.88689"><ele>518.2</ele><time>2026-04-11T12:56:16.008Z</time></trkpt><trkpt lat="43.28775" lon="12.886835"><ele>516.4</ele><time>2026-04-11T12:56:17.006Z</time></trkpt><trkpt lat="43.2878517" lon="12.8867717"><ele>514.6</ele><time>2026-04-11T12:56:18.008Z</time></trkpt><trkpt lat="43.287945" lon="12.88669"><ele>512.8</ele><time>2026-04-11T12:56:19.007Z</time></trkpt><trkpt lat="43.2880333" lon="12.88659"><ele>511.0</ele><time>2026-04-11T12:56:20.007Z</time></trkpt><trkpt lat="43.28813" lon="12.8864867"><ele>516.75</ele><time>2026-04-11T12:56:21.009Z</time></trkpt><trkpt lat="43.2882267" lon="12.8863817"><ele>522.5</ele><time>2026-04-11T12:56:22.007Z</time></trkpt><trkpt lat="43.2883167" lon="12.8862617"><ele>528.25</ele><time>2026-04-11T12:56:23.007Z</time></trkpt><trkpt lat="43.2884017" lon="12.8861333"><ele>534.0</ele><time>2026-04-11T12:56:24.008Z</time></trkpt><trkpt lat="43.2884783" lon="12.8860083"><ele>526.5</ele><time>2026-04-11T12:56:25.007Z</time></trkpt><trkpt lat="43.288545" lon="12.8858817"><ele>519.0</ele><time>2026-04-11T12:56:26.007Z</time></trkpt><trkpt lat="43.2886" lon="12.8857417"><ele>511.5</ele><time>2026-04-11T12:56:27.007Z</time></trkpt><trkpt lat="43.28865" lon="12.8855967"><ele>504.0</ele><time>2026-04-11T12:56:28.008Z</time></trkpt><trkpt lat="43.2887133" lon="12.8854683"><ele>504.0</ele><time>2026-04-11T12:56:29.006Z</time></trkpt><trkpt lat="43.28877" lon="12.885365"><ele>504.0</ele><time>2026-04-11T12:56:30.007Z</time></trkpt><trkpt lat="43.28883" lon="12.885265"><ele>504.0</ele><time>2026-04-11T12:56:31.006Z</time></trkpt><trkpt lat="43.2888883" lon="12.88517"><ele>504.0</ele><time>2026-04-11T12:56:32.007Z</time></trkpt><trkpt lat="43.2889467" lon="12.8850967"><ele>504.0</ele><time>2026-04-11T12:56:33.007Z</time></trkpt><trkpt lat="43.28901" lon="12.8850417"><ele>504.0</ele><time>2026-04-11T12:56:34.006Z</time></trkpt><trkpt lat="43.2890767" lon="12.885005"><ele>504.6</ele><time>2026-04-11T12:56:35.007Z</time></trkpt><trkpt lat="43.28916" lon="12.8849883"><ele>505.2</ele><time>2026-04-11T12:56:36.005Z</time></trkpt><trkpt lat="43.2892583" lon="12.8849933"><ele>505.80000000000007</ele><time>2026-04-11T12:56:37.007Z</time></trkpt><trkpt lat="43.289365" lon="12.8850083"><ele>506.40000000000003</ele><time>2026-04-11T12:56:38.005Z</time></trkpt><trkpt lat="43.2894717" lon="12.88501"><ele>507.0</ele><time>2026-04-11T12:56:39.008Z</time></trkpt><trkpt lat="43.2895833" lon="12.884995"><ele>507.0</ele><time>2026-04-11T12:56:40.008Z</time></trkpt><trkpt lat="43.2896917" lon="12.8849633"><ele>507.0</ele><time>2026-04-11T12:56:41.007Z</time></trkpt><trkpt lat="43.2898083" lon="12.8849067"><ele>507.0</ele><time>2026-04-11T12:56:42.007Z</time></trkpt><trkpt lat="43.2899217" lon="12.8848433"><ele>507.0</ele><time>2026-04-11T12:56:43.006Z</time></trkpt><trkpt lat="43.29003" lon="12.8847733"><ele>509.75</ele><time>2026-04-11T12:56:44.002Z</time></trkpt><trkpt lat="43.290135" lon="12.8847033"><ele>512.5</ele><time>2026-04-11T12:56:45.007Z</time></trkpt><trkpt lat="43.2902417" lon="12.8846367"><ele>515.25</ele><time>2026-04-11T12:56:46.007Z</time></trkpt><trkpt lat="43.2903533" lon="12.8845783"><ele>518.0</ele><time>2026-04-11T12:56:47.006Z</time></trkpt><trkpt lat="43.2904617" lon="12.8845183"><ele>518.0</ele><time>2026-04-11T12:56:48.007Z</time></trkpt><trkpt lat="43.29057" lon="12.884465"><ele>518.0</ele><time>2026-04-11T12:56:49.008Z</time></trkpt><trkpt lat="43.2906783" lon="12.884425"><ele>518.0</ele><time>2026-04-11T12:56:50.007Z</time></trkpt><trkpt lat="43.2907817" lon="12.8844033"><ele>518.0</ele><time>2026-04-11T12:56:51.008Z</time></trkpt><trkpt lat="43.2908567" lon="12.8843983"><ele>518.0</ele><time>2026-04-11T12:56:52.007Z</time></trkpt><trkpt lat="43.29092" lon="12.8843933"><ele>520.0</ele><time>2026-04-11T12:56:53.006Z</time></trkpt><trkpt lat="43.2910033" lon="12.884395"><ele>522.0</ele><time>2026-04-11T12:56:55.007Z</time></trkpt><trkpt lat="43.291055" lon="12.884495"><ele>524.0</ele><time>2026-04-11T12:57:23.007Z</time></trkpt><trkpt lat="43.291125" lon="12.8845467"><ele>526.0</ele><time>2026-04-11T12:57:25.008Z</time></trkpt><trkpt lat="43.2911467" lon="12.8846283"><ele>528.0</ele><time>2026-04-11T12:57:29.007Z</time></trkpt><trkpt lat="43.29112" lon="12.8847117"><ele>530.0</ele><time>2026-04-11T12:57:32.006Z</time></trkpt><trkpt lat="43.291125" lon="12.884825"><ele>530.0</ele><time>2026-04-11T12:57:36.007Z</time></trkpt><trkpt lat="43.2911133" lon="12.8849183"><ele>530.0</ele><time>2026-04-11T12:57:38.007Z</time></trkpt><trkpt lat="43.29114" lon="12.8851367"><ele>530.0</ele><time>2026-04-11T12:57:39.007Z</time></trkpt><trkpt lat="43.2911817" lon="12.885215"><ele>530.0</ele><time>2026-04-11T12:57:40.006Z</time></trkpt><trkpt lat="43.2912283" lon="12.8853317"><ele>530.0</ele><time>2026-04-11T12:57:41.006Z</time></trkpt><trkpt lat="43.2912767" lon="12.8854233"><ele>536.3333333333333</ele><time>2026-04-11T12:57:42.007Z</time></trkpt><trkpt lat="43.2913167" lon="12.8855167"><ele>542.6666666666666</ele><time>2026-04-11T12:57:43.007Z</time></trkpt><trkpt lat="43.2913383" lon="12.88561"><ele>549.0</ele><time>2026-04-11T12:57:44.007Z</time></trkpt><trkpt lat="43.2913467" lon="12.8857067"><ele>555.3333333333334</ele><time>2026-04-11T12:57:45.007Z</time></trkpt><trkpt lat="43.2913667" lon="12.8857917"><ele>561.6666666666667</ele><time>2026-04-11T12:57:46.006Z</time></trkpt><trkpt lat="43.2913917" lon="12.885955"><ele>568.0</ele><time>2026-04-11T12:57:48.006Z</time></trkpt><trkpt lat="43.29141" lon="12.886075"><ele>574.8333333333334</ele><time>2026-04-11T12:57:49.007Z</time></trkpt><trkpt lat="43.2914183" lon="12.8861833"><ele>581.6666666666667</ele><time>2026-04-11T12:57:50.006Z</time></trkpt><trkpt lat="43.2914383" lon="12.8863067"><ele>588.5</ele><time>2026-04-11T12:57:51.008Z</time></trkpt><trkpt lat="43.2914467" lon="12.88642"><ele>595.3333333333334</ele><time>2026-04-11T12:57:52.007Z</time></trkpt><trkpt lat="43.2914633" lon="12.8865467"><ele>602.1666666666666</ele><time>2026-04-11T12:57:53.006Z</time></trkpt><trkpt lat="43.2914933" lon="12.8866667"><ele>609.0</ele><time>2026-04-11T12:57:54.006Z</time></trkpt><trkpt lat="43.291535" lon="12.8867917"><ele>613.6666666666666</ele><time>2026-04-11T12:57:55.007Z</time></trkpt><trkpt lat="43.2915767" lon="12.8868967"><ele>618.3333333333334</ele><time>2026-04-11T12:57:56.006Z</time></trkpt><trkpt lat="43.2916133" lon="12.8870067"><ele>623.0</ele><time>2026-04-11T12:57:57.008Z</time></trkpt><trkpt lat="43.291625" lon="12.8871"><ele>627.6666666666667</ele><time>2026-04-11T12:57:58.006Z</time></trkpt><trkpt lat="43.2916217" lon="12.8871883"><ele>632.3333333333334</ele><time>2026-04-11T12:57:59.006Z</time></trkpt><trkpt lat="43.29162" lon="12.8873333"><ele>637.0</ele><time>2026-04-11T12:58:01.006Z</time></trkpt><trkpt lat="43.291625" lon="12.8874533"><ele>642.0</ele><time>2026-04-11T12:58:03.007Z</time></trkpt><trkpt lat="43.29163" lon="12.8876067"><ele>647.0</ele><time>2026-04-11T12:58:05.007Z</time></trkpt><trkpt lat="43.2916383" lon="12.8877083"><ele>652.0</ele><time>2026-04-11T12:58:06.007Z</time></trkpt><trkpt lat="43.2916617" lon="12.8878733"><ele>657.0</ele><time>2026-04-11T12:58:08.006Z</time></trkpt><trkpt lat="43.2916883" lon="12.8879617"><ele>662.0</ele><time>2026-04-11T12:58:09.007Z</time></trkpt><trkpt lat="43.2917367" lon="12.8881133"><ele>662.0</ele><time>2026-04-11T12:58:11.006Z</time></trkpt><trkpt lat="43.2917583" lon="12.888195"><ele>662.0</ele><time>2026-04-11T12:58:12.007Z</time></trkpt><trkpt lat="43.2917883" lon="12.888275"><ele>662.0</ele><time>2026-04-11T12:58:13.007Z</time></trkpt><trkpt lat="43.2918167" lon="12.88836"><ele>662.0</ele><time>2026-04-11T12:58:14.007Z</time></trkpt><trkpt lat="43.2918517" lon="12.88845"><ele>662.0</ele><time>2026-04-11T12:58:15.007Z</time></trkpt><trkpt lat="43.291885" lon="12.8885417"><ele>662.0</ele><time>2026-04-11T12:58:16.007Z</time></trkpt><trkpt lat="43.2919233" lon="12.8886383"><ele>662.0</ele><time>2026-04-11T12:58:17.007Z</time></trkpt><trkpt lat="43.2919867" lon="12.8887617"><ele>665.3333333333333</ele><time>2026-04-11T12:58:18.007Z</time></trkpt><trkpt lat="43.2920233" lon="12.8888933"><ele>668.6666666666666</ele><time>2026-04-11T12:58:19.006Z</time></trkpt><trkpt lat="43.2920667" lon="12.8890017"><ele>672.0</ele><time>2026-04-11T12:58:20.006Z</time></trkpt><trkpt lat="43.2920933" lon="12.8890967"><ele>675.3333333333334</ele><time>2026-04-11T12:58:21.009Z</time></trkpt><trkpt lat="43.2921167" lon="12.889185"><ele>678.6666666666667</ele><time>2026-04-11T12:58:22.007Z</time></trkpt><trkpt lat="43.2920367" lon="12.88919"><ele>682.0</ele><time>2026-04-11T12:59:16.006Z</time></trkpt><trkpt lat="43.2920867" lon="12.88929"><ele>685.5</ele><time>2026-04-11T12:59:18.006Z</time></trkpt><trkpt lat="43.29213" lon="12.889415"><ele>689.0</ele><time>2026-04-11T12:59:20.008Z</time></trkpt><trkpt lat="43.2921517" lon="12.8895567"><ele>692.5</ele><time>2026-04-11T12:59:22.007Z</time></trkpt><trkpt lat="43.2921667" lon="12.8896733"><ele>696.0</ele><time>2026-04-11T12:59:24.007Z</time></trkpt><trkpt lat="43.2921933" lon="12.8897667"><ele>699.5</ele><time>2026-04-11T12:59:26.007Z</time></trkpt><trkpt lat="43.2922133" lon="12.889855"><ele>703.0</ele><time>2026-04-11T12:59:32.005Z</time></trkpt><trkpt lat="43.2922883" lon="12.889865"><ele>703.1666666666667</ele><time>2026-04-11T12:59:47.005Z</time></trkpt><trkpt lat="43.2923317" lon="12.8897933"><ele>703.3333333333334</ele><time>2026-04-11T12:59:48.006Z</time></trkpt><trkpt lat="43.292365" lon="12.8896933"><ele>703.5</ele><time>2026-04-11T12:59:49.007Z</time></trkpt><trkpt lat="43.2923967" lon="12.88958"><ele>703.6666666666666</ele><time>2026-04-11T12:59:50.007Z</time></trkpt><trkpt lat="43.2924333" lon="12.8894517"><ele>703.8333333333333</ele><time>2026-04-11T12:59:51.008Z</time></trkpt><trkpt lat="43.2924817" lon="12.889325"><ele>704.0</ele><time>2026-04-11T12:59:52.007Z</time></trkpt><trkpt lat="43.2925333" lon="12.8891967"><ele>701.0</ele><time>2026-04-11T12:59:53.006Z</time></trkpt><trkpt lat="43.2925883" lon="12.88906"><ele>698.0</ele><time>2026-04-11T12:59:54.008Z</time></trkpt><trkpt lat="43.2926467" lon="12.8889183"><ele>695.0</ele><time>2026-04-11T12:59:55.008Z</time></trkpt><trkpt lat="43.2927067" lon="12.888775"><ele>692.0</ele><time>2026-04-11T12:59:56.008Z</time></trkpt><trkpt lat="43.2927667" lon="12.88863"><ele>692.0</ele><time>2026-04-11T12:59:57.01Z</time></trkpt><trkpt lat="43.29283" lon="12.8884817"><ele>692.0</ele><time>2026-04-11T12:59:58.007Z</time></trkpt><trkpt lat="43.2928983" lon="12.888335"><ele>692.0</ele><time>2026-04-11T12:59:59.007Z</time></trkpt><trkpt lat="43.29297" lon="12.8881917"><ele>692.0</ele><time>2026-04-11T13:00:00.019Z</time></trkpt><trkpt lat="43.2930383" lon="12.888045"><ele>694.0</ele><time>2026-04-11T13:00:01.008Z</time></trkpt><trkpt lat="43.2931083" lon="12.8878983"><ele>696.0</ele><time>2026-04-11T13:00:02.005Z</time></trkpt><trkpt lat="43.2931817" lon="12.8877483"><ele>698.0</ele><time>2026-04-11T13:00:03.005Z</time></trkpt><trkpt lat="43.293255" lon="12.8876017"><ele>700.0</ele><time>2026-04-11T13:00:04.001Z</time></trkpt><trkpt lat="43.2933333" lon="12.887455"><ele>700.0</ele><time>2026-04-11T13:00:05.002Z</time></trkpt><trkpt lat="43.2934133" lon="12.8873117"><ele>700.0</ele><time>2026-04-11T13:00:06.006Z</time></trkpt><trkpt lat="43.2934983" lon="12.8871717"><ele>700.0</ele><time>2026-04-11T13:00:07.006Z</time></trkpt><trkpt lat="43.2935917" lon="12.8870367"><ele>700.0</ele><time>2026-04-11T13:00:08.007Z</time></trkpt><trkpt lat="43.29367" lon="12.88692"><ele>700.0</ele><time>2026-04-11T13:00:09.008Z</time></trkpt><trkpt lat="43.293735" lon="12.8868167"><ele>700.0</ele><time>2026-04-11T13:00:10.007Z</time></trkpt><trkpt lat="43.2937983" lon="12.88673"><ele>700.0</ele><time>2026-04-11T13:00:11.007Z</time></trkpt><trkpt lat="43.2938633" lon="12.8866483"><ele>700.0</ele><time>2026-04-11T13:00:12.007Z</time></trkpt><trkpt lat="43.2939317" lon="12.8865667"><ele>700.0</ele><time>2026-04-11T13:00:13.001Z</time></trkpt><trkpt lat="43.2939967" lon="12.88648"><ele>702.4</ele><time>2026-04-11T13:00:14.007Z</time></trkpt><trkpt lat="43.2940633" lon="12.8864"><ele>704.8</ele><time>2026-04-11T13:00:15.005Z</time></trkpt><trkpt lat="43.29413" lon="12.886315"><ele>707.2</ele><time>2026-04-11T13:00:16.008Z</time></trkpt><trkpt lat="43.2942" lon="12.8862217"><ele>709.6</ele><time>2026-04-11T13:00:17.005Z</time></trkpt><trkpt lat="43.2942767" lon="12.8861217"><ele>712.0</ele><time>2026-04-11T13:00:18.006Z</time></trkpt><trkpt lat="43.2943583" lon="12.8860217"><ele>706.0</ele><time>2026-04-11T13:00:19.007Z</time></trkpt><trkpt lat="43.294445" lon="12.8859217"><ele>700.0</ele><time>2026-04-11T13:00:20.007Z</time></trkpt><trkpt lat="43.2945333" lon="12.885825"><ele>694.0</ele><time>2026-04-11T13:00:21.007Z</time></trkpt><trkpt lat="43.294625" lon="12.8857317"><ele>688.0</ele><time>2026-04-11T13:00:22.007Z</time></trkpt><trkpt lat="43.2947167" lon="12.88564"><ele>696.0</ele><time>2026-04-11T13:00:23.007Z</time></trkpt><trkpt lat="43.2948167" lon="12.8855567"><ele>704.0</ele><time>2026-04-11T13:00:24.008Z</time></trkpt><trkpt lat="43.29492" lon="12.8854783"><ele>712.0</ele><time>2026-04-11T13:00:25.007Z</time></trkpt><trkpt lat="43.2950283" lon="12.8854083"><ele>720.0</ele><time>2026-04-11T13:00:26.007Z</time></trkpt><trkpt lat="43.29514" lon="12.88535"><ele>720.0</ele><time>2026-04-11T13:00:27.007Z</time></trkpt><trkpt lat="43.2952567" lon="12.8852967"><ele>720.0</ele><time>2026-04-11T13:00:28.008Z</time></trkpt><trkpt lat="43.2953683" lon="12.885245"><ele>720.0</ele><time>2026-04-11T13:00:29.006Z</time></trkpt><trkpt lat="43.295475" lon="12.8851833"><ele>720.0</ele><time>2026-04-11T13:00:30.007Z</time></trkpt><trkpt lat="43.2955733" lon="12.88509"><ele>719.75</ele><time>2026-04-11T13:00:31.008Z</time></trkpt><trkpt lat="43.2956583" lon="12.8849683"><ele>719.5</ele><time>2026-04-11T13:00:32.008Z</time></trkpt><trkpt lat="43.2957433" lon="12.8848267"><ele>719.25</ele><time>2026-04-11T13:00:33.008Z</time></trkpt><trkpt lat="43.29583" lon="12.8846733"><ele>719.0</ele><time>2026-04-11T13:00:34.006Z</time></trkpt><trkpt lat="43.29591" lon="12.8845133"><ele>719.0</ele><time>2026-04-11T13:00:35.006Z</time></trkpt><trkpt lat="43.2959833" lon="12.8843533"><ele>719.0</ele><time>2026-04-11T13:00:36.007Z</time></trkpt><trkpt lat="43.29605" lon="12.8842"><ele>719.0</ele><time>2026-04-11T13:00:37.007Z</time></trkpt><trkpt lat="43.2961067" lon="12.884055"><ele>719.0</ele><time>2026-04-11T13:00:38.006Z</time></trkpt><trkpt lat="43.2961733" lon="12.883925"><ele>719.4000000000001</ele><time>2026-04-11T13:00:39.007Z</time></trkpt><trkpt lat="43.2962467" lon="12.8838133"><ele>719.8</ele><time>2026-04-11T13:00:40.007Z</time></trkpt><trkpt lat="43.29633" lon="12.883725"><ele>720.2</ele><time>2026-04-11T13:00:41.006Z</time></trkpt><trkpt lat="43.2964217" lon="12.8836533"><ele>720.5999999999999</ele><time>2026-04-11T13:00:42.006Z</time></trkpt><trkpt lat="43.2965217" lon="12.8836017"><ele>721.0</ele><time>2026-04-11T13:00:43.008Z</time></trkpt><trkpt lat="43.2966267" lon="12.88357"><ele>721.0</ele><time>2026-04-11T13:00:44.007Z</time></trkpt><trkpt lat="43.296735" lon="12.88356"><ele>721.0</ele><time>2026-04-11T13:00:45.007Z</time></trkpt><trkpt lat="43.296835" lon="12.8835633"><ele>721.0</ele><time>2026-04-11T13:00:46.008Z</time></trkpt><trkpt lat="43.2969217" lon="12.883575"><ele>721.0</ele><time>2026-04-11T13:00:47.007Z</time></trkpt><trkpt lat="43.2969917" lon="12.8835933"><ele>721.0</ele><time>2026-04-11T13:00:48.006Z</time></trkpt><trkpt lat="43.2970833" lon="12.88362"><ele>721.0</ele><time>2026-04-11T13:00:50.006Z</time></trkpt><trkpt lat="43.2971567" lon="12.8836333"><ele>721.0</ele><time>2026-04-11T13:00:54.006Z</time></trkpt><trkpt lat="43.297225" lon="12.8836583"><ele>721.0</ele><time>2026-04-11T13:01:17.005Z</time></trkpt><trkpt lat="43.2973067" lon="12.8836867"><ele>721.0</ele><time>2026-04-11T13:01:18.008Z</time></trkpt><trkpt lat="43.2973983" lon="12.883715"><ele>721.0</ele><time>2026-04-11T13:01:19.007Z</time></trkpt><trkpt lat="43.2974933" lon="12.883745"><ele>721.0</ele><time>2026-04-11T13:01:20.008Z</time></trkpt><trkpt lat="43.29759" lon="12.8837817"><ele>721.5999999999999</ele><time>2026-04-11T13:01:21.007Z</time></trkpt><trkpt lat="43.297685" lon="12.8838183"><ele>722.2</ele><time>2026-04-11T13:01:22.006Z</time></trkpt><trkpt lat="43.2977817" lon="12.8838517"><ele>722.8</ele><time>2026-04-11T13:01:23.007Z</time></trkpt><trkpt lat="43.29788" lon="12.883895"><ele>723.4000000000001</ele><time>2026-04-11T13:01:24.007Z</time></trkpt><trkpt lat="43.2979783" lon="12.8839433"><ele>724.0</ele><time>2026-04-11T13:01:25.007Z</time></trkpt><trkpt lat="43.2980783" lon="12.8839967"><ele>720.25</ele><time>2026-04-11T13:01:26.007Z</time></trkpt><trkpt lat="43.2981783" lon="12.884055"><ele>716.5</ele><time>2026-04-11T13:01:27.007Z</time></trkpt><trkpt lat="43.2982833" lon="12.8841167"><ele>712.75</ele><time>2026-04-11T13:01:28.006Z</time></trkpt><trkpt lat="43.29839" lon="12.88418"><ele>709.0</ele><time>2026-04-11T13:01:29.007Z</time></trkpt><trkpt lat="43.298495" lon="12.884245"><ele>711.0</ele><time>2026-04-11T13:01:30.007Z</time></trkpt><trkpt lat="43.2985983" lon="12.8843067"><ele>713.0</ele><time>2026-04-11T13:01:31.005Z</time></trkpt><trkpt lat="43.2986967" lon="12.884365"><ele>715.0</ele><time>2026-04-11T13:01:32.006Z</time></trkpt><trkpt lat="43.2987933" lon="12.8844267"><ele>717.0</ele><time>2026-04-11T13:01:33.008Z</time></trkpt><trkpt lat="43.29889" lon="12.8844933"><ele>719.0</ele><time>2026-04-11T13:01:34.006Z</time></trkpt><trkpt lat="43.2989833" lon="12.884555"><ele>719.0</ele><time>2026-04-11T13:01:35.006Z</time></trkpt><trkpt lat="43.29907" lon="12.88462"><ele>719.0</ele><time>2026-04-11T13:01:36.006Z</time></trkpt><trkpt lat="43.2991567" lon="12.8846867"><ele>719.0</ele><time>2026-04-11T13:01:37.007Z</time></trkpt><trkpt lat="43.2992433" lon="12.884755"><ele>719.0</ele><time>2026-04-11T13:01:38.006Z</time></trkpt><trkpt lat="43.2993267" lon="12.8848267"><ele>719.0</ele><time>2026-04-11T13:01:39.007Z</time></trkpt><trkpt lat="43.29941" lon="12.8848933"><ele>719.0</ele><time>2026-04-11T13:01:40.007Z</time></trkpt><trkpt lat="43.29949" lon="12.8849533"><ele>719.0</ele><time>2026-04-11T13:01:41.007Z</time></trkpt><trkpt lat="43.2995717" lon="12.8850183"><ele>719.0</ele><time>2026-04-11T13:01:42.007Z</time></trkpt><trkpt lat="43.299655" lon="12.8850783"><ele>719.0</ele><time>2026-04-11T13:01:43.008Z</time></trkpt><trkpt lat="43.29974" lon="12.8851333"><ele>719.0</ele><time>2026-04-11T13:01:44.007Z</time></trkpt><trkpt lat="43.2998283" lon="12.8851933"><ele>719.2</ele><time>2026-04-11T13:01:45.007Z</time></trkpt><trkpt lat="43.2999167" lon="12.8852667"><ele>719.4000000000001</ele><time>2026-04-11T13:01:46.007Z</time></trkpt><trkpt lat="43.3000067" lon="12.8853517"><ele>719.6</ele><time>2026-04-11T13:01:47.007Z</time></trkpt><trkpt lat="43.300095" lon="12.8854383"><ele>719.8</ele><time>2026-04-11T13:01:48.006Z</time></trkpt><trkpt lat="43.3001833" lon="12.8855283"><ele>720.0</ele><time>2026-04-11T13:01:49.006Z</time></trkpt><trkpt lat="43.3002683" lon="12.8856117"><ele>720.0</ele><time>2026-04-11T13:01:50.007Z</time></trkpt><trkpt lat="43.3003617" lon="12.8856983"><ele>720.0</ele><time>2026-04-11T13:01:51.009Z</time></trkpt><trkpt lat="43.3004483" lon="12.8857933"><ele>720.0</ele><time>2026-04-11T13:01:52.006Z</time></trkpt><trkpt lat="43.3005333" lon="12.88589"><ele>720.0</ele><time>2026-04-11T13:01:53.006Z</time></trkpt><trkpt lat="43.3006233" lon="12.885985"><ele>720.0</ele><time>2026-04-11T13:01:54.007Z</time></trkpt><trkpt lat="43.3007217" lon="12.8860733"><ele>720.75</ele><time>2026-04-11T13:01:55.006Z</time></trkpt><trkpt lat="43.30082" lon="12.8861633"><ele>721.5</ele><time>2026-04-11T13:01:56.001Z</time></trkpt><trkpt lat="43.30092" lon="12.886255"><ele>722.25</ele><time>2026-04-11T13:01:57.008Z</time></trkpt><trkpt lat="43.3010283" lon="12.8863367"><ele>723.0</ele><time>2026-04-11T13:01:58.006Z</time></trkpt><trkpt lat="43.3011317" lon="12.8864217"><ele>723.0</ele><time>2026-04-11T13:01:59.006Z</time></trkpt><trkpt lat="43.301235" lon="12.8865067"><ele>723.0</ele><time>2026-04-11T13:02:00.006Z</time></trkpt><trkpt lat="43.3013367" lon="12.8865933"><ele>723.0</ele><time>2026-04-11T13:02:01.007Z</time></trkpt><trkpt lat="43.3014417" lon="12.8866783"><ele>723.0</ele><time>2026-04-11T13:02:02.007Z</time></trkpt><trkpt lat="43.3015433" lon="12.8867667"><ele>723.25</ele><time>2026-04-11T13:02:03.008Z</time></trkpt><trkpt lat="43.3016467" lon="12.88686"><ele>723.5</ele><time>2026-04-11T13:02:04.008Z</time></trkpt><trkpt lat="43.301755" lon="12.886955"><ele>723.75</ele><time>2026-04-11T13:02:05.007Z</time></trkpt><trkpt lat="43.3018717" lon="12.887045"><ele>724.0</ele><time>2026-04-11T13:02:06.007Z</time></trkpt><trkpt lat="43.301995" lon="12.88714"><ele>724.0</ele><time>2026-04-11T13:02:07.007Z</time></trkpt><trkpt lat="43.3021233" lon="12.887235"><ele>724.0</ele><time>2026-04-11T13:02:08.007Z</time></trkpt><trkpt lat="43.30225" lon="12.887315"><ele>724.0</ele><time>2026-04-11T13:02:09.005Z</time></trkpt><trkpt lat="43.3023767" lon="12.88739"><ele>724.0</ele><time>2026-04-11T13:02:10.006Z</time></trkpt><trkpt lat="43.3024883" lon="12.8874733"><ele>724.75</ele><time>2026-04-11T13:02:11.004Z</time></trkpt><trkpt lat="43.3026" lon="12.8875633"><ele>725.5</ele><time>2026-04-11T13:02:12.006Z</time></trkpt><trkpt lat="43.3027083" lon="12.88765"><ele>726.25</ele><time>2026-04-11T13:02:13.013Z</time></trkpt><trkpt lat="43.3028217" lon="12.8877167"><ele>727.0</ele><time>2026-04-11T13:02:14.006Z</time></trkpt><trkpt lat="43.30293" lon="12.8877717"><ele>727.0</ele><time>2026-04-11T13:02:15.007Z</time></trkpt><trkpt lat="43.3030333" lon="12.8878133"><ele>727.0</ele><time>2026-04-11T13:02:16.006Z</time></trkpt><trkpt lat="43.303125" lon="12.8878317"><ele>727.0</ele><time>2026-04-11T13:02:17.005Z</time></trkpt><trkpt lat="43.3032117" lon="12.8878617"><ele>727.0</ele><time>2026-04-11T13:02:18.006Z</time></trkpt><trkpt lat="43.303295" lon="12.8879233"><ele>727.0</ele><time>2026-04-11T13:02:19.006Z</time></trkpt><trkpt lat="43.3033833" lon="12.8880083"><ele>720.5</ele><time>2026-04-11T13:02:20.006Z</time></trkpt><trkpt lat="43.3034767" lon="12.8881067"><ele>714.0</ele><time>2026-04-11T13:02:21.008Z</time></trkpt><trkpt lat="43.30358" lon="12.8881967"><ele>707.5</ele><time>2026-04-11T13:02:22.005Z</time></trkpt><trkpt lat="43.3036867" lon="12.8882833"><ele>701.0</ele><time>2026-04-11T13:02:23.004Z</time></trkpt><trkpt lat="43.3038067" lon="12.8883667"><ele>702.0</ele><time>2026-04-11T13:02:24.004Z</time></trkpt><trkpt lat="43.30393" lon="12.8884383"><ele>703.0</ele><time>2026-04-11T13:02:25.006Z</time></trkpt><trkpt lat="43.3040583" lon="12.8885117"><ele>704.0</ele><time>2026-04-11T13:02:26.005Z</time></trkpt><trkpt lat="43.3041783" lon="12.888575"><ele>705.0</ele><time>2026-04-11T13:02:27.008Z</time></trkpt><trkpt lat="43.304295" lon="12.888625"><ele>705.0</ele><time>2026-04-11T13:02:28.007Z</time></trkpt><trkpt lat="43.3043983" lon="12.8886617"><ele>705.0</ele><time>2026-04-11T13:02:29.006Z</time></trkpt><trkpt lat="43.3044983" lon="12.888675"><ele>705.0</ele><time>2026-04-11T13:02:30.006Z</time></trkpt><trkpt lat="43.30458" lon="12.8886667"><ele>705.0</ele><time>2026-04-11T13:02:31.007Z</time></trkpt><trkpt lat="43.3046483" lon="12.888645"><ele>705.0</ele><time>2026-04-11T13:02:32.007Z</time></trkpt><trkpt lat="43.3047317" lon="12.88859"><ele>700.6</ele><time>2026-04-11T13:02:34.01Z</time></trkpt><trkpt lat="43.3047733" lon="12.88852"><ele>696.2</ele><time>2026-04-11T13:02:36.008Z</time></trkpt><trkpt lat="43.3048333" lon="12.888475"><ele>691.8</ele><time>2026-04-11T13:02:40.007Z</time></trkpt><trkpt lat="43.3049317" lon="12.8883667"><ele>687.4</ele><time>2026-04-11T13:03:18.008Z</time></trkpt><trkpt lat="43.3050367" lon="12.8882517"><ele>683.0</ele><time>2026-04-11T13:03:20.007Z</time></trkpt><trkpt lat="43.3051017" lon="12.888175"><ele>683.0</ele><time>2026-04-11T13:03:21.006Z</time></trkpt><trkpt lat="43.3051767" lon="12.888085"><ele>683.0</ele><time>2026-04-11T13:03:22.006Z</time></trkpt><trkpt lat="43.3052533" lon="12.88799"><ele>683.0</ele><time>2026-04-11T13:03:23.006Z</time></trkpt><trkpt lat="43.3053317" lon="12.8878917"><ele>683.0</ele><time>2026-04-11T13:03:24.006Z</time></trkpt><trkpt lat="43.3054133" lon="12.8877883"><ele>683.0</ele><time>2026-04-11T13:03:25.007Z</time></trkpt><trkpt lat="43.3054917" lon="12.8876767"><ele>684.0</ele><time>2026-04-11T13:03:26.007Z</time></trkpt><trkpt lat="43.30557" lon="12.88756"><ele>685.0</ele><time>2026-04-11T13:03:27.007Z</time></trkpt><trkpt lat="43.30565" lon="12.8874433"><ele>686.0</ele><time>2026-04-11T13:03:28.003Z</time></trkpt><trkpt lat="43.305735" lon="12.887335"><ele>687.0</ele><time>2026-04-11T13:03:29.006Z</time></trkpt><trkpt lat="43.3058233" lon="12.88723"><ele>687.0</ele><time>2026-04-11T13:03:30.007Z</time></trkpt><trkpt lat="43.3059133" lon="12.8871317"><ele>687.0</ele><time>2026-04-11T13:03:31.007Z</time></trkpt><trkpt lat="43.3060067" lon="12.8870367"><ele>687.0</ele><time>2026-04-11T13:03:32.008Z</time></trkpt><trkpt lat="43.3060983" lon="12.8869633"><ele>687.0</ele><time>2026-04-11T13:03:33.009Z</time></trkpt><trkpt lat="43.3061917" lon="12.886885"><ele>687.0</ele><time>2026-04-11T13:03:34.007Z</time></trkpt><trkpt lat="43.30629" lon="12.8868133"><ele>687.0</ele><time>2026-04-11T13:03:35.006Z</time></trkpt><trkpt lat="43.3063883" lon="12.8867617"><ele>687.0</ele><time>2026-04-11T13:03:36.007Z</time></trkpt><trkpt lat="43.3064717" lon="12.8867367"><ele>687.0</ele><time>2026-04-11T13:03:37.007Z</time></trkpt><trkpt lat="43.3065483" lon="12.88673"><ele>687.0</ele><time>2026-04-11T13:03:38.008Z</time></trkpt><trkpt lat="43.3066267" lon="12.8867333"><ele>687.0</ele><time>2026-04-11T13:03:39.007Z</time></trkpt><trkpt lat="43.3067167" lon="12.8867433"><ele>687.0</ele><time>2026-04-11T13:03:40.007Z</time></trkpt><trkpt lat="43.30681" lon="12.8867567"><ele>685.0</ele><time>2026-04-11T13:03:41.006Z</time></trkpt><trkpt lat="43.306905" lon="12.8867817"><ele>683.0</ele><time>2026-04-11T13:03:42.007Z</time></trkpt><trkpt lat="43.3070067" lon="12.88681"><ele>681.0</ele><time>2026-04-11T13:03:43.007Z</time></trkpt><trkpt lat="43.3071183" lon="12.8868333"><ele>679.0</ele><time>2026-04-11T13:03:44.007Z</time></trkpt><trkpt lat="43.3072267" lon="12.886865"><ele>677.0</ele><time>2026-04-11T13:03:45.009Z</time></trkpt><trkpt lat="43.307335" lon="12.8869"><ele>677.0</ele><time>2026-04-11T13:03:46.006Z</time></trkpt><trkpt lat="43.3074383" lon="12.8869367"><ele>677.0</ele><time>2026-04-11T13:03:47.006Z</time></trkpt><trkpt lat="43.3075433" lon="12.886965"><ele>677.0</ele><time>2026-04-11T13:03:48.008Z</time></trkpt><trkpt lat="43.3076517" lon="12.8869783"><ele>677.0</ele><time>2026-04-11T13:03:49.007Z</time></trkpt><trkpt lat="43.3077633" lon="12.8869733"><ele>677.0</ele><time>2026-04-11T13:03:50.007Z</time></trkpt><trkpt lat="43.3078767" lon="12.8869633"><ele>677.0</ele><time>2026-04-11T13:03:51.008Z</time></trkpt><trkpt lat="43.3079983" lon="12.8869517"><ele>677.0</ele><time>2026-04-11T13:03:52.007Z</time></trkpt><trkpt lat="43.3081183" lon="12.88693"><ele>677.0</ele><time>2026-04-11T13:03:53.007Z</time></trkpt><trkpt lat="43.308235" lon="12.8869217"><ele>677.0</ele><time>2026-04-11T13:03:54.007Z</time></trkpt><trkpt lat="43.3083533" lon="12.8869117"><ele>677.0</ele><time>2026-04-11T13:03:55.006Z</time></trkpt><trkpt lat="43.3084783" lon="12.8868883"><ele>677.0</ele><time>2026-04-11T13:03:56.007Z</time></trkpt><trkpt lat="43.3086033" lon="12.8868583"><ele>677.0</ele><time>2026-04-11T13:03:57.008Z</time></trkpt><trkpt lat="43.3087217" lon="12.8867983"><ele>677.0</ele><time>2026-04-11T13:03:58.007Z</time></trkpt><trkpt lat="43.3088283" lon="12.8867467"><ele>679.3333333333333</ele><time>2026-04-11T13:03:59.007Z</time></trkpt><trkpt lat="43.3089183" lon="12.88669"><ele>681.6666666666666</ele><time>2026-04-11T13:04:00.009Z</time></trkpt><trkpt lat="43.3089867" lon="12.8866083"><ele>684.0</ele><time>2026-04-11T13:04:01.007Z</time></trkpt><trkpt lat="43.3090283" lon="12.88653"><ele>686.3333333333334</ele><time>2026-04-11T13:04:02.007Z</time></trkpt><trkpt lat="43.3090567" lon="12.8864417"><ele>688.6666666666667</ele><time>2026-04-11T13:04:03.008Z</time></trkpt><trkpt lat="43.3090533" lon="12.8863333"><ele>691.0</ele><time>2026-04-11T13:04:04.007Z</time></trkpt><trkpt lat="43.30902" lon="12.8862033"><ele>691.0</ele><time>2026-04-11T13:04:05.007Z</time></trkpt><trkpt lat="43.3089717" lon="12.886055"><ele>691.0</ele><time>2026-04-11T13:04:06.007Z</time></trkpt><trkpt lat="43.3089367" lon="12.8858783"><ele>691.0</ele><time>2026-04-11T13:04:07.007Z</time></trkpt><trkpt lat="43.3089317" lon="12.88572"><ele>691.0</ele><time>2026-04-11T13:04:08.006Z</time></trkpt><trkpt lat="43.3089517" lon="12.88556"><ele>692.5</ele><time>2026-04-11T13:04:09.009Z</time></trkpt><trkpt lat="43.3089933" lon="12.8853983"><ele>694.0</ele><time>2026-04-11T13:04:10.007Z</time></trkpt><trkpt lat="43.309045" lon="12.8852383"><ele>695.5</ele><time>2026-04-11T13:04:11.006Z</time></trkpt><trkpt lat="43.309095" lon="12.885085"><ele>697.0</ele><time>2026-04-11T13:04:12.007Z</time></trkpt><trkpt lat="43.3091383" lon="12.8849383"><ele>697.5</ele><time>2026-04-11T13:04:13.007Z</time></trkpt><trkpt lat="43.309185" lon="12.8848067"><ele>698.0</ele><time>2026-04-11T13:04:14.006Z</time></trkpt><trkpt lat="43.3092233" lon="12.88469"><ele>698.5</ele><time>2026-04-11T13:04:15.009Z</time></trkpt><trkpt lat="43.3092567" lon="12.8846067"><ele>699.0</ele><time>2026-04-11T13:04:16.005Z</time></trkpt><trkpt lat="43.309295" lon="12.8845183"><ele>699.5</ele><time>2026-04-11T13:04:18.007Z</time></trkpt><trkpt lat="43.3093933" lon="12.8845533"><ele>700.0</ele><time>2026-04-11T13:04:31.007Z</time></trkpt><trkpt lat="43.3094567" lon="12.8845567"><ele>700.0</ele><time>2026-04-11T13:04:35.006Z</time></trkpt><trkpt lat="43.3095333" lon="12.8845117"><ele>700.0</ele><time>2026-04-11T13:04:39.008Z</time></trkpt><trkpt lat="43.309595" lon="12.88448"><ele>700.0</ele><time>2026-04-11T13:04:41.007Z</time></trkpt><trkpt lat="43.3096583" lon="12.8844483"><ele>700.0</ele><time>2026-04-11T13:04:43.007Z</time></trkpt><trkpt lat="43.3097217" lon="12.8843983"><ele>700.0</ele><time>2026-04-11T13:04:45.009Z</time></trkpt><trkpt lat="43.30978" lon="12.8843417"><ele>700.0</ele><time>2026-04-11T13:04:47.007Z</time></trkpt><trkpt lat="43.3098367" lon="12.884275"><ele>700.0</ele><time>2026-04-11T13:04:49.007Z</time></trkpt><trkpt lat="43.3098833" lon="12.884195"><ele>699.0</ele><time>2026-04-11T13:04:51.008Z</time></trkpt><trkpt lat="43.309925" lon="12.8841033"><ele>698.0</ele><time>2026-04-11T13:04:53.007Z</time></trkpt><trkpt lat="43.3099617" lon="12.88402"><ele>697.0</ele><time>2026-04-11T13:04:55.007Z</time></trkpt><trkpt lat="43.309995" lon="12.88393"><ele>696.0</ele><time>2026-04-11T13:04:57.008Z</time></trkpt><trkpt lat="43.3100217" lon="12.8838033"><ele>695.0</ele><time>2026-04-11T13:04:59.006Z</time></trkpt><trkpt lat="43.310045" lon="12.883635"><ele>694.0</ele><time>2026-04-11T13:05:01.007Z</time></trkpt><trkpt lat="43.31006" lon="12.8835383"><ele>694.0</ele><time>2026-04-11T13:05:02.009Z</time></trkpt><trkpt lat="43.3100683" lon="12.8834333"><ele>694.0</ele><time>2026-04-11T13:05:03.008Z</time></trkpt><trkpt lat="43.3100717" lon="12.88332"><ele>694.0</ele><time>2026-04-11T13:05:04.007Z</time></trkpt><trkpt lat="43.31007" lon="12.8832"><ele>694.0</ele><time>2026-04-11T13:05:05.006Z</time></trkpt><trkpt lat="43.3100617" lon="12.8830783"><ele>694.0</ele><time>2026-04-11T13:05:06.007Z</time></trkpt><trkpt lat="43.310045" lon="12.8829517"><ele>694.0</ele><time>2026-04-11T13:05:07.008Z</time></trkpt><trkpt lat="43.3100217" lon="12.8828183"><ele>695.5</ele><time>2026-04-11T13:05:08.007Z</time></trkpt><trkpt lat="43.3099883" lon="12.8826717"><ele>697.0</ele><time>2026-04-11T13:05:09.008Z</time></trkpt><trkpt lat="43.3099467" lon="12.8825167"><ele>698.5</ele><time>2026-04-11T13:05:10.005Z</time></trkpt><trkpt lat="43.309905" lon="12.882365"><ele>700.0</ele><time>2026-04-11T13:05:11.006Z</time></trkpt><trkpt lat="43.3098683" lon="12.8822133"><ele>700.5</ele><time>2026-04-11T13:05:12.005Z</time></trkpt><trkpt lat="43.3098317" lon="12.88206"><ele>701.0</ele><time>2026-04-11T13:05:13.006Z</time></trkpt><trkpt lat="43.309785" lon="12.88191"><ele>701.5</ele><time>2026-04-11T13:05:14.006Z</time></trkpt><trkpt lat="43.3097383" lon="12.8817617"><ele>702.0</ele><time>2026-04-11T13:05:15.008Z</time></trkpt><trkpt lat="43.3096917" lon="12.8816183"><ele>705.4000000000001</ele><time>2026-04-11T13:05:16.006Z</time></trkpt><trkpt lat="43.3096467" lon="12.881475"><ele>708.8000000000001</ele><time>2026-04-11T13:05:17.006Z</time></trkpt><trkpt lat="43.3096" lon="12.8813367"><ele>712.2</ele><time>2026-04-11T13:05:18.007Z</time></trkpt><trkpt lat="43.3095633" lon="12.8811983"><ele>715.6</ele><time>2026-04-11T13:05:19.006Z</time></trkpt><trkpt lat="43.3095267" lon="12.8810567"><ele>719.0</ele><time>2026-04-11T13:05:20.006Z</time></trkpt><trkpt lat="43.3094983" lon="12.880915"><ele>719.0</ele><time>2026-04-11T13:05:21.007Z</time></trkpt><trkpt lat="43.3094767" lon="12.880775"><ele>719.0</ele><time>2026-04-11T13:05:22.006Z</time></trkpt><trkpt lat="43.3094583" lon="12.88062"><ele>719.0</ele><time>2026-04-11T13:05:23.007Z</time></trkpt><trkpt lat="43.309445" lon="12.8804567"><ele>719.0</ele><time>2026-04-11T13:05:24.007Z</time></trkpt><trkpt lat="43.3094317" lon="12.8802867"><ele>719.0</ele><time>2026-04-11T13:05:25.008Z</time></trkpt><trkpt lat="43.30942" lon="12.880115"><ele>719.0</ele><time>2026-04-11T13:05:26.006Z</time></trkpt><trkpt lat="43.3094167" lon="12.8799567"><ele>719.0</ele><time>2026-04-11T13:05:27.008Z</time></trkpt><trkpt lat="43.309415" lon="12.8798167"><ele>719.0</ele><time>2026-04-11T13:05:28.007Z</time></trkpt><trkpt lat="43.3094067" lon="12.8797017"><ele>719.0</ele><time>2026-04-11T13:05:29.006Z</time></trkpt><trkpt lat="43.30939" lon="12.8795583"><ele>718.0</ele><time>2026-04-11T13:05:31.007Z</time></trkpt><trkpt lat="43.309465" lon="12.8794867"><ele>717.0</ele><time>2026-04-11T13:05:34.006Z</time></trkpt><trkpt lat="43.3095383" lon="12.8794567"><ele>716.0</ele><time>2026-04-11T13:05:49.008Z</time></trkpt><trkpt lat="43.3095667" lon="12.8793133"><ele>715.0</ele><time>2026-04-11T13:05:55.008Z</time></trkpt><trkpt lat="43.30957" lon="12.8792083"><ele>714.0</ele><time>2026-04-11T13:05:56.007Z</time></trkpt><trkpt lat="43.3095683" lon="12.8791033"><ele>713.0</ele><time>2026-04-11T13:05:57.008Z</time></trkpt><trkpt lat="43.3095783" lon="12.87898"><ele>711.8333333333333</ele><time>2026-04-11T13:05:58.006Z</time></trkpt><trkpt lat="43.3095817" lon="12.8788633"><ele>710.6666666666666</ele><time>2026-04-11T13:05:59.006Z</time></trkpt><trkpt lat="43.309585" lon="12.878765"><ele>709.5</ele><time>2026-04-11T13:06:00.009Z</time></trkpt><trkpt lat="43.309595" lon="12.8786667"><ele>708.3333333333334</ele><time>2026-04-11T13:06:01.007Z</time></trkpt><trkpt lat="43.3096117" lon="12.878565"><ele>707.1666666666667</ele><time>2026-04-11T13:06:02.008Z</time></trkpt><trkpt lat="43.3096267" lon="12.8784617"><ele>706.0</ele><time>2026-04-11T13:06:03.008Z</time></trkpt><trkpt lat="43.3096383" lon="12.8783567"><ele>703.6666666666667</ele><time>2026-04-11T13:06:04.007Z</time></trkpt><trkpt lat="43.3096483" lon="12.878255"><ele>701.3333333333334</ele><time>2026-04-11T13:06:05.007Z</time></trkpt><trkpt lat="43.3096567" lon="12.878155"><ele>699.0</ele><time>2026-04-11T13:06:06.007Z</time></trkpt><trkpt lat="43.30966" lon="12.8780517"><ele>696.6666666666666</ele><time>2026-04-11T13:06:07.008Z</time></trkpt><trkpt lat="43.3096683" lon="12.8779433"><ele>694.3333333333333</ele><time>2026-04-11T13:06:08.007Z</time></trkpt><trkpt lat="43.3096767" lon="12.8778317"><ele>692.0</ele><time>2026-04-11T13:06:09.007Z</time></trkpt><trkpt lat="43.3096817" lon="12.8777183"><ele>692.0</ele><time>2026-04-11T13:06:10.007Z</time></trkpt><trkpt lat="43.3096833" lon="12.877605"><ele>692.0</ele><time>2026-04-11T13:06:11.004Z</time></trkpt><trkpt lat="43.3096867" lon="12.8774917"><ele>692.0</ele><time>2026-04-11T13:06:12.007Z</time></trkpt><trkpt lat="43.3096717" lon="12.8773767"><ele>692.0</ele><time>2026-04-11T13:06:13.006Z</time></trkpt><trkpt lat="43.309645" lon="12.8772533"><ele>692.0</ele><time>2026-04-11T13:06:14.005Z</time></trkpt><trkpt lat="43.3096083" lon="12.8771267"><ele>692.0</ele><time>2026-04-11T13:06:15.008Z</time></trkpt><trkpt lat="43.3095733" lon="12.8770083"><ele>688.5</ele><time>2026-04-11T13:06:16.008Z</time></trkpt><trkpt lat="43.309555" lon="12.8769033"><ele>685.0</ele><time>2026-04-11T13:06:17.007Z</time></trkpt><trkpt lat="43.3095317" lon="12.8768017"><ele>681.5</ele><time>2026-04-11T13:06:18.006Z</time></trkpt><trkpt lat="43.3094967" lon="12.8767133"><ele>678.0</ele><time>2026-04-11T13:06:19.007Z</time></trkpt><trkpt lat="43.3094683" lon="12.8766317"><ele>674.5</ele><time>2026-04-11T13:06:20.007Z</time></trkpt><trkpt lat="43.3094183" lon="12.8764983"><ele>671.0</ele><time>2026-04-11T13:06:22.007Z</time></trkpt><trkpt lat="43.3093833" lon="12.8764017"><ele>668.1666666666666</ele><time>2026-04-11T13:06:24.005Z</time></trkpt><trkpt lat="43.3093517" lon="12.8763067"><ele>665.3333333333333</ele><time>2026-04-11T13:06:27.007Z</time></trkpt><trkpt lat="43.3092883" lon="12.8761933"><ele>662.5</ele><time>2026-04-11T13:06:58.007Z</time></trkpt><trkpt lat="43.309305" lon="12.87607"><ele>659.6666666666666</ele><time>2026-04-11T13:08:59.006Z</time></trkpt><trkpt lat="43.3092917" lon="12.8759717"><ele>656.8333333333334</ele><time>2026-04-11T13:09:00.007Z</time></trkpt><trkpt lat="43.3092783" lon="12.8758833"><ele>654.0</ele><time>2026-04-11T13:09:01.006Z</time></trkpt><trkpt lat="43.309255" lon="12.8757167"><ele>650.1666666666666</ele><time>2026-04-11T13:09:03.007Z</time></trkpt><trkpt lat="43.309255" lon="12.875625"><ele>646.3333333333334</ele><time>2026-04-11T13:09:04.006Z</time></trkpt><trkpt lat="43.3092683" lon="12.87552"><ele>642.5</ele><time>2026-04-11T13:09:05.005Z</time></trkpt><trkpt lat="43.30928" lon="12.8754133"><ele>638.6666666666667</ele><time>2026-04-11T13:09:06.006Z</time></trkpt><trkpt lat="43.309305" lon="12.87532"><ele>634.8333333333334</ele><time>2026-04-11T13:09:07.008Z</time></trkpt><trkpt lat="43.3093367" lon="12.875235"><ele>631.0</ele><time>2026-04-11T13:09:08.004Z</time></trkpt><trkpt lat="43.309365" lon="12.8750717"><ele>628.0</ele><time>2026-04-11T13:09:10.006Z</time></trkpt><trkpt lat="43.309345" lon="12.8749733"><ele>625.0</ele><time>2026-04-11T13:09:11.005Z</time></trkpt><trkpt lat="43.30931" lon="12.8748633"><ele>622.0</ele><time>2026-04-11T13:09:12.006Z</time></trkpt><trkpt lat="43.3092783" lon="12.8747517"><ele>619.0</ele><time>2026-04-11T13:09:13.005Z</time></trkpt><trkpt lat="43.30925" lon="12.874645"><ele>616.0</ele><time>2026-04-11T13:09:14.005Z</time></trkpt><trkpt lat="43.3092233" lon="12.8745333"><ele>613.0</ele><time>2026-04-11T13:09:15.007Z</time></trkpt><trkpt lat="43.309205" lon="12.874415"><ele>613.0</ele><time>2026-04-11T13:09:16.006Z</time></trkpt><trkpt lat="43.3091917" lon="12.8742933"><ele>613.0</ele><time>2026-04-11T13:09:17.006Z</time></trkpt><trkpt lat="43.30918" lon="12.87417"><ele>613.0</ele><time>2026-04-11T13:09:18.002Z</time></trkpt><trkpt lat="43.309175" lon="12.874045"><ele>613.0</ele><time>2026-04-11T13:09:19.005Z</time></trkpt><trkpt lat="43.30917" lon="12.8739233"><ele>613.0</ele><time>2026-04-11T13:09:20.005Z</time></trkpt><trkpt lat="43.3091667" lon="12.8737967"><ele>607.8</ele><time>2026-04-11T13:09:21.002Z</time></trkpt><trkpt lat="43.30917" lon="12.8736633"><ele>602.5999999999999</ele><time>2026-04-11T13:09:22.007Z</time></trkpt><trkpt lat="43.3091733" lon="12.8735167"><ele>597.4000000000001</ele><time>2026-04-11T13:09:23.005Z</time></trkpt><trkpt lat="43.3091817" lon="12.8733633"><ele>592.2</ele><time>2026-04-11T13:09:24.005Z</time></trkpt><trkpt lat="43.3091917" lon="12.8732067"><ele>587.0</ele><time>2026-04-11T13:09:25.005Z</time></trkpt><trkpt lat="43.3092017" lon="12.8730583"><ele>583.8000000000001</ele><time>2026-04-11T13:09:26.005Z</time></trkpt><trkpt lat="43.30921" lon="12.8729167"><ele>580.6</ele><time>2026-04-11T13:09:27.006Z</time></trkpt><trkpt lat="43.309235" lon="12.872775"><ele>577.4000000000001</ele><time>2026-04-11T13:09:28.006Z</time></trkpt><trkpt lat="43.3092817" lon="12.87264"><ele>574.2</ele><time>2026-04-11T13:09:29.006Z</time></trkpt><trkpt lat="43.3093367" lon="12.8725"><ele>571.0</ele><time>2026-04-11T13:09:30.007Z</time></trkpt><trkpt lat="43.309395" lon="12.8723567"><ele>568.25</ele><time>2026-04-11T13:09:31.007Z</time></trkpt><trkpt lat="43.309455" lon="12.8722167"><ele>565.5</ele><time>2026-04-11T13:09:32.006Z</time></trkpt><trkpt lat="43.3095233" lon="12.8720933"><ele>562.75</ele><time>2026-04-11T13:09:33.007Z</time></trkpt><trkpt lat="43.309605" lon="12.8720033"><ele>560.0</ele><time>2026-04-11T13:09:34.006Z</time></trkpt><trkpt lat="43.30971" lon="12.87193"><ele>553.75</ele><time>2026-04-11T13:09:35.006Z</time></trkpt><trkpt lat="43.30984" lon="12.8718567"><ele>547.5</ele><time>2026-04-11T13:09:36.007Z</time></trkpt><trkpt lat="43.3099717" lon="12.8717967"><ele>541.25</ele><time>2026-04-11T13:09:37.006Z</time></trkpt><trkpt lat="43.3100917" lon="12.871745"><ele>535.0</ele><time>2026-04-11T13:09:38.006Z</time></trkpt><trkpt lat="43.3102117" lon="12.8716967"><ele>535.0</ele><time>2026-04-11T13:09:39.007Z</time></trkpt><trkpt lat="43.3103267" lon="12.8716633"><ele>535.0</ele><time>2026-04-11T13:09:40.006Z</time></trkpt><trkpt lat="43.310445" lon="12.8716533"><ele>535.0</ele><time>2026-04-11T13:09:41.006Z</time></trkpt><trkpt lat="43.31057" lon="12.871665"><ele>535.0</ele><time>2026-04-11T13:09:42.005Z</time></trkpt><trkpt lat="43.310695" lon="12.8716933"><ele>528.0</ele><time>2026-04-11T13:09:43.005Z</time></trkpt><trkpt lat="43.3108167" lon="12.8717183"><ele>521.0</ele><time>2026-04-11T13:09:44.005Z</time></trkpt><trkpt lat="43.31093" lon="12.8717533"><ele>514.0</ele><time>2026-04-11T13:09:45.005Z</time></trkpt><trkpt lat="43.31105" lon="12.871775"><ele>507.0</ele><time>2026-04-11T13:09:46.006Z</time></trkpt><trkpt lat="43.3111717" lon="12.871785"><ele>505.0</ele><time>2026-04-11T13:09:47.006Z</time></trkpt><trkpt lat="43.3112933" lon="12.8717767"><ele>503.0</ele><time>2026-04-11T13:09:48.006Z</time></trkpt><trkpt lat="43.3114083" lon="12.8717483"><ele>501.0</ele><time>2026-04-11T13:09:49.006Z</time></trkpt><trkpt lat="43.3115217" lon="12.8717"><ele>499.0</ele><time>2026-04-11T13:09:50.006Z</time></trkpt><trkpt lat="43.3116317" lon="12.8716417"><ele>496.79999999999995</ele><time>2026-04-11T13:09:51.007Z</time></trkpt><trkpt lat="43.3117383" lon="12.8715767"><ele>494.59999999999997</ele><time>2026-04-11T13:09:52.006Z</time></trkpt><trkpt lat="43.311835" lon="12.87151"><ele>492.4</ele><time>2026-04-11T13:09:53.006Z</time></trkpt><trkpt lat="43.311925" lon="12.871435"><ele>490.2</ele><time>2026-04-11T13:09:54.005Z</time></trkpt><trkpt lat="43.3120083" lon="12.8713517"><ele>488.0</ele><time>2026-04-11T13:09:55.006Z</time></trkpt><trkpt lat="43.3120833" lon="12.8712667"><ele>488.0</ele><time>2026-04-11T13:09:56.007Z</time></trkpt><trkpt lat="43.3121567" lon="12.8711767"><ele>487.99999999999994</ele><time>2026-04-11T13:09:57.007Z</time></trkpt><trkpt lat="43.3122333" lon="12.87109"><ele>487.99999999999994</ele><time>2026-04-11T13:09:58.006Z</time></trkpt><trkpt lat="43.3123083" lon="12.8710033"><ele>488.0</ele><time>2026-04-11T13:09:59.006Z</time></trkpt><trkpt lat="43.3123783" lon="12.870915"><ele>488.0</ele><time>2026-04-11T13:10:00.007Z</time></trkpt><trkpt lat="43.3124433" lon="12.87083"><ele>489.79999999999995</ele><time>2026-04-11T13:10:01.007Z</time></trkpt><trkpt lat="43.3125033" lon="12.8707367"><ele>491.59999999999997</ele><time>2026-04-11T13:10:02.012Z</time></trkpt><trkpt lat="43.3125617" lon="12.8706367"><ele>493.40000000000003</ele><time>2026-04-11T13:10:03.008Z</time></trkpt><trkpt lat="43.3126133" lon="12.8705333"><ele>495.20000000000005</ele><time>2026-04-11T13:10:04.007Z</time></trkpt><trkpt lat="43.31267" lon="12.87043"><ele>497.0</ele><time>2026-04-11T13:10:05.007Z</time></trkpt><trkpt lat="43.3127233" lon="12.87032"><ele>497.0</ele><time>2026-04-11T13:10:06.006Z</time></trkpt><trkpt lat="43.3127817" lon="12.8702133"><ele>497.00000000000006</ele><time>2026-04-11T13:10:07.007Z</time></trkpt><trkpt lat="43.3128367" lon="12.87011"><ele>497.00000000000006</ele><time>2026-04-11T13:10:08.004Z</time></trkpt><trkpt lat="43.312895" lon="12.8700117"><ele>497.0</ele><time>2026-04-11T13:10:09.007Z</time></trkpt><trkpt lat="43.3129467" lon="12.8699083"><ele>497.0</ele><time>2026-04-11T13:10:10.007Z</time></trkpt><trkpt lat="43.3129883" lon="12.8698033"><ele>499.8333333333333</ele><time>2026-04-11T13:10:11.005Z</time></trkpt><trkpt lat="43.3130217" lon="12.8696983"><ele>502.66666666666663</ele><time>2026-04-11T13:10:12.007Z</time></trkpt><trkpt lat="43.31304" lon="12.8695983"><ele>505.5</ele><time>2026-04-11T13:10:13.007Z</time></trkpt><trkpt lat="43.3130333" lon="12.8695033"><ele>508.33333333333337</ele><time>2026-04-11T13:10:14.006Z</time></trkpt><trkpt lat="43.3130083" lon="12.8694133"><ele>511.1666666666667</ele><time>2026-04-11T13:10:15.007Z</time></trkpt><trkpt lat="43.312975" lon="12.869335"><ele>514.0</ele><time>2026-04-11T13:10:16.004Z</time></trkpt><trkpt lat="43.3129133" lon="12.8692133"><ele>514.6</ele><time>2026-04-11T13:10:18.005Z</time></trkpt><trkpt lat="43.3128617" lon="12.86914"><ele>515.2</ele><time>2026-04-11T13:10:20.006Z</time></trkpt><trkpt lat="43.3128117" lon="12.8690667"><ele>515.8000000000001</ele><time>2026-04-11T13:10:22.006Z</time></trkpt><trkpt lat="43.3127467" lon="12.868985"><ele>516.4</ele><time>2026-04-11T13:10:24.005Z</time></trkpt><trkpt lat="43.3126433" lon="12.8689233"><ele>517.0</ele><time>2026-04-11T13:10:26.006Z</time></trkpt><trkpt lat="43.3125183" lon="12.8688733"><ele>517.0</ele><time>2026-04-11T13:10:28.002Z</time></trkpt><trkpt lat="43.3124433" lon="12.86885"><ele>517.0</ele><time>2026-04-11T13:10:29.008Z</time></trkpt><trkpt lat="43.3123467" lon="12.86883"><ele>517.0</ele><time>2026-04-11T13:10:30.005Z</time></trkpt><trkpt lat="43.31223" lon="12.868815"><ele>517.0</ele><time>2026-04-11T13:10:31.004Z</time></trkpt><trkpt lat="43.3121" lon="12.8688117"><ele>517.0</ele><time>2026-04-11T13:10:32.007Z</time></trkpt><trkpt lat="43.3119667" lon="12.8688067"><ele>516.5</ele><time>2026-04-11T13:10:33.007Z</time></trkpt><trkpt lat="43.31183" lon="12.8688017"><ele>516.0</ele><time>2026-04-11T13:10:34.008Z</time></trkpt><trkpt lat="43.3116933" lon="12.8687867"><ele>515.5</ele><time>2026-04-11T13:10:35.007Z</time></trkpt><trkpt lat="43.311555" lon="12.8687767"><ele>515.0</ele><time>2026-04-11T13:10:36.005Z</time></trkpt><trkpt lat="43.3114217" lon="12.8687667"><ele>513.75</ele><time>2026-04-11T13:10:37.006Z</time></trkpt><trkpt lat="43.3112867" lon="12.8687633"><ele>512.5</ele><time>2026-04-11T13:10:38.008Z</time></trkpt><trkpt lat="43.3111617" lon="12.868745"><ele>511.25</ele><time>2026-04-11T13:10:39.007Z</time></trkpt><trkpt lat="43.3110367" lon="12.8687217"><ele>510.0</ele><time>2026-04-11T13:10:40.007Z</time></trkpt><trkpt lat="43.3109033" lon="12.8686983"><ele>510.0</ele><time>2026-04-11T13:10:41.007Z</time></trkpt><trkpt lat="43.3107683" lon="12.8686767"><ele>510.0</ele><time>2026-04-11T13:10:42.006Z</time></trkpt><trkpt lat="43.3106367" lon="12.8686583"><ele>510.0</ele><time>2026-04-11T13:10:43.006Z</time></trkpt><trkpt lat="43.31051" lon="12.868645"><ele>510.0</ele><time>2026-04-11T13:10:44.007Z</time></trkpt><trkpt lat="43.3103883" lon="12.8686433"><ele>507.0</ele><time>2026-04-11T13:10:45.008Z</time></trkpt><trkpt lat="43.3102733" lon="12.868655"><ele>504.0</ele><time>2026-04-11T13:10:46.008Z</time></trkpt><trkpt lat="43.3101533" lon="12.8686667"><ele>501.0</ele><time>2026-04-11T13:10:47.007Z</time></trkpt><trkpt lat="43.310035" lon="12.8686833"><ele>498.0</ele><time>2026-04-11T13:10:48.005Z</time></trkpt><trkpt lat="43.309925" lon="12.86869"><ele>498.0</ele><time>2026-04-11T13:10:49.006Z</time></trkpt><trkpt lat="43.30983" lon="12.868705"><ele>497.99999999999994</ele><time>2026-04-11T13:10:50.007Z</time></trkpt><trkpt lat="43.30975" lon="12.8687383"><ele>497.99999999999994</ele><time>2026-04-11T13:10:51.008Z</time></trkpt><trkpt lat="43.30968" lon="12.868795"><ele>498.0</ele><time>2026-04-11T13:10:52.008Z</time></trkpt><trkpt lat="43.30961" lon="12.86888"><ele>498.0</ele><time>2026-04-11T13:10:53.006Z</time></trkpt><trkpt lat="43.309535" lon="12.8689617"><ele>495.6666666666667</ele><time>2026-04-11T13:10:54.006Z</time></trkpt><trkpt lat="43.3094567" lon="12.8690167"><ele>493.33333333333337</ele><time>2026-04-11T13:10:55.006Z</time></trkpt><trkpt lat="43.3093733" lon="12.8690467"><ele>491.0</ele><time>2026-04-11T13:10:56.006Z</time></trkpt><trkpt lat="43.3092917" lon="12.8690467"><ele>488.6666666666667</ele><time>2026-04-11T13:10:57.008Z</time></trkpt><trkpt lat="43.3092017" lon="12.8690133"><ele>486.33333333333337</ele><time>2026-04-11T13:10:58.006Z</time></trkpt><trkpt lat="43.3091217" lon="12.868965"><ele>484.0</ele><time>2026-04-11T13:10:59.006Z</time></trkpt><trkpt lat="43.3090417" lon="12.8689217"><ele>484.0</ele><time>2026-04-11T13:11:00.006Z</time></trkpt><trkpt lat="43.30896" lon="12.8688983"><ele>484.0</ele><time>2026-04-11T13:11:01.005Z</time></trkpt><trkpt lat="43.3088733" lon="12.8689017"><ele>484.0</ele><time>2026-04-11T13:11:02.005Z</time></trkpt><trkpt lat="43.30878" lon="12.8688933"><ele>484.0</ele><time>2026-04-11T13:11:03.007Z</time></trkpt><trkpt lat="43.308675" lon="12.8688533"><ele>484.0</ele><time>2026-04-11T13:11:04.007Z</time></trkpt><trkpt lat="43.30857" lon="12.8688183"><ele>484.0</ele><time>2026-04-11T13:11:05.006Z</time></trkpt><trkpt lat="43.3084733" lon="12.8687867"><ele>484.0</ele><time>2026-04-11T13:11:06.006Z</time></trkpt><trkpt lat="43.308385" lon="12.8687483"><ele>484.0</ele><time>2026-04-11T13:11:07.006Z</time></trkpt><trkpt lat="43.3083117" lon="12.8687033"><ele>484.0</ele><time>2026-04-11T13:11:08.006Z</time></trkpt><trkpt lat="43.3082733" lon="12.8685533"><ele>484.0</ele><time>2026-04-11T13:11:10.004Z</time></trkpt><trkpt lat="43.308335" lon="12.8684"><ele>481.4</ele><time>2026-04-11T13:11:12.006Z</time></trkpt><trkpt lat="43.308415" lon="12.86833"><ele>478.79999999999995</ele><time>2026-04-11T13:11:13.008Z</time></trkpt><trkpt lat="43.3085283" lon="12.868285"><ele>476.20000000000005</ele><time>2026-04-11T13:11:14.006Z</time></trkpt><trkpt lat="43.30864" lon="12.868245"><ele>473.6</ele><time>2026-04-11T13:11:15.008Z</time></trkpt><trkpt lat="43.3087417" lon="12.8682017"><ele>471.0</ele><time>2026-04-11T13:11:16.007Z</time></trkpt><trkpt lat="43.308825" lon="12.8681617"><ele>471.0</ele><time>2026-04-11T13:11:17.006Z</time></trkpt><trkpt lat="43.3089083" lon="12.86812"><ele>471.0</ele><time>2026-04-11T13:11:18.006Z</time></trkpt><trkpt lat="43.3089867" lon="12.8680833"><ele>471.0</ele><time>2026-04-11T13:11:19.005Z</time></trkpt><trkpt lat="43.309075" lon="12.8680467"><ele>471.0</ele><time>2026-04-11T13:11:20.006Z</time></trkpt><trkpt lat="43.3091667" lon="12.868005"><ele>471.0</ele><time>2026-04-11T13:11:21.008Z</time></trkpt><trkpt lat="43.3092583" lon="12.867965"><ele>468.0</ele><time>2026-04-11T13:11:22.007Z</time></trkpt><trkpt lat="43.3093667" lon="12.8679083"><ele>465.0</ele><time>2026-04-11T13:11:23.006Z</time></trkpt><trkpt lat="43.30948" lon="12.86784"><ele>462.0</ele><time>2026-04-11T13:11:24.006Z</time></trkpt><trkpt lat="43.3095933" lon="12.867755"><ele>459.0</ele><time>2026-04-11T13:11:25.008Z</time></trkpt><trkpt lat="43.30971" lon="12.8676783"><ele>455.5</ele><time>2026-04-11T13:11:26.009Z</time></trkpt><trkpt lat="43.309825" lon="12.8675983"><ele>452.0</ele><time>2026-04-11T13:11:27.008Z</time></trkpt><trkpt lat="43.3099417" lon="12.8675167"><ele>448.5</ele><time>2026-04-11T13:11:28.007Z</time></trkpt><trkpt lat="43.3100617" lon="12.867435"><ele>445.0</ele><time>2026-04-11T13:11:29.008Z</time></trkpt><trkpt lat="43.3101767" lon="12.867335"><ele>445.0</ele><time>2026-04-11T13:11:30.008Z</time></trkpt><trkpt lat="43.31029" lon="12.8672417"><ele>445.0</ele><time>2026-04-11T13:11:31.008Z</time></trkpt><trkpt lat="43.310405" lon="12.8671633"><ele>445.0</ele><time>2026-04-11T13:11:32.008Z</time></trkpt><trkpt lat="43.3105267" lon="12.8670883"><ele>445.0</ele><time>2026-04-11T13:11:33.01Z</time></trkpt><trkpt lat="43.3106583" lon="12.8670183"><ele>444.0</ele><time>2026-04-11T13:11:34.008Z</time></trkpt><trkpt lat="43.3107917" lon="12.8669467"><ele>443.0</ele><time>2026-04-11T13:11:35.008Z</time></trkpt><trkpt lat="43.31092" lon="12.8668783"><ele>442.0</ele><time>2026-04-11T13:11:36.008Z</time></trkpt><trkpt lat="43.3110433" lon="12.8668117"><ele>441.0</ele><time>2026-04-11T13:11:37.007Z</time></trkpt><trkpt lat="43.3111583" lon="12.86673"><ele>439.5</ele><time>2026-04-11T13:11:38.007Z</time></trkpt><trkpt lat="43.3112733" lon="12.8666433"><ele>438.0</ele><time>2026-04-11T13:11:39.008Z</time></trkpt><trkpt lat="43.3113833" lon="12.8665667"><ele>436.5</ele><time>2026-04-11T13:11:40.008Z</time></trkpt><trkpt lat="43.3114767" lon="12.8665033"><ele>435.0</ele><time>2026-04-11T13:11:41.009Z</time></trkpt><trkpt lat="43.311565" lon="12.8664267"><ele>433.1666666666667</ele><time>2026-04-11T13:11:42.008Z</time></trkpt><trkpt lat="43.3116517" lon="12.8663567"><ele>431.33333333333337</ele><time>2026-04-11T13:11:43.009Z</time></trkpt><trkpt lat="43.3117233" lon="12.8662967"><ele>429.5</ele><time>2026-04-11T13:11:44.008Z</time></trkpt><trkpt lat="43.311785" lon="12.86624"><ele>427.6666666666667</ele><time>2026-04-11T13:11:45.009Z</time></trkpt><trkpt lat="43.3118417" lon="12.8661767"><ele>425.83333333333337</ele><time>2026-04-11T13:11:46.009Z</time></trkpt><trkpt lat="43.31189" lon="12.8661167"><ele>424.0</ele><time>2026-04-11T13:11:47.009Z</time></trkpt><trkpt lat="43.3119433" lon="12.86605"><ele>424.0</ele><time>2026-04-11T13:11:48.009Z</time></trkpt><trkpt lat="43.3120083" lon="12.8659717"><ele>424.0</ele><time>2026-04-11T13:11:49.007Z</time></trkpt><trkpt lat="43.3120983" lon="12.8658817"><ele>424.0</ele><time>2026-04-11T13:11:50.009Z</time></trkpt><trkpt lat="43.3122033" lon="12.8657833"><ele>424.0</ele><time>2026-04-11T13:11:51.009Z</time></trkpt><trkpt lat="43.31231" lon="12.8656867"><ele>421.2</ele><time>2026-04-11T13:11:52.009Z</time></trkpt><trkpt lat="43.3124167" lon="12.8655933"><ele>418.4</ele><time>2026-04-11T13:11:53.005Z</time></trkpt><trkpt lat="43.312515" lon="12.865515"><ele>415.6</ele><time>2026-04-11T13:11:54.009Z</time></trkpt><trkpt lat="43.3126033" lon="12.8654433"><ele>412.8</ele><time>2026-04-11T13:11:55.006Z</time></trkpt><trkpt lat="43.31268" lon="12.8653767"><ele>410.0</ele><time>2026-04-11T13:11:56.005Z</time></trkpt><trkpt lat="43.3127517" lon="12.86532"><ele>409.99999999999994</ele><time>2026-04-11T13:11:57.007Z</time></trkpt><trkpt lat="43.3128217" lon="12.86526"><ele>410.0</ele><time>2026-04-11T13:11:58.006Z</time></trkpt><trkpt lat="43.3128917" lon="12.86521"><ele>410.0</ele><time>2026-04-11T13:11:59.005Z</time></trkpt><trkpt lat="43.3129483" lon="12.8651533"><ele>410.0</ele><time>2026-04-11T13:12:00.008Z</time></trkpt><trkpt lat="43.313045" lon="12.865065"><ele>409.99999999999994</ele><time>2026-04-11T13:12:02.006Z</time></trkpt><trkpt lat="43.3131117" lon="12.8650283"><ele>410.0</ele><time>2026-04-11T13:12:04.007Z</time></trkpt><trkpt lat="43.3131833" lon="12.86496"><ele>407.4</ele><time>2026-04-11T13:12:13.005Z</time></trkpt><trkpt lat="43.3132367" lon="12.8648767"><ele>404.8</ele><time>2026-04-11T13:12:15.005Z</time></trkpt><trkpt lat="43.3132767" lon="12.864755"><ele>402.20000000000005</ele><time>2026-04-11T13:12:17.006Z</time></trkpt><trkpt lat="43.3133183" lon="12.8646133"><ele>399.6</ele><time>2026-04-11T13:12:19.007Z</time></trkpt><trkpt lat="43.3133417" lon="12.8645217"><ele>397.0</ele><time>2026-04-11T13:12:20.005Z</time></trkpt><trkpt lat="43.3133817" lon="12.86439"><ele>397.0</ele><time>2026-04-11T13:12:22.005Z</time></trkpt><trkpt lat="43.3133733" lon="12.8642917"><ele>397.0</ele><time>2026-04-11T13:12:24.007Z</time></trkpt><trkpt lat="43.313335" lon="12.864215"><ele>397.0</ele><time>2026-04-11T13:12:26.006Z</time></trkpt><trkpt lat="43.3132983" lon="12.8641233"><ele>397.0</ele><time>2026-04-11T13:12:30.006Z</time></trkpt><trkpt lat="43.31323" lon="12.864105"><ele>397.0</ele><time>2026-04-11T13:12:35.006Z</time></trkpt><trkpt lat="43.3131483" lon="12.8640867"><ele>397.0</ele><time>2026-04-11T13:12:38.005Z</time></trkpt><trkpt lat="43.3130883" lon="12.8640367"><ele>397.0</ele><time>2026-04-11T13:12:40.006Z</time></trkpt><trkpt lat="43.3130067" lon="12.8640033"><ele>400.33333333333337</ele><time>2026-04-11T13:12:43.007Z</time></trkpt><trkpt lat="43.312915" lon="12.8640167"><ele>403.6666666666667</ele><time>2026-04-11T13:12:45.007Z</time></trkpt><trkpt lat="43.3128017" lon="12.8640367"><ele>407.0</ele><time>2026-04-11T13:12:47.006Z</time></trkpt><trkpt lat="43.3127383" lon="12.8640733"><ele>410.33333333333337</ele><time>2026-04-11T13:12:49.007Z</time></trkpt><trkpt lat="43.3127033" lon="12.8641717"><ele>413.6666666666667</ele><time>2026-04-11T13:12:52.006Z</time></trkpt><trkpt lat="43.312685" lon="12.8642767"><ele>417.0</ele><time>2026-04-11T13:12:55.006Z</time></trkpt><trkpt lat="43.3126233" lon="12.864335"><ele>417.0</ele><time>2026-04-11T13:12:59.006Z</time></trkpt><trkpt lat="43.3125533" lon="12.8643667"><ele>417.0</ele><time>2026-04-11T13:13:01.008Z</time></trkpt><trkpt lat="43.31249" lon="12.8644"><ele>417.0</ele><time>2026-04-11T13:13:03.008Z</time></trkpt><trkpt lat="43.3124" lon="12.86445"><ele>417.0</ele><time>2026-04-11T13:13:05.006Z</time></trkpt><trkpt lat="43.3123417" lon="12.8644833"><ele>417.0</ele><time>2026-04-11T13:13:06.007Z</time></trkpt><trkpt lat="43.312275" lon="12.864525"><ele>417.0</ele><time>2026-04-11T13:13:07.007Z</time></trkpt><trkpt lat="43.3122083" lon="12.8645733"><ele>423.8</ele><time>2026-04-11T13:13:08.007Z</time></trkpt><trkpt lat="43.3121467" lon="12.8646067"><ele>430.6</ele><time>2026-04-11T13:13:09.008Z</time></trkpt><trkpt lat="43.3120417" lon="12.864605"><ele>437.40000000000003</ele><time>2026-04-11T13:13:11.006Z</time></trkpt><trkpt lat="43.3119467" lon="12.8645967"><ele>444.20000000000005</ele><time>2026-04-11T13:13:13.006Z</time></trkpt><trkpt lat="43.3118617" lon="12.8645817"><ele>451.0</ele><time>2026-04-11T13:13:15.002Z</time></trkpt><trkpt lat="43.3117517" lon="12.8645583"><ele>451.0</ele><time>2026-04-11T13:13:17.006Z</time></trkpt><trkpt lat="43.3116383" lon="12.8645267"><ele>451.0</ele><time>2026-04-11T13:13:19.007Z</time></trkpt><trkpt lat="43.31155" lon="12.86456"><ele>451.0</ele><time>2026-04-11T13:13:21.008Z</time></trkpt><trkpt lat="43.3114167" lon="12.864635"><ele>451.0</ele><time>2026-04-11T13:13:23.007Z</time></trkpt><trkpt lat="43.3113517" lon="12.86468"><ele>451.0</ele><time>2026-04-11T13:13:24.006Z</time></trkpt><trkpt lat="43.31128" lon="12.86473"><ele>455.83333333333337</ele><time>2026-04-11T13:13:25.006Z</time></trkpt><trkpt lat="43.3112048" lon="12.8647844"><ele>460.6666666666667</ele><time>2026-04-11T13:13:26.005Z</time></trkpt><trkpt lat="43.3111202" lon="12.8648535"><ele>465.5</ele><time>2026-04-11T13:13:27.007Z</time></trkpt><trkpt lat="43.3110422" lon="12.8649202"><ele>470.33333333333337</ele><time>2026-04-11T13:13:28.006Z</time></trkpt><trkpt lat="43.3109639" lon="12.8649829"><ele>475.1666666666667</ele><time>2026-04-11T13:13:29.005Z</time></trkpt><trkpt lat="43.3108941" lon="12.8650283"><ele>480.0</ele><time>2026-04-11T13:13:30.006Z</time></trkpt><trkpt lat="43.3108367" lon="12.8650678"><ele>480.0</ele><time>2026-04-11T13:13:31.006Z</time></trkpt><trkpt lat="43.310742" lon="12.8651149"><ele>480.0</ele><time>2026-04-11T13:13:33.007Z</time></trkpt><trkpt lat="43.3106333" lon="12.8651117"><ele>480.0</ele><time>2026-04-11T13:16:41.005Z</time></trkpt><trkpt lat="43.3105717" lon="12.86517"><ele>480.0</ele><time>2026-04-11T13:16:43.006Z</time></trkpt><trkpt lat="43.3105" lon="12.8652483"><ele>480.0</ele><time>2026-04-11T13:16:45.007Z</time></trkpt><trkpt lat="43.3104467" lon="12.8653"><ele>480.0</ele><time>2026-04-11T13:16:47.006Z</time></trkpt><trkpt lat="43.31033" lon="12.8653517"><ele>481.8</ele><time>2026-04-11T13:16:49.007Z</time></trkpt><trkpt lat="43.3102517" lon="12.865385"><ele>483.6</ele><time>2026-04-11T13:16:50.006Z</time></trkpt><trkpt lat="43.3101267" lon="12.8654133"><ele>485.4</ele><time>2026-04-11T13:16:51.007Z</time></trkpt><trkpt lat="43.310055" lon="12.865435"><ele>487.2</ele><time>2026-04-11T13:16:52.006Z</time></trkpt><trkpt lat="43.3099667" lon="12.865445"><ele>489.0</ele><time>2026-04-11T13:16:53.007Z</time></trkpt><trkpt lat="43.3098833" lon="12.8654367"><ele>489.0</ele><time>2026-04-11T13:16:54.004Z</time></trkpt><trkpt lat="43.3098133" lon="12.8654167"><ele>489.0</ele><time>2026-04-11T13:16:55.005Z</time></trkpt><trkpt lat="43.3097267" lon="12.8653817"><ele>489.0</ele><time>2026-04-11T13:16:56.008Z</time></trkpt><trkpt lat="43.3096483" lon="12.8653767"><ele>489.0</ele><time>2026-04-11T13:16:57.007Z</time></trkpt><trkpt lat="43.309555" lon="12.8653517"><ele>489.0</ele><time>2026-04-11T13:16:59.006Z</time></trkpt><trkpt lat="43.30947" lon="12.8653"><ele>489.0</ele><time>2026-04-11T13:17:01.007Z</time></trkpt><trkpt lat="43.309385" lon="12.8653133"><ele>495.0</ele><time>2026-04-11T13:17:03.007Z</time></trkpt><trkpt lat="43.30928" lon="12.86533"><ele>501.0</ele><time>2026-04-11T13:17:05.008Z</time></trkpt><trkpt lat="43.3091683" lon="12.865255"><ele>507.0</ele><time>2026-04-11T13:17:07.008Z</time></trkpt><trkpt lat="43.3091017" lon="12.86522"><ele>513.0</ele><time>2026-04-11T13:17:08.007Z</time></trkpt><trkpt lat="43.3090333" lon="12.8651783"><ele>519.0</ele><time>2026-04-11T13:17:09.009Z</time></trkpt><trkpt lat="43.3089583" lon="12.8651583"><ele>524.0</ele><time>2026-04-11T13:17:10.007Z</time></trkpt><trkpt lat="43.308885" lon="12.8652667"><ele>529.0</ele><time>2026-04-11T13:17:12.007Z</time></trkpt><trkpt lat="43.3088067" lon="12.8653883"><ele>534.0</ele><time>2026-04-11T13:17:14.007Z</time></trkpt><trkpt lat="43.3087733" lon="12.8654683"><ele>539.0</ele><time>2026-04-11T13:17:15.009Z</time></trkpt><trkpt lat="43.308745" lon="12.86557"><ele>544.0</ele><time>2026-04-11T13:17:16.007Z</time></trkpt><trkpt lat="43.3087267" lon="12.865685"><ele>544.0</ele><time>2026-04-11T13:17:17.006Z</time></trkpt><trkpt lat="43.3087233" lon="12.8657967"><ele>544.0</ele><time>2026-04-11T13:17:18.007Z</time></trkpt><trkpt lat="43.3087" lon="12.86589"><ele>544.0</ele><time>2026-04-11T13:17:19.008Z</time></trkpt><trkpt lat="43.3086483" lon="12.8660067"><ele>544.0</ele><time>2026-04-11T13:17:21.007Z</time></trkpt><trkpt lat="43.308575" lon="12.8660783"><ele>544.0</ele><time>2026-04-11T13:17:23.007Z</time></trkpt><trkpt lat="43.3084717" lon="12.8661367"><ele>542.0</ele><time>2026-04-11T13:17:25.007Z</time></trkpt><trkpt lat="43.30839" lon="12.8662133"><ele>540.0</ele><time>2026-04-11T13:17:27.009Z</time></trkpt><trkpt lat="43.3082933" lon="12.866265"><ele>538.0</ele><time>2026-04-11T13:17:29.008Z</time></trkpt><trkpt lat="43.30819" lon="12.866305"><ele>536.0</ele><time>2026-04-11T13:17:31.008Z</time></trkpt><trkpt lat="43.3080983" lon="12.8662983"><ele>534.0</ele><time>2026-04-11T13:17:33.008Z</time></trkpt><trkpt lat="43.3080333" lon="12.8663133"><ele>538.3333333333334</ele><time>2026-04-11T13:17:35.007Z</time></trkpt><trkpt lat="43.3079617" lon="12.8663017"><ele>542.6666666666666</ele><time>2026-04-11T13:17:37.005Z</time></trkpt><trkpt lat="43.30788" lon="12.866275"><ele>547.0</ele><time>2026-04-11T13:17:39.008Z</time></trkpt><trkpt lat="43.3078117" lon="12.8661917"><ele>551.3333333333333</ele><time>2026-04-11T13:17:41.007Z</time></trkpt><trkpt lat="43.30771" lon="12.8661283"><ele>555.6666666666666</ele><time>2026-04-11T13:17:43.009Z</time></trkpt><trkpt lat="43.30764" lon="12.8661167"><ele>560.0</ele><time>2026-04-11T13:17:44.011Z</time></trkpt><trkpt lat="43.3075617" lon="12.8661233"><ele>560.0</ele><time>2026-04-11T13:17:45.009Z</time></trkpt><trkpt lat="43.3074983" lon="12.8661467"><ele>560.0</ele><time>2026-04-11T13:17:46.008Z</time></trkpt><trkpt lat="43.3074367" lon="12.8661783"><ele>560.0</ele><time>2026-04-11T13:17:47.007Z</time></trkpt><trkpt lat="43.3073233" lon="12.866275"><ele>560.0</ele><time>2026-04-11T13:17:49.01Z</time></trkpt><trkpt lat="43.3072567" lon="12.8663367"><ele>560.0</ele><time>2026-04-11T13:17:50.007Z</time></trkpt><trkpt lat="43.3071933" lon="12.866395"><ele>560.0</ele><time>2026-04-11T13:17:51.001Z</time></trkpt><trkpt lat="43.3071217" lon="12.8664567"><ele>564.0</ele><time>2026-04-11T13:17:52.007Z</time></trkpt><trkpt lat="43.3070517" lon="12.8665117"><ele>568.0</ele><time>2026-04-11T13:17:53.007Z</time></trkpt><trkpt lat="43.3069783" lon="12.8665533"><ele>572.0</ele><time>2026-04-11T13:17:54.008Z</time></trkpt><trkpt lat="43.30688" lon="12.8665833"><ele>576.0</ele><time>2026-04-11T13:17:55.008Z</time></trkpt><trkpt lat="43.30672" lon="12.8666133"><ele>580.0</ele><time>2026-04-11T13:17:56.008Z</time></trkpt><trkpt lat="43.306615" lon="12.8665817"><ele>580.0</ele><time>2026-04-11T13:17:57.007Z</time></trkpt><trkpt lat="43.306525" lon="12.8665233"><ele>580.0</ele><time>2026-04-11T13:17:58.008Z</time></trkpt><trkpt lat="43.3064483" lon="12.8664867"><ele>580.0</ele><time>2026-04-11T13:17:59.006Z</time></trkpt><trkpt lat="43.3063783" lon="12.8664767"><ele>580.0</ele><time>2026-04-11T13:18:00.007Z</time></trkpt><trkpt lat="43.306315" lon="12.8665"><ele>580.0</ele><time>2026-04-11T13:18:01.008Z</time></trkpt><trkpt lat="43.3062533" lon="12.8665567"><ele>580.0</ele><time>2026-04-11T13:18:02.008Z</time></trkpt><trkpt lat="43.30619" lon="12.866635"><ele>581.0</ele><time>2026-04-11T13:18:03.007Z</time></trkpt><trkpt lat="43.3061267" lon="12.866715"><ele>582.0</ele><time>2026-04-11T13:18:04.004Z</time></trkpt><trkpt lat="43.30606" lon="12.8667967"><ele>583.0</ele><time>2026-04-11T13:18:05.006Z</time></trkpt><trkpt lat="43.3059983" lon="12.8668833"><ele>584.0</ele><time>2026-04-11T13:18:06.005Z</time></trkpt><trkpt lat="43.3059417" lon="12.8669717"><ele>585.0</ele><time>2026-04-11T13:18:07.005Z</time></trkpt><trkpt lat="43.3058933" lon="12.86707"><ele>586.0</ele><time>2026-04-11T13:18:08.005Z</time></trkpt><trkpt lat="43.3058467" lon="12.867165"><ele>586.4285714285713</ele><time>2026-04-11T13:18:09.007Z</time></trkpt><trkpt lat="43.3058" lon="12.8672533"><ele>586.8571428571429</ele><time>2026-04-11T13:18:10.006Z</time></trkpt><trkpt lat="43.305755" lon="12.86734"><ele>587.2857142857142</ele><time>2026-04-11T13:18:11.007Z</time></trkpt><trkpt lat="43.305715" lon="12.8674233"><ele>587.7142857142857</ele><time>2026-04-11T13:18:12.006Z</time></trkpt><trkpt lat="43.30568" lon="12.8675083"><ele>588.1428571428571</ele><time>2026-04-11T13:18:13.006Z</time></trkpt><trkpt lat="43.305645" lon="12.8675917"><ele>588.5714285714286</ele><time>2026-04-11T13:18:14.007Z</time></trkpt><trkpt lat="43.30561" lon="12.8676683"><ele>589.0</ele><time>2026-04-11T13:18:15.007Z</time></trkpt><trkpt lat="43.3055633" lon="12.8678133"><ele>590.0</ele><time>2026-04-11T13:18:17.006Z</time></trkpt><trkpt lat="43.3055433" lon="12.8679167"><ele>591.0</ele><time>2026-04-11T13:18:19.006Z</time></trkpt><trkpt lat="43.30551" lon="12.8679933"><ele>592.0</ele><time>2026-04-11T13:18:21.007Z</time></trkpt><trkpt lat="43.305465" lon="12.868055"><ele>593.0</ele><time>2026-04-11T13:18:23.006Z</time></trkpt><trkpt lat="43.3054067" lon="12.8680917"><ele>594.0</ele><time>2026-04-11T13:18:25.006Z</time></trkpt><trkpt lat="43.3053267" lon="12.8680883"><ele>595.0</ele><time>2026-04-11T13:18:27.007Z</time></trkpt><trkpt lat="43.3052383" lon="12.8681167"><ele>596.0</ele><time>2026-04-11T13:18:29.006Z</time></trkpt><trkpt lat="43.3051483" lon="12.8681617"><ele>596.0</ele><time>2026-04-11T13:18:31.006Z</time></trkpt><trkpt lat="43.305075" lon="12.8682633"><ele>596.0</ele><time>2026-04-11T13:18:33.007Z</time></trkpt><trkpt lat="43.3050483" lon="12.8683883"><ele>596.0</ele><time>2026-04-11T13:18:35.006Z</time></trkpt><trkpt lat="43.3050167" lon="12.868485"><ele>596.0</ele><time>2026-04-11T13:18:38.006Z</time></trkpt><trkpt lat="43.3049433" lon="12.868505"><ele>596.0</ele><time>2026-04-11T13:18:40.006Z</time></trkpt><trkpt lat="43.3048483" lon="12.86855"><ele>598.8</ele><time>2026-04-11T13:18:42.007Z</time></trkpt><trkpt lat="43.3047417" lon="12.8686117"><ele>601.6</ele><time>2026-04-11T13:18:44.005Z</time></trkpt><trkpt lat="43.3046417" lon="12.868665"><ele>604.4</ele><time>2026-04-11T13:18:46.006Z</time></trkpt><trkpt lat="43.3045217" lon="12.8687617"><ele>607.2</ele><time>2026-04-11T13:18:48.006Z</time></trkpt><trkpt lat="43.3044583" lon="12.8688167"><ele>610.0</ele><time>2026-04-11T13:18:49.006Z</time></trkpt><trkpt lat="43.3044" lon="12.86888"><ele>610.0</ele><time>2026-04-11T13:18:50.006Z</time></trkpt><trkpt lat="43.304355" lon="12.8689417"><ele>610.0</ele><time>2026-04-11T13:18:51.007Z</time></trkpt><trkpt lat="43.3043017" lon="12.8689917"><ele>610.0</ele><time>2026-04-11T13:18:52.006Z</time></trkpt><trkpt lat="43.30424" lon="12.8690483"><ele>610.0</ele><time>2026-04-11T13:18:53.006Z</time></trkpt><trkpt lat="43.3041733" lon="12.8691"><ele>610.0</ele><time>2026-04-11T13:18:54.007Z</time></trkpt><trkpt lat="43.3041117" lon="12.8691517"><ele>610.0</ele><time>2026-04-11T13:18:55.006Z</time></trkpt><trkpt lat="43.3040233" lon="12.8692283"><ele>609.6</ele><time>2026-04-11T13:18:57.007Z</time></trkpt><trkpt lat="43.30407" lon="12.8693767"><ele>609.2</ele><time>2026-04-11T13:19:10.006Z</time></trkpt><trkpt lat="43.30406" lon="12.869465"><ele>608.8</ele><time>2026-04-11T13:19:13.006Z</time></trkpt><trkpt lat="43.3040267" lon="12.869545"><ele>608.4</ele><time>2026-04-11T13:19:23.006Z</time></trkpt><trkpt lat="43.3039767" lon="12.8696417"><ele>608.0</ele><time>2026-04-11T13:19:25.008Z</time></trkpt><trkpt lat="43.3039033" lon="12.8697833"><ele>608.0</ele><time>2026-04-11T13:19:27.009Z</time></trkpt><trkpt lat="43.303845" lon="12.8699267"><ele>608.0</ele><time>2026-04-11T13:19:29.008Z</time></trkpt><trkpt lat="43.3038" lon="12.87009"><ele>608.0</ele><time>2026-04-11T13:19:31.007Z</time></trkpt><trkpt lat="43.3037817" lon="12.870185"><ele>608.0</ele><time>2026-04-11T13:19:32.006Z</time></trkpt><trkpt lat="43.303765" lon="12.8702717"><ele>608.0</ele><time>2026-04-11T13:19:33.008Z</time></trkpt><trkpt lat="43.3037483" lon="12.870375"><ele>604.3333333333333</ele><time>2026-04-11T13:19:34.007Z</time></trkpt><trkpt lat="43.3037217" lon="12.8704767"><ele>600.6666666666666</ele><time>2026-04-11T13:19:35.005Z</time></trkpt><trkpt lat="43.30371" lon="12.8705833"><ele>597.0</ele><time>2026-04-11T13:19:36.001Z</time></trkpt><trkpt lat="43.303705" lon="12.8707083"><ele>593.3333333333334</ele><time>2026-04-11T13:19:37.007Z</time></trkpt><trkpt lat="43.3037117" lon="12.870825"><ele>589.6666666666667</ele><time>2026-04-11T13:19:38.001Z</time></trkpt><trkpt lat="43.3037067" lon="12.8709333"><ele>586.0</ele><time>2026-04-11T13:19:39.003Z</time></trkpt><trkpt lat="43.3037033" lon="12.8710283"><ele>584.3333333333334</ele><time>2026-04-11T13:19:40.006Z</time></trkpt><trkpt lat="43.3037" lon="12.8711183"><ele>582.6666666666667</ele><time>2026-04-11T13:20:24.007Z</time></trkpt><trkpt lat="43.30364" lon="12.8711783"><ele>581.0</ele><time>2026-04-11T13:20:27.009Z</time></trkpt><trkpt lat="43.3035483" lon="12.8712317"><ele>579.3333333333334</ele><time>2026-04-11T13:20:29.003Z</time></trkpt><trkpt lat="43.3034533" lon="12.871325"><ele>577.6666666666666</ele><time>2026-04-11T13:20:31.006Z</time></trkpt><trkpt lat="43.303395" lon="12.871425"><ele>576.0</ele><time>2026-04-11T13:20:33.007Z</time></trkpt><trkpt lat="43.303375" lon="12.8716067"><ele>576.0</ele><time>2026-04-11T13:20:35.005Z</time></trkpt><trkpt lat="43.303385" lon="12.8717733"><ele>576.0</ele><time>2026-04-11T13:20:36.005Z</time></trkpt><trkpt lat="43.303375" lon="12.8719433"><ele>576.0</ele><time>2026-04-11T13:20:37.006Z</time></trkpt><trkpt lat="43.3033617" lon="12.872115"><ele>576.0</ele><time>2026-04-11T13:20:38.006Z</time></trkpt><trkpt lat="43.3033517" lon="12.8722783"><ele>579.0</ele><time>2026-04-11T13:20:39.006Z</time></trkpt><trkpt lat="43.30333" lon="12.872415"><ele>582.0</ele><time>2026-04-11T13:20:40.005Z</time></trkpt><trkpt lat="43.3033117" lon="12.8725333"><ele>585.0</ele><time>2026-04-11T13:20:41.006Z</time></trkpt><trkpt lat="43.3033033" lon="12.8726417"><ele>588.0</ele><time>2026-04-11T13:20:42.006Z</time></trkpt><trkpt lat="43.3033017" lon="12.8727483"><ele>591.0</ele><time>2026-04-11T13:20:43.006Z</time></trkpt><trkpt lat="43.3105717" lon="12.86517"><ele>570.6</ele><time>2026-04-11T13:16:43.006Z</time></trkpt><trkpt lat="43.3105" lon="12.8652483"><ele>550.2</ele><time>2026-04-11T13:16:45.007Z</time></trkpt><trkpt lat="43.3104467" lon="12.8653"><ele>529.8</ele><time>2026-04-11T13:16:47.006Z</time></trkpt><trkpt lat="43.31033" lon="12.8653517"><ele>509.4</ele><time>2026-04-11T13:16:49.007Z</time></trkpt><trkpt lat="43.3102517" lon="12.865385"><ele>489.0</ele><time>2026-04-11T13:16:50.006Z</time></trkpt><trkpt lat="43.3101267" lon="12.8654133"><ele>489.0</ele><time>2026-04-11T13:16:51.007Z</time></trkpt><trkpt lat="43.310055" lon="12.865435"><ele>489.0</ele><time>2026-04-11T13:16:52.006Z</time></trkpt><trkpt lat="43.3099667" lon="12.865445"><ele>489.0</ele><time>2026-04-11T13:16:53.007Z</time></trkpt><trkpt lat="43.3098833" lon="12.8654367"><ele>489.0</ele><time>2026-04-11T13:16:54.004Z</time></trkpt><trkpt lat="43.3098133" lon="12.8654167"><ele>489.0</ele><time>2026-04-11T13:16:55.005Z</time></trkpt><trkpt lat="43.3097267" lon="12.8653817"><ele>489.0</ele><time>2026-04-11T13:16:56.008Z</time></trkpt><trkpt lat="43.3096483" lon="12.8653767"><ele>495.0</ele><time>2026-04-11T13:16:57.007Z</time></trkpt><trkpt lat="43.309555" lon="12.8653517"><ele>501.0</ele><time>2026-04-11T13:16:59.006Z</time></trkpt><trkpt lat="43.30947" lon="12.8653"><ele>507.0</ele><time>2026-04-11T13:17:01.007Z</time></trkpt><trkpt lat="43.309385" lon="12.8653133"><ele>513.0</ele><time>2026-04-11T13:17:03.007Z</time></trkpt><trkpt lat="43.30928" lon="12.86533"><ele>519.0</ele><time>2026-04-11T13:17:05.008Z</time></trkpt><trkpt lat="43.3091683" lon="12.865255"><ele>519.0</ele><time>2026-04-11T13:17:07.008Z</time></trkpt><trkpt lat="43.3091017" lon="12.86522"><ele>519.0</ele><time>2026-04-11T13:17:08.007Z</time></trkpt><trkpt lat="43.3090333" lon="12.8651783"><ele>519.0</ele><time>2026-04-11T13:17:09.009Z</time></trkpt><trkpt lat="43.3089583" lon="12.8651583"><ele>519.0</ele><time>2026-04-11T13:17:10.007Z</time></trkpt><trkpt lat="43.308885" lon="12.8652667"><ele>519.0</ele><time>2026-04-11T13:17:12.007Z</time></trkpt><trkpt lat="43.3088067" lon="12.8653883"><ele>519.0</ele><time>2026-04-11T13:17:14.007Z</time></trkpt><trkpt lat="43.3087733" lon="12.8654683"><ele>521.5</ele><time>2026-04-11T13:17:15.009Z</time></trkpt><trkpt lat="43.308745" lon="12.86557"><ele>524.0</ele><time>2026-04-11T13:17:16.007Z</time></trkpt><trkpt lat="43.3087267" lon="12.865685"><ele>526.5</ele><time>2026-04-11T13:17:17.006Z</time></trkpt><trkpt lat="43.3087233" lon="12.8657967"><ele>529.0</ele><time>2026-04-11T13:17:18.007Z</time></trkpt><trkpt lat="43.3087" lon="12.86589"><ele>531.5</ele><time>2026-04-11T13:17:19.008Z</time></trkpt><trkpt lat="43.3086483" lon="12.8660067"><ele>534.0</ele><time>2026-04-11T13:17:21.007Z</time></trkpt><trkpt lat="43.308575" lon="12.8660783"><ele>534.0</ele><time>2026-04-11T13:17:23.007Z</time></trkpt><trkpt lat="43.3084717" lon="12.8661367"><ele>534.0</ele><time>2026-04-11T13:17:25.007Z</time></trkpt><trkpt lat="43.30839" lon="12.8662133"><ele>534.0</ele><time>2026-04-11T13:17:27.009Z</time></trkpt><trkpt lat="43.3082933" lon="12.866265"><ele>534.0</ele><time>2026-04-11T13:17:29.008Z</time></trkpt><trkpt lat="43.30819" lon="12.866305"><ele>534.0</ele><time>2026-04-11T13:17:31.008Z</time></trkpt><trkpt lat="43.3080983" lon="12.8662983"><ele>538.3333333333334</ele><time>2026-04-11T13:17:33.008Z</time></trkpt><trkpt lat="43.3080333" lon="12.8663133"><ele>542.6666666666666</ele><time>2026-04-11T13:17:35.007Z</time></trkpt><trkpt lat="43.3079617" lon="12.8663017"><ele>547.0</ele><time>2026-04-11T13:17:37.005Z</time></trkpt><trkpt lat="43.30788" lon="12.866275"><ele>551.3333333333333</ele><time>2026-04-11T13:17:39.008Z</time></trkpt><trkpt lat="43.3078117" lon="12.8661917"><ele>555.6666666666666</ele><time>2026-04-11T13:17:41.007Z</time></trkpt><trkpt lat="43.30771" lon="12.8661283"><ele>560.0</ele><time>2026-04-11T13:17:43.009Z</time></trkpt><trkpt lat="43.30764" lon="12.8661167"><ele>560.0</ele><time>2026-04-11T13:17:44.011Z</time></trkpt><trkpt lat="43.3075617" lon="12.8661233"><ele>560.0</ele><time>2026-04-11T13:17:45.009Z</time></trkpt><trkpt lat="43.3074983" lon="12.8661467"><ele>560.0</ele><time>2026-04-11T13:17:46.008Z</time></trkpt><trkpt lat="43.3074367" lon="12.8661783"><ele>560.0</ele><time>2026-04-11T13:17:47.007Z</time></trkpt><trkpt lat="43.3073233" lon="12.866275"><ele>560.0</ele><time>2026-04-11T13:17:49.01Z</time></trkpt><trkpt lat="43.3072567" lon="12.8663367"><ele>560.0</ele><time>2026-04-11T13:17:50.007Z</time></trkpt><trkpt lat="43.3071933" lon="12.866395"><ele>564.0</ele><time>2026-04-11T13:17:51.001Z</time></trkpt><trkpt lat="43.3071217" lon="12.8664567"><ele>568.0</ele><time>2026-04-11T13:17:52.007Z</time></trkpt><trkpt lat="43.3070517" lon="12.8665117"><ele>572.0</ele><time>2026-04-11T13:17:53.007Z</time></trkpt><trkpt lat="43.3069783" lon="12.8665533"><ele>576.0</ele><time>2026-04-11T13:17:54.008Z</time></trkpt><trkpt lat="43.30688" lon="12.8665833"><ele>580.0</ele><time>2026-04-11T13:17:55.008Z</time></trkpt><trkpt lat="43.30672" lon="12.8666133"><ele>580.0</ele><time>2026-04-11T13:17:56.008Z</time></trkpt><trkpt lat="43.306615" lon="12.8665817"><ele>580.0</ele><time>2026-04-11T13:17:57.007Z</time></trkpt><trkpt lat="43.306525" lon="12.8665233"><ele>580.0</ele><time>2026-04-11T13:17:58.008Z</time></trkpt><trkpt lat="43.3064483" lon="12.8664867"><ele>580.0</ele><time>2026-04-11T13:17:59.006Z</time></trkpt><trkpt lat="43.3063783" lon="12.8664767"><ele>580.0</ele><time>2026-04-11T13:18:00.007Z</time></trkpt><trkpt lat="43.306315" lon="12.8665"><ele>580.0</ele><time>2026-04-11T13:18:01.008Z</time></trkpt><trkpt lat="43.3062533" lon="12.8665567"><ele>581.0</ele><time>2026-04-11T13:18:02.008Z</time></trkpt><trkpt lat="43.30619" lon="12.866635"><ele>582.0</ele><time>2026-04-11T13:18:03.007Z</time></trkpt><trkpt lat="43.3061267" lon="12.866715"><ele>583.0</ele><time>2026-04-11T13:18:04.004Z</time></trkpt><trkpt lat="43.30606" lon="12.8667967"><ele>584.0</ele><time>2026-04-11T13:18:05.006Z</time></trkpt><trkpt lat="43.3059983" lon="12.8668833"><ele>585.0</ele><time>2026-04-11T13:18:06.005Z</time></trkpt><trkpt lat="43.3059417" lon="12.8669717"><ele>586.0</ele><time>2026-04-11T13:18:07.005Z</time></trkpt><trkpt lat="43.3058933" lon="12.86707"><ele>586.5</ele><time>2026-04-11T13:18:08.005Z</time></trkpt><trkpt lat="43.3058467" lon="12.867165"><ele>587.0</ele><time>2026-04-11T13:18:09.007Z</time></trkpt><trkpt lat="43.3058" lon="12.8672533"><ele>587.5</ele><time>2026-04-11T13:18:10.006Z</time></trkpt><trkpt lat="43.305755" lon="12.86734"><ele>588.0</ele><time>2026-04-11T13:18:11.007Z</time></trkpt><trkpt lat="43.305715" lon="12.8674233"><ele>588.5</ele><time>2026-04-11T13:18:12.006Z</time></trkpt><trkpt lat="43.30568" lon="12.8675083"><ele>589.0</ele><time>2026-04-11T13:18:13.006Z</time></trkpt><trkpt lat="43.305645" lon="12.8675917"><ele>590.1666666666667</ele><time>2026-04-11T13:18:14.007Z</time></trkpt><trkpt lat="43.30561" lon="12.8676683"><ele>591.3333333333334</ele><time>2026-04-11T13:18:15.007Z</time></trkpt><trkpt lat="43.3055633" lon="12.8678133"><ele>592.5</ele><time>2026-04-11T13:18:17.006Z</time></trkpt><trkpt lat="43.3055433" lon="12.8679167"><ele>593.6666666666666</ele><time>2026-04-11T13:18:19.006Z</time></trkpt><trkpt lat="43.30551" lon="12.8679933"><ele>594.8333333333333</ele><time>2026-04-11T13:18:21.007Z</time></trkpt><trkpt lat="43.305465" lon="12.868055"><ele>596.0</ele><time>2026-04-11T13:18:23.006Z</time></trkpt><trkpt lat="43.3054067" lon="12.8680917"><ele>596.0</ele><time>2026-04-11T13:18:25.006Z</time></trkpt><trkpt lat="43.3053267" lon="12.8680883"><ele>596.0</ele><time>2026-04-11T13:18:27.007Z</time></trkpt><trkpt lat="43.3052383" lon="12.8681167"><ele>596.0</ele><time>2026-04-11T13:18:29.006Z</time></trkpt><trkpt lat="43.3051483" lon="12.8681617"><ele>596.0</ele><time>2026-04-11T13:18:31.006Z</time></trkpt><trkpt lat="43.305075" lon="12.8682633"><ele>596.0</ele><time>2026-04-11T13:18:33.007Z</time></trkpt><trkpt lat="43.3050483" lon="12.8683883"><ele>593.2</ele><time>2026-04-11T13:18:35.006Z</time></trkpt><trkpt lat="43.3050167" lon="12.868485"><ele>590.4000000000001</ele><time>2026-04-11T13:18:38.006Z</time></trkpt><trkpt lat="43.3049433" lon="12.868505"><ele>587.6</ele><time>2026-04-11T13:18:40.006Z</time></trkpt><trkpt lat="43.3048483" lon="12.86855"><ele>584.8000000000001</ele><time>2026-04-11T13:18:42.007Z</time></trkpt><trkpt lat="43.3047417" lon="12.8686117"><ele>582.0</ele><time>2026-04-11T13:18:44.005Z</time></trkpt><trkpt lat="43.3046417" lon="12.868665"><ele>586.6666666666666</ele><time>2026-04-11T13:18:46.006Z</time></trkpt><trkpt lat="43.3045217" lon="12.8687617"><ele>591.3333333333334</ele><time>2026-04-11T13:18:48.006Z</time></trkpt><trkpt lat="43.3044583" lon="12.8688167"><ele>596.0</ele><time>2026-04-11T13:18:49.006Z</time></trkpt><trkpt lat="43.3044" lon="12.86888"><ele>600.6666666666667</ele><time>2026-04-11T13:18:50.006Z</time></trkpt><trkpt lat="43.304355" lon="12.8689417"><ele>605.3333333333334</ele><time>2026-04-11T13:18:51.007Z</time></trkpt><trkpt lat="43.3043017" lon="12.8689917"><ele>610.0</ele><time>2026-04-11T13:18:52.006Z</time></trkpt><trkpt lat="43.30424" lon="12.8690483"><ele>610.0</ele><time>2026-04-11T13:18:53.006Z</time></trkpt><trkpt lat="43.3041733" lon="12.8691"><ele>610.0</ele><time>2026-04-11T13:18:54.007Z</time></trkpt><trkpt lat="43.3041117" lon="12.8691517"><ele>610.0</ele><time>2026-04-11T13:18:55.006Z</time></trkpt><trkpt lat="43.3040233" lon="12.8692283"><ele>610.0</ele><time>2026-04-11T13:18:57.007Z</time></trkpt><trkpt lat="43.30407" lon="12.8693767"><ele>610.0</ele><time>2026-04-11T13:19:10.006Z</time></trkpt><trkpt lat="43.30406" lon="12.869465"><ele>610.0</ele><time>2026-04-11T13:19:13.006Z</time></trkpt><trkpt lat="43.3040267" lon="12.869545"><ele>609.5</ele><time>2026-04-11T13:19:23.006Z</time></trkpt><trkpt lat="43.3039767" lon="12.8696417"><ele>609.0</ele><time>2026-04-11T13:19:25.008Z</time></trkpt><trkpt lat="43.3039033" lon="12.8697833"><ele>608.5</ele><time>2026-04-11T13:19:27.009Z</time></trkpt><trkpt lat="43.303845" lon="12.8699267"><ele>608.0</ele><time>2026-04-11T13:19:29.008Z</time></trkpt><trkpt lat="43.3038" lon="12.87009"><ele>604.3333333333333</ele><time>2026-04-11T13:19:31.007Z</time></trkpt><trkpt lat="43.3037817" lon="12.870185"><ele>600.6666666666666</ele><time>2026-04-11T13:19:32.006Z</time></trkpt><trkpt lat="43.303765" lon="12.8702717"><ele>597.0</ele><time>2026-04-11T13:19:33.008Z</time></trkpt><trkpt lat="43.3037483" lon="12.870375"><ele>593.3333333333334</ele><time>2026-04-11T13:19:34.007Z</time></trkpt><trkpt lat="43.3037217" lon="12.8704767"><ele>589.6666666666667</ele><time>2026-04-11T13:19:35.005Z</time></trkpt><trkpt lat="43.30371" lon="12.8705833"><ele>586.0</ele><time>2026-04-11T13:19:36.001Z</time></trkpt><trkpt lat="43.303705" lon="12.8707083"><ele>586.0</ele><time>2026-04-11T13:19:37.007Z</time></trkpt><trkpt lat="43.3037117" lon="12.870825"><ele>586.0</ele><time>2026-04-11T13:19:38.001Z</time></trkpt><trkpt lat="43.3037067" lon="12.8709333"><ele>586.0</ele><time>2026-04-11T13:19:39.003Z</time></trkpt><trkpt lat="43.3037033" lon="12.8710283"><ele>586.0</ele><time>2026-04-11T13:19:40.006Z</time></trkpt><trkpt lat="43.3037" lon="12.8711183"><ele>586.0</ele><time>2026-04-11T13:20:24.007Z</time></trkpt><trkpt lat="43.30364" lon="12.8711783"><ele>586.0</ele><time>2026-04-11T13:20:27.009Z</time></trkpt><trkpt lat="43.3035483" lon="12.8712317"><ele>583.5</ele><time>2026-04-11T13:20:29.003Z</time></trkpt><trkpt lat="43.3034533" lon="12.871325"><ele>581.0</ele><time>2026-04-11T13:20:31.006Z</time></trkpt><trkpt lat="43.303395" lon="12.871425"><ele>578.5</ele><time>2026-04-11T13:20:33.007Z</time></trkpt><trkpt lat="43.303375" lon="12.8716067"><ele>576.0</ele><time>2026-04-11T13:20:35.005Z</time></trkpt><trkpt lat="43.303385" lon="12.8717733"><ele>579.75</ele><time>2026-04-11T13:20:36.005Z</time></trkpt><trkpt lat="43.303375" lon="12.8719433"><ele>583.5</ele><time>2026-04-11T13:20:37.006Z</time></trkpt><trkpt lat="43.3033617" lon="12.872115"><ele>587.25</ele><time>2026-04-11T13:20:38.006Z</time></trkpt><trkpt lat="43.3033517" lon="12.8722783"><ele>591.0</ele><time>2026-04-11T13:20:39.006Z</time></trkpt><trkpt lat="43.30333" lon="12.872415"><ele>591.0</ele><time>2026-04-11T13:20:40.005Z</time></trkpt><trkpt lat="43.3033117" lon="12.8725333"><ele>591.0</ele><time>2026-04-11T13:20:41.006Z</time></trkpt><trkpt lat="43.3033033" lon="12.8726417"><ele>591.0</ele><time>2026-04-11T13:20:42.006Z</time></trkpt><trkpt lat="43.3033017" lon="12.8727483"><ele>591.0</ele><time>2026-04-11T13:20:43.006Z</time></trkpt><trkpt lat="43.3033133" lon="12.8728467"><ele>591.0</ele><time>2026-04-11T13:20:44.006Z</time></trkpt><trkpt lat="43.3033217" lon="12.8729433"><ele>591.0</ele><time>2026-04-11T13:20:45.007Z</time></trkpt><trkpt lat="43.30331" lon="12.8730417"><ele>593.3333333333334</ele><time>2026-04-11T13:20:46.006Z</time></trkpt><trkpt lat="43.3032933" lon="12.8731467"><ele>595.6666666666666</ele><time>2026-04-11T13:20:47.005Z</time></trkpt><trkpt lat="43.3032783" lon="12.8732533"><ele>598.0</ele><time>2026-04-11T13:20:48.006Z</time></trkpt><trkpt lat="43.30325" lon="12.8733617"><ele>600.3333333333333</ele><time>2026-04-11T13:20:49.006Z</time></trkpt><trkpt lat="43.3032133" lon="12.8734717"><ele>602.6666666666666</ele><time>2026-04-11T13:20:50.007Z</time></trkpt><trkpt lat="43.30317" lon="12.8735767"><ele>605.0</ele><time>2026-04-11T13:20:51.007Z</time></trkpt><trkpt lat="43.3031233" lon="12.873675"><ele>605.1666666666666</ele><time>2026-04-11T13:20:52.006Z</time></trkpt><trkpt lat="43.3030717" lon="12.873725"><ele>605.3333333333333</ele><time>2026-04-11T13:20:53.006Z</time></trkpt><trkpt lat="43.3030183" lon="12.8737733"><ele>605.5</ele><time>2026-04-11T13:20:55.007Z</time></trkpt><trkpt lat="43.3031567" lon="12.8738033"><ele>605.6666666666666</ele><time>2026-04-11T13:21:11.007Z</time></trkpt><trkpt lat="43.3032217" lon="12.8738133"><ele>605.8333333333334</ele><time>2026-04-11T13:21:13.006Z</time></trkpt><trkpt lat="43.303305" lon="12.87381"><ele>606.0</ele><time>2026-04-11T13:21:16.006Z</time></trkpt><trkpt lat="43.3033883" lon="12.87374"><ele>605.8</ele><time>2026-04-11T13:21:19.009Z</time></trkpt><trkpt lat="43.3034783" lon="12.8736533"><ele>605.6</ele><time>2026-04-11T13:21:21.008Z</time></trkpt><trkpt lat="43.3035283" lon="12.8735917"><ele>605.4</ele><time>2026-04-11T13:21:22.009Z</time></trkpt><trkpt lat="43.303585" lon="12.8735483"><ele>605.2</ele><time>2026-04-11T13:21:23.005Z</time></trkpt><trkpt lat="43.3036817" lon="12.8734783"><ele>605.0</ele><time>2026-04-11T13:21:25.008Z</time></trkpt><trkpt lat="43.303795" lon="12.873415"><ele>605.0</ele><time>2026-04-11T13:21:27.011Z</time></trkpt><trkpt lat="43.3039" lon="12.8733167"><ele>605.0</ele><time>2026-04-11T13:21:29.007Z</time></trkpt><trkpt lat="43.30395" lon="12.8732517"><ele>605.0</ele><time>2026-04-11T13:21:30.007Z</time></trkpt><trkpt lat="43.3040033" lon="12.8731917"><ele>605.0</ele><time>2026-04-11T13:21:31.008Z</time></trkpt><trkpt lat="43.30406" lon="12.8731167"><ele>605.0</ele><time>2026-04-11T13:21:32.008Z</time></trkpt><trkpt lat="43.3041117" lon="12.87304"><ele>605.0</ele><time>2026-04-11T13:21:33.006Z</time></trkpt><trkpt lat="43.30416" lon="12.8729633"><ele>613.8</ele><time>2026-04-11T13:21:34.005Z</time></trkpt><trkpt lat="43.3042083" lon="12.8728967"><ele>622.6</ele><time>2026-04-11T13:21:35.005Z</time></trkpt><trkpt lat="43.304295" lon="12.8727917"><ele>631.4000000000001</ele><time>2026-04-11T13:21:37.008Z</time></trkpt><trkpt lat="43.3043733" lon="12.8727067"><ele>640.2</ele><time>2026-04-11T13:21:39.004Z</time></trkpt><trkpt lat="43.3044667" lon="12.87265"><ele>649.0</ele><time>2026-04-11T13:21:41.006Z</time></trkpt><trkpt lat="43.3045583" lon="12.8726483"><ele>649.0</ele><time>2026-04-11T13:21:43.007Z</time></trkpt><trkpt lat="43.3046367" lon="12.8726317"><ele>649.0</ele><time>2026-04-11T13:21:45.007Z</time></trkpt><trkpt lat="43.3047133" lon="12.8726317"><ele>649.0</ele><time>2026-04-11T13:21:47.011Z</time></trkpt><trkpt lat="43.304785" lon="12.8726267"><ele>649.0</ele><time>2026-04-11T13:21:49.006Z</time></trkpt><trkpt lat="43.3048533" lon="12.8726417"><ele>649.0</ele><time>2026-04-11T13:21:51.007Z</time></trkpt><trkpt lat="43.304935" lon="12.87268"><ele>649.0</ele><time>2026-04-11T13:21:54.008Z</time></trkpt><trkpt lat="43.3050183" lon="12.8727167"><ele>654.2</ele><time>2026-04-11T13:21:57.013Z</time></trkpt><trkpt lat="43.305125" lon="12.8727833"><ele>659.4000000000001</ele><time>2026-04-11T13:21:59.006Z</time></trkpt><trkpt lat="43.3051983" lon="12.8728183"><ele>664.6</ele><time>2026-04-11T13:22:00.007Z</time></trkpt><trkpt lat="43.3052783" lon="12.8728617"><ele>669.8</ele><time>2026-04-11T13:22:01.008Z</time></trkpt><trkpt lat="43.3053417" lon="12.8729067"><ele>675.0</ele><time>2026-04-11T13:22:02.009Z</time></trkpt><trkpt lat="43.30544" lon="12.872985"><ele>675.0</ele><time>2026-04-11T13:22:04.008Z</time></trkpt><trkpt lat="43.30553" lon="12.873055"><ele>675.0</ele><time>2026-04-11T13:22:06.006Z</time></trkpt><trkpt lat="43.3056383" lon="12.8731133"><ele>675.0</ele><time>2026-04-11T13:22:08.007Z</time></trkpt><trkpt lat="43.3056967" lon="12.8731483"><ele>675.0</ele><time>2026-04-11T13:22:09.008Z</time></trkpt><trkpt lat="43.3058083" lon="12.873225"><ele>675.0</ele><time>2026-04-11T13:22:11.006Z</time></trkpt><trkpt lat="43.3059067" lon="12.8733283"><ele>675.8333333333334</ele><time>2026-04-11T13:22:13.008Z</time></trkpt><trkpt lat="43.3059567" lon="12.8733867"><ele>676.6666666666666</ele><time>2026-04-11T13:22:14.007Z</time></trkpt><trkpt lat="43.306015" lon="12.87345"><ele>677.5</ele><time>2026-04-11T13:22:15.007Z</time></trkpt><trkpt lat="43.3060767" lon="12.8735267"><ele>678.3333333333333</ele><time>2026-04-11T13:22:16.006Z</time></trkpt><trkpt lat="43.3061467" lon="12.873605"><ele>679.1666666666666</ele><time>2026-04-11T13:22:17.008Z</time></trkpt><trkpt lat="43.30622" lon="12.873685"><ele>680.0</ele><time>2026-04-11T13:22:18.007Z</time></trkpt><trkpt lat="43.3062917" lon="12.8737667"><ele>681.8333333333333</ele><time>2026-04-11T13:22:19.008Z</time></trkpt><trkpt lat="43.3063583" lon="12.8738467"><ele>683.6666666666666</ele><time>2026-04-11T13:22:20.007Z</time></trkpt><trkpt lat="43.30642" lon="12.87393"><ele>685.5</ele><time>2026-04-11T13:22:21.008Z</time></trkpt><trkpt lat="43.3064717" lon="12.87402"><ele>687.3333333333334</ele><time>2026-04-11T13:22:22.011Z</time></trkpt><trkpt lat="43.3065283" lon="12.8741117"><ele>689.1666666666667</ele><time>2026-04-11T13:22:23.006Z</time></trkpt><trkpt lat="43.3065767" lon="12.8742067"><ele>691.0</ele><time>2026-04-11T13:22:24.006Z</time></trkpt><trkpt lat="43.3066217" lon="12.874295"><ele>694.1666666666667</ele><time>2026-04-11T13:22:25.008Z</time></trkpt><trkpt lat="43.30665" lon="12.8743867"><ele>697.3333333333334</ele><time>2026-04-11T13:22:26.007Z</time></trkpt><trkpt lat="43.3066917" lon="12.8744583"><ele>700.5</ele><time>2026-04-11T13:22:27.01Z</time></trkpt><trkpt lat="43.3067367" lon="12.874525"><ele>703.6666666666666</ele><time>2026-04-11T13:22:28.007Z</time></trkpt><trkpt lat="43.3067783" lon="12.8746033"><ele>706.8333333333333</ele><time>2026-04-11T13:22:29.006Z</time></trkpt><trkpt lat="43.30682" lon="12.8747067"><ele>710.0</ele><time>2026-04-11T13:22:30.006Z</time></trkpt><trkpt lat="43.30687" lon="12.87483"><ele>710.0</ele><time>2026-04-11T13:22:31.007Z</time></trkpt><trkpt lat="43.3068967" lon="12.8749567"><ele>710.0</ele><time>2026-04-11T13:22:32.006Z</time></trkpt><trkpt lat="43.3069283" lon="12.8750767"><ele>710.0</ele><time>2026-04-11T13:22:33.008Z</time></trkpt><trkpt lat="43.3069733" lon="12.875205"><ele>710.0</ele><time>2026-04-11T13:22:34.006Z</time></trkpt><trkpt lat="43.307" lon="12.8753433"><ele>710.0</ele><time>2026-04-11T13:22:35.006Z</time></trkpt><trkpt lat="43.3070317" lon="12.8754917"><ele>712.4</ele><time>2026-04-11T13:22:36.002Z</time></trkpt><trkpt lat="43.3070633" lon="12.8756133"><ele>714.8</ele><time>2026-04-11T13:22:37.009Z</time></trkpt><trkpt lat="43.30709" lon="12.8757183"><ele>717.2</ele><time>2026-04-11T13:22:38.006Z</time></trkpt><trkpt lat="43.3071117" lon="12.8758083"><ele>719.6</ele><time>2026-04-11T13:22:39.007Z</time></trkpt><trkpt lat="43.30715" lon="12.8759533"><ele>722.0</ele><time>2026-04-11T13:22:41.004Z</time></trkpt><trkpt lat="43.30719" lon="12.8760967"><ele>724.0</ele><time>2026-04-11T13:22:43.005Z</time></trkpt><trkpt lat="43.3072217" lon="12.876225"><ele>726.0</ele><time>2026-04-11T13:22:45.006Z</time></trkpt><trkpt lat="43.3072517" lon="12.8763317"><ele>728.0</ele><time>2026-04-11T13:22:47.006Z</time></trkpt><trkpt lat="43.3072767" lon="12.876425"><ele>730.0</ele><time>2026-04-11T13:22:49.008Z</time></trkpt><trkpt lat="43.307255" lon="12.8762683"><ele>732.0</ele><time>2026-04-11T13:22:58.006Z</time></trkpt><trkpt lat="43.307215" lon="12.876125"><ele>732.0</ele><time>2026-04-11T13:23:00.006Z</time></trkpt><trkpt lat="43.3071867" lon="12.876015"><ele>732.0</ele><time>2026-04-11T13:23:03.008Z</time></trkpt><trkpt lat="43.3071533" lon="12.8758533"><ele>732.0</ele><time>2026-04-11T13:24:01.006Z</time></trkpt><trkpt lat="43.307105" lon="12.8757017"><ele>732.0</ele><time>2026-04-11T13:24:03.007Z</time></trkpt><trkpt lat="43.3070783" lon="12.87561"><ele>732.0</ele><time>2026-04-11T13:24:04.005Z</time></trkpt><trkpt lat="43.3070467" lon="12.8755017"><ele>730.0</ele><time>2026-04-11T13:24:05.006Z</time></trkpt><trkpt lat="43.3070133" lon="12.8753767"><ele>728.0</ele><time>2026-04-11T13:24:06.006Z</time></trkpt><trkpt lat="43.3069783" lon="12.8752583"><ele>726.0</ele><time>2026-04-11T13:24:07.007Z</time></trkpt><trkpt lat="43.3069417" lon="12.8751467"><ele>724.0</ele><time>2026-04-11T13:24:08.007Z</time></trkpt><trkpt lat="43.3069" lon="12.8750367"><ele>722.0</ele><time>2026-04-11T13:24:09.006Z</time></trkpt><trkpt lat="43.30686" lon="12.87493"><ele>720.0</ele><time>2026-04-11T13:24:10.006Z</time></trkpt><trkpt lat="43.3068183" lon="12.8748183"><ele>718.0</ele><time>2026-04-11T13:24:11.005Z</time></trkpt><trkpt lat="43.3067783" lon="12.874705"><ele>716.0</ele><time>2026-04-11T13:24:12.007Z</time></trkpt><trkpt lat="43.3067333" lon="12.8745933"><ele>714.0</ele><time>2026-04-11T13:24:13.007Z</time></trkpt><trkpt lat="43.3066917" lon="12.8744833"><ele>712.0</ele><time>2026-04-11T13:24:14.007Z</time></trkpt><trkpt lat="43.3066533" lon="12.8743867"><ele>710.0</ele><time>2026-04-11T13:24:15.008Z</time></trkpt><trkpt lat="43.30662" lon="12.874305"><ele>710.3333333333333</ele><time>2026-04-11T13:24:16.005Z</time></trkpt><trkpt lat="43.30658" lon="12.874225"><ele>710.6666666666666</ele><time>2026-04-11T13:24:17.006Z</time></trkpt><trkpt lat="43.30654" lon="12.8741383"><ele>711.0</ele><time>2026-04-11T13:24:18.005Z</time></trkpt><trkpt lat="43.3064967" lon="12.874035"><ele>711.3333333333334</ele><time>2026-04-11T13:24:19.007Z</time></trkpt><trkpt lat="43.3064533" lon="12.8739317"><ele>711.6666666666667</ele><time>2026-04-11T13:24:20.008Z</time></trkpt><trkpt lat="43.3064133" lon="12.8738383"><ele>712.0</ele><time>2026-04-11T13:24:21.008Z</time></trkpt><trkpt lat="43.30636" lon="12.8737533"><ele>712.0</ele><time>2026-04-11T13:24:22.007Z</time></trkpt><trkpt lat="43.306295" lon="12.87367"><ele>712.0</ele><time>2026-04-11T13:24:23.006Z</time></trkpt><trkpt lat="43.30622" lon="12.8735833"><ele>712.0</ele><time>2026-04-11T13:24:24.007Z</time></trkpt><trkpt lat="43.3061433" lon="12.8735033"><ele>712.0</ele><time>2026-04-11T13:24:25.006Z</time></trkpt><trkpt lat="43.3060617" lon="12.8734283"><ele>712.0</ele><time>2026-04-11T13:24:26.006Z</time></trkpt><trkpt lat="43.305995" lon="12.873355"><ele>707.4285714285713</ele><time>2026-04-11T13:24:27.006Z</time></trkpt><trkpt lat="43.3059333" lon="12.8732867"><ele>702.8571428571429</ele><time>2026-04-11T13:24:28.006Z</time></trkpt><trkpt lat="43.3058767" lon="12.8732267"><ele>698.2857142857142</ele><time>2026-04-11T13:24:29.006Z</time></trkpt><trkpt lat="43.3058217" lon="12.8731667"><ele>693.7142857142857</ele><time>2026-04-11T13:24:30.006Z</time></trkpt><trkpt lat="43.3057567" lon="12.8731117"><ele>689.1428571428571</ele><time>2026-04-11T13:24:31.006Z</time></trkpt><trkpt lat="43.3056967" lon="12.87306"><ele>684.5714285714286</ele><time>2026-04-11T13:24:32.005Z</time></trkpt><trkpt lat="43.305635" lon="12.873015"><ele>680.0</ele><time>2026-04-11T13:24:33.007Z</time></trkpt><trkpt lat="43.3055683" lon="12.8729817"><ele>679.0</ele><time>2026-04-11T13:24:34.005Z</time></trkpt><trkpt lat="43.305505" lon="12.872945"><ele>678.0</ele><time>2026-04-11T13:24:35.007Z</time></trkpt><trkpt lat="43.305445" lon="12.8729083"><ele>677.0</ele><time>2026-04-11T13:24:36.006Z</time></trkpt><trkpt lat="43.3053567" lon="12.8728283"><ele>676.0</ele><time>2026-04-11T13:24:38.009Z</time></trkpt><trkpt lat="43.30524" lon="12.872745"><ele>675.0</ele><time>2026-04-11T13:24:40.005Z</time></trkpt><trkpt lat="43.305165" lon="12.872705"><ele>675.0</ele><time>2026-04-11T13:24:41.005Z</time></trkpt><trkpt lat="43.305085" lon="12.8726633"><ele>675.0</ele><time>2026-04-11T13:24:42.006Z</time></trkpt><trkpt lat="43.3050033" lon="12.87262"><ele>675.0</ele><time>2026-04-11T13:24:43.007Z</time></trkpt><trkpt lat="43.3049217" lon="12.872585"><ele>675.0</ele><time>2026-04-11T13:24:44.006Z</time></trkpt><trkpt lat="43.3048383" lon="12.8725567"><ele>675.0</ele><time>2026-04-11T13:24:45.007Z</time></trkpt><trkpt lat="43.3047633" lon="12.8725317"><ele>675.0</ele><time>2026-04-11T13:24:46.007Z</time></trkpt><trkpt lat="43.304685" lon="12.87252"><ele>670.6666666666666</ele><time>2026-04-11T13:24:47.007Z</time></trkpt><trkpt lat="43.3046083" lon="12.8725133"><ele>666.3333333333334</ele><time>2026-04-11T13:24:48.007Z</time></trkpt><trkpt lat="43.3045433" lon="12.872515"><ele>662.0</ele><time>2026-04-11T13:24:49.007Z</time></trkpt><trkpt lat="43.30448" lon="12.8725233"><ele>657.6666666666667</ele><time>2026-04-11T13:24:50.007Z</time></trkpt><trkpt lat="43.3043733" lon="12.8725517"><ele>653.3333333333334</ele><time>2026-04-11T13:24:52.007Z</time></trkpt><trkpt lat="43.3042883" lon="12.87262"><ele>649.0</ele><time>2026-04-11T13:24:54.007Z</time></trkpt><trkpt lat="43.30419" lon="12.8726717"><ele>649.0</ele><time>2026-04-11T13:24:56.005Z</time></trkpt><trkpt lat="43.3040767" lon="12.87275"><ele>649.0</ele><time>2026-04-11T13:24:58.008Z</time></trkpt><trkpt lat="43.3040167" lon="12.872825"><ele>649.0</ele><time>2026-04-11T13:24:59.005Z</time></trkpt><trkpt lat="43.3039533" lon="12.8729017"><ele>649.0</ele><time>2026-04-11T13:25:00.007Z</time></trkpt><trkpt lat="43.3038933" lon="12.8729683"><ele>649.0</ele><time>2026-04-11T13:25:01.007Z</time></trkpt><trkpt lat="43.303835" lon="12.8730367"><ele>649.0</ele><time>2026-04-11T13:25:02.006Z</time></trkpt><trkpt lat="43.3037817" lon="12.8731083"><ele>641.6666666666667</ele><time>2026-04-11T13:25:03.007Z</time></trkpt><trkpt lat="43.3037267" lon="12.8731567"><ele>634.3333333333334</ele><time>2026-04-11T13:25:04.006Z</time></trkpt><trkpt lat="43.3036083" lon="12.8732083"><ele>627.0</ele><time>2026-04-11T13:25:06.006Z</time></trkpt><trkpt lat="43.3035483" lon="12.8732467"><ele>619.6666666666666</ele><time>2026-04-11T13:25:07.007Z</time></trkpt><trkpt lat="43.30348" lon="12.8732917"><ele>612.3333333333333</ele><time>2026-04-11T13:25:08.006Z</time></trkpt><trkpt lat="43.303405" lon="12.8733517"><ele>605.0</ele><time>2026-04-11T13:25:09.008Z</time></trkpt><trkpt lat="43.30333" lon="12.87342"><ele>605.2</ele><time>2026-04-11T13:25:10.006Z</time></trkpt><trkpt lat="43.3032583" lon="12.8734917"><ele>605.4</ele><time>2026-04-11T13:25:11.006Z</time></trkpt><trkpt lat="43.3031983" lon="12.8735633"><ele>605.6</ele><time>2026-04-11T13:25:12.006Z</time></trkpt><trkpt lat="43.3030983" lon="12.8736417"><ele>605.8</ele><time>2026-04-11T13:25:14.005Z</time></trkpt><trkpt lat="43.3029817" lon="12.8736833"><ele>606.0</ele><time>2026-04-11T13:25:16Z</time></trkpt><trkpt lat="43.302915" lon="12.8736933"><ele>606.0</ele><time>2026-04-11T13:25:17.004Z</time></trkpt><trkpt lat="43.30284" lon="12.873715"><ele>606.0</ele><time>2026-04-11T13:25:18.006Z</time></trkpt><trkpt lat="43.30276" lon="12.873735"><ele>606.0</ele><time>2026-04-11T13:25:19.007Z</time></trkpt><trkpt lat="43.3026733" lon="12.8737417"><ele>606.0</ele><time>2026-04-11T13:25:20.007Z</time></trkpt><trkpt lat="43.30259" lon="12.8737483"><ele>606.0</ele><time>2026-04-11T13:25:21.008Z</time></trkpt><trkpt lat="43.3025017" lon="12.8737433"><ele>606.0</ele><time>2026-04-11T13:25:22.008Z</time></trkpt><trkpt lat="43.302415" lon="12.8737433"><ele>606.0</ele><time>2026-04-11T13:25:23.006Z</time></trkpt><trkpt lat="43.3023233" lon="12.873735"><ele>606.0</ele><time>2026-04-11T13:25:24.007Z</time></trkpt><trkpt lat="43.302245" lon="12.87373"><ele>606.0</ele><time>2026-04-11T13:25:25.006Z</time></trkpt><trkpt lat="43.302175" lon="12.8737233"><ele>606.0</ele><time>2026-04-11T13:25:26.007Z</time></trkpt><trkpt lat="43.3020483" lon="12.87369"><ele>606.0</ele><time>2026-04-11T13:25:28.006Z</time></trkpt><trkpt lat="43.3019717" lon="12.8736883"><ele>606.0</ele><time>2026-04-11T13:25:29.006Z</time></trkpt><trkpt lat="43.3018883" lon="12.87368"><ele>602.5</ele><time>2026-04-11T13:25:30.007Z</time></trkpt><trkpt lat="43.3018117" lon="12.87368"><ele>599.0</ele><time>2026-04-11T13:25:31.007Z</time></trkpt><trkpt lat="43.3017283" lon="12.8736833"><ele>595.5</ele><time>2026-04-11T13:25:32.005Z</time></trkpt><trkpt lat="43.3016383" lon="12.873685"><ele>592.0</ele><time>2026-04-11T13:25:33.007Z</time></trkpt><trkpt lat="43.301555" lon="12.8736933"><ele>588.5</ele><time>2026-04-11T13:25:34.007Z</time></trkpt><trkpt lat="43.301475" lon="12.8737017"><ele>585.0</ele><time>2026-04-11T13:25:35.005Z</time></trkpt><trkpt lat="43.301395" lon="12.873695"><ele>580.1666666666666</ele><time>2026-04-11T13:25:36.007Z</time></trkpt><trkpt lat="43.3013117" lon="12.87368"><ele>575.3333333333334</ele><time>2026-04-11T13:25:37.005Z</time></trkpt><trkpt lat="43.30122" lon="12.8736783"><ele>570.5</ele><time>2026-04-11T13:25:38.005Z</time></trkpt><trkpt lat="43.3011283" lon="12.87369"><ele>565.6666666666667</ele><time>2026-04-11T13:25:39.006Z</time></trkpt><trkpt lat="43.3010483" lon="12.8737183"><ele>560.8333333333334</ele><time>2026-04-11T13:25:40.005Z</time></trkpt><trkpt lat="43.300975" lon="12.8737433"><ele>556.0</ele><time>2026-04-11T13:25:41.006Z</time></trkpt><trkpt lat="43.30091" lon="12.87376"><ele>556.0</ele><time>2026-04-11T13:25:42.005Z</time></trkpt><trkpt lat="43.3007883" lon="12.8737983"><ele>556.0</ele><time>2026-04-11T13:25:44.005Z</time></trkpt><trkpt lat="43.3007183" lon="12.8738183"><ele>556.0</ele><time>2026-04-11T13:25:45.006Z</time></trkpt><trkpt lat="43.30064" lon="12.8738383"><ele>556.0</ele><time>2026-04-11T13:25:46.006Z</time></trkpt><trkpt lat="43.300565" lon="12.8738667"><ele>556.0</ele><time>2026-04-11T13:25:47.006Z</time></trkpt><trkpt lat="43.3004867" lon="12.87388"><ele>556.0</ele><time>2026-04-11T13:25:48.006Z</time></trkpt><trkpt lat="43.3004117" lon="12.8738967"><ele>550.8333333333334</ele><time>2026-04-11T13:25:49.006Z</time></trkpt><trkpt lat="43.3003417" lon="12.8739033"><ele>545.6666666666667</ele><time>2026-04-11T13:25:50.006Z</time></trkpt><trkpt lat="43.3002767" lon="12.8739183"><ele>540.5</ele><time>2026-04-11T13:25:51.007Z</time></trkpt><trkpt lat="43.3002083" lon="12.8739183"><ele>535.3333333333334</ele><time>2026-04-11T13:25:52.006Z</time></trkpt><trkpt lat="43.3001417" lon="12.8739117"><ele>530.1666666666666</ele><time>2026-04-11T13:25:53.007Z</time></trkpt><trkpt lat="43.300045" lon="12.873905"><ele>525.0</ele><time>2026-04-11T13:25:55.006Z</time></trkpt><trkpt lat="43.2999133" lon="12.873915"><ele>525.0</ele><time>2026-04-11T13:25:57.007Z</time></trkpt><trkpt lat="43.2998433" lon="12.8739167"><ele>525.0</ele><time>2026-04-11T13:25:58.005Z</time></trkpt><trkpt lat="43.2997783" lon="12.8739233"><ele>525.0</ele><time>2026-04-11T13:25:59.005Z</time></trkpt><trkpt lat="43.2996583" lon="12.873955"><ele>525.0</ele><time>2026-04-11T13:26:01.006Z</time></trkpt><trkpt lat="43.299555" lon="12.8740067"><ele>525.0</ele><time>2026-04-11T13:26:03.007Z</time></trkpt><trkpt lat="43.2994367" lon="12.87403"><ele>520.0</ele><time>2026-04-11T13:26:05.005Z</time></trkpt><trkpt lat="43.2993083" lon="12.8740383"><ele>515.0</ele><time>2026-04-11T13:26:07.004Z</time></trkpt><trkpt lat="43.2992383" lon="12.874055"><ele>510.0</ele><time>2026-04-11T13:26:08.003Z</time></trkpt><trkpt lat="43.29918" lon="12.8740967"><ele>505.0</ele><time>2026-04-11T13:26:09.004Z</time></trkpt><trkpt lat="43.2991067" lon="12.8741033"><ele>500.0</ele><time>2026-04-11T13:26:10.006Z</time></trkpt><trkpt lat="43.298995" lon="12.8741117"><ele>497.4</ele><time>2026-04-11T13:26:12.005Z</time></trkpt><trkpt lat="43.298905" lon="12.874145"><ele>494.8</ele><time>2026-04-11T13:26:14.006Z</time></trkpt><trkpt lat="43.2987933" lon="12.874185"><ele>492.20000000000005</ele><time>2026-04-11T13:26:16.007Z</time></trkpt><trkpt lat="43.2986817" lon="12.8742417"><ele>489.6</ele><time>2026-04-11T13:26:18.005Z</time></trkpt><trkpt lat="43.2985683" lon="12.8742833"><ele>487.0</ele><time>2026-04-11T13:26:20.005Z</time></trkpt><trkpt lat="43.298505" lon="12.8742867"><ele>487.00000000000006</ele><time>2026-04-11T13:26:21.005Z</time></trkpt><trkpt lat="43.298435" lon="12.8742967"><ele>487.0</ele><time>2026-04-11T13:26:22.006Z</time></trkpt><trkpt lat="43.2983617" lon="12.8743117"><ele>487.0</ele><time>2026-04-11T13:26:23.005Z</time></trkpt><trkpt lat="43.298285" lon="12.87432"><ele>487.0</ele><time>2026-04-11T13:26:24.006Z</time></trkpt><trkpt lat="43.2982183" lon="12.8743317"><ele>487.00000000000006</ele><time>2026-04-11T13:26:25.002Z</time></trkpt><trkpt lat="43.298105" lon="12.8743517"><ele>487.0</ele><time>2026-04-11T13:26:27.007Z</time></trkpt><trkpt lat="43.29804" lon="12.8743333"><ele>484.42857142857144</ele><time>2026-04-11T13:26:29.004Z</time></trkpt><trkpt lat="43.2979617" lon="12.8743083"><ele>481.85714285714283</ele><time>2026-04-11T13:26:31.006Z</time></trkpt><trkpt lat="43.2978983" lon="12.87429"><ele>479.2857142857143</ele><time>2026-04-11T13:26:33.006Z</time></trkpt><trkpt lat="43.2978383" lon="12.87433"><ele>476.7142857142857</ele><time>2026-04-11T13:28:26.006Z</time></trkpt><trkpt lat="43.2977733" lon="12.8743383"><ele>474.1428571428571</ele><time>2026-04-11T13:28:30.007Z</time></trkpt><trkpt lat="43.297715" lon="12.8742867"><ele>471.57142857142856</ele><time>2026-04-11T13:29:22.007Z</time></trkpt><trkpt lat="43.29766" lon="12.8742333"><ele>469.0</ele><time>2026-04-11T13:29:24.005Z</time></trkpt><trkpt lat="43.2975883" lon="12.87418"><ele>467.79999999999995</ele><time>2026-04-11T13:29:26.005Z</time></trkpt><trkpt lat="43.2975017" lon="12.8741317"><ele>466.59999999999997</ele><time>2026-04-11T13:29:28.007Z</time></trkpt><trkpt lat="43.2974017" lon="12.87405"><ele>465.4</ele><time>2026-04-11T13:29:30.006Z</time></trkpt><trkpt lat="43.297355" lon="12.8739883"><ele>464.2</ele><time>2026-04-11T13:29:31.007Z</time></trkpt><trkpt lat="43.29731" lon="12.8739233"><ele>463.0</ele><time>2026-04-11T13:29:32.007Z</time></trkpt><trkpt lat="43.2972383" lon="12.8737967"><ele>462.2</ele><time>2026-04-11T13:29:34.006Z</time></trkpt><trkpt lat="43.29719" lon="12.87365"><ele>461.4</ele><time>2026-04-11T13:29:36.006Z</time></trkpt><trkpt lat="43.2971483" lon="12.8735067"><ele>460.59999999999997</ele><time>2026-04-11T13:29:38.006Z</time></trkpt><trkpt lat="43.2971083" lon="12.8734033"><ele>459.79999999999995</ele><time>2026-04-11T13:29:40.006Z</time></trkpt><trkpt lat="43.297055" lon="12.873345"><ele>459.0</ele><time>2026-04-11T13:29:43.008Z</time></trkpt><trkpt lat="43.2969767" lon="12.873365"><ele>457.8333333333333</ele><time>2026-04-11T13:29:46.005Z</time></trkpt><trkpt lat="43.2969033" lon="12.8733667"><ele>456.66666666666663</ele><time>2026-04-11T13:29:48.007Z</time></trkpt><trkpt lat="43.296835" lon="12.873345"><ele>455.5</ele><time>2026-04-11T13:29:50.006Z</time></trkpt><trkpt lat="43.2967717" lon="12.873305"><ele>454.3333333333333</ele><time>2026-04-11T13:29:52.006Z</time></trkpt><trkpt lat="43.2966933" lon="12.873265"><ele>453.16666666666663</ele><time>2026-04-11T13:29:55.006Z</time></trkpt><trkpt lat="43.2965983" lon="12.8732367"><ele>452.0</ele><time>2026-04-11T13:29:58.005Z</time></trkpt><trkpt lat="43.296515" lon="12.8732467"><ele>452.0</ele><time>2026-04-11T13:30:00.007Z</time></trkpt><trkpt lat="43.2964433" lon="12.87328"><ele>452.00000000000006</ele><time>2026-04-11T13:30:02.007Z</time></trkpt><trkpt lat="43.296385" lon="12.8733283"><ele>452.00000000000006</ele><time>2026-04-11T13:30:05.005Z</time></trkpt><trkpt lat="43.2963433" lon="12.8734417"><ele>452.0</ele><time>2026-04-11T13:30:07.007Z</time></trkpt><trkpt lat="43.29629" lon="12.873585"><ele>452.0</ele><time>2026-04-11T13:30:09.008Z</time></trkpt><trkpt lat="43.2962433" lon="12.8737133"><ele>455.3333333333333</ele><time>2026-04-11T13:30:11.006Z</time></trkpt><trkpt lat="43.2961933" lon="12.87379"><ele>458.66666666666663</ele><time>2026-04-11T13:30:13.003Z</time></trkpt><trkpt lat="43.29614" lon="12.8738717"><ele>462.0</ele><time>2026-04-11T13:30:16.006Z</time></trkpt><trkpt lat="43.296085" lon="12.873945"><ele>465.33333333333337</ele><time>2026-04-11T13:30:33.006Z</time></trkpt><trkpt lat="43.2960167" lon="12.87405"><ele>468.6666666666667</ele><time>2026-04-11T13:30:35.005Z</time></trkpt><trkpt lat="43.2959667" lon="12.8741167"><ele>472.0</ele><time>2026-04-11T13:30:36.004Z</time></trkpt><trkpt lat="43.2959217" lon="12.8741833"><ele>472.1666666666667</ele><time>2026-04-11T13:30:37.005Z</time></trkpt><trkpt lat="43.2958383" lon="12.8742933"><ele>472.33333333333337</ele><time>2026-04-11T13:30:39.006Z</time></trkpt><trkpt lat="43.2957917" lon="12.8743717"><ele>472.5</ele><time>2026-04-11T13:30:41.005Z</time></trkpt><trkpt lat="43.29576" lon="12.8744883"><ele>472.66666666666663</ele><time>2026-04-11T13:30:43.008Z</time></trkpt><trkpt lat="43.2957417" lon="12.8745817"><ele>472.8333333333333</ele><time>2026-04-11T13:30:44.007Z</time></trkpt><trkpt lat="43.295725" lon="12.8746933"><ele>473.0</ele><time>2026-04-11T13:30:45.009Z</time></trkpt><trkpt lat="43.2956983" lon="12.8748083"><ele>473.0</ele><time>2026-04-11T13:30:46.008Z</time></trkpt><trkpt lat="43.2956633" lon="12.8749367"><ele>472.99999999999994</ele><time>2026-04-11T13:30:47.005Z</time></trkpt><trkpt lat="43.2956283" lon="12.8750767"><ele>472.99999999999994</ele><time>2026-04-11T13:30:48.008Z</time></trkpt><trkpt lat="43.2955917" lon="12.87522"><ele>473.0</ele><time>2026-04-11T13:30:49.006Z</time></trkpt><trkpt lat="43.295545" lon="12.875355"><ele>473.0</ele><time>2026-04-11T13:30:50.008Z</time></trkpt><trkpt lat="43.2955083" lon="12.875485"><ele>477.59999999999997</ele><time>2026-04-11T13:30:51.009Z</time></trkpt><trkpt lat="43.2954683" lon="12.875605"><ele>482.19999999999993</ele><time>2026-04-11T13:30:52.006Z</time></trkpt><trkpt lat="43.2954317" lon="12.8757167"><ele>486.8</ele><time>2026-04-11T13:30:53.002Z</time></trkpt><trkpt lat="43.295385" lon="12.875825"><ele>491.4</ele><time>2026-04-11T13:30:54.007Z</time></trkpt><trkpt lat="43.295325" lon="12.87593"><ele>496.0</ele><time>2026-04-11T13:30:55.007Z</time></trkpt><trkpt lat="43.2952567" lon="12.8760167"><ele>496.00000000000006</ele><time>2026-04-11T13:30:56.006Z</time></trkpt><trkpt lat="43.2951817" lon="12.87609"><ele>496.0</ele><time>2026-04-11T13:30:57.008Z</time></trkpt><trkpt lat="43.29511" lon="12.8761517"><ele>496.0</ele><time>2026-04-11T13:30:58.005Z</time></trkpt><trkpt lat="43.295035" lon="12.8762117"><ele>496.0</ele><time>2026-04-11T13:30:59.006Z</time></trkpt><trkpt lat="43.294965" lon="12.8762617"><ele>496.00000000000006</ele><time>2026-04-11T13:31:00.007Z</time></trkpt><trkpt lat="43.294895" lon="12.876305"><ele>496.0</ele><time>2026-04-11T13:31:01.006Z</time></trkpt><trkpt lat="43.2948267" lon="12.8763467"><ele>496.00000000000006</ele><time>2026-04-11T13:31:02.006Z</time></trkpt><trkpt lat="43.29476" lon="12.876385"><ele>496.0</ele><time>2026-04-11T13:31:03.009Z</time></trkpt><trkpt lat="43.2946883" lon="12.8764167"><ele>496.0</ele><time>2026-04-11T13:31:04.006Z</time></trkpt><trkpt lat="43.2946167" lon="12.8764567"><ele>496.0</ele><time>2026-04-11T13:31:05.006Z</time></trkpt><trkpt lat="43.2945317" lon="12.8764983"><ele>496.00000000000006</ele><time>2026-04-11T13:31:06.007Z</time></trkpt><trkpt lat="43.2944483" lon="12.8765483"><ele>496.0</ele><time>2026-04-11T13:31:07.006Z</time></trkpt><trkpt lat="43.2943683" lon="12.8766017"><ele>499.8</ele><time>2026-04-11T13:31:08.007Z</time></trkpt><trkpt lat="43.2942883" lon="12.87665"><ele>503.6</ele><time>2026-04-11T13:31:09.007Z</time></trkpt><trkpt lat="43.294215" lon="12.8766917"><ele>507.4</ele><time>2026-04-11T13:31:10.007Z</time></trkpt><trkpt lat="43.2941517" lon="12.8767217"><ele>511.2</ele><time>2026-04-11T13:31:11.005Z</time></trkpt><trkpt lat="43.2940567" lon="12.87678"><ele>515.0</ele><time>2026-04-11T13:31:13.006Z</time></trkpt><trkpt lat="43.293965" lon="12.87687"><ele>525.1666666666666</ele><time>2026-04-11T13:31:15.006Z</time></trkpt><trkpt lat="43.2939083" lon="12.8769167"><ele>535.3333333333333</ele><time>2026-04-11T13:31:16.003Z</time></trkpt><trkpt lat="43.293855" lon="12.8769767"><ele>545.5</ele><time>2026-04-11T13:31:17.006Z</time></trkpt><trkpt lat="43.2938" lon="12.8770383"><ele>555.6666666666666</ele><time>2026-04-11T13:31:18.006Z</time></trkpt><trkpt lat="43.2937433" lon="12.877105"><ele>565.8333333333334</ele><time>2026-04-11T13:31:19.007Z</time></trkpt><trkpt lat="43.29367" lon="12.8772483"><ele>576.0</ele><time>2026-04-11T13:31:21.006Z</time></trkpt><trkpt lat="43.293615" lon="12.8773167"><ele>576.0</ele><time>2026-04-11T13:31:22.006Z</time></trkpt><trkpt lat="43.2935567" lon="12.877385"><ele>576.0</ele><time>2026-04-11T13:31:23.006Z</time></trkpt><trkpt lat="43.29349" lon="12.8774467"><ele>576.0</ele><time>2026-04-11T13:31:24.007Z</time></trkpt><trkpt lat="43.2934233" lon="12.8775283"><ele>576.0</ele><time>2026-04-11T13:31:25.006Z</time></trkpt><trkpt lat="43.2933483" lon="12.877595"><ele>576.0</ele><time>2026-04-11T13:31:26.007Z</time></trkpt><trkpt lat="43.2932683" lon="12.8776417"><ele>576.0</ele><time>2026-04-11T13:31:27.007Z</time></trkpt><trkpt lat="43.293205" lon="12.87769"><ele>578.8333333333334</ele><time>2026-04-11T13:31:28.006Z</time></trkpt><trkpt lat="43.2931517" lon="12.877755"><ele>581.6666666666666</ele><time>2026-04-11T13:31:29.006Z</time></trkpt><trkpt lat="43.29308" lon="12.8777983"><ele>584.5</ele><time>2026-04-11T13:31:30.005Z</time></trkpt><trkpt lat="43.293005" lon="12.8778467"><ele>587.3333333333333</ele><time>2026-04-11T13:31:31.006Z</time></trkpt><trkpt lat="43.29291" lon="12.877895"><ele>590.1666666666666</ele><time>2026-04-11T13:31:32.006Z</time></trkpt><trkpt lat="43.2928033" lon="12.8779367"><ele>593.0</ele><time>2026-04-11T13:31:33.008Z</time></trkpt><trkpt lat="43.292725" lon="12.8779783"><ele>593.0</ele><time>2026-04-11T13:31:34.007Z</time></trkpt><trkpt lat="43.292655" lon="12.87801"><ele>593.0</ele><time>2026-04-11T13:31:35.006Z</time></trkpt><trkpt lat="43.29258" lon="12.878"><ele>593.0</ele><time>2026-04-11T13:31:36.005Z</time></trkpt><trkpt lat="43.29251" lon="12.8779417"><ele>593.0</ele><time>2026-04-11T13:31:38.007Z</time></trkpt><trkpt lat="43.2925717" lon="12.8778283"><ele>593.0</ele><time>2026-04-11T13:31:40.006Z</time></trkpt><trkpt lat="43.2925983" lon="12.8777483"><ele>593.0</ele><time>2026-04-11T13:31:41.005Z</time></trkpt><trkpt lat="43.2926533" lon="12.8776667"><ele>598.6666666666666</ele><time>2026-04-11T13:31:42.005Z</time></trkpt><trkpt lat="43.2926967" lon="12.8775783"><ele>604.3333333333333</ele><time>2026-04-11T13:31:43.006Z</time></trkpt><trkpt lat="43.292725" lon="12.8774833"><ele>610.0</ele><time>2026-04-11T13:31:44.006Z</time></trkpt><trkpt lat="43.2926933" lon="12.877335"><ele>615.6666666666666</ele><time>2026-04-11T13:31:46.002Z</time></trkpt><trkpt lat="43.29264" lon="12.8772467"><ele>621.3333333333334</ele><time>2026-04-11T13:31:48.005Z</time></trkpt><trkpt lat="43.292575" lon="12.8772417"><ele>627.0</ele><time>2026-04-11T13:31:51.007Z</time></trkpt><trkpt lat="43.2925133" lon="12.8772817"><ele>627.0</ele><time>2026-04-11T13:31:53.009Z</time></trkpt><trkpt lat="43.2924067" lon="12.87737"><ele>627.0</ele><time>2026-04-11T13:31:54.006Z</time></trkpt><trkpt lat="43.2923233" lon="12.87745"><ele>627.0</ele><time>2026-04-11T13:31:55.007Z</time></trkpt><trkpt lat="43.2921667" lon="12.877575"><ele>627.0</ele><time>2026-04-11T13:31:56.007Z</time></trkpt><trkpt lat="43.2920667" lon="12.8776517"><ele>632.0</ele><time>2026-04-11T13:31:57.007Z</time></trkpt><trkpt lat="43.291895" lon="12.877755"><ele>637.0</ele><time>2026-04-11T13:31:58.007Z</time></trkpt><trkpt lat="43.29175" lon="12.87783"><ele>642.0</ele><time>2026-04-11T13:31:59.01Z</time></trkpt><trkpt lat="43.29163" lon="12.8778917"><ele>642.0</ele><time>2026-04-11T13:32:00.005Z</time></trkpt><trkpt lat="43.2915167" lon="12.87795"><ele>642.0</ele><time>2026-04-11T13:32:01.007Z</time></trkpt><trkpt lat="43.291425" lon="12.878005"><ele>642.0</ele><time>2026-04-11T13:32:02.007Z</time></trkpt><trkpt lat="43.2913083" lon="12.87806"><ele>642.0</ele><time>2026-04-11T13:32:04.005Z</time></trkpt><trkpt lat="43.29119" lon="12.878155"><ele>643.5</ele><time>2026-04-11T13:32:06.006Z</time></trkpt><trkpt lat="43.29112" lon="12.8782233"><ele>645.0</ele><time>2026-04-11T13:32:07.007Z</time></trkpt><trkpt lat="43.2910467" lon="12.8782967"><ele>646.5</ele><time>2026-04-11T13:32:08.007Z</time></trkpt><trkpt lat="43.2909683" lon="12.8783683"><ele>648.0</ele><time>2026-04-11T13:32:09.007Z</time></trkpt><trkpt lat="43.2908933" lon="12.8784183"><ele>649.5</ele><time>2026-04-11T13:32:10.007Z</time></trkpt><trkpt lat="43.2908133" lon="12.87845"><ele>651.0</ele><time>2026-04-11T13:32:11.006Z</time></trkpt><trkpt lat="43.2907317" lon="12.8784767"><ele>651.0</ele><time>2026-04-11T13:32:12.006Z</time></trkpt><trkpt lat="43.290645" lon="12.878505"><ele>651.0</ele><time>2026-04-11T13:32:13.01Z</time></trkpt><trkpt lat="43.2905533" lon="12.8785317"><ele>651.0</ele><time>2026-04-11T13:32:14.007Z</time></trkpt><trkpt lat="43.2904567" lon="12.87856"><ele>651.0</ele><time>2026-04-11T13:32:15.007Z</time></trkpt><trkpt lat="43.2903667" lon="12.8785967"><ele>651.0</ele><time>2026-04-11T13:32:16.006Z</time></trkpt><trkpt lat="43.2902733" lon="12.87863"><ele>657.3333333333334</ele><time>2026-04-11T13:32:17.006Z</time></trkpt><trkpt lat="43.2901883" lon="12.8786783"><ele>663.6666666666666</ele><time>2026-04-11T13:32:18.006Z</time></trkpt><trkpt lat="43.29012" lon="12.8787333"><ele>670.0</ele><time>2026-04-11T13:32:19.007Z</time></trkpt><trkpt lat="43.29006" lon="12.8787917"><ele>676.3333333333333</ele><time>2026-04-11T13:32:20.006Z</time></trkpt><trkpt lat="43.2899983" lon="12.8788517"><ele>682.6666666666666</ele><time>2026-04-11T13:32:21.006Z</time></trkpt><trkpt lat="43.289945" lon="12.878905"><ele>689.0</ele><time>2026-04-11T13:32:22.008Z</time></trkpt><trkpt lat="43.289885" lon="12.87896"><ele>689.0</ele><time>2026-04-11T13:32:23.007Z</time></trkpt><trkpt lat="43.2898067" lon="12.8790017"><ele>689.0</ele><time>2026-04-11T13:32:24.006Z</time></trkpt><trkpt lat="43.2897283" lon="12.8790367"><ele>689.0</ele><time>2026-04-11T13:32:25.007Z</time></trkpt><trkpt lat="43.2896517" lon="12.87905"><ele>689.0</ele><time>2026-04-11T13:32:26.005Z</time></trkpt><trkpt lat="43.2895317" lon="12.8790567"><ele>689.0</ele><time>2026-04-11T13:32:27.008Z</time></trkpt><trkpt lat="43.2894667" lon="12.8790283"><ele>689.0</ele><time>2026-04-11T13:32:28.006Z</time></trkpt><trkpt lat="43.2894" lon="12.8789833"><ele>690.4285714285714</ele><time>2026-04-11T13:32:29.007Z</time></trkpt><trkpt lat="43.2893417" lon="12.8789217"><ele>691.8571428571429</ele><time>2026-04-11T13:32:30.006Z</time></trkpt><trkpt lat="43.2892867" lon="12.87885"><ele>693.2857142857142</ele><time>2026-04-11T13:32:31.007Z</time></trkpt><trkpt lat="43.2892433" lon="12.878785"><ele>694.7142857142858</ele><time>2026-04-11T13:32:32.007Z</time></trkpt><trkpt lat="43.2891967" lon="12.878715"><ele>696.1428571428572</ele><time>2026-04-11T13:32:33.006Z</time></trkpt><trkpt lat="43.2891533" lon="12.8786367"><ele>697.5714285714286</ele><time>2026-04-11T13:32:34.006Z</time></trkpt><trkpt lat="43.2891167" lon="12.87856"><ele>699.0</ele><time>2026-04-11T13:32:35.007Z</time></trkpt><trkpt lat="43.2890783" lon="12.87847"><ele>701.3333333333334</ele><time>2026-04-11T13:32:36.008Z</time></trkpt><trkpt lat="43.2890433" lon="12.8783933"><ele>703.6666666666666</ele><time>2026-04-11T13:32:37.007Z</time></trkpt><trkpt lat="43.2889967" lon="12.8783117"><ele>706.0</ele><time>2026-04-11T13:32:38.008Z</time></trkpt><trkpt lat="43.2889433" lon="12.87824"><ele>708.3333333333333</ele><time>2026-04-11T13:32:39.007Z</time></trkpt><trkpt lat="43.2888983" lon="12.8781733"><ele>710.6666666666666</ele><time>2026-04-11T13:32:40.007Z</time></trkpt><trkpt lat="43.2888317" lon="12.87806"><ele>713.0</ele><time>2026-04-11T13:32:42.007Z</time></trkpt><trkpt lat="43.288755" lon="12.87795"><ele>713.0</ele><time>2026-04-11T13:32:44.006Z</time></trkpt><trkpt lat="43.28871" lon="12.8778867"><ele>713.0</ele><time>2026-04-11T13:32:45.008Z</time></trkpt><trkpt lat="43.28866" lon="12.8778117"><ele>713.0</ele><time>2026-04-11T13:32:46.002Z</time></trkpt><trkpt lat="43.2885983" lon="12.8777333"><ele>713.0</ele><time>2026-04-11T13:32:47.006Z</time></trkpt><trkpt lat="43.288545" lon="12.8776633"><ele>713.0</ele><time>2026-04-11T13:32:48.006Z</time></trkpt><trkpt lat="43.288485" lon="12.8775983"><ele>713.0</ele><time>2026-04-11T13:32:49.007Z</time></trkpt><trkpt lat="43.28843" lon="12.8775217"><ele>714.5</ele><time>2026-04-11T13:32:50.006Z</time></trkpt><trkpt lat="43.2883717" lon="12.8774383"><ele>716.0</ele><time>2026-04-11T13:32:51.012Z</time></trkpt><trkpt lat="43.2883117" lon="12.87734"><ele>717.5</ele><time>2026-04-11T13:32:52.006Z</time></trkpt><trkpt lat="43.2882517" lon="12.8772533"><ele>719.0</ele><time>2026-04-11T13:32:53.007Z</time></trkpt><trkpt lat="43.2881983" lon="12.8771733"><ele>720.5</ele><time>2026-04-11T13:32:54.007Z</time></trkpt><trkpt lat="43.2881567" lon="12.8771067"><ele>722.0</ele><time>2026-04-11T13:32:55.006Z</time></trkpt><trkpt lat="43.2880833" lon="12.8769667"><ele>722.0</ele><time>2026-04-11T13:32:57.006Z</time></trkpt><trkpt lat="43.2880383" lon="12.8768967"><ele>722.0</ele><time>2026-04-11T13:32:58.006Z</time></trkpt><trkpt lat="43.287955" lon="12.876775"><ele>722.0</ele><time>2026-04-11T13:33:00.006Z</time></trkpt><trkpt lat="43.2878983" lon="12.8766717"><ele>722.0</ele><time>2026-04-11T13:33:02.006Z</time></trkpt><trkpt lat="43.287835" lon="12.8765867"><ele>722.0</ele><time>2026-04-11T13:33:04.007Z</time></trkpt><trkpt lat="43.2878033" lon="12.8765"><ele>722.0</ele><time>2026-04-11T13:33:06.007Z</time></trkpt><trkpt lat="43.2878883" lon="12.8765283"><ele>729.0</ele><time>2026-04-11T13:33:21.006Z</time></trkpt><trkpt lat="43.287995" lon="12.8765783"><ele>736.0</ele><time>2026-04-11T13:34:10.006Z</time></trkpt><trkpt lat="43.2879233" lon="12.876475"><ele>743.0</ele><time>2026-04-11T13:37:27.006Z</time></trkpt><trkpt lat="43.2878633" lon="12.876335"><ele>750.0</ele><time>2026-04-11T13:37:29.008Z</time></trkpt><trkpt lat="43.287825" lon="12.876255"><ele>757.0</ele><time>2026-04-11T13:37:30.006Z</time></trkpt><trkpt lat="43.287775" lon="12.87616"><ele>757.0</ele><time>2026-04-11T13:37:31.007Z</time></trkpt><trkpt lat="43.287715" lon="12.8760617"><ele>757.0</ele><time>2026-04-11T13:37:32.005Z</time></trkpt><trkpt lat="43.2876617" lon="12.8759767"><ele>757.0</ele><time>2026-04-11T13:37:33.007Z</time></trkpt><trkpt lat="43.28761" lon="12.8759"><ele>757.0</ele><time>2026-04-11T13:37:34.005Z</time></trkpt><trkpt lat="43.2875583" lon="12.8758383"><ele>757.0</ele><time>2026-04-11T13:37:35.006Z</time></trkpt><trkpt lat="43.2874667" lon="12.87574"><ele>757.0</ele><time>2026-04-11T13:37:37.006Z</time></trkpt><trkpt lat="43.2873833" lon="12.8756517"><ele>761.6</ele><time>2026-04-11T13:37:39.007Z</time></trkpt><trkpt lat="43.2872883" lon="12.87553"><ele>766.2</ele><time>2026-04-11T13:37:41.007Z</time></trkpt><trkpt lat="43.28724" lon="12.87545"><ele>770.8</ele><time>2026-04-11T13:37:42.006Z</time></trkpt><trkpt lat="43.2871767" lon="12.8753583"><ele>775.4</ele><time>2026-04-11T13:37:43.006Z</time></trkpt><trkpt lat="43.287105" lon="12.8752683"><ele>780.0</ele><time>2026-04-11T13:37:44.007Z</time></trkpt><trkpt lat="43.28703" lon="12.8751983"><ele>781.0</ele><time>2026-04-11T13:37:45.007Z</time></trkpt><trkpt lat="43.28695" lon="12.8751533"><ele>782.0</ele><time>2026-04-11T13:37:46.005Z</time></trkpt><trkpt lat="43.2868633" lon="12.8751233"><ele>783.0</ele><time>2026-04-11T13:37:47.006Z</time></trkpt><trkpt lat="43.28677" lon="12.8751033"><ele>784.0</ele><time>2026-04-11T13:37:48.006Z</time></trkpt><trkpt lat="43.2866783" lon="12.8750817"><ele>785.0</ele><time>2026-04-11T13:37:49.007Z</time></trkpt><trkpt lat="43.28659" lon="12.8750533"><ele>786.8333333333334</ele><time>2026-04-11T13:37:50.007Z</time></trkpt><trkpt lat="43.2865017" lon="12.875025"><ele>788.6666666666667</ele><time>2026-04-11T13:37:51.008Z</time></trkpt><trkpt lat="43.2864233" lon="12.8750033"><ele>790.5</ele><time>2026-04-11T13:37:52.007Z</time></trkpt><trkpt lat="43.28636" lon="12.874985"><ele>792.3333333333333</ele><time>2026-04-11T13:37:53.007Z</time></trkpt><trkpt lat="43.2862967" lon="12.8749817"><ele>794.1666666666666</ele><time>2026-04-11T13:37:55.008Z</time></trkpt><trkpt lat="43.2863217" lon="12.875065"><ele>796.0</ele><time>2026-04-11T13:38:07.008Z</time></trkpt><trkpt lat="43.2862283" lon="12.875105"><ele>795.9999999999999</ele><time>2026-04-11T13:38:09.009Z</time></trkpt><trkpt lat="43.2861533" lon="12.875125"><ele>796.0</ele><time>2026-04-11T13:38:10.007Z</time></trkpt><trkpt lat="43.28608" lon="12.875125"><ele>796.0</ele><time>2026-04-11T13:38:11.005Z</time></trkpt><trkpt lat="43.2860167" lon="12.875125"><ele>796.0</ele><time>2026-04-11T13:38:12.008Z</time></trkpt><trkpt lat="43.2859117" lon="12.875165"><ele>795.9999999999999</ele><time>2026-04-11T13:38:14.006Z</time></trkpt><trkpt lat="43.285825" lon="12.875135"><ele>796.0</ele><time>2026-04-11T13:38:17.006Z</time></trkpt><trkpt lat="43.2857433" lon="12.875105"><ele>795.9999999999999</ele><time>2026-04-11T13:38:19.008Z</time></trkpt><trkpt lat="43.2856567" lon="12.8751183"><ele>796.0</ele><time>2026-04-11T13:38:21.009Z</time></trkpt><trkpt lat="43.2855883" lon="12.8751633"><ele>796.0</ele><time>2026-04-11T13:38:23.005Z</time></trkpt><trkpt lat="43.28552" lon="12.87522"><ele>796.0</ele><time>2026-04-11T13:38:25.003Z</time></trkpt><trkpt lat="43.28544" lon="12.8752667"><ele>795.9999999999999</ele><time>2026-04-11T13:38:28.007Z</time></trkpt><trkpt lat="43.285365" lon="12.8752983"><ele>796.0</ele><time>2026-04-11T13:38:30.007Z</time></trkpt><trkpt lat="43.2852733" lon="12.875325"><ele>800.6666666666666</ele><time>2026-04-11T13:38:32.006Z</time></trkpt><trkpt lat="43.2851733" lon="12.8753767"><ele>805.3333333333333</ele><time>2026-04-11T13:38:34.007Z</time></trkpt><trkpt lat="43.2850667" lon="12.8754183"><ele>810.0</ele><time>2026-04-11T13:38:36.008Z</time></trkpt><trkpt lat="43.2850117" lon="12.8754667"><ele>814.6666666666667</ele><time>2026-04-11T13:38:38.009Z</time></trkpt><trkpt lat="43.28494" lon="12.87554"><ele>819.3333333333334</ele><time>2026-04-11T13:38:48.006Z</time></trkpt><trkpt lat="43.284885" lon="12.8755833"><ele>824.0</ele><time>2026-04-11T13:39:10.007Z</time></trkpt><trkpt lat="43.28482" lon="12.875675"><ele>824.5714285714286</ele><time>2026-04-11T13:40:06.006Z</time></trkpt><trkpt lat="43.2847567" lon="12.8756933"><ele>825.1428571428571</ele><time>2026-04-11T13:40:18.007Z</time></trkpt><trkpt lat="43.2846917" lon="12.8757433"><ele>825.7142857142858</ele><time>2026-04-11T13:40:32.007Z</time></trkpt><trkpt lat="43.2846367" lon="12.8757867"><ele>826.2857142857142</ele><time>2026-04-11T13:40:37.005Z</time></trkpt><trkpt lat="43.2845767" lon="12.8758167"><ele>826.8571428571429</ele><time>2026-04-11T13:40:49.006Z</time></trkpt><trkpt lat="43.2845217" lon="12.875865"><ele>827.4285714285714</ele><time>2026-04-11T13:40:52.007Z</time></trkpt><trkpt lat="43.28446" lon="12.8759167"><ele>828.0</ele><time>2026-04-11T13:40:56.007Z</time></trkpt><trkpt lat="43.2843967" lon="12.87595"><ele>828.0000000000001</ele><time>2026-04-11T13:41:07.006Z</time></trkpt><trkpt lat="43.28434" lon="12.8760117"><ele>828.0</ele><time>2026-04-11T13:41:12.006Z</time></trkpt><trkpt lat="43.2842717" lon="12.8760667"><ele>828.0</ele><time>2026-04-11T13:41:16.006Z</time></trkpt><trkpt lat="43.284205" lon="12.87613"><ele>828.0</ele><time>2026-04-11T13:41:20.005Z</time></trkpt><trkpt lat="43.284145" lon="12.8761767"><ele>828.0</ele><time>2026-04-11T13:41:23.007Z</time></trkpt><trkpt lat="43.2840933" lon="12.876235"><ele>828.0000000000001</ele><time>2026-04-11T13:41:30.006Z</time></trkpt><trkpt lat="43.2840183" lon="12.8762383"><ele>828.0</ele><time>2026-04-11T13:42:33.007Z</time></trkpt><trkpt lat="43.2839517" lon="12.8763767"><ele>829.0</ele><time>2026-04-11T13:43:35.005Z</time></trkpt><trkpt lat="43.2838833" lon="12.8764367"><ele>830.0</ele><time>2026-04-11T13:43:38.007Z</time></trkpt><trkpt lat="43.2838333" lon="12.876525"><ele>831.0</ele><time>2026-04-11T13:43:40.007Z</time></trkpt><trkpt lat="43.2837833" lon="12.8766067"><ele>832.0</ele><time>2026-04-11T13:43:42.006Z</time></trkpt><trkpt lat="43.2837133" lon="12.8766883"><ele>833.0</ele><time>2026-04-11T13:43:45.009Z</time></trkpt><trkpt lat="43.2836567" lon="12.87673"><ele>834.0</ele><time>2026-04-11T13:43:48.007Z</time></trkpt><trkpt lat="43.2835867" lon="12.8767733"><ele>834.0</ele><time>2026-04-11T13:43:52.005Z</time></trkpt><trkpt lat="43.283485" lon="12.8768233"><ele>834.0</ele><time>2026-04-11T13:44:38.007Z</time></trkpt><trkpt lat="43.283425" lon="12.8768633"><ele>834.0</ele><time>2026-04-11T13:44:47.006Z</time></trkpt><trkpt lat="43.2833617" lon="12.8768617"><ele>834.0</ele><time>2026-04-11T13:44:53.01Z</time></trkpt><trkpt lat="43.2833183" lon="12.8769517"><ele>834.0</ele><time>2026-04-11T13:45:01.004Z</time></trkpt><trkpt lat="43.28327" lon="12.8770167"><ele>834.0</ele><time>2026-04-11T13:45:03.007Z</time></trkpt><trkpt lat="43.283195" lon="12.8770967"><ele>834.0</ele><time>2026-04-11T13:45:05.006Z</time></trkpt><trkpt lat="43.283105" lon="12.8771567"><ele>834.0</ele><time>2026-04-11T13:45:07.009Z</time></trkpt><trkpt lat="43.2830367" lon="12.87722"><ele>834.0</ele><time>2026-04-11T13:45:10.009Z</time></trkpt><trkpt lat="43.282995" lon="12.8773067"><ele>834.0</ele><time>2026-04-11T13:45:12.006Z</time></trkpt><trkpt lat="43.282935" lon="12.8774533"><ele>834.0</ele><time>2026-04-11T13:45:14.005Z</time></trkpt><trkpt lat="43.2829" lon="12.8775517"><ele>841.6666666666666</ele><time>2026-04-11T13:45:15.007Z</time></trkpt><trkpt lat="43.2828683" lon="12.87766"><ele>849.3333333333333</ele><time>2026-04-11T13:45:16.006Z</time></trkpt><trkpt lat="43.28285" lon="12.8777567"><ele>857.0</ele><time>2026-04-11T13:45:17.005Z</time></trkpt><trkpt lat="43.2828167" lon="12.8779017"><ele>864.6666666666666</ele><time>2026-04-11T13:45:19.007Z</time></trkpt><trkpt lat="43.2828483" lon="12.8777733"><ele>872.3333333333333</ele><time>2026-04-11T13:45:36.006Z</time></trkpt><trkpt lat="43.2828617" lon="12.877685"><ele>880.0</ele><time>2026-04-11T13:45:37.006Z</time></trkpt><trkpt lat="43.2828767" lon="12.8775983"><ele>880.0</ele><time>2026-04-11T13:45:38.005Z</time></trkpt><trkpt lat="43.28292" lon="12.87745"><ele>880.0</ele><time>2026-04-11T13:45:40.007Z</time></trkpt><trkpt lat="43.2829633" lon="12.8773083"><ele>880.0</ele><time>2026-04-11T13:45:42.005Z</time></trkpt><trkpt lat="43.2830083" lon="12.877215"><ele>880.0</ele><time>2026-04-11T13:45:44.006Z</time></trkpt><trkpt lat="43.283095" lon="12.87717"><ele>880.0</ele><time>2026-04-11T13:45:46.006Z</time></trkpt><trkpt lat="43.2831583" lon="12.8771333"><ele>870.8</ele><time>2026-04-11T13:45:47.007Z</time></trkpt><trkpt lat="43.28326" lon="12.87705"><ele>861.6</ele><time>2026-04-11T13:45:49.005Z</time></trkpt><trkpt lat="43.28332" lon="12.8769867"><ele>852.4000000000001</ele><time>2026-04-11T13:45:51.008Z</time></trkpt><trkpt lat="43.28341" lon="12.8769033"><ele>843.2</ele><time>2026-04-11T13:46:03.006Z</time></trkpt><trkpt lat="43.2835317" lon="12.8768067"><ele>834.0</ele><time>2026-04-11T13:46:56.006Z</time></trkpt><trkpt lat="43.283605" lon="12.8767917"><ele>833.0</ele><time>2026-04-11T13:46:59.006Z</time></trkpt><trkpt lat="43.28368" lon="12.87674"><ele>832.0</ele><time>2026-04-11T13:47:01.006Z</time></trkpt><trkpt lat="43.2837533" lon="12.8766483"><ele>831.0</ele><time>2026-04-11T13:47:03.007Z</time></trkpt><trkpt lat="43.28383" lon="12.87656"><ele>830.0</ele><time>2026-04-11T13:47:05.005Z</time></trkpt><trkpt lat="43.283905" lon="12.876505"><ele>829.0</ele><time>2026-04-11T13:47:07.005Z</time></trkpt><trkpt lat="43.2839667" lon="12.8764517"><ele>828.0</ele><time>2026-04-11T13:47:09.006Z</time></trkpt><trkpt lat="43.28401" lon="12.8763883"><ele>828.0</ele><time>2026-04-11T13:47:13.005Z</time></trkpt><trkpt lat="43.284055" lon="12.8763183"><ele>828.0</ele><time>2026-04-11T13:47:27.006Z</time></trkpt><trkpt lat="43.2841383" lon="12.8762467"><ele>828.0</ele><time>2026-04-11T13:47:30.005Z</time></trkpt><trkpt lat="43.2842067" lon="12.8761883"><ele>828.0</ele><time>2026-04-11T13:47:33.006Z</time></trkpt><trkpt lat="43.2842817" lon="12.876145"><ele>828.0</ele><time>2026-04-11T13:47:35.005Z</time></trkpt><trkpt lat="43.2843333" lon="12.8760817"><ele>828.0</ele><time>2026-04-11T13:47:37.005Z</time></trkpt><trkpt lat="43.2843933" lon="12.876055"><ele>828.0000000000001</ele><time>2026-04-11T13:47:45.006Z</time></trkpt><trkpt lat="43.284435" lon="12.8759833"><ele>828.0</ele><time>2026-04-11T13:47:58.006Z</time></trkpt><trkpt lat="43.284505" lon="12.875935"><ele>828.0</ele><time>2026-04-11T13:48:01.005Z</time></trkpt><trkpt lat="43.2845733" lon="12.8759"><ele>828.0</ele><time>2026-04-11T13:48:04.005Z</time></trkpt><trkpt lat="43.2846367" lon="12.8758633"><ele>828.0</ele><time>2026-04-11T13:48:08.005Z</time></trkpt><trkpt lat="43.2846817" lon="12.8758"><ele>828.0000000000001</ele><time>2026-04-11T13:48:24.005Z</time></trkpt><trkpt lat="43.28474" lon="12.8757633"><ele>828.0</ele><time>2026-04-11T13:48:41.006Z</time></trkpt><trkpt lat="43.2848017" lon="12.8757317"><ele>827.3333333333334</ele><time>2026-04-11T13:48:46.006Z</time></trkpt><trkpt lat="43.2848517" lon="12.875675"><ele>826.6666666666667</ele><time>2026-04-11T13:48:52.005Z</time></trkpt><trkpt lat="43.28491" lon="12.875635"><ele>826.0</ele><time>2026-04-11T13:49:26.006Z</time></trkpt><trkpt lat="43.2849733" lon="12.8756133"><ele>825.3333333333334</ele><time>2026-04-11T13:51:19.008Z</time></trkpt><trkpt lat="43.2850383" lon="12.87557"><ele>824.6666666666667</ele><time>2026-04-11T13:51:22.006Z</time></trkpt><trkpt lat="43.2851367" lon="12.8755283"><ele>824.0</ele><time>2026-04-11T13:51:25.008Z</time></trkpt><trkpt lat="43.2852217" lon="12.8754933"><ele>824.0000000000001</ele><time>2026-04-11T13:51:27.008Z</time></trkpt><trkpt lat="43.2852967" lon="12.87544"><ele>824.0</ele><time>2026-04-11T13:51:29.005Z</time></trkpt><trkpt lat="43.2853567" lon="12.8754"><ele>824.0</ele><time>2026-04-11T13:51:32.005Z</time></trkpt><trkpt lat="43.2854333" lon="12.8753733"><ele>824.0</ele><time>2026-04-11T13:51:36.005Z</time></trkpt><trkpt lat="43.2855367" lon="12.8753417"><ele>824.0000000000001</ele><time>2026-04-11T13:51:39.007Z</time></trkpt><trkpt lat="43.285625" lon="12.87534"><ele>824.0</ele><time>2026-04-11T13:51:41.005Z</time></trkpt><trkpt lat="43.285705" lon="12.8753517"><ele>819.3333333333334</ele><time>2026-04-11T13:51:43.006Z</time></trkpt><trkpt lat="43.2857683" lon="12.8753783"><ele>814.6666666666667</ele><time>2026-04-11T13:51:45.006Z</time></trkpt><trkpt lat="43.2858433" lon="12.8753717"><ele>810.0</ele><time>2026-04-11T13:51:47.006Z</time></trkpt><trkpt lat="43.2859433" lon="12.87536"><ele>805.3333333333333</ele><time>2026-04-11T13:51:49.008Z</time></trkpt><trkpt lat="43.2860117" lon="12.8753567"><ele>800.6666666666666</ele><time>2026-04-11T13:51:50.008Z</time></trkpt><trkpt lat="43.286085" lon="12.87535"><ele>796.0</ele><time>2026-04-11T13:51:51.007Z</time></trkpt><trkpt lat="43.2861617" lon="12.87529"><ele>795.9999999999999</ele><time>2026-04-11T13:51:52.007Z</time></trkpt><trkpt lat="43.2862517" lon="12.875225"><ele>796.0</ele><time>2026-04-11T13:51:54.006Z</time></trkpt><trkpt lat="43.28632" lon="12.8750933"><ele>796.0</ele><time>2026-04-11T13:52:09.006Z</time></trkpt><trkpt lat="43.286285" lon="12.8749967"><ele>796.0</ele><time>2026-04-11T13:52:30.006Z</time></trkpt><trkpt lat="43.2862617" lon="12.8749017"><ele>795.9999999999999</ele><time>2026-04-11T13:52:33.007Z</time></trkpt><trkpt lat="43.2862633" lon="12.8748083"><ele>796.0</ele><time>2026-04-11T13:52:38.006Z</time></trkpt><trkpt lat="43.2862283" lon="12.8747117"><ele>801.4</ele><time>2026-04-11T13:52:42.007Z</time></trkpt><trkpt lat="43.2861767" lon="12.8746333"><ele>806.8</ele><time>2026-04-11T13:52:45.008Z</time></trkpt><trkpt lat="43.2861283" lon="12.8745483"><ele>812.1999999999999</ele><time>2026-04-11T13:52:48.006Z</time></trkpt><trkpt lat="43.2860667" lon="12.8744433"><ele>817.5999999999999</ele><time>2026-04-11T13:52:51.007Z</time></trkpt><trkpt lat="43.2860183" lon="12.8743583"><ele>823.0</ele><time>2026-04-11T13:52:54.006Z</time></trkpt><trkpt lat="43.2858967" lon="12.87424"><ele>824.1428571428571</ele><time>2026-04-11T13:53:32.007Z</time></trkpt><trkpt lat="43.285855" lon="12.8741567"><ele>825.2857142857143</ele><time>2026-04-11T13:53:34.008Z</time></trkpt><trkpt lat="43.2858433" lon="12.8740717"><ele>826.4285714285713</ele><time>2026-04-11T13:53:36.006Z</time></trkpt><trkpt lat="43.2858133" lon="12.8739533"><ele>827.5714285714286</ele><time>2026-04-11T13:53:39.007Z</time></trkpt><trkpt lat="43.2857733" lon="12.8738767"><ele>828.7142857142857</ele><time>2026-04-11T13:53:41.006Z</time></trkpt><trkpt lat="43.2857433" lon="12.8737833"><ele>829.8571428571428</ele><time>2026-04-11T13:53:43.006Z</time></trkpt><trkpt lat="43.2857233" lon="12.87369"><ele>831.0</ele><time>2026-04-11T13:53:45.007Z</time></trkpt><trkpt lat="43.28567" lon="12.8736317"><ele>830.9999999999999</ele><time>2026-04-11T13:53:51.009Z</time></trkpt><trkpt lat="43.2856533" lon="12.87372"><ele>831.0</ele><time>2026-04-11T13:53:59.006Z</time></trkpt><trkpt lat="43.2856433" lon="12.8738067"><ele>831.0</ele><time>2026-04-11T13:54:06.005Z</time></trkpt><trkpt lat="43.285685" lon="12.87391"><ele>831.0</ele><time>2026-04-11T13:54:11.007Z</time></trkpt><trkpt lat="43.2857033" lon="12.8740017"><ele>831.0</ele><time>2026-04-11T13:54:16.006Z</time></trkpt><trkpt lat="43.2857233" lon="12.8740883"><ele>830.9999999999999</ele><time>2026-04-11T13:54:20.006Z</time></trkpt><trkpt lat="43.285775" lon="12.8741617"><ele>831.0</ele><time>2026-04-11T13:54:25.005Z</time></trkpt><trkpt lat="43.2858083" lon="12.87425"><ele>829.6666666666666</ele><time>2026-04-11T13:54:29.007Z</time></trkpt><trkpt lat="43.2858467" lon="12.8743283"><ele>828.3333333333333</ele><time>2026-04-11T13:54:32.008Z</time></trkpt><trkpt lat="43.2859117" lon="12.874385"><ele>827.0</ele><time>2026-04-11T13:55:00.006Z</time></trkpt><trkpt lat="43.2859783" lon="12.874455"><ele>825.6666666666666</ele><time>2026-04-11T13:55:02.005Z</time></trkpt><trkpt lat="43.2860583" lon="12.8745383"><ele>824.3333333333333</ele><time>2026-04-11T13:55:04.007Z</time></trkpt><trkpt lat="43.2861017" lon="12.874605"><ele>823.0</ele><time>2026-04-11T13:55:06.005Z</time></trkpt><trkpt lat="43.2861583" lon="12.8746517"><ele>822.9999999999999</ele><time>2026-04-11T13:55:09.007Z</time></trkpt><trkpt lat="43.286205" lon="12.8747367"><ele>823.0</ele><time>2026-04-11T13:55:13.006Z</time></trkpt><trkpt lat="43.2862333" lon="12.8748367"><ele>823.0</ele><time>2026-04-11T13:55:16.006Z</time></trkpt><trkpt lat="43.28628" lon="12.8749567"><ele>823.0</ele><time>2026-04-11T13:55:18.005Z</time></trkpt><trkpt lat="43.2863317" lon="12.8750317"><ele>822.9999999999999</ele><time>2026-04-11T13:55:20.006Z</time></trkpt><trkpt lat="43.2864217" lon="12.87509"><ele>823.0</ele><time>2026-04-11T13:55:22.004Z</time></trkpt><trkpt lat="43.2865317" lon="12.8751417"><ele>817.5714285714286</ele><time>2026-04-11T13:55:24.005Z</time></trkpt><trkpt lat="43.2865933" lon="12.8751683"><ele>812.1428571428571</ele><time>2026-04-11T13:55:25.006Z</time></trkpt><trkpt lat="43.2866567" lon="12.8751917"><ele>806.7142857142858</ele><time>2026-04-11T13:55:26.006Z</time></trkpt><trkpt lat="43.2867217" lon="12.8752133"><ele>801.2857142857142</ele><time>2026-04-11T13:55:27.006Z</time></trkpt><trkpt lat="43.28679" lon="12.8752267"><ele>795.8571428571428</ele><time>2026-04-11T13:55:28.006Z</time></trkpt><trkpt lat="43.2868633" lon="12.8752417"><ele>790.4285714285714</ele><time>2026-04-11T13:55:29.006Z</time></trkpt><trkpt lat="43.286935" lon="12.8752683"><ele>785.0</ele><time>2026-04-11T13:55:30.007Z</time></trkpt><trkpt lat="43.2870067" lon="12.8752983"><ele>785.0</ele><time>2026-04-11T13:55:31.005Z</time></trkpt><trkpt lat="43.2870767" lon="12.8753333"><ele>785.0</ele><time>2026-04-11T13:55:32.006Z</time></trkpt><trkpt lat="43.2871317" lon="12.8753967"><ele>785.0</ele><time>2026-04-11T13:55:33.007Z</time></trkpt><trkpt lat="43.2871817" lon="12.8754683"><ele>785.0</ele><time>2026-04-11T13:55:34.006Z</time></trkpt><trkpt lat="43.2872317" lon="12.875545"><ele>785.0</ele><time>2026-04-11T13:55:35.007Z</time></trkpt><trkpt lat="43.2872833" lon="12.87562"><ele>785.0</ele><time>2026-04-11T13:55:36.007Z</time></trkpt><trkpt lat="43.2873417" lon="12.87569"><ele>785.0</ele><time>2026-04-11T13:55:37.007Z</time></trkpt><trkpt lat="43.2873983" lon="12.8757467"><ele>784.0</ele><time>2026-04-11T13:55:38.005Z</time></trkpt><trkpt lat="43.287495" lon="12.8758433"><ele>783.0</ele><time>2026-04-11T13:55:40.006Z</time></trkpt><trkpt lat="43.287555" lon="12.8758983"><ele>782.0</ele><time>2026-04-11T13:55:41.006Z</time></trkpt><trkpt lat="43.2876233" lon="12.8759733"><ele>781.0</ele><time>2026-04-11T13:55:42.006Z</time></trkpt><trkpt lat="43.28769" lon="12.8760633"><ele>780.0</ele><time>2026-04-11T13:55:43.006Z</time></trkpt><trkpt lat="43.2877483" lon="12.87616"><ele>775.4</ele><time>2026-04-11T13:55:44.007Z</time></trkpt><trkpt lat="43.2877967" lon="12.8762683"><ele>770.8</ele><time>2026-04-11T13:55:45.007Z</time></trkpt><trkpt lat="43.287845" lon="12.8763767"><ele>766.2</ele><time>2026-04-11T13:55:46.005Z</time></trkpt><trkpt lat="43.2878933" lon="12.8764883"><ele>761.6</ele><time>2026-04-11T13:55:47.007Z</time></trkpt><trkpt lat="43.28794" lon="12.8765983"><ele>757.0</ele><time>2026-04-11T13:55:48.007Z</time></trkpt><trkpt lat="43.2879833" lon="12.8767167"><ele>755.6666666666667</ele><time>2026-04-11T13:55:49.008Z</time></trkpt><trkpt lat="43.288035" lon="12.8768217"><ele>754.3333333333334</ele><time>2026-04-11T13:55:50.008Z</time></trkpt><trkpt lat="43.2880883" lon="12.8769117"><ele>753.0</ele><time>2026-04-11T13:55:51.008Z</time></trkpt><trkpt lat="43.2881467" lon="12.8769933"><ele>751.6666666666666</ele><time>2026-04-11T13:55:52.005Z</time></trkpt><trkpt lat="43.2881967" lon="12.8770683"><ele>750.3333333333333</ele><time>2026-04-11T13:55:53.006Z</time></trkpt><trkpt lat="43.2882417" lon="12.8771433"><ele>749.0</ele><time>2026-04-11T13:55:54.004Z</time></trkpt><trkpt lat="43.2882883" lon="12.8772167"><ele>749.0</ele><time>2026-04-11T13:55:55.005Z</time></trkpt><trkpt lat="43.2883267" lon="12.8772867"><ele>749.0</ele><time>2026-04-11T13:55:56.006Z</time></trkpt><trkpt lat="43.2883783" lon="12.877375"><ele>749.0</ele><time>2026-04-11T13:55:58.005Z</time></trkpt><trkpt lat="43.2884567" lon="12.8774817"><ele>749.0</ele><time>2026-04-11T13:56:19.004Z</time></trkpt><trkpt lat="43.2884983" lon="12.877575"><ele>749.0</ele><time>2026-04-11T13:56:20.007Z</time></trkpt><trkpt lat="43.28854" lon="12.87767"><ele>749.0</ele><time>2026-04-11T13:56:21.009Z</time></trkpt><trkpt lat="43.2885833" lon="12.87775"><ele>741.8000000000001</ele><time>2026-04-11T13:56:22.005Z</time></trkpt><trkpt lat="43.2886267" lon="12.87782"><ele>734.6</ele><time>2026-04-11T13:56:23.006Z</time></trkpt><trkpt lat="43.2886767" lon="12.8778767"><ele>727.4</ele><time>2026-04-11T13:56:24.007Z</time></trkpt><trkpt lat="43.2887767" lon="12.8779583"><ele>720.2</ele><time>2026-04-11T13:56:26.005Z</time></trkpt><trkpt lat="43.288865" lon="12.87809"><ele>713.0</ele><time>2026-04-11T13:56:28.007Z</time></trkpt><trkpt lat="43.288915" lon="12.87816"><ele>710.2</ele><time>2026-04-11T13:56:29.006Z</time></trkpt><trkpt lat="43.2889667" lon="12.8782217"><ele>707.4</ele><time>2026-04-11T13:56:30.007Z</time></trkpt><trkpt lat="43.2890517" lon="12.8783267"><ele>704.6</ele><time>2026-04-11T13:56:32.007Z</time></trkpt><trkpt lat="43.2891383" lon="12.8784567"><ele>701.8000000000001</ele><time>2026-04-11T13:56:34.005Z</time></trkpt><trkpt lat="43.2892117" lon="12.8785933"><ele>699.0</ele><time>2026-04-11T13:56:36.006Z</time></trkpt><trkpt lat="43.289245" lon="12.8786733"><ele>699.0</ele><time>2026-04-11T13:56:37.006Z</time></trkpt><trkpt lat="43.2892767" lon="12.878755"><ele>699.0</ele><time>2026-04-11T13:56:38.007Z</time></trkpt><trkpt lat="43.289315" lon="12.8788433"><ele>699.0</ele><time>2026-04-11T13:56:39.009Z</time></trkpt><trkpt lat="43.2893617" lon="12.87893"><ele>699.0</ele><time>2026-04-11T13:56:40.006Z</time></trkpt><trkpt lat="43.2894117" lon="12.87901"><ele>699.0</ele><time>2026-04-11T13:56:41.011Z</time></trkpt><trkpt lat="43.2894633" lon="12.8790933"><ele>699.0</ele><time>2026-04-11T13:56:42.006Z</time></trkpt><trkpt lat="43.2895133" lon="12.8791733"><ele>699.0</ele><time>2026-04-11T13:56:43.006Z</time></trkpt><trkpt lat="43.2895633" lon="12.8792383"><ele>699.0</ele><time>2026-04-11T13:56:44.005Z</time></trkpt><trkpt lat="43.2896767" lon="12.8793067"><ele>699.0</ele><time>2026-04-11T13:56:46.007Z</time></trkpt><trkpt lat="43.2897483" lon="12.8793167"><ele>699.0</ele><time>2026-04-11T13:56:47.006Z</time></trkpt><trkpt lat="43.2898183" lon="12.8793067"><ele>699.0</ele><time>2026-04-11T13:56:48.006Z</time></trkpt><trkpt lat="43.2898833" lon="12.879305"><ele>699.0</ele><time>2026-04-11T13:56:49.004Z</time></trkpt><trkpt lat="43.289945" lon="12.8792783"><ele>697.3333333333334</ele><time>2026-04-11T13:56:50.006Z</time></trkpt><trkpt lat="43.29001" lon="12.8792317"><ele>695.6666666666666</ele><time>2026-04-11T13:56:51.006Z</time></trkpt><trkpt lat="43.2900767" lon="12.8791783"><ele>694.0</ele><time>2026-04-11T13:56:52.006Z</time></trkpt><trkpt lat="43.2901433" lon="12.879115"><ele>692.3333333333333</ele><time>2026-04-11T13:56:53.004Z</time></trkpt><trkpt lat="43.2901983" lon="12.8790417"><ele>690.6666666666666</ele><time>2026-04-11T13:56:54Z</time></trkpt><trkpt lat="43.29025" lon="12.8789717"><ele>689.0</ele><time>2026-04-11T13:56:55.005Z</time></trkpt><trkpt lat="43.2903133" lon="12.8789283"><ele>689.0</ele><time>2026-04-11T13:56:56.006Z</time></trkpt><trkpt lat="43.2904" lon="12.878885"><ele>689.0</ele><time>2026-04-11T13:56:57Z</time></trkpt><trkpt lat="43.2904983" lon="12.8788467"><ele>689.0</ele><time>2026-04-11T13:56:58.006Z</time></trkpt><trkpt lat="43.2906" lon="12.8788217"><ele>689.0</ele><time>2026-04-11T13:56:59.002Z</time></trkpt><trkpt lat="43.29069" lon="12.8788067"><ele>689.0</ele><time>2026-04-11T13:57:00.007Z</time></trkpt><trkpt lat="43.2907717" lon="12.8787833"><ele>683.5714285714286</ele><time>2026-04-11T13:57:01.001Z</time></trkpt><trkpt lat="43.290845" lon="12.8787667"><ele>678.1428571428571</ele><time>2026-04-11T13:57:02.005Z</time></trkpt><trkpt lat="43.2909183" lon="12.8787567"><ele>672.7142857142858</ele><time>2026-04-11T13:57:03.001Z</time></trkpt><trkpt lat="43.29099" lon="12.8787517"><ele>667.2857142857142</ele><time>2026-04-11T13:57:04.003Z</time></trkpt><trkpt lat="43.2910583" lon="12.8787267"><ele>661.8571428571429</ele><time>2026-04-11T13:57:05.005Z</time></trkpt><trkpt lat="43.2911233" lon="12.8786883"><ele>656.4285714285714</ele><time>2026-04-11T13:57:06.006Z</time></trkpt><trkpt lat="43.2911883" lon="12.87864"><ele>651.0</ele><time>2026-04-11T13:57:07.007Z</time></trkpt><trkpt lat="43.2912533" lon="12.878575"><ele>651.0</ele><time>2026-04-11T13:57:08.007Z</time></trkpt><trkpt lat="43.2913183" lon="12.87852"><ele>651.0</ele><time>2026-04-11T13:57:09.007Z</time></trkpt><trkpt lat="43.2913717" lon="12.8784717"><ele>651.0</ele><time>2026-04-11T13:57:10.006Z</time></trkpt><trkpt lat="43.2914317" lon="12.8784367"><ele>651.0</ele><time>2026-04-11T13:57:11.007Z</time></trkpt><trkpt lat="43.2914967" lon="12.8784167"><ele>651.0</ele><time>2026-04-11T13:57:12.005Z</time></trkpt><trkpt lat="43.2915633" lon="12.8784033"><ele>651.0</ele><time>2026-04-11T13:57:13.006Z</time></trkpt><trkpt lat="43.29163" lon="12.87839"><ele>651.0</ele><time>2026-04-11T13:57:14.007Z</time></trkpt><trkpt lat="43.2917033" lon="12.8783567"><ele>649.1999999999999</ele><time>2026-04-11T13:57:15.006Z</time></trkpt><trkpt lat="43.2917917" lon="12.8783267"><ele>647.4</ele><time>2026-04-11T13:57:16.005Z</time></trkpt><trkpt lat="43.29188" lon="12.8782767"><ele>645.6</ele><time>2026-04-11T13:57:17.006Z</time></trkpt><trkpt lat="43.2919617" lon="12.878215"><ele>643.8</ele><time>2026-04-11T13:57:18.006Z</time></trkpt><trkpt lat="43.2920433" lon="12.8781567"><ele>642.0</ele><time>2026-04-11T13:57:19.005Z</time></trkpt><trkpt lat="43.2921233" lon="12.8780917"><ele>642.0</ele><time>2026-04-11T13:57:20.005Z</time></trkpt><trkpt lat="43.2922033" lon="12.878005"><ele>642.0</ele><time>2026-04-11T13:57:21.007Z</time></trkpt><trkpt lat="43.2922867" lon="12.8779267"><ele>642.0</ele><time>2026-04-11T13:57:22.005Z</time></trkpt><trkpt lat="43.29236" lon="12.8778367"><ele>642.0</ele><time>2026-04-11T13:57:23.006Z</time></trkpt><trkpt lat="43.2924417" lon="12.8777633"><ele>642.0</ele><time>2026-04-11T13:57:24.007Z</time></trkpt><trkpt lat="43.2925217" lon="12.877685"><ele>639.5</ele><time>2026-04-11T13:57:25.004Z</time></trkpt><trkpt lat="43.2925983" lon="12.87762"><ele>637.0</ele><time>2026-04-11T13:57:26.005Z</time></trkpt><trkpt lat="43.29267" lon="12.87758"><ele>634.5</ele><time>2026-04-11T13:57:27.008Z</time></trkpt><trkpt lat="43.29274" lon="12.8775517"><ele>632.0</ele><time>2026-04-11T13:57:28.006Z</time></trkpt><trkpt lat="43.2928483" lon="12.87752"><ele>629.5</ele><time>2026-04-11T13:57:30.005Z</time></trkpt><trkpt lat="43.292915" lon="12.8775817"><ele>627.0</ele><time>2026-04-11T13:57:32.007Z</time></trkpt><trkpt lat="43.2928767" lon="12.8777133"><ele>621.3333333333334</ele><time>2026-04-11T13:57:33.007Z</time></trkpt><trkpt lat="43.292845" lon="12.8778133"><ele>615.6666666666666</ele><time>2026-04-11T13:57:34.007Z</time></trkpt><trkpt lat="43.292795" lon="12.87791"><ele>610.0</ele><time>2026-04-11T13:57:35.006Z</time></trkpt><trkpt lat="43.2927617" lon="12.8780067"><ele>604.3333333333333</ele><time>2026-04-11T13:57:36.006Z</time></trkpt><trkpt lat="43.292735" lon="12.8780933"><ele>598.6666666666666</ele><time>2026-04-11T13:57:37.008Z</time></trkpt><trkpt lat="43.2927167" lon="12.8782183"><ele>593.0</ele><time>2026-04-11T13:57:39.007Z</time></trkpt><trkpt lat="43.2927933" lon="12.8781883"><ele>593.0</ele><time>2026-04-11T13:57:41.006Z</time></trkpt><trkpt lat="43.2928633" lon="12.8781467"><ele>593.0</ele><time>2026-04-11T13:57:42.006Z</time></trkpt><trkpt lat="43.2929617" lon="12.8780583"><ele>593.0</ele><time>2026-04-11T13:57:43.006Z</time></trkpt><trkpt lat="43.29305" lon="12.8779933"><ele>593.0</ele><time>2026-04-11T13:57:44.004Z</time></trkpt><trkpt lat="43.293125" lon="12.8779383"><ele>593.0</ele><time>2026-04-11T13:57:45.006Z</time></trkpt><trkpt lat="43.2931933" lon="12.877885"><ele>590.1666666666666</ele><time>2026-04-11T13:57:46.006Z</time></trkpt><trkpt lat="43.2932633" lon="12.8778333"><ele>587.3333333333333</ele><time>2026-04-11T13:57:47.006Z</time></trkpt><trkpt lat="43.29334" lon="12.8777817"><ele>584.5</ele><time>2026-04-11T13:57:48.005Z</time></trkpt><trkpt lat="43.2934267" lon="12.8777333"><ele>581.6666666666666</ele><time>2026-04-11T13:57:49.005Z</time></trkpt><trkpt lat="43.29351" lon="12.877685"><ele>578.8333333333334</ele><time>2026-04-11T13:57:50.005Z</time></trkpt><trkpt lat="43.2935883" lon="12.87762"><ele>576.0</ele><time>2026-04-11T13:57:51.007Z</time></trkpt><trkpt lat="43.2936517" lon="12.87754"><ele>576.0</ele><time>2026-04-11T13:57:52.005Z</time></trkpt><trkpt lat="43.29371" lon="12.8774767"><ele>576.0</ele><time>2026-04-11T13:57:53.006Z</time></trkpt><trkpt lat="43.2937617" lon="12.8774033"><ele>576.0</ele><time>2026-04-11T13:57:54.005Z</time></trkpt><trkpt lat="43.293825" lon="12.877315"><ele>576.0</ele><time>2026-04-11T13:57:55.006Z</time></trkpt><trkpt lat="43.2938833" lon="12.87724"><ele>576.0</ele><time>2026-04-11T13:57:56.005Z</time></trkpt><trkpt lat="43.2939367" lon="12.8771783"><ele>576.0</ele><time>2026-04-11T13:57:57.007Z</time></trkpt><trkpt lat="43.2940017" lon="12.8771283"><ele>563.8</ele><time>2026-04-11T13:57:58.007Z</time></trkpt><trkpt lat="43.29407" lon="12.8770767"><ele>551.6</ele><time>2026-04-11T13:57:59.005Z</time></trkpt><trkpt lat="43.2941217" lon="12.8770183"><ele>539.4</ele><time>2026-04-11T13:58:00.006Z</time></trkpt><trkpt lat="43.2942067" lon="12.8769033"><ele>527.2</ele><time>2026-04-11T13:58:02.006Z</time></trkpt><trkpt lat="43.2943017" lon="12.8768183"><ele>515.0</ele><time>2026-04-11T13:58:04.006Z</time></trkpt><trkpt lat="43.2943667" lon="12.87677"><ele>511.8333333333333</ele><time>2026-04-11T13:58:05.006Z</time></trkpt><trkpt lat="43.2944367" lon="12.87672"><ele>508.66666666666663</ele><time>2026-04-11T13:58:06.005Z</time></trkpt><trkpt lat="43.2945117" lon="12.8766683"><ele>505.5</ele><time>2026-04-11T13:58:07.005Z</time></trkpt><trkpt lat="43.2945867" lon="12.8766283"><ele>502.33333333333337</ele><time>2026-04-11T13:58:08.005Z</time></trkpt><trkpt lat="43.2946683" lon="12.87658"><ele>499.1666666666667</ele><time>2026-04-11T13:58:09.006Z</time></trkpt><trkpt lat="43.2947467" lon="12.876535"><ele>496.0</ele><time>2026-04-11T13:58:10.005Z</time></trkpt><trkpt lat="43.294825" lon="12.8764817"><ele>496.00000000000006</ele><time>2026-04-11T13:58:11.005Z</time></trkpt><trkpt lat="43.2949017" lon="12.87643"><ele>496.0</ele><time>2026-04-11T13:58:12.005Z</time></trkpt><trkpt lat="43.294975" lon="12.876385"><ele>496.0</ele><time>2026-04-11T13:58:13.006Z</time></trkpt><trkpt lat="43.2950433" lon="12.8763267"><ele>496.0</ele><time>2026-04-11T13:58:14.005Z</time></trkpt><trkpt lat="43.2951133" lon="12.8762733"><ele>496.00000000000006</ele><time>2026-04-11T13:58:15.006Z</time></trkpt><trkpt lat="43.295185" lon="12.876215"><ele>496.0</ele><time>2026-04-11T13:58:16.005Z</time></trkpt><trkpt lat="43.2952517" lon="12.8761633"><ele>496.00000000000006</ele><time>2026-04-11T13:58:17.007Z</time></trkpt><trkpt lat="43.2953167" lon="12.8761"><ele>496.0</ele><time>2026-04-11T13:58:18.005Z</time></trkpt><trkpt lat="43.295375" lon="12.8760283"><ele>496.0</ele><time>2026-04-11T13:58:19.005Z</time></trkpt><trkpt lat="43.2954267" lon="12.8759417"><ele>496.0</ele><time>2026-04-11T13:58:20.005Z</time></trkpt><trkpt lat="43.29547" lon="12.8758533"><ele>496.00000000000006</ele><time>2026-04-11T13:58:21.006Z</time></trkpt><trkpt lat="43.2955117" lon="12.87576"><ele>496.0</ele><time>2026-04-11T13:58:22.007Z</time></trkpt><trkpt lat="43.2955517" lon="12.8756583"><ele>491.4</ele><time>2026-04-11T13:58:23.006Z</time></trkpt><trkpt lat="43.295585" lon="12.8755417"><ele>486.8</ele><time>2026-04-11T13:58:24.005Z</time></trkpt><trkpt lat="43.295615" lon="12.8754133"><ele>482.19999999999993</ele><time>2026-04-11T13:58:25.007Z</time></trkpt><trkpt lat="43.29564" lon="12.8752717"><ele>477.59999999999997</ele><time>2026-04-11T13:58:26.007Z</time></trkpt><trkpt lat="43.2956667" lon="12.875125"><ele>473.0</ele><time>2026-04-11T13:58:27.008Z</time></trkpt><trkpt lat="43.2956933" lon="12.87498"><ele>473.0</ele><time>2026-04-11T13:58:28.007Z</time></trkpt><trkpt lat="43.2957167" lon="12.8748333"><ele>472.99999999999994</ele><time>2026-04-11T13:58:29.006Z</time></trkpt><trkpt lat="43.29574" lon="12.8746883"><ele>472.99999999999994</ele><time>2026-04-11T13:58:30.006Z</time></trkpt><trkpt lat="43.29577" lon="12.87456"><ele>473.0</ele><time>2026-04-11T13:58:31.006Z</time></trkpt><trkpt lat="43.295795" lon="12.87445"><ele>473.0</ele><time>2026-04-11T13:58:32.006Z</time></trkpt><trkpt lat="43.295825" lon="12.8743633"><ele>472.79999999999995</ele><time>2026-04-11T13:58:33.008Z</time></trkpt><trkpt lat="43.2958967" lon="12.8742167"><ele>472.59999999999997</ele><time>2026-04-11T13:58:35.007Z</time></trkpt><trkpt lat="43.2959383" lon="12.874145"><ele>472.40000000000003</ele><time>2026-04-11T13:58:36.007Z</time></trkpt><trkpt lat="43.2960183" lon="12.8740233"><ele>472.20000000000005</ele><time>2026-04-11T13:58:38.007Z</time></trkpt><trkpt lat="43.296095" lon="12.8738967"><ele>472.0</ele><time>2026-04-11T13:58:40.007Z</time></trkpt><trkpt lat="43.2961717" lon="12.8737833"><ele>472.00000000000006</ele><time>2026-04-11T13:58:42.007Z</time></trkpt><trkpt lat="43.2962267" lon="12.8737083"><ele>472.0</ele><time>2026-04-11T13:58:44.007Z</time></trkpt><trkpt lat="43.2962633" lon="12.8735783"><ele>472.0</ele><time>2026-04-11T13:59:37.005Z</time></trkpt><trkpt lat="43.2963" lon="12.8734817"><ele>472.0</ele><time>2026-04-11T13:59:39.007Z</time></trkpt><trkpt lat="43.2963517" lon="12.87341"><ele>472.00000000000006</ele><time>2026-04-11T13:59:41.005Z</time></trkpt><trkpt lat="43.2963533" lon="12.8733167"><ele>472.0</ele><time>2026-04-11T13:59:45.007Z</time></trkpt><trkpt lat="43.2962867" lon="12.8732633"><ele>470.40000000000003</ele><time>2026-04-11T13:59:47.005Z</time></trkpt><trkpt lat="43.2962133" lon="12.8732017"><ele>468.80000000000007</ele><time>2026-04-11T13:59:49.007Z</time></trkpt><trkpt lat="43.2961383" lon="12.8731567"><ele>467.2</ele><time>2026-04-11T13:59:51.009Z</time></trkpt><trkpt lat="43.2960517" lon="12.87316"><ele>465.6</ele><time>2026-04-11T13:59:53.007Z</time></trkpt><trkpt lat="43.2959517" lon="12.87318"><ele>464.0</ele><time>2026-04-11T13:59:55.007Z</time></trkpt><trkpt lat="43.29584" lon="12.873205"><ele>463.99999999999994</ele><time>2026-04-11T13:59:57.007Z</time></trkpt><trkpt lat="43.2957217" lon="12.8732333"><ele>464.0</ele><time>2026-04-11T13:59:59.006Z</time></trkpt><trkpt lat="43.2956567" lon="12.8732483"><ele>464.0</ele><time>2026-04-11T14:00:00.02Z</time></trkpt><trkpt lat="43.29559" lon="12.8732683"><ele>464.0</ele><time>2026-04-11T14:00:01.006Z</time></trkpt><trkpt lat="43.295515" lon="12.8732933"><ele>463.99999999999994</ele><time>2026-04-11T14:00:02.003Z</time></trkpt><trkpt lat="43.2954383" lon="12.8733133"><ele>464.0</ele><time>2026-04-11T14:00:03.008Z</time></trkpt><trkpt lat="43.2953717" lon="12.8733333"><ele>466.79999999999995</ele><time>2026-04-11T14:00:04.001Z</time></trkpt><trkpt lat="43.29531" lon="12.8733517"><ele>469.59999999999997</ele><time>2026-04-11T14:00:05.006Z</time></trkpt><trkpt lat="43.2951933" lon="12.8733467"><ele>472.4</ele><time>2026-04-11T14:00:07.008Z</time></trkpt><trkpt lat="43.2950717" lon="12.8733017"><ele>475.2</ele><time>2026-04-11T14:00:09.017Z</time></trkpt><trkpt lat="43.2949717" lon="12.87326"><ele>478.0</ele><time>2026-04-11T14:00:11.007Z</time></trkpt><trkpt lat="43.2950433" lon="12.87333"><ele>478.0</ele><time>2026-04-11T14:00:18.006Z</time></trkpt><trkpt lat="43.295165" lon="12.8733633"><ele>477.99999999999994</ele><time>2026-04-11T14:00:20.007Z</time></trkpt><trkpt lat="43.2952317" lon="12.8733717"><ele>477.99999999999994</ele><time>2026-04-11T14:00:21.01Z</time></trkpt><trkpt lat="43.2953167" lon="12.8733833"><ele>478.0</ele><time>2026-04-11T14:00:22.006Z</time></trkpt><trkpt lat="43.2953967" lon="12.87338"><ele>478.0</ele><time>2026-04-11T14:00:23.002Z</time></trkpt><trkpt lat="43.29549" lon="12.8733717"><ele>478.00000000000006</ele><time>2026-04-11T14:00:24.006Z</time></trkpt><trkpt lat="43.2955767" lon="12.8733617"><ele>478.0</ele><time>2026-04-11T14:00:25.006Z</time></trkpt><trkpt lat="43.2956617" lon="12.8733233"><ele>478.0</ele><time>2026-04-11T14:00:26.007Z</time></trkpt><trkpt lat="43.2957417" lon="12.873295"><ele>478.0</ele><time>2026-04-11T14:00:27.007Z</time></trkpt><trkpt lat="43.2958083" lon="12.8732667"><ele>478.00000000000006</ele><time>2026-04-11T14:00:28.008Z</time></trkpt><trkpt lat="43.2958767" lon="12.873235"><ele>478.0</ele><time>2026-04-11T14:00:29.003Z</time></trkpt><trkpt lat="43.2959433" lon="12.8732133"><ele>475.6666666666667</ele><time>2026-04-11T14:00:30.007Z</time></trkpt><trkpt lat="43.296065" lon="12.873175"><ele>473.33333333333337</ele><time>2026-04-11T14:00:32.007Z</time></trkpt><trkpt lat="43.2961717" lon="12.873185"><ele>471.0</ele><time>2026-04-11T14:00:34.008Z</time></trkpt><trkpt lat="43.2962317" lon="12.873225"><ele>468.66666666666663</ele><time>2026-04-11T14:00:35.007Z</time></trkpt><trkpt lat="43.2962917" lon="12.873265"><ele>466.3333333333333</ele><time>2026-04-11T14:00:36.006Z</time></trkpt><trkpt lat="43.2963533" lon="12.8732933"><ele>464.0</ele><time>2026-04-11T14:00:37.007Z</time></trkpt><trkpt lat="43.2964767" lon="12.873305"><ele>463.0</ele><time>2026-04-11T14:00:39.007Z</time></trkpt><trkpt lat="43.29659" lon="12.87333"><ele>462.0</ele><time>2026-04-11T14:00:41.006Z</time></trkpt><trkpt lat="43.2966783" lon="12.87341"><ele>461.0</ele><time>2026-04-11T14:00:43.007Z</time></trkpt><trkpt lat="43.29673" lon="12.873485"><ele>460.0</ele><time>2026-04-11T14:00:45.006Z</time></trkpt><trkpt lat="43.2967183" lon="12.8735883"><ele>459.0</ele><time>2026-04-11T14:00:49.006Z</time></trkpt><trkpt lat="43.2966767" lon="12.8736967"><ele>459.0</ele><time>2026-04-11T14:00:51.007Z</time></trkpt><trkpt lat="43.2966267" lon="12.8738283"><ele>459.0</ele><time>2026-04-11T14:00:53.007Z</time></trkpt><trkpt lat="43.296575" lon="12.8738983"><ele>459.0</ele><time>2026-04-11T14:00:55.008Z</time></trkpt><trkpt lat="43.296635" lon="12.87385"><ele>459.0</ele><time>2026-04-11T14:01:05Z</time></trkpt><trkpt lat="43.2966883" lon="12.8737233"><ele>459.0</ele><time>2026-04-11T14:01:07.008Z</time></trkpt><trkpt lat="43.2967183" lon="12.8736417"><ele>459.0</ele><time>2026-04-11T14:01:08.008Z</time></trkpt><trkpt lat="43.2967917" lon="12.8735133"><ele>459.0</ele><time>2026-04-11T14:01:10.007Z</time></trkpt><trkpt lat="43.2968767" lon="12.8734367"><ele>459.0</ele><time>2026-04-11T14:01:12.005Z</time></trkpt><trkpt lat="43.29696" lon="12.8733867"><ele>459.0</ele><time>2026-04-11T14:01:14.006Z</time></trkpt><trkpt lat="43.2970183" lon="12.8733533"><ele>459.0</ele><time>2026-04-11T14:01:17.006Z</time></trkpt><trkpt lat="43.2970717" lon="12.87343"><ele>459.0</ele><time>2026-04-11T14:01:21.007Z</time></trkpt><trkpt lat="43.2971033" lon="12.8735417"><ele>459.0</ele><time>2026-04-11T14:01:23.006Z</time></trkpt><trkpt lat="43.2971367" lon="12.8737017"><ele>459.0</ele><time>2026-04-11T14:01:25.006Z</time></trkpt><trkpt lat="43.2971617" lon="12.8737833"><ele>459.0</ele><time>2026-04-11T14:01:26.005Z</time></trkpt><trkpt lat="43.297225" lon="12.87393"><ele>459.0</ele><time>2026-04-11T14:01:28.007Z</time></trkpt><trkpt lat="43.2972683" lon="12.8739967"><ele>459.0</ele><time>2026-04-11T14:01:29.005Z</time></trkpt><trkpt lat="43.297365" lon="12.8741017"><ele>459.0</ele><time>2026-04-11T14:01:31.006Z</time></trkpt><trkpt lat="43.2974233" lon="12.8741367"><ele>459.0</ele><time>2026-04-11T14:01:32.006Z</time></trkpt><trkpt lat="43.2975367" lon="12.8741933"><ele>459.6666666666667</ele><time>2026-04-11T14:01:34.006Z</time></trkpt><trkpt lat="43.29763" lon="12.8742683"><ele>460.33333333333337</ele><time>2026-04-11T14:01:36.006Z</time></trkpt><trkpt lat="43.2976967" lon="12.8743433"><ele>461.0</ele><time>2026-04-11T14:01:38.006Z</time></trkpt><trkpt lat="43.297775" lon="12.87436"><ele>461.6666666666667</ele><time>2026-04-11T14:01:42.006Z</time></trkpt><trkpt lat="43.2978533" lon="12.8743867"><ele>462.33333333333337</ele><time>2026-04-11T14:01:45.006Z</time></trkpt><trkpt lat="43.29794" lon="12.874385"><ele>463.0</ele><time>2026-04-11T14:01:48.005Z</time></trkpt><trkpt lat="43.298005" lon="12.8743783"><ele>464.00000000000006</ele><time>2026-04-11T14:02:11.005Z</time></trkpt><trkpt lat="43.2980667" lon="12.8743983"><ele>465.0</ele><time>2026-04-11T14:02:17.004Z</time></trkpt><trkpt lat="43.29815" lon="12.8744117"><ele>466.0</ele><time>2026-04-11T14:02:22.006Z</time></trkpt><trkpt lat="43.2982517" lon="12.8743833"><ele>467.0</ele><time>2026-04-11T14:03:12.008Z</time></trkpt><trkpt lat="43.2983333" lon="12.8743783"><ele>468.00000000000006</ele><time>2026-04-11T14:03:14.007Z</time></trkpt><trkpt lat="43.298435" lon="12.8743617"><ele>469.0</ele><time>2026-04-11T14:03:16.006Z</time></trkpt><trkpt lat="43.2984983" lon="12.8743667"><ele>472.00000000000006</ele><time>2026-04-11T14:03:17.006Z</time></trkpt><trkpt lat="43.29861" lon="12.8743783"><ele>475.0</ele><time>2026-04-11T14:03:19.006Z</time></trkpt><trkpt lat="43.2986833" lon="12.874375"><ele>478.0</ele><time>2026-04-11T14:03:20.008Z</time></trkpt><trkpt lat="43.2987467" lon="12.8743717"><ele>481.0</ele><time>2026-04-11T14:03:21.008Z</time></trkpt><trkpt lat="43.298815" lon="12.87436"><ele>484.00000000000006</ele><time>2026-04-11T14:03:22.007Z</time></trkpt><trkpt lat="43.2988883" lon="12.8743367"><ele>487.0</ele><time>2026-04-11T14:03:23.007Z</time></trkpt><trkpt lat="43.2989483" lon="12.87431"><ele>489.6</ele><time>2026-04-11T14:03:24.008Z</time></trkpt><trkpt lat="43.2990667" lon="12.8742783"><ele>492.20000000000005</ele><time>2026-04-11T14:03:26.009Z</time></trkpt><trkpt lat="43.2991867" lon="12.8742683"><ele>494.8</ele><time>2026-04-11T14:03:28.009Z</time></trkpt><trkpt lat="43.2992583" lon="12.874265"><ele>497.4</ele><time>2026-04-11T14:03:29.007Z</time></trkpt><trkpt lat="43.2993283" lon="12.8742467"><ele>500.0</ele><time>2026-04-11T14:03:30.008Z</time></trkpt><trkpt lat="43.2994033" lon="12.8742383"><ele>500.0</ele><time>2026-04-11T14:03:31.009Z</time></trkpt><trkpt lat="43.299475" lon="12.8742317"><ele>500.0</ele><time>2026-04-11T14:03:32.008Z</time></trkpt><trkpt lat="43.2995433" lon="12.874215"><ele>500.0</ele><time>2026-04-11T14:03:33.008Z</time></trkpt><trkpt lat="43.29961" lon="12.8742033"><ele>500.0</ele><time>2026-04-11T14:03:34.007Z</time></trkpt><trkpt lat="43.299675" lon="12.8741883"><ele>500.0</ele><time>2026-04-11T14:03:35.007Z</time></trkpt><trkpt lat="43.299745" lon="12.8741767"><ele>500.0</ele><time>2026-04-11T14:03:36.007Z</time></trkpt><trkpt lat="43.29981" lon="12.8741733"><ele>500.0</ele><time>2026-04-11T14:03:37.007Z</time></trkpt><trkpt lat="43.2998783" lon="12.87416"><ele>504.16666666666663</ele><time>2026-04-11T14:03:38.007Z</time></trkpt><trkpt lat="43.299945" lon="12.8741533"><ele>508.3333333333333</ele><time>2026-04-11T14:03:39.009Z</time></trkpt><trkpt lat="43.3000183" lon="12.8741533"><ele>512.5</ele><time>2026-04-11T14:03:40.006Z</time></trkpt><trkpt lat="43.30009" lon="12.874155"><ele>516.6666666666666</ele><time>2026-04-11T14:03:41.008Z</time></trkpt><trkpt lat="43.3001617" lon="12.8741583"><ele>520.8333333333334</ele><time>2026-04-11T14:03:42.006Z</time></trkpt><trkpt lat="43.3002333" lon="12.8741517"><ele>525.0</ele><time>2026-04-11T14:03:43.007Z</time></trkpt><trkpt lat="43.300355" lon="12.8741767"><ele>525.0</ele><time>2026-04-11T14:03:45.007Z</time></trkpt><trkpt lat="43.30042" lon="12.8741867"><ele>525.0</ele><time>2026-04-11T14:03:46.007Z</time></trkpt><trkpt lat="43.3004917" lon="12.8741767"><ele>525.0</ele><time>2026-04-11T14:03:47.006Z</time></trkpt><trkpt lat="43.30057" lon="12.8741567"><ele>525.0</ele><time>2026-04-11T14:03:48.006Z</time></trkpt><trkpt lat="43.30065" lon="12.8741333"><ele>525.0</ele><time>2026-04-11T14:03:49.007Z</time></trkpt><trkpt lat="43.3007317" lon="12.874115"><ele>525.0</ele><time>2026-04-11T14:03:50.006Z</time></trkpt><trkpt lat="43.30081" lon="12.874085"><ele>530.1666666666666</ele><time>2026-04-11T14:03:51.009Z</time></trkpt><trkpt lat="43.3008933" lon="12.8740633"><ele>535.3333333333334</ele><time>2026-04-11T14:03:52.007Z</time></trkpt><trkpt lat="43.3009683" lon="12.8740283"><ele>540.5</ele><time>2026-04-11T14:03:53.008Z</time></trkpt><trkpt lat="43.301045" lon="12.8740017"><ele>545.6666666666667</ele><time>2026-04-11T14:03:54.007Z</time></trkpt><trkpt lat="43.3011233" lon="12.8739917"><ele>550.8333333333334</ele><time>2026-04-11T14:03:55.007Z</time></trkpt><trkpt lat="43.3011967" lon="12.873965"><ele>556.0</ele><time>2026-04-11T14:03:56.007Z</time></trkpt><trkpt lat="43.30128" lon="12.87393"><ele>556.0</ele><time>2026-04-11T14:03:57.008Z</time></trkpt><trkpt lat="43.301365" lon="12.8738917"><ele>556.0</ele><time>2026-04-11T14:03:58.007Z</time></trkpt><trkpt lat="43.30145" lon="12.8738633"><ele>556.0</ele><time>2026-04-11T14:03:59.007Z</time></trkpt><trkpt lat="43.3015367" lon="12.8738583"><ele>556.0</ele><time>2026-04-11T14:04:00.007Z</time></trkpt><trkpt lat="43.3016283" lon="12.873825"><ele>556.0</ele><time>2026-04-11T14:04:01.007Z</time></trkpt><trkpt lat="43.301705" lon="12.8738017"><ele>556.0</ele><time>2026-04-11T14:04:02.007Z</time></trkpt><trkpt lat="43.301785" lon="12.8737833"><ele>560.8333333333334</ele><time>2026-04-11T14:04:03.008Z</time></trkpt><trkpt lat="43.30187" lon="12.873775"><ele>565.6666666666667</ele><time>2026-04-11T14:04:04.002Z</time></trkpt><trkpt lat="43.3019533" lon="12.8737717"><ele>570.5</ele><time>2026-04-11T14:04:05.007Z</time></trkpt><trkpt lat="43.302035" lon="12.8737717"><ele>575.3333333333334</ele><time>2026-04-11T14:04:06.007Z</time></trkpt><trkpt lat="43.302105" lon="12.8737683"><ele>580.1666666666666</ele><time>2026-04-11T14:04:07.008Z</time></trkpt><trkpt lat="43.302175" lon="12.8737717"><ele>585.0</ele><time>2026-04-11T14:04:08.008Z</time></trkpt><trkpt lat="43.3022433" lon="12.8738"><ele>588.5</ele><time>2026-04-11T14:04:09.007Z</time></trkpt><trkpt lat="43.302305" lon="12.8738283"><ele>592.0</ele><time>2026-04-11T14:04:10.006Z</time></trkpt><trkpt lat="43.3023667" lon="12.873855"><ele>595.5</ele><time>2026-04-11T14:04:11.006Z</time></trkpt><trkpt lat="43.3024633" lon="12.873865"><ele>599.0</ele><time>2026-04-11T14:04:13.007Z</time></trkpt><trkpt lat="43.3025683" lon="12.8738667"><ele>602.5</ele><time>2026-04-11T14:04:15.008Z</time></trkpt><trkpt lat="43.3026333" lon="12.8738633"><ele>606.0</ele><time>2026-04-11T14:04:16.007Z</time></trkpt><trkpt lat="43.3027083" lon="12.8738567"><ele>606.0</ele><time>2026-04-11T14:04:17.006Z</time></trkpt><trkpt lat="43.3027933" lon="12.873855"><ele>606.0</ele><time>2026-04-11T14:04:18.007Z</time></trkpt><trkpt lat="43.3028867" lon="12.8738533"><ele>606.0</ele><time>2026-04-11T14:04:19.006Z</time></trkpt><trkpt lat="43.3029833" lon="12.87384"><ele>606.0</ele><time>2026-04-11T14:04:20.007Z</time></trkpt><trkpt lat="43.3030883" lon="12.8738267"><ele>606.0</ele><time>2026-04-11T14:04:21.009Z</time></trkpt><trkpt lat="43.3031867" lon="12.873805"><ele>611.0</ele><time>2026-04-11T14:04:22.006Z</time></trkpt><trkpt lat="43.3032717" lon="12.8737967"><ele>616.0</ele><time>2026-04-11T14:04:23.006Z</time></trkpt><trkpt lat="43.3033517" lon="12.8737867"><ele>621.0</ele><time>2026-04-11T14:04:24.007Z</time></trkpt><trkpt lat="43.3034183" lon="12.87378"><ele>626.0</ele><time>2026-04-11T14:04:25.007Z</time></trkpt><trkpt lat="43.30348" lon="12.8737617"><ele>631.0</ele><time>2026-04-11T14:04:26.006Z</time></trkpt><trkpt lat="43.3035867" lon="12.8736767"><ele>636.0</ele><time>2026-04-11T14:04:28.007Z</time></trkpt><trkpt lat="43.303645" lon="12.8736167"><ele>636.0</ele><time>2026-04-11T14:04:29.006Z</time></trkpt><trkpt lat="43.303705" lon="12.8735533"><ele>636.0</ele><time>2026-04-11T14:04:30.007Z</time></trkpt><trkpt lat="43.3037483" lon="12.8734883"><ele>636.0</ele><time>2026-04-11T14:04:31.007Z</time></trkpt><trkpt lat="43.30381" lon="12.87344"><ele>636.0</ele><time>2026-04-11T14:04:32.007Z</time></trkpt><trkpt lat="43.3038817" lon="12.8734033"><ele>636.0</ele><time>2026-04-11T14:04:33.007Z</time></trkpt><trkpt lat="43.3039417" lon="12.873355"><ele>636.0</ele><time>2026-04-11T14:04:34.007Z</time></trkpt><trkpt lat="43.303995" lon="12.8733083"><ele>636.0</ele><time>2026-04-11T14:04:35.006Z</time></trkpt><trkpt lat="43.30405" lon="12.8732467"><ele>638.1666666666666</ele><time>2026-04-11T14:04:36.007Z</time></trkpt><trkpt lat="43.3041033" lon="12.8731867"><ele>640.3333333333334</ele><time>2026-04-11T14:04:37.006Z</time></trkpt><trkpt lat="43.3041583" lon="12.8731133"><ele>642.5</ele><time>2026-04-11T14:04:38.006Z</time></trkpt><trkpt lat="43.3042217" lon="12.8730233"><ele>644.6666666666667</ele><time>2026-04-11T14:04:39.009Z</time></trkpt><trkpt lat="43.3042833" lon="12.8729483"><ele>646.8333333333334</ele><time>2026-04-11T14:04:40.007Z</time></trkpt><trkpt lat="43.3043717" lon="12.8728467"><ele>649.0</ele><time>2026-04-11T14:04:42.008Z</time></trkpt><trkpt lat="43.3044617" lon="12.8727567"><ele>649.0</ele><time>2026-04-11T14:04:44.006Z</time></trkpt><trkpt lat="43.304515" lon="12.8726883"><ele>649.0</ele><time>2026-04-11T14:04:45.006Z</time></trkpt><trkpt lat="43.304605" lon="12.8726667"><ele>649.0</ele><time>2026-04-11T14:04:47.007Z</time></trkpt><trkpt lat="43.3047283" lon="12.8726583"><ele>649.0</ele><time>2026-04-11T14:04:49.007Z</time></trkpt><trkpt lat="43.304795" lon="12.8726583"><ele>649.0</ele><time>2026-04-11T14:04:50.006Z</time></trkpt><trkpt lat="43.30488" lon="12.8726517"><ele>649.0</ele><time>2026-04-11T14:04:51.008Z</time></trkpt><trkpt lat="43.304945" lon="12.8726583"><ele>653.3333333333334</ele><time>2026-04-11T14:04:52.006Z</time></trkpt><trkpt lat="43.3050267" lon="12.8726883"><ele>657.6666666666667</ele><time>2026-04-11T14:04:53.006Z</time></trkpt><trkpt lat="43.3051067" lon="12.872715"><ele>662.0</ele><time>2026-04-11T14:04:54.005Z</time></trkpt><trkpt lat="43.305185" lon="12.8727583"><ele>666.3333333333334</ele><time>2026-04-11T14:04:55.007Z</time></trkpt><trkpt lat="43.3052617" lon="12.8728017"><ele>670.6666666666666</ele><time>2026-04-11T14:04:56.007Z</time></trkpt><trkpt lat="43.305335" lon="12.872855"><ele>675.0</ele><time>2026-04-11T14:04:57.008Z</time></trkpt><trkpt lat="43.3054" lon="12.8729067"><ele>675.0</ele><time>2026-04-11T14:04:58.006Z</time></trkpt><trkpt lat="43.305465" lon="12.8729533"><ele>675.0</ele><time>2026-04-11T14:04:59.006Z</time></trkpt><trkpt lat="43.3055883" lon="12.8730383"><ele>675.0</ele><time>2026-04-11T14:05:01.006Z</time></trkpt><trkpt lat="43.3056533" lon="12.8730717"><ele>675.0</ele><time>2026-04-11T14:05:02.005Z</time></trkpt><trkpt lat="43.30572" lon="12.8731233"><ele>675.0</ele><time>2026-04-11T14:05:03.007Z</time></trkpt><trkpt lat="43.3057833" lon="12.8731783"><ele>675.0</ele><time>2026-04-11T14:05:04.004Z</time></trkpt><trkpt lat="43.3058433" lon="12.8732217"><ele>675.8333333333334</ele><time>2026-04-11T14:05:05.006Z</time></trkpt><trkpt lat="43.3059" lon="12.8732767"><ele>676.6666666666666</ele><time>2026-04-11T14:05:06.006Z</time></trkpt><trkpt lat="43.305975" lon="12.87335"><ele>677.5</ele><time>2026-04-11T14:05:07.007Z</time></trkpt><trkpt lat="43.3060367" lon="12.8734067"><ele>678.3333333333333</ele><time>2026-04-11T14:05:08.007Z</time></trkpt><trkpt lat="43.3061017" lon="12.8734767"><ele>679.1666666666666</ele><time>2026-04-11T14:05:09.007Z</time></trkpt><trkpt lat="43.3061733" lon="12.8735533"><ele>680.0</ele><time>2026-04-11T14:05:10.008Z</time></trkpt><trkpt lat="43.3062467" lon="12.8736317"><ele>681.8333333333333</ele><time>2026-04-11T14:05:11.006Z</time></trkpt><trkpt lat="43.3063183" lon="12.8737267"><ele>683.6666666666666</ele><time>2026-04-11T14:05:12.007Z</time></trkpt><trkpt lat="43.3063883" lon="12.8737983"><ele>685.5</ele><time>2026-04-11T14:05:13.007Z</time></trkpt><trkpt lat="43.3064533" lon="12.8738767"><ele>687.3333333333334</ele><time>2026-04-11T14:05:14.007Z</time></trkpt><trkpt lat="43.3065067" lon="12.87396"><ele>689.1666666666667</ele><time>2026-04-11T14:05:15.006Z</time></trkpt><trkpt lat="43.3065567" lon="12.8740467"><ele>691.0</ele><time>2026-04-11T14:05:16.005Z</time></trkpt><trkpt lat="43.3066017" lon="12.8741467"><ele>691.0</ele><time>2026-04-11T14:05:17.005Z</time></trkpt><trkpt lat="43.3066483" lon="12.8742417"><ele>691.0</ele><time>2026-04-11T14:05:18.006Z</time></trkpt><trkpt lat="43.3066867" lon="12.87434"><ele>691.0</ele><time>2026-04-11T14:05:19.006Z</time></trkpt><trkpt lat="43.306725" lon="12.874425"><ele>691.0</ele><time>2026-04-11T14:05:20.007Z</time></trkpt><trkpt lat="43.306765" lon="12.8744967"><ele>691.0</ele><time>2026-04-11T14:05:21.009Z</time></trkpt><trkpt lat="43.3068083" lon="12.8745833"><ele>691.0</ele><time>2026-04-11T14:05:22.008Z</time></trkpt><trkpt lat="43.3068517" lon="12.8746783"><ele>694.8</ele><time>2026-04-11T14:05:23.005Z</time></trkpt><trkpt lat="43.3068867" lon="12.8747833"><ele>698.5999999999999</ele><time>2026-04-11T14:05:24.006Z</time></trkpt><trkpt lat="43.3069233" lon="12.8748933"><ele>702.4</ele><time>2026-04-11T14:05:25.006Z</time></trkpt><trkpt lat="43.3069617" lon="12.8749983"><ele>706.2</ele><time>2026-04-11T14:05:26.006Z</time></trkpt><trkpt lat="43.3070067" lon="12.8752"><ele>710.0</ele><time>2026-04-11T14:05:28.005Z</time></trkpt><trkpt lat="43.30703" lon="12.8753217"><ele>712.0</ele><time>2026-04-11T14:05:29.006Z</time></trkpt><trkpt lat="43.3070567" lon="12.875435"><ele>714.0</ele><time>2026-04-11T14:05:30.006Z</time></trkpt><trkpt lat="43.3070917" lon="12.87555"><ele>716.0</ele><time>2026-04-11T14:05:31.006Z</time></trkpt><trkpt lat="43.3071217" lon="12.8756367"><ele>718.0</ele><time>2026-04-11T14:05:32.007Z</time></trkpt><trkpt lat="43.3071667" lon="12.875765"><ele>720.0</ele><time>2026-04-11T14:05:34.007Z</time></trkpt><trkpt lat="43.3071" lon="12.8758617"><ele>722.0</ele><time>2026-04-11T14:08:12.006Z</time></trkpt><trkpt lat="43.3071217" lon="12.8759483"><ele>723.6666666666666</ele><time>2026-04-11T14:10:48.008Z</time></trkpt><trkpt lat="43.3071583" lon="12.8760767"><ele>725.3333333333333</ele><time>2026-04-11T14:10:50.007Z</time></trkpt><trkpt lat="43.3071817" lon="12.87616"><ele>727.0</ele><time>2026-04-11T14:10:51.007Z</time></trkpt><trkpt lat="43.3072133" lon="12.87626"><ele>728.6666666666666</ele><time>2026-04-11T14:10:52.007Z</time></trkpt><trkpt lat="43.30725" lon="12.87637"><ele>730.3333333333334</ele><time>2026-04-11T14:10:53.006Z</time></trkpt><trkpt lat="43.3072917" lon="12.8764833"><ele>732.0</ele><time>2026-04-11T14:10:54.007Z</time></trkpt><trkpt lat="43.3073433" lon="12.8765933"><ele>731.2</ele><time>2026-04-11T14:10:55.007Z</time></trkpt><trkpt lat="43.3074" lon="12.8766967"><ele>730.4000000000001</ele><time>2026-04-11T14:10:56.006Z</time></trkpt><trkpt lat="43.3074617" lon="12.8768117"><ele>729.5999999999999</ele><time>2026-04-11T14:10:57.007Z</time></trkpt><trkpt lat="43.3075383" lon="12.8769267"><ele>728.8</ele><time>2026-04-11T14:10:58.007Z</time></trkpt><trkpt lat="43.307615" lon="12.877045"><ele>728.0</ele><time>2026-04-11T14:10:59.008Z</time></trkpt><trkpt lat="43.307695" lon="12.8771667"><ele>728.0</ele><time>2026-04-11T14:11:00.007Z</time></trkpt><trkpt lat="43.3077717" lon="12.8772917"><ele>728.0</ele><time>2026-04-11T14:11:01.006Z</time></trkpt><trkpt lat="43.30785" lon="12.8774183"><ele>728.0</ele><time>2026-04-11T14:11:02.008Z</time></trkpt><trkpt lat="43.3079283" lon="12.8775383"><ele>728.0</ele><time>2026-04-11T14:11:03.007Z</time></trkpt><trkpt lat="43.308005" lon="12.8776517"><ele>725.0</ele><time>2026-04-11T14:11:04.005Z</time></trkpt><trkpt lat="43.3080867" lon="12.877755"><ele>722.0</ele><time>2026-04-11T14:11:05.006Z</time></trkpt><trkpt lat="43.3081717" lon="12.87785"><ele>719.0</ele><time>2026-04-11T14:11:06.006Z</time></trkpt><trkpt lat="43.3082617" lon="12.8779367"><ele>716.0</ele><time>2026-04-11T14:11:07.001Z</time></trkpt><trkpt lat="43.3083533" lon="12.8780233"><ele>713.0</ele><time>2026-04-11T14:11:08.007Z</time></trkpt><trkpt lat="43.3084467" lon="12.8781233"><ele>713.0</ele><time>2026-04-11T14:11:09.007Z</time></trkpt><trkpt lat="43.3085433" lon="12.8782317"><ele>713.0</ele><time>2026-04-11T14:11:10.008Z</time></trkpt><trkpt lat="43.3086383" lon="12.878345"><ele>713.0</ele><time>2026-04-11T14:11:11.006Z</time></trkpt><trkpt lat="43.308725" lon="12.8784567"><ele>713.0</ele><time>2026-04-11T14:11:12.006Z</time></trkpt><trkpt lat="43.308825" lon="12.878575"><ele>711.25</ele><time>2026-04-11T14:11:13.006Z</time></trkpt><trkpt lat="43.3089133" lon="12.87871"><ele>709.5</ele><time>2026-04-11T14:11:14.007Z</time></trkpt><trkpt lat="43.3090033" lon="12.8788417"><ele>707.75</ele><time>2026-04-11T14:11:15.008Z</time></trkpt><trkpt lat="43.30909" lon="12.8789717"><ele>706.0</ele><time>2026-04-11T14:11:16.007Z</time></trkpt><trkpt lat="43.30917" lon="12.8791167"><ele>706.0</ele><time>2026-04-11T14:11:17.005Z</time></trkpt><trkpt lat="43.30924" lon="12.87926"><ele>706.0</ele><time>2026-04-11T14:11:18.008Z</time></trkpt><trkpt lat="43.309295" lon="12.8793867"><ele>706.0</ele><time>2026-04-11T14:11:19.008Z</time></trkpt><trkpt lat="43.3093367" lon="12.8795183"><ele>706.0</ele><time>2026-04-11T14:11:20.007Z</time></trkpt><trkpt lat="43.3093667" lon="12.879655"><ele>706.0</ele><time>2026-04-11T14:11:21.008Z</time></trkpt><trkpt lat="43.30938" lon="12.8798017"><ele>707.75</ele><time>2026-04-11T14:11:22.007Z</time></trkpt><trkpt lat="43.3093883" lon="12.8799517"><ele>709.5</ele><time>2026-04-11T14:11:23.007Z</time></trkpt><trkpt lat="43.309395" lon="12.8801067"><ele>711.25</ele><time>2026-04-11T14:11:24.006Z</time></trkpt><trkpt lat="43.309405" lon="12.8802717"><ele>713.0</ele><time>2026-04-11T14:11:25.006Z</time></trkpt><trkpt lat="43.309415" lon="12.8804417"><ele>714.5</ele><time>2026-04-11T14:11:26.007Z</time></trkpt><trkpt lat="43.3094233" lon="12.88061"><ele>716.0</ele><time>2026-04-11T14:11:27.009Z</time></trkpt><trkpt lat="43.3094383" lon="12.8807783"><ele>717.5</ele><time>2026-04-11T14:11:28.006Z</time></trkpt><trkpt lat="43.30946" lon="12.8809417"><ele>719.0</ele><time>2026-04-11T14:11:29.005Z</time></trkpt><trkpt lat="43.3094933" lon="12.8811033"><ele>721.25</ele><time>2026-04-11T14:11:30.007Z</time></trkpt><trkpt lat="43.309535" lon="12.8812667"><ele>723.5</ele><time>2026-04-11T14:11:31.007Z</time></trkpt><trkpt lat="43.30959" lon="12.8814383"><ele>725.75</ele><time>2026-04-11T14:11:32.008Z</time></trkpt><trkpt lat="43.3096517" lon="12.8816117"><ele>728.0</ele><time>2026-04-11T14:11:33.008Z</time></trkpt><trkpt lat="43.3097117" lon="12.8817867"><ele>721.5</ele><time>2026-04-11T14:11:34.008Z</time></trkpt><trkpt lat="43.3097783" lon="12.881965"><ele>715.0</ele><time>2026-04-11T14:11:35.009Z</time></trkpt><trkpt lat="43.3098367" lon="12.882145"><ele>708.5</ele><time>2026-04-11T14:11:36.007Z</time></trkpt><trkpt lat="43.3099017" lon="12.8823167"><ele>702.0</ele><time>2026-04-11T14:11:37.007Z</time></trkpt><trkpt lat="43.3099633" lon="12.8824867"><ele>701.5</ele><time>2026-04-11T14:11:38.005Z</time></trkpt><trkpt lat="43.3100083" lon="12.8826517"><ele>701.0</ele><time>2026-04-11T14:11:39.007Z</time></trkpt><trkpt lat="43.3100367" lon="12.8828083"><ele>700.5</ele><time>2026-04-11T14:11:40.005Z</time></trkpt><trkpt lat="43.3100583" lon="12.88297"><ele>700.0</ele><time>2026-04-11T14:11:41.005Z</time></trkpt><trkpt lat="43.3100583" lon="12.8831217"><ele>700.0</ele><time>2026-04-11T14:11:42.006Z</time></trkpt><trkpt lat="43.3100517" lon="12.88327"><ele>700.0</ele><time>2026-04-11T14:11:43.009Z</time></trkpt><trkpt lat="43.3100233" lon="12.88342"><ele>700.0</ele><time>2026-04-11T14:11:44.007Z</time></trkpt><trkpt lat="43.3099983" lon="12.8835667"><ele>700.0</ele><time>2026-04-11T14:11:45.008Z</time></trkpt><trkpt lat="43.3099667" lon="12.8837067"><ele>700.0</ele><time>2026-04-11T14:11:46.008Z</time></trkpt><trkpt lat="43.3099267" lon="12.883855"><ele>700.0</ele><time>2026-04-11T14:11:47.008Z</time></trkpt><trkpt lat="43.3098833" lon="12.883995"><ele>700.0</ele><time>2026-04-11T14:11:48.008Z</time></trkpt><trkpt lat="43.3098317" lon="12.8841083"><ele>700.0</ele><time>2026-04-11T14:11:49.007Z</time></trkpt><trkpt lat="43.3097667" lon="12.884205"><ele>700.0</ele><time>2026-04-11T14:11:50.008Z</time></trkpt><trkpt lat="43.3096967" lon="12.884285"><ele>700.0</ele><time>2026-04-11T14:11:51.008Z</time></trkpt><trkpt lat="43.309625" lon="12.8843617"><ele>700.0</ele><time>2026-04-11T14:11:52.007Z</time></trkpt><trkpt lat="43.3095417" lon="12.8844117"><ele>700.0</ele><time>2026-04-11T14:11:53.006Z</time></trkpt><trkpt lat="43.309455" lon="12.884445"><ele>700.0</ele><time>2026-04-11T14:11:54.007Z</time></trkpt><trkpt lat="43.3093717" lon="12.884475"><ele>700.0</ele><time>2026-04-11T14:11:55.007Z</time></trkpt><trkpt lat="43.30929" lon="12.8845183"><ele>700.0</ele><time>2026-04-11T14:11:56.009Z</time></trkpt><trkpt lat="43.3092117" lon="12.8845683"><ele>700.0</ele><time>2026-04-11T14:11:57.008Z</time></trkpt><trkpt lat="43.3091417" lon="12.8846383"><ele>700.0</ele><time>2026-04-11T14:11:58.007Z</time></trkpt><trkpt lat="43.3091017" lon="12.88478"><ele>700.0</ele><time>2026-04-11T14:11:59.008Z</time></trkpt><trkpt lat="43.30905" lon="12.8849217"><ele>700.0</ele><time>2026-04-11T14:12:00.009Z</time></trkpt><trkpt lat="43.3089983" lon="12.8850667"><ele>700.0</ele><time>2026-04-11T14:12:01.007Z</time></trkpt><trkpt lat="43.3089533" lon="12.88521"><ele>699.4</ele><time>2026-04-11T14:12:02.007Z</time></trkpt><trkpt lat="43.30891" lon="12.8853483"><ele>698.8</ele><time>2026-04-11T14:12:03.009Z</time></trkpt><trkpt lat="43.3088767" lon="12.885485"><ele>698.2</ele><time>2026-04-11T14:12:04.007Z</time></trkpt><trkpt lat="43.3088583" lon="12.885625"><ele>697.6</ele><time>2026-04-11T14:12:05.007Z</time></trkpt><trkpt lat="43.3088567" lon="12.8857733"><ele>697.0</ele><time>2026-04-11T14:12:06.006Z</time></trkpt><trkpt lat="43.3088717" lon="12.885925"><ele>695.8</ele><time>2026-04-11T14:12:07.006Z</time></trkpt><trkpt lat="43.3089017" lon="12.886075"><ele>694.6</ele><time>2026-04-11T14:12:08.007Z</time></trkpt><trkpt lat="43.3089383" lon="12.8861917"><ele>693.4</ele><time>2026-04-11T14:12:09.008Z</time></trkpt><trkpt lat="43.308965" lon="12.88633"><ele>692.1999999999999</ele><time>2026-04-11T14:12:10.008Z</time></trkpt><trkpt lat="43.3089767" lon="12.8864417"><ele>691.0</ele><time>2026-04-11T14:12:11.007Z</time></trkpt><trkpt lat="43.3089767" lon="12.8865367"><ele>691.0</ele><time>2026-04-11T14:12:12.007Z</time></trkpt><trkpt lat="43.308955" lon="12.8866217"><ele>691.0</ele><time>2026-04-11T14:12:13.008Z</time></trkpt><trkpt lat="43.3089133" lon="12.8867083"><ele>691.0</ele><time>2026-04-11T14:12:14.006Z</time></trkpt><trkpt lat="43.3088467" lon="12.8867833"><ele>691.0</ele><time>2026-04-11T14:12:15.008Z</time></trkpt><trkpt lat="43.3087417" lon="12.8868217"><ele>691.0</ele><time>2026-04-11T14:12:16.007Z</time></trkpt><trkpt lat="43.3086183" lon="12.8868433"><ele>687.5</ele><time>2026-04-11T14:12:17.007Z</time></trkpt><trkpt lat="43.3084983" lon="12.8868717"><ele>684.0</ele><time>2026-04-11T14:12:18.008Z</time></trkpt><trkpt lat="43.308375" lon="12.8868933"><ele>680.5</ele><time>2026-04-11T14:12:19.008Z</time></trkpt><trkpt lat="43.308235" lon="12.886905"><ele>677.0</ele><time>2026-04-11T14:12:20.007Z</time></trkpt><trkpt lat="43.3080783" lon="12.8869083"><ele>677.0</ele><time>2026-04-11T14:12:21.008Z</time></trkpt><trkpt lat="43.3079267" lon="12.8869183"><ele>677.0</ele><time>2026-04-11T14:12:22.006Z</time></trkpt><trkpt lat="43.3077967" lon="12.8869283"><ele>677.0</ele><time>2026-04-11T14:12:23.006Z</time></trkpt><trkpt lat="43.30767" lon="12.886925"><ele>677.0</ele><time>2026-04-11T14:12:24.008Z</time></trkpt><trkpt lat="43.3075467" lon="12.8869083"><ele>677.0</ele><time>2026-04-11T14:12:25.007Z</time></trkpt><trkpt lat="43.3074133" lon="12.886875"><ele>677.0</ele><time>2026-04-11T14:12:26.008Z</time></trkpt><trkpt lat="43.3072817" lon="12.88684"><ele>677.0</ele><time>2026-04-11T14:12:27.005Z</time></trkpt><trkpt lat="43.3071517" lon="12.8868083"><ele>677.0</ele><time>2026-04-11T14:12:28.006Z</time></trkpt><trkpt lat="43.30702" lon="12.88678"><ele>683.5</ele><time>2026-04-11T14:12:29.005Z</time></trkpt><trkpt lat="43.306885" lon="12.8867567"><ele>690.0</ele><time>2026-04-11T14:12:30.005Z</time></trkpt><trkpt lat="43.3067533" lon="12.8867317"><ele>696.5</ele><time>2026-04-11T14:12:31.007Z</time></trkpt><trkpt lat="43.306615" lon="12.8867"><ele>703.0</ele><time>2026-04-11T14:12:32.006Z</time></trkpt><trkpt lat="43.3064783" lon="12.8866883"><ele>704.0</ele><time>2026-04-11T14:12:33.007Z</time></trkpt><trkpt lat="43.3063583" lon="12.8866967"><ele>705.0</ele><time>2026-04-11T14:12:34.007Z</time></trkpt><trkpt lat="43.3062433" lon="12.886735"><ele>706.0</ele><time>2026-04-11T14:12:35.008Z</time></trkpt><trkpt lat="43.3061383" lon="12.88681"><ele>707.0</ele><time>2026-04-11T14:12:36.007Z</time></trkpt><trkpt lat="43.3060367" lon="12.886895"><ele>702.0</ele><time>2026-04-11T14:12:37.007Z</time></trkpt><trkpt lat="43.3059333" lon="12.8869967"><ele>697.0</ele><time>2026-04-11T14:12:38.007Z</time></trkpt><trkpt lat="43.30583" lon="12.8871117"><ele>692.0</ele><time>2026-04-11T14:12:39.007Z</time></trkpt><trkpt lat="43.305735" lon="12.887235"><ele>687.0</ele><time>2026-04-11T14:12:40.006Z</time></trkpt><trkpt lat="43.305645" lon="12.88736"><ele>686.0</ele><time>2026-04-11T14:12:41.006Z</time></trkpt><trkpt lat="43.3055567" lon="12.8874933"><ele>685.0</ele><time>2026-04-11T14:12:42.007Z</time></trkpt><trkpt lat="43.3054717" lon="12.8876267"><ele>684.0</ele><time>2026-04-11T14:12:43.006Z</time></trkpt><trkpt lat="43.3053867" lon="12.8877483"><ele>683.0</ele><time>2026-04-11T14:12:44.006Z</time></trkpt><trkpt lat="43.3053033" lon="12.887845"><ele>683.0</ele><time>2026-04-11T14:12:45.007Z</time></trkpt><trkpt lat="43.30523" lon="12.8879317"><ele>683.0</ele><time>2026-04-11T14:12:46.006Z</time></trkpt><trkpt lat="43.305165" lon="12.8880167"><ele>683.0</ele><time>2026-04-11T14:12:47.005Z</time></trkpt><trkpt lat="43.3050983" lon="12.8880983"><ele>683.0</ele><time>2026-04-11T14:12:48.007Z</time></trkpt><trkpt lat="43.3050333" lon="12.8881717"><ele>683.0</ele><time>2026-04-11T14:12:49.007Z</time></trkpt><trkpt lat="43.3049717" lon="12.888245"><ele>683.0</ele><time>2026-04-11T14:12:50.007Z</time></trkpt><trkpt lat="43.3049117" lon="12.8883133"><ele>683.0</ele><time>2026-04-11T14:12:51.008Z</time></trkpt><trkpt lat="43.3048567" lon="12.8883717"><ele>683.0</ele><time>2026-04-11T14:12:52.007Z</time></trkpt><trkpt lat="43.3047767" lon="12.88847"><ele>683.0</ele><time>2026-04-11T14:12:54.007Z</time></trkpt><trkpt lat="43.3047217" lon="12.8885383"><ele>683.0</ele><time>2026-04-11T14:12:56.006Z</time></trkpt><trkpt lat="43.30469" lon="12.8886417"><ele>683.0</ele><time>2026-04-11T14:13:16.007Z</time></trkpt><trkpt lat="43.3045983" lon="12.88863"><ele>683.0</ele><time>2026-04-11T14:14:16.006Z</time></trkpt><trkpt lat="43.304465" lon="12.8886383"><ele>687.4</ele><time>2026-04-11T14:14:18.006Z</time></trkpt><trkpt lat="43.3043883" lon="12.8886283"><ele>691.8</ele><time>2026-04-11T14:14:19.007Z</time></trkpt><trkpt lat="43.304305" lon="12.8885967"><ele>696.2</ele><time>2026-04-11T14:14:20.007Z</time></trkpt><trkpt lat="43.304215" lon="12.888555"><ele>700.6</ele><time>2026-04-11T14:14:21.007Z</time></trkpt><trkpt lat="43.3041167" lon="12.8885033"><ele>705.0</ele><time>2026-04-11T14:14:22.008Z</time></trkpt><trkpt lat="43.3040117" lon="12.88844"><ele>704.0</ele><time>2026-04-11T14:14:23.006Z</time></trkpt><trkpt lat="43.3039017" lon="12.8883783"><ele>703.0</ele><time>2026-04-11T14:14:24.008Z</time></trkpt><trkpt lat="43.3037917" lon="12.8883133"><ele>702.0</ele><time>2026-04-11T14:14:25.007Z</time></trkpt><trkpt lat="43.3036883" lon="12.8882433"><ele>701.0</ele><time>2026-04-11T14:14:26.007Z</time></trkpt><trkpt lat="43.3035867" lon="12.88817"><ele>701.0</ele><time>2026-04-11T14:14:27.006Z</time></trkpt><trkpt lat="43.30349" lon="12.888075"><ele>701.0</ele><time>2026-04-11T14:14:28.008Z</time></trkpt><trkpt lat="43.3034033" lon="12.8879783"><ele>701.0</ele><time>2026-04-11T14:14:29.006Z</time></trkpt><trkpt lat="43.3033217" lon="12.8878983"><ele>701.0</ele><time>2026-04-11T14:14:30.006Z</time></trkpt><trkpt lat="43.303235" lon="12.88784"><ele>701.0</ele><time>2026-04-11T14:14:31.007Z</time></trkpt><trkpt lat="43.3031383" lon="12.8878017"><ele>707.5</ele><time>2026-04-11T14:14:32.007Z</time></trkpt><trkpt lat="43.3030333" lon="12.8877717"><ele>714.0</ele><time>2026-04-11T14:14:33.007Z</time></trkpt><trkpt lat="43.3029283" lon="12.8877333"><ele>720.5</ele><time>2026-04-11T14:14:34.007Z</time></trkpt><trkpt lat="43.3028183" lon="12.8876783"><ele>727.0</ele><time>2026-04-11T14:14:35.005Z</time></trkpt><trkpt lat="43.302705" lon="12.8876167"><ele>719.0</ele><time>2026-04-11T14:14:36.006Z</time></trkpt><trkpt lat="43.302605" lon="12.88754"><ele>711.0</ele><time>2026-04-11T14:14:37.007Z</time></trkpt><trkpt lat="43.3024967" lon="12.88745"><ele>703.0</ele><time>2026-04-11T14:14:38.006Z</time></trkpt><trkpt lat="43.3023867" lon="12.8873683"><ele>695.0</ele><time>2026-04-11T14:14:39.006Z</time></trkpt><trkpt lat="43.3022717" lon="12.8872883"><ele>702.25</ele><time>2026-04-11T14:14:40.007Z</time></trkpt><trkpt lat="43.302155" lon="12.8872033"><ele>709.5</ele><time>2026-04-11T14:14:41.006Z</time></trkpt><trkpt lat="43.3020317" lon="12.887115"><ele>716.75</ele><time>2026-04-11T14:14:42.006Z</time></trkpt><trkpt lat="43.3019133" lon="12.88702"><ele>724.0</ele><time>2026-04-11T14:14:43.008Z</time></trkpt><trkpt lat="43.30179" lon="12.88692"><ele>724.0</ele><time>2026-04-11T14:14:44.008Z</time></trkpt><trkpt lat="43.301665" lon="12.886815"><ele>724.0</ele><time>2026-04-11T14:14:45.006Z</time></trkpt><trkpt lat="43.301535" lon="12.8867033"><ele>724.0</ele><time>2026-04-11T14:14:46.007Z</time></trkpt><trkpt lat="43.3014017" lon="12.8865917"><ele>723.6666666666667</ele><time>2026-04-11T14:14:47.006Z</time></trkpt><trkpt lat="43.3012633" lon="12.88648"><ele>723.3333333333334</ele><time>2026-04-11T14:14:48.006Z</time></trkpt><trkpt lat="43.3011233" lon="12.8863667"><ele>723.0</ele><time>2026-04-11T14:14:49.006Z</time></trkpt><trkpt lat="43.3009883" lon="12.88625"><ele>723.0</ele><time>2026-04-11T14:14:50.006Z</time></trkpt><trkpt lat="43.300855" lon="12.8861267"><ele>723.0</ele><time>2026-04-11T14:14:51.007Z</time></trkpt><trkpt lat="43.300725" lon="12.8860033"><ele>723.0</ele><time>2026-04-11T14:14:52.007Z</time></trkpt><trkpt lat="43.3005967" lon="12.8858817"><ele>722.0</ele><time>2026-04-11T14:14:53.006Z</time></trkpt><trkpt lat="43.3004767" lon="12.8857533"><ele>721.0</ele><time>2026-04-11T14:14:54.005Z</time></trkpt><trkpt lat="43.30036" lon="12.8856233"><ele>720.0</ele><time>2026-04-11T14:14:55.006Z</time></trkpt><trkpt lat="43.3002333" lon="12.8855"><ele>720.0</ele><time>2026-04-11T14:14:56.007Z</time></trkpt><trkpt lat="43.3001017" lon="12.88538"><ele>720.0</ele><time>2026-04-11T14:14:57.007Z</time></trkpt><trkpt lat="43.2999667" lon="12.885265"><ele>720.0</ele><time>2026-04-11T14:14:58.007Z</time></trkpt><trkpt lat="43.2998333" lon="12.8851583"><ele>719.6666666666666</ele><time>2026-04-11T14:14:59.006Z</time></trkpt><trkpt lat="43.2996967" lon="12.8850533"><ele>719.3333333333333</ele><time>2026-04-11T14:15:00.007Z</time></trkpt><trkpt lat="43.29956" lon="12.8849517"><ele>719.0</ele><time>2026-04-11T14:15:01.008Z</time></trkpt><trkpt lat="43.2994233" lon="12.88485"><ele>719.0</ele><time>2026-04-11T14:15:02.006Z</time></trkpt><trkpt lat="43.2992917" lon="12.88475"><ele>719.0</ele><time>2026-04-11T14:15:03.007Z</time></trkpt><trkpt lat="43.2991567" lon="12.8846483"><ele>719.0</ele><time>2026-04-11T14:15:04.006Z</time></trkpt><trkpt lat="43.29902" lon="12.884545"><ele>725.6666666666666</ele><time>2026-04-11T14:15:05.005Z</time></trkpt><trkpt lat="43.29888" lon="12.88445"><ele>732.3333333333334</ele><time>2026-04-11T14:15:06.006Z</time></trkpt><trkpt lat="43.2987433" lon="12.8843567"><ele>739.0</ele><time>2026-04-11T14:15:07.007Z</time></trkpt><trkpt lat="43.2986" lon="12.8842667"><ele>729.0</ele><time>2026-04-11T14:15:08.007Z</time></trkpt><trkpt lat="43.29846" lon="12.884175"><ele>719.0</ele><time>2026-04-11T14:15:09.006Z</time></trkpt><trkpt lat="43.2983133" lon="12.88409"><ele>709.0</ele><time>2026-04-11T14:15:10.007Z</time></trkpt><trkpt lat="43.2981667" lon="12.8840083"><ele>714.0</ele><time>2026-04-11T14:15:11.006Z</time></trkpt><trkpt lat="43.2980183" lon="12.8839333"><ele>719.0</ele><time>2026-04-11T14:15:12.005Z</time></trkpt><trkpt lat="43.2978733" lon="12.88386"><ele>724.0</ele><time>2026-04-11T14:15:13.007Z</time></trkpt><trkpt lat="43.2977267" lon="12.88379"><ele>724.0</ele><time>2026-04-11T14:15:14.007Z</time></trkpt><trkpt lat="43.2975783" lon="12.8837267"><ele>724.0</ele><time>2026-04-11T14:15:15.006Z</time></trkpt><trkpt lat="43.2974067" lon="12.883685"><ele>724.0</ele><time>2026-04-11T14:15:16.008Z</time></trkpt><trkpt lat="43.2972683" lon="12.8836383"><ele>723.25</ele><time>2026-04-11T14:15:17.006Z</time></trkpt><trkpt lat="43.297135" lon="12.8835967"><ele>722.5</ele><time>2026-04-11T14:15:18.007Z</time></trkpt><trkpt lat="43.2970083" lon="12.8835533"><ele>721.75</ele><time>2026-04-11T14:15:19.007Z</time></trkpt><trkpt lat="43.2968817" lon="12.8835233"><ele>721.0</ele><time>2026-04-11T14:15:20.007Z</time></trkpt><trkpt lat="43.2967617" lon="12.8835083"><ele>721.0</ele><time>2026-04-11T14:15:21.007Z</time></trkpt><trkpt lat="43.29665" lon="12.88351"><ele>721.0</ele><time>2026-04-11T14:15:22.006Z</time></trkpt><trkpt lat="43.2965417" lon="12.8835383"><ele>721.0</ele><time>2026-04-11T14:15:23.007Z</time></trkpt><trkpt lat="43.296435" lon="12.88359"><ele>721.0</ele><time>2026-04-11T14:15:24.007Z</time></trkpt><trkpt lat="43.2963367" lon="12.8836667"><ele>721.0</ele><time>2026-04-11T14:15:25.007Z</time></trkpt><trkpt lat="43.29625" lon="12.8837683"><ele>720.5</ele><time>2026-04-11T14:15:26.007Z</time></trkpt><trkpt lat="43.29617" lon="12.8838983"><ele>720.0</ele><time>2026-04-11T14:15:27.009Z</time></trkpt><trkpt lat="43.2960933" lon="12.884055"><ele>719.5</ele><time>2026-04-11T14:15:28.007Z</time></trkpt><trkpt lat="43.2960167" lon="12.88422"><ele>719.0</ele><time>2026-04-11T14:15:29.005Z</time></trkpt><trkpt lat="43.2959383" lon="12.8843817"><ele>719.0</ele><time>2026-04-11T14:15:30.01Z</time></trkpt><trkpt lat="43.2958567" lon="12.8845467"><ele>719.0</ele><time>2026-04-11T14:15:31.007Z</time></trkpt><trkpt lat="43.295775" lon="12.88471"><ele>719.0</ele><time>2026-04-11T14:15:32.006Z</time></trkpt><trkpt lat="43.2956933" lon="12.8848633"><ele>719.0</ele><time>2026-04-11T14:15:33.008Z</time></trkpt><trkpt lat="43.2956083" lon="12.8850017"><ele>719.25</ele><time>2026-04-11T14:15:34Z</time></trkpt><trkpt lat="43.2955183" lon="12.88511"><ele>719.5</ele><time>2026-04-11T14:15:35.006Z</time></trkpt><trkpt lat="43.295415" lon="12.8851883"><ele>719.75</ele><time>2026-04-11T14:15:36.004Z</time></trkpt><trkpt lat="43.2953067" lon="12.8852567"><ele>720.0</ele><time>2026-04-11T14:15:37.007Z</time></trkpt><trkpt lat="43.295185" lon="12.8853117"><ele>720.0</ele><time>2026-04-11T14:15:38.007Z</time></trkpt><trkpt lat="43.29506" lon="12.8853733"><ele>720.0</ele><time>2026-04-11T14:15:39.007Z</time></trkpt><trkpt lat="43.2949383" lon="12.8854483"><ele>720.0</ele><time>2026-04-11T14:15:40.006Z</time></trkpt><trkpt lat="43.2948167" lon="12.8855283"><ele>720.0</ele><time>2026-04-11T14:15:41.007Z</time></trkpt><trkpt lat="43.2946967" lon="12.8856117"><ele>718.0</ele><time>2026-04-11T14:15:42.007Z</time></trkpt><trkpt lat="43.2945833" lon="12.8857133"><ele>716.0</ele><time>2026-04-11T14:15:43.007Z</time></trkpt><trkpt lat="43.2944717" lon="12.8858183"><ele>714.0</ele><time>2026-04-11T14:15:44.007Z</time></trkpt><trkpt lat="43.2943667" lon="12.88593"><ele>712.0</ele><time>2026-04-11T14:15:45.008Z</time></trkpt><trkpt lat="43.29426" lon="12.886045"><ele>712.0</ele><time>2026-04-11T14:15:46.007Z</time></trkpt><trkpt lat="43.2941583" lon="12.88617"><ele>712.0</ele><time>2026-04-11T14:15:47.007Z</time></trkpt><trkpt lat="43.29406" lon="12.886295"><ele>712.0</ele><time>2026-04-11T14:15:48.006Z</time></trkpt><trkpt lat="43.29396" lon="12.88643"><ele>712.0</ele><time>2026-04-11T14:15:49.008Z</time></trkpt><trkpt lat="43.2938583" lon="12.8865633"><ele>709.0</ele><time>2026-04-11T14:15:50.008Z</time></trkpt><trkpt lat="43.2937567" lon="12.8867033"><ele>706.0</ele><time>2026-04-11T14:15:51.007Z</time></trkpt><trkpt lat="43.293655" lon="12.8868467"><ele>703.0</ele><time>2026-04-11T14:15:52.007Z</time></trkpt><trkpt lat="43.2935567" lon="12.8869967"><ele>700.0</ele><time>2026-04-11T14:15:53.006Z</time></trkpt><trkpt lat="43.2934633" lon="12.8871617"><ele>700.0</ele><time>2026-04-11T14:15:54.006Z</time></trkpt><trkpt lat="43.2933683" lon="12.8873283"><ele>700.0</ele><time>2026-04-11T14:15:55.006Z</time></trkpt><trkpt lat="43.293275" lon="12.8874983"><ele>700.0</ele><time>2026-04-11T14:15:56.008Z</time></trkpt><trkpt lat="43.293185" lon="12.8876767"><ele>703.3333333333334</ele><time>2026-04-11T14:15:57.007Z</time></trkpt><trkpt lat="43.2930983" lon="12.88786"><ele>706.6666666666666</ele><time>2026-04-11T14:15:58.006Z</time></trkpt><trkpt lat="43.293015" lon="12.8880467"><ele>710.0</ele><time>2026-04-11T14:15:59.006Z</time></trkpt><trkpt lat="43.2929333" lon="12.888235"><ele>704.0</ele><time>2026-04-11T14:16:00.008Z</time></trkpt><trkpt lat="43.2928533" lon="12.8884183"><ele>698.0</ele><time>2026-04-11T14:16:01.007Z</time></trkpt><trkpt lat="43.2927667" lon="12.8885933"><ele>692.0</ele><time>2026-04-11T14:16:02.007Z</time></trkpt><trkpt lat="43.2926867" lon="12.8887667"><ele>692.0</ele><time>2026-04-11T14:16:03.008Z</time></trkpt><trkpt lat="43.2926117" lon="12.888945"><ele>692.0</ele><time>2026-04-11T14:16:04.007Z</time></trkpt><trkpt lat="43.2925383" lon="12.88911"><ele>692.0</ele><time>2026-04-11T14:16:05.006Z</time></trkpt><trkpt lat="43.2924733" lon="12.8892567"><ele>692.0</ele><time>2026-04-11T14:16:06.007Z</time></trkpt><trkpt lat="43.2924183" lon="12.889395"><ele>693.8333333333333</ele><time>2026-04-11T14:16:07.006Z</time></trkpt><trkpt lat="43.2923867" lon="12.8895233"><ele>695.6666666666666</ele><time>2026-04-11T14:16:08.007Z</time></trkpt><trkpt lat="43.2923617" lon="12.8896417"><ele>697.5</ele><time>2026-04-11T14:16:09.008Z</time></trkpt><trkpt lat="43.2923233" lon="12.88975"><ele>699.3333333333334</ele><time>2026-04-11T14:16:10.008Z</time></trkpt><trkpt lat="43.2922767" lon="12.88984"><ele>701.1666666666667</ele><time>2026-04-11T14:16:11.005Z</time></trkpt><trkpt lat="43.2922267" lon="12.8899083"><ele>703.0</ele><time>2026-04-11T14:16:12.005Z</time></trkpt><trkpt lat="43.2921617" lon="12.8899267"><ele>703.0</ele><time>2026-04-11T14:16:14.006Z</time></trkpt><trkpt lat="43.292225" lon="12.8899217"><ele>703.0</ele><time>2026-04-11T14:16:32.005Z</time></trkpt><trkpt lat="43.2922867" lon="12.8900183"><ele>703.0</ele><time>2026-04-11T14:16:35.006Z</time></trkpt><trkpt lat="43.2923067" lon="12.8901083"><ele>703.0</ele><time>2026-04-11T14:16:37.007Z</time></trkpt><trkpt lat="43.2923167" lon="12.890195"><ele>703.0</ele><time>2026-04-11T14:16:39.007Z</time></trkpt><trkpt lat="43.2923567" lon="12.8902883"><ele>703.0</ele><time>2026-04-11T14:16:41.006Z</time></trkpt><trkpt lat="43.2923833" lon="12.8903917"><ele>703.0</ele><time>2026-04-11T14:16:43.003Z</time></trkpt><trkpt lat="43.2924217" lon="12.8904917"><ele>704.1666666666667</ele><time>2026-04-11T14:16:45.007Z</time></trkpt><trkpt lat="43.2924517" lon="12.8906083"><ele>705.3333333333334</ele><time>2026-04-11T14:16:48.006Z</time></trkpt><trkpt lat="43.2925183" lon="12.890675"><ele>706.5</ele><time>2026-04-11T14:16:50.007Z</time></trkpt><trkpt lat="43.2925617" lon="12.8907517"><ele>707.6666666666666</ele><time>2026-04-11T14:16:52.006Z</time></trkpt><trkpt lat="43.2926367" lon="12.8908717"><ele>708.8333333333333</ele><time>2026-04-11T14:16:54.003Z</time></trkpt><trkpt lat="43.2926833" lon="12.89095"><ele>710.0</ele><time>2026-04-11T14:16:55.006Z</time></trkpt><trkpt lat="43.292735" lon="12.8910483"><ele>710.5</ele><time>2026-04-11T14:16:56.007Z</time></trkpt><trkpt lat="43.29279" lon="12.8911467"><ele>711.0</ele><time>2026-04-11T14:16:57.01Z</time></trkpt><trkpt lat="43.29284" lon="12.89122"><ele>711.5</ele><time>2026-04-11T14:16:58.008Z</time></trkpt><trkpt lat="43.2928983" lon="12.8912717"><ele>712.0</ele><time>2026-04-11T14:16:59.007Z</time></trkpt><trkpt lat="43.293" lon="12.891315"><ele>712.5</ele><time>2026-04-11T14:17:01.007Z</time></trkpt><trkpt lat="43.293095" lon="12.8912783"><ele>713.0</ele><time>2026-04-11T14:17:03.007Z</time></trkpt><trkpt lat="43.2931817" lon="12.8912283"><ele>715.0</ele><time>2026-04-11T14:17:05.006Z</time></trkpt><trkpt lat="43.2932783" lon="12.8911767"><ele>717.0</ele><time>2026-04-11T14:17:07.007Z</time></trkpt><trkpt lat="43.2933867" lon="12.8911317"><ele>719.0</ele><time>2026-04-11T14:17:09.008Z</time></trkpt><trkpt lat="43.2934867" lon="12.8911183"><ele>721.0</ele><time>2026-04-11T14:17:11.007Z</time></trkpt><trkpt lat="43.2935683" lon="12.8911783"><ele>723.0</ele><time>2026-04-11T14:17:13.008Z</time></trkpt><trkpt lat="43.2936" lon="12.89127"><ele>723.0</ele><time>2026-04-11T14:17:14.008Z</time></trkpt><trkpt lat="43.2936683" lon="12.891375"><ele>723.0</ele><time>2026-04-11T14:17:16.006Z</time></trkpt><trkpt lat="43.2937367" lon="12.8915017"><ele>723.0</ele><time>2026-04-11T14:22:11.005Z</time></trkpt><trkpt lat="43.2937267" lon="12.8916217"><ele>723.0</ele><time>2026-04-11T14:22:13.006Z</time></trkpt><trkpt lat="43.2937233" lon="12.89173"><ele>723.0</ele><time>2026-04-11T14:22:14.005Z</time></trkpt><trkpt lat="43.2937283" lon="12.8918533"><ele>722.0</ele><time>2026-04-11T14:22:15.007Z</time></trkpt><trkpt lat="43.2937417" lon="12.8919767"><ele>721.0</ele><time>2026-04-11T14:22:16.007Z</time></trkpt><trkpt lat="43.2937667" lon="12.8921033"><ele>720.0</ele><time>2026-04-11T14:22:17.001Z</time></trkpt><trkpt lat="43.2938" lon="12.89223"><ele>719.0</ele><time>2026-04-11T14:22:18Z</time></trkpt><trkpt lat="43.2938317" lon="12.892355"><ele>718.0</ele><time>2026-04-11T14:22:19.003Z</time></trkpt><trkpt lat="43.2938517" lon="12.8924733"><ele>718.0</ele><time>2026-04-11T14:22:20Z</time></trkpt><trkpt lat="43.293855" lon="12.8925833"><ele>718.0</ele><time>2026-04-11T14:22:21.009Z</time></trkpt><trkpt lat="43.2938467" lon="12.8926783"><ele>718.0</ele><time>2026-04-11T14:22:22.006Z</time></trkpt><trkpt lat="43.2937667" lon="12.892805"><ele>718.0</ele><time>2026-04-11T14:22:24.006Z</time></trkpt><trkpt lat="43.2937" lon="12.8928317"><ele>718.0</ele><time>2026-04-11T14:22:25.006Z</time></trkpt><trkpt lat="43.2936133" lon="12.89283"><ele>718.0</ele><time>2026-04-11T14:22:26.005Z</time></trkpt><trkpt lat="43.293515" lon="12.89283"><ele>715.75</ele><time>2026-04-11T14:22:27.007Z</time></trkpt><trkpt lat="43.2934017" lon="12.892835"><ele>713.5</ele><time>2026-04-11T14:22:28.008Z</time></trkpt><trkpt lat="43.29328" lon="12.8928517"><ele>711.25</ele><time>2026-04-11T14:22:29.005Z</time></trkpt><trkpt lat="43.2931517" lon="12.8928733"><ele>709.0</ele><time>2026-04-11T14:22:30.006Z</time></trkpt><trkpt lat="43.2930233" lon="12.8928967"><ele>707.0</ele><time>2026-04-11T14:22:31.007Z</time></trkpt><trkpt lat="43.2928883" lon="12.8929267"><ele>705.0</ele><time>2026-04-11T14:22:32.007Z</time></trkpt><trkpt lat="43.2927533" lon="12.8929567"><ele>703.0</ele><time>2026-04-11T14:22:33.006Z</time></trkpt><trkpt lat="43.2926167" lon="12.8929833"><ele>701.0</ele><time>2026-04-11T14:22:34.007Z</time></trkpt><trkpt lat="43.2924783" lon="12.8930067"><ele>701.0</ele><time>2026-04-11T14:22:35.008Z</time></trkpt><trkpt lat="43.2923367" lon="12.893015"><ele>701.0</ele><time>2026-04-11T14:22:36.002Z</time></trkpt><trkpt lat="43.2921967" lon="12.893015"><ele>701.0</ele><time>2026-04-11T14:22:37.008Z</time></trkpt><trkpt lat="43.2920583" lon="12.89301"><ele>701.0</ele><time>2026-04-11T14:22:38.006Z</time></trkpt><trkpt lat="43.291915" lon="12.893005"><ele>699.25</ele><time>2026-04-11T14:22:39.008Z</time></trkpt><trkpt lat="43.291765" lon="12.8929983"><ele>697.5</ele><time>2026-04-11T14:22:40.006Z</time></trkpt><trkpt lat="43.2916167" lon="12.8929933"><ele>695.75</ele><time>2026-04-11T14:22:41.006Z</time></trkpt><trkpt lat="43.2914733" lon="12.8929833"><ele>694.0</ele><time>2026-04-11T14:22:42.007Z</time></trkpt><trkpt lat="43.2913317" lon="12.8929633"><ele>690.25</ele><time>2026-04-11T14:22:43.006Z</time></trkpt><trkpt lat="43.2911917" lon="12.8929333"><ele>686.5</ele><time>2026-04-11T14:22:44.007Z</time></trkpt><trkpt lat="43.2910567" lon="12.8928867"><ele>682.75</ele><time>2026-04-11T14:22:45.006Z</time></trkpt><trkpt lat="43.29093" lon="12.892835"><ele>679.0</ele><time>2026-04-11T14:22:46.006Z</time></trkpt><trkpt lat="43.290805" lon="12.8927833"><ele>679.0</ele><time>2026-04-11T14:22:47.006Z</time></trkpt><trkpt lat="43.2906883" lon="12.8927267"><ele>679.0</ele><time>2026-04-11T14:22:48.007Z</time></trkpt><trkpt lat="43.29058" lon="12.892665"><ele>679.0</ele><time>2026-04-11T14:22:49.008Z</time></trkpt><trkpt lat="43.2904833" lon="12.892595"><ele>679.0</ele><time>2026-04-11T14:22:50.007Z</time></trkpt><trkpt lat="43.2903983" lon="12.8925217"><ele>678.5</ele><time>2026-04-11T14:22:51.008Z</time></trkpt><trkpt lat="43.2903333" lon="12.8924417"><ele>678.0</ele><time>2026-04-11T14:22:52.007Z</time></trkpt><trkpt lat="43.2902783" lon="12.89238"><ele>677.5</ele><time>2026-04-11T14:22:53.006Z</time></trkpt><trkpt lat="43.29017" lon="12.8923517"><ele>677.0</ele><time>2026-04-11T14:22:55.007Z</time></trkpt><trkpt lat="43.2901267" lon="12.892445"><ele>676.5</ele><time>2026-04-11T14:22:57.008Z</time></trkpt><trkpt lat="43.2901817" lon="12.89255"><ele>676.0</ele><time>2026-04-11T14:22:58.006Z</time></trkpt><trkpt lat="43.2902433" lon="12.8926483"><ele>674.0</ele><time>2026-04-11T14:22:59.006Z</time></trkpt><trkpt lat="43.290315" lon="12.8927633"><ele>672.0</ele><time>2026-04-11T14:23:00.007Z</time></trkpt><trkpt lat="43.29039" lon="12.8929117"><ele>670.0</ele><time>2026-04-11T14:23:01.005Z</time></trkpt><trkpt lat="43.29046" lon="12.8930567"><ele>668.0</ele><time>2026-04-11T14:23:02.006Z</time></trkpt><trkpt lat="43.290525" lon="12.8931967"><ele>668.0</ele><time>2026-04-11T14:23:03.007Z</time></trkpt><trkpt lat="43.29059" lon="12.89333"><ele>668.0</ele><time>2026-04-11T14:23:04.006Z</time></trkpt><trkpt lat="43.2906583" lon="12.89345"><ele>668.0</ele><time>2026-04-11T14:23:05.008Z</time></trkpt><trkpt lat="43.2907333" lon="12.893555"><ele>668.0</ele><time>2026-04-11T14:23:06.008Z</time></trkpt><trkpt lat="43.2908183" lon="12.8936383"><ele>668.0</ele><time>2026-04-11T14:23:07.006Z</time></trkpt><trkpt lat="43.29091" lon="12.89371"><ele>667.1666666666666</ele><time>2026-04-11T14:23:08.006Z</time></trkpt><trkpt lat="43.2910017" lon="12.89377"><ele>666.3333333333333</ele><time>2026-04-11T14:23:09.007Z</time></trkpt><trkpt lat="43.2910783" lon="12.8938317"><ele>665.5</ele><time>2026-04-11T14:23:10.007Z</time></trkpt><trkpt lat="43.2911383" lon="12.8939"><ele>664.6666666666666</ele><time>2026-04-11T14:23:11.006Z</time></trkpt><trkpt lat="43.291175" lon="12.8939783"><ele>663.8333333333334</ele><time>2026-04-11T14:23:12.005Z</time></trkpt><trkpt lat="43.291155" lon="12.8941283"><ele>663.0</ele><time>2026-04-11T14:23:14.006Z</time></trkpt><trkpt lat="43.2911017" lon="12.8941767"><ele>663.0</ele><time>2026-04-11T14:23:15.007Z</time></trkpt><trkpt lat="43.2910183" lon="12.894215"><ele>663.0</ele><time>2026-04-11T14:23:16.006Z</time></trkpt><trkpt lat="43.2909167" lon="12.894255"><ele>663.0</ele><time>2026-04-11T14:23:17.005Z</time></trkpt><trkpt lat="43.29081" lon="12.8943133"><ele>663.0</ele><time>2026-04-11T14:23:18.007Z</time></trkpt><trkpt lat="43.290705" lon="12.894385"><ele>663.0</ele><time>2026-04-11T14:23:19.006Z</time></trkpt><trkpt lat="43.2906083" lon="12.894455"><ele>665.0</ele><time>2026-04-11T14:23:20.008Z</time></trkpt><trkpt lat="43.2905233" lon="12.8945183"><ele>667.0</ele><time>2026-04-11T14:23:21.007Z</time></trkpt><trkpt lat="43.2904483" lon="12.8945633"><ele>669.0</ele><time>2026-04-11T14:23:22.006Z</time></trkpt><trkpt lat="43.29038" lon="12.8945917"><ele>671.0</ele><time>2026-04-11T14:23:23.006Z</time></trkpt><trkpt lat="43.2902867" lon="12.89462"><ele>673.0</ele><time>2026-04-11T14:23:25.006Z</time></trkpt><trkpt lat="43.2903017" lon="12.8947233"><ele>675.0</ele><time>2026-04-11T14:23:29.005Z</time></trkpt><trkpt lat="43.2904083" lon="12.894765"><ele>675.0</ele><time>2026-04-11T14:23:31.007Z</time></trkpt><trkpt lat="43.2904767" lon="12.8947967"><ele>675.0</ele><time>2026-04-11T14:23:32.007Z</time></trkpt><trkpt lat="43.2905483" lon="12.89485"><ele>675.0</ele><time>2026-04-11T14:23:33.006Z</time></trkpt><trkpt lat="43.2906183" lon="12.89493"><ele>675.0</ele><time>2026-04-11T14:23:34.006Z</time></trkpt><trkpt lat="43.2906933" lon="12.8950067"><ele>675.0</ele><time>2026-04-11T14:23:35.006Z</time></trkpt><trkpt lat="43.2907667" lon="12.8950683"><ele>675.0</ele><time>2026-04-11T14:23:36.005Z</time></trkpt><trkpt lat="43.29083" lon="12.8951167"><ele>670.6</ele><time>2026-04-11T14:23:37.008Z</time></trkpt><trkpt lat="43.2908933" lon="12.8951583"><ele>666.2</ele><time>2026-04-11T14:23:38.006Z</time></trkpt><trkpt lat="43.2909633" lon="12.8951717"><ele>661.8</ele><time>2026-04-11T14:23:39.008Z</time></trkpt><trkpt lat="43.2910433" lon="12.8951533"><ele>657.4</ele><time>2026-04-11T14:23:40.005Z</time></trkpt><trkpt lat="43.2911467" lon="12.8951017"><ele>653.0</ele><time>2026-04-11T14:23:41.006Z</time></trkpt><trkpt lat="43.2912583" lon="12.89504"><ele>653.0</ele><time>2026-04-11T14:23:42.005Z</time></trkpt><trkpt lat="43.2913617" lon="12.8950083"><ele>653.0</ele><time>2026-04-11T14:23:43.006Z</time></trkpt><trkpt lat="43.2914567" lon="12.8950167"><ele>653.0</ele><time>2026-04-11T14:23:44.002Z</time></trkpt><trkpt lat="43.2915483" lon="12.8950817"><ele>653.0</ele><time>2026-04-11T14:23:45.006Z</time></trkpt><trkpt lat="43.2916433" lon="12.8951867"><ele>653.0</ele><time>2026-04-11T14:23:46.006Z</time></trkpt><trkpt lat="43.2917467" lon="12.8952883"><ele>647.75</ele><time>2026-04-11T14:23:47.006Z</time></trkpt><trkpt lat="43.2918533" lon="12.8954"><ele>642.5</ele><time>2026-04-11T14:23:48.007Z</time></trkpt><trkpt lat="43.291955" lon="12.8955117"><ele>637.25</ele><time>2026-04-11T14:23:49.009Z</time></trkpt><trkpt lat="43.29205" lon="12.8956133"><ele>632.0</ele><time>2026-04-11T14:23:50.007Z</time></trkpt><trkpt lat="43.29214" lon="12.89572"><ele>632.0</ele><time>2026-04-11T14:23:51.007Z</time></trkpt><trkpt lat="43.2922283" lon="12.89582"><ele>632.0</ele><time>2026-04-11T14:23:52.009Z</time></trkpt><trkpt lat="43.292315" lon="12.8959083"><ele>632.0</ele><time>2026-04-11T14:23:53.007Z</time></trkpt><trkpt lat="43.2924" lon="12.8960017"><ele>632.0</ele><time>2026-04-11T14:23:54.007Z</time></trkpt><trkpt lat="43.2924833" lon="12.8960983"><ele>632.0</ele><time>2026-04-11T14:23:55.006Z</time></trkpt><trkpt lat="43.292565" lon="12.896195"><ele>628.4</ele><time>2026-04-11T14:23:56.007Z</time></trkpt><trkpt lat="43.2926533" lon="12.8962717"><ele>624.8000000000001</ele><time>2026-04-11T14:23:57.007Z</time></trkpt><trkpt lat="43.2927433" lon="12.8963483"><ele>621.2</ele><time>2026-04-11T14:23:58.007Z</time></trkpt><trkpt lat="43.2928433" lon="12.8964183"><ele>617.6</ele><time>2026-04-11T14:23:59.006Z</time></trkpt><trkpt lat="43.2929383" lon="12.8964783"><ele>614.0</ele><time>2026-04-11T14:24:00.007Z</time></trkpt><trkpt lat="43.293025" lon="12.896515"><ele>613.8333333333333</ele><time>2026-04-11T14:24:01.007Z</time></trkpt><trkpt lat="43.293105" lon="12.8965417"><ele>613.6666666666666</ele><time>2026-04-11T14:24:02.006Z</time></trkpt><trkpt lat="43.2931867" lon="12.8965483"><ele>613.5</ele><time>2026-04-11T14:24:03.008Z</time></trkpt><trkpt lat="43.29327" lon="12.8965417"><ele>613.3333333333334</ele><time>2026-04-11T14:24:04.007Z</time></trkpt><trkpt lat="43.2933483" lon="12.8964983"><ele>613.1666666666667</ele><time>2026-04-11T14:24:05.005Z</time></trkpt><trkpt lat="43.2934367" lon="12.89645"><ele>613.0</ele><time>2026-04-11T14:24:06.006Z</time></trkpt><trkpt lat="43.2935383" lon="12.8964083"><ele>613.0</ele><time>2026-04-11T14:24:07.007Z</time></trkpt><trkpt lat="43.2936483" lon="12.8963733"><ele>613.0</ele><time>2026-04-11T14:24:08.007Z</time></trkpt><trkpt lat="43.2937683" lon="12.89635"><ele>613.0</ele><time>2026-04-11T14:24:09.009Z</time></trkpt><trkpt lat="43.2938833" lon="12.896365"><ele>613.0</ele><time>2026-04-11T14:24:10.006Z</time></trkpt><trkpt lat="43.2939983" lon="12.89637"><ele>609.0</ele><time>2026-04-11T14:24:11.006Z</time></trkpt><trkpt lat="43.2941083" lon="12.89637"><ele>605.0</ele><time>2026-04-11T14:24:12.007Z</time></trkpt><trkpt lat="43.29422" lon="12.8963617"><ele>601.0</ele><time>2026-04-11T14:24:13.007Z</time></trkpt><trkpt lat="43.29433" lon="12.8963583"><ele>597.0</ele><time>2026-04-11T14:24:14.006Z</time></trkpt><trkpt lat="43.2944367" lon="12.89634"><ele>593.0</ele><time>2026-04-11T14:24:15.008Z</time></trkpt><trkpt lat="43.2945417" lon="12.89633"><ele>593.0</ele><time>2026-04-11T14:24:16.007Z</time></trkpt><trkpt lat="43.294645" lon="12.8963"><ele>593.0</ele><time>2026-04-11T14:24:17.006Z</time></trkpt><trkpt lat="43.2947417" lon="12.8962583"><ele>593.0</ele><time>2026-04-11T14:24:18.007Z</time></trkpt><trkpt lat="43.2948467" lon="12.896235"><ele>593.0</ele><time>2026-04-11T14:24:19.007Z</time></trkpt><trkpt lat="43.2949633" lon="12.89624"><ele>593.0</ele><time>2026-04-11T14:24:20.008Z</time></trkpt><trkpt lat="43.2950867" lon="12.8962867"><ele>589.5</ele><time>2026-04-11T14:24:21.007Z</time></trkpt><trkpt lat="43.2951917" lon="12.8963433"><ele>586.0</ele><time>2026-04-11T14:24:22.007Z</time></trkpt><trkpt lat="43.2952883" lon="12.89642"><ele>582.5</ele><time>2026-04-11T14:24:23.007Z</time></trkpt><trkpt lat="43.2953833" lon="12.896535"><ele>579.0</ele><time>2026-04-11T14:24:24.006Z</time></trkpt><trkpt lat="43.29547" lon="12.8966433"><ele>579.0</ele><time>2026-04-11T14:24:25.007Z</time></trkpt><trkpt lat="43.2955383" lon="12.8967417"><ele>579.0</ele><time>2026-04-11T14:24:26.007Z</time></trkpt><trkpt lat="43.29559" lon="12.896835"><ele>579.0</ele><time>2026-04-11T14:24:27.007Z</time></trkpt><trkpt lat="43.29563" lon="12.896935"><ele>579.0</ele><time>2026-04-11T14:24:28.006Z</time></trkpt><trkpt lat="43.2956383" lon="12.89707"><ele>579.0</ele><time>2026-04-11T14:24:29.005Z</time></trkpt><trkpt lat="43.295645" lon="12.89724"><ele>579.5</ele><time>2026-04-11T14:24:30.006Z</time></trkpt><trkpt lat="43.2956633" lon="12.8974233"><ele>580.0</ele><time>2026-04-11T14:24:31.006Z</time></trkpt><trkpt lat="43.2956867" lon="12.8976083"><ele>580.5</ele><time>2026-04-11T14:24:32.006Z</time></trkpt><trkpt lat="43.29571" lon="12.8977783"><ele>581.0</ele><time>2026-04-11T14:24:33.007Z</time></trkpt><trkpt lat="43.29574" lon="12.8979383"><ele>577.6</ele><time>2026-04-11T14:24:34.007Z</time></trkpt><trkpt lat="43.2957783" lon="12.898085"><ele>574.2</ele><time>2026-04-11T14:24:35.007Z</time></trkpt><trkpt lat="43.2958117" lon="12.8982183"><ele>570.8</ele><time>2026-04-11T14:24:36.006Z</time></trkpt><trkpt lat="43.2958383" lon="12.8983333"><ele>567.4</ele><time>2026-04-11T14:24:37.007Z</time></trkpt><trkpt lat="43.295875" lon="12.8984567"><ele>564.0</ele><time>2026-04-11T14:24:38.006Z</time></trkpt><trkpt lat="43.2959183" lon="12.8985983"><ele>561.0</ele><time>2026-04-11T14:24:39.007Z</time></trkpt><trkpt lat="43.2959617" lon="12.898755"><ele>558.0</ele><time>2026-04-11T14:24:40.007Z</time></trkpt><trkpt lat="43.29599" lon="12.8989017"><ele>555.0</ele><time>2026-04-11T14:24:41.006Z</time></trkpt><trkpt lat="43.2960167" lon="12.8990483"><ele>552.0</ele><time>2026-04-11T14:24:42.007Z</time></trkpt><trkpt lat="43.296055" lon="12.8991817"><ele>549.0</ele><time>2026-04-11T14:24:43.005Z</time></trkpt><trkpt lat="43.2960917" lon="12.8993183"><ele>545.4</ele><time>2026-04-11T14:24:44.005Z</time></trkpt><trkpt lat="43.296115" lon="12.8994667"><ele>541.8</ele><time>2026-04-11T14:24:45.006Z</time></trkpt><trkpt lat="43.296135" lon="12.899615"><ele>538.2</ele><time>2026-04-11T14:24:46.008Z</time></trkpt><trkpt lat="43.2961517" lon="12.8997667"><ele>534.6</ele><time>2026-04-11T14:24:47.007Z</time></trkpt><trkpt lat="43.296155" lon="12.8999083"><ele>531.0</ele><time>2026-04-11T14:24:48.007Z</time></trkpt><trkpt lat="43.2961483" lon="12.9000483"><ele>527.8</ele><time>2026-04-11T14:24:49.007Z</time></trkpt><trkpt lat="43.296155" lon="12.9001967"><ele>524.6</ele><time>2026-04-11T14:24:50.006Z</time></trkpt><trkpt lat="43.296175" lon="12.900345"><ele>521.4</ele><time>2026-04-11T14:24:51.008Z</time></trkpt><trkpt lat="43.2962133" lon="12.9004867"><ele>518.2</ele><time>2026-04-11T14:24:52.008Z</time></trkpt><trkpt lat="43.296255" lon="12.90061"><ele>515.0</ele><time>2026-04-11T14:24:53.009Z</time></trkpt><trkpt lat="43.296315" lon="12.9006983"><ele>515.0</ele><time>2026-04-11T14:24:54.007Z</time></trkpt><trkpt lat="43.2963967" lon="12.9007767"><ele>515.0</ele><time>2026-04-11T14:24:55.006Z</time></trkpt><trkpt lat="43.296495" lon="12.9008617"><ele>515.0</ele><time>2026-04-11T14:24:56.006Z</time></trkpt><trkpt lat="43.2965833" lon="12.900965"><ele>515.0</ele><time>2026-04-11T14:24:57.008Z</time></trkpt><trkpt lat="43.2966533" lon="12.901085"><ele>515.0</ele><time>2026-04-11T14:24:58.006Z</time></trkpt><trkpt lat="43.2966867" lon="12.9012283"><ele>514.4</ele><time>2026-04-11T14:24:59.007Z</time></trkpt><trkpt lat="43.296695" lon="12.9013817"><ele>513.8</ele><time>2026-04-11T14:25:00.008Z</time></trkpt><trkpt lat="43.2966883" lon="12.901535"><ele>513.2</ele><time>2026-04-11T14:25:01.007Z</time></trkpt><trkpt lat="43.2966933" lon="12.9016883"><ele>512.6</ele><time>2026-04-11T14:25:02.007Z</time></trkpt><trkpt lat="43.2967117" lon="12.9018283"><ele>512.0</ele><time>2026-04-11T14:25:03.007Z</time></trkpt><trkpt lat="43.2967533" lon="12.9019483"><ele>512.0</ele><time>2026-04-11T14:25:04.006Z</time></trkpt><trkpt lat="43.2968233" lon="12.9020617"><ele>512.0</ele><time>2026-04-11T14:25:05.007Z</time></trkpt><trkpt lat="43.2968983" lon="12.9021867"><ele>512.0</ele><time>2026-04-11T14:25:06.005Z</time></trkpt><trkpt lat="43.2969683" lon="12.9023317"><ele>512.0</ele><time>2026-04-11T14:25:07.005Z</time></trkpt><trkpt lat="43.2970267" lon="12.9024817"><ele>515.4</ele><time>2026-04-11T14:25:08.006Z</time></trkpt><trkpt lat="43.2970783" lon="12.902625"><ele>518.8000000000001</ele><time>2026-04-11T14:25:09.007Z</time></trkpt><trkpt lat="43.2971383" lon="12.9027517"><ele>522.2</ele><time>2026-04-11T14:25:10.006Z</time></trkpt><trkpt lat="43.2972117" lon="12.9028533"><ele>525.6</ele><time>2026-04-11T14:25:11.006Z</time></trkpt><trkpt lat="43.2972833" lon="12.9029467"><ele>529.0</ele><time>2026-04-11T14:25:12.006Z</time></trkpt><trkpt lat="43.2973333" lon="12.90305"><ele>529.0</ele><time>2026-04-11T14:25:13.007Z</time></trkpt><trkpt lat="43.297345" lon="12.903165"><ele>529.0</ele><time>2026-04-11T14:25:14.007Z</time></trkpt><trkpt lat="43.29732" lon="12.903275"><ele>529.0</ele><time>2026-04-11T14:25:15.007Z</time></trkpt><trkpt lat="43.297295" lon="12.903385"><ele>529.0</ele><time>2026-04-11T14:25:16.006Z</time></trkpt><trkpt lat="43.2973017" lon="12.9035033"><ele>529.0</ele><time>2026-04-11T14:25:17.005Z</time></trkpt><trkpt lat="43.2973467" lon="12.90363"><ele>529.0</ele><time>2026-04-11T14:25:18.007Z</time></trkpt><trkpt lat="43.2974117" lon="12.9037383"><ele>523.8</ele><time>2026-04-11T14:25:19.008Z</time></trkpt><trkpt lat="43.297485" lon="12.9038133"><ele>518.5999999999999</ele><time>2026-04-11T14:25:20.007Z</time></trkpt><trkpt lat="43.2975633" lon="12.9038617"><ele>513.4</ele><time>2026-04-11T14:25:21.009Z</time></trkpt><trkpt lat="43.2976567" lon="12.9039017"><ele>508.2</ele><time>2026-04-11T14:25:22.006Z</time></trkpt><trkpt lat="43.2977583" lon="12.9039717"><ele>503.0</ele><time>2026-04-11T14:25:23.006Z</time></trkpt><trkpt lat="43.2978467" lon="12.90407"><ele>502.99999999999994</ele><time>2026-04-11T14:25:24.007Z</time></trkpt><trkpt lat="43.2979033" lon="12.9041867"><ele>503.0</ele><time>2026-04-11T14:25:25.007Z</time></trkpt><trkpt lat="43.2979233" lon="12.9043033"><ele>503.0</ele><time>2026-04-11T14:25:26.007Z</time></trkpt><trkpt lat="43.29793" lon="12.9044033"><ele>503.0</ele><time>2026-04-11T14:25:27.007Z</time></trkpt><trkpt lat="43.29793" lon="12.9045417"><ele>502.99999999999994</ele><time>2026-04-11T14:25:29.006Z</time></trkpt><trkpt lat="43.297935" lon="12.904655"><ele>503.0</ele><time>2026-04-11T14:25:31.007Z</time></trkpt><trkpt lat="43.2979567" lon="12.9047983"><ele>500.59999999999997</ele><time>2026-04-11T14:25:33.008Z</time></trkpt><trkpt lat="43.2979933" lon="12.90497"><ele>498.19999999999993</ele><time>2026-04-11T14:25:35.006Z</time></trkpt><trkpt lat="43.2980283" lon="12.905065"><ele>495.8</ele><time>2026-04-11T14:25:36.006Z</time></trkpt><trkpt lat="43.2980633" lon="12.9051667"><ele>493.4</ele><time>2026-04-11T14:25:37.007Z</time></trkpt><trkpt lat="43.2981017" lon="12.9052733"><ele>491.0</ele><time>2026-04-11T14:25:38.008Z</time></trkpt><trkpt lat="43.2981467" lon="12.905385"><ele>491.0</ele><time>2026-04-11T14:25:39.007Z</time></trkpt><trkpt lat="43.2981933" lon="12.9055083"><ele>491.0</ele><time>2026-04-11T14:25:40.006Z</time></trkpt><trkpt lat="43.29824" lon="12.9056333"><ele>491.0</ele><time>2026-04-11T14:25:41.006Z</time></trkpt><trkpt lat="43.29828" lon="12.9057633"><ele>491.0</ele><time>2026-04-11T14:25:42.007Z</time></trkpt><trkpt lat="43.2983183" lon="12.9058833"><ele>491.0</ele><time>2026-04-11T14:25:43.006Z</time></trkpt><trkpt lat="43.2983617" lon="12.90599"><ele>485.20000000000005</ele><time>2026-04-11T14:25:44.006Z</time></trkpt><trkpt lat="43.29843" lon="12.90608"><ele>479.40000000000003</ele><time>2026-04-11T14:25:45.006Z</time></trkpt><trkpt lat="43.2985133" lon="12.9061583"><ele>473.6</ele><time>2026-04-11T14:25:46.005Z</time></trkpt><trkpt lat="43.29861" lon="12.90622"><ele>467.8</ele><time>2026-04-11T14:25:47.006Z</time></trkpt><trkpt lat="43.2987167" lon="12.9062883"><ele>462.0</ele><time>2026-04-11T14:25:48.005Z</time></trkpt><trkpt lat="43.29882" lon="12.9063733"><ele>462.0</ele><time>2026-04-11T14:25:49.007Z</time></trkpt><trkpt lat="43.298915" lon="12.9064667"><ele>462.00000000000006</ele><time>2026-04-11T14:25:50.001Z</time></trkpt><trkpt lat="43.2989983" lon="12.9065633"><ele>462.00000000000006</ele><time>2026-04-11T14:25:51.007Z</time></trkpt><trkpt lat="43.2990717" lon="12.9066617"><ele>462.0</ele><time>2026-04-11T14:25:52.006Z</time></trkpt><trkpt lat="43.2991333" lon="12.9067633"><ele>462.0</ele><time>2026-04-11T14:25:53.006Z</time></trkpt><trkpt lat="43.29919" lon="12.9068683"><ele>462.1666666666667</ele><time>2026-04-11T14:25:54.005Z</time></trkpt><trkpt lat="43.2992417" lon="12.9069783"><ele>462.33333333333337</ele><time>2026-04-11T14:25:55.006Z</time></trkpt><trkpt lat="43.2992933" lon="12.9070833"><ele>462.5</ele><time>2026-04-11T14:25:56.006Z</time></trkpt><trkpt lat="43.2993367" lon="12.9071667"><ele>462.6666666666667</ele><time>2026-04-11T14:25:57.007Z</time></trkpt><trkpt lat="43.299415" lon="12.907235"><ele>462.83333333333337</ele><time>2026-04-11T14:25:59.005Z</time></trkpt><trkpt lat="43.2994883" lon="12.9071933"><ele>463.0</ele><time>2026-04-11T14:26:01.006Z</time></trkpt><trkpt lat="43.2995617" lon="12.9071367"><ele>463.00000000000006</ele><time>2026-04-11T14:26:03.006Z</time></trkpt><trkpt lat="43.29963" lon="12.9070783"><ele>463.0</ele><time>2026-04-11T14:26:05.006Z</time></trkpt><trkpt lat="43.2997" lon="12.9070383"><ele>463.0</ele><time>2026-04-11T14:26:07.007Z</time></trkpt><trkpt lat="43.2997567" lon="12.9069983"><ele>463.0</ele><time>2026-04-11T14:26:09.008Z</time></trkpt><trkpt lat="43.2998183" lon="12.906955"><ele>463.00000000000006</ele><time>2026-04-11T14:26:11.006Z</time></trkpt><trkpt lat="43.299885" lon="12.9068867"><ele>463.0</ele><time>2026-04-11T14:26:14.007Z</time></trkpt><trkpt lat="43.2999517" lon="12.9068083"><ele>468.2</ele><time>2026-04-11T14:26:17.007Z</time></trkpt><trkpt lat="43.3000167" lon="12.9067117"><ele>473.4</ele><time>2026-04-11T14:26:20.007Z</time></trkpt><trkpt lat="43.3000583" lon="12.90664"><ele>478.59999999999997</ele><time>2026-04-11T14:26:22.007Z</time></trkpt><trkpt lat="43.3001383" lon="12.9065083"><ele>483.79999999999995</ele><time>2026-04-11T14:26:24.009Z</time></trkpt><trkpt lat="43.300205" lon="12.9064183"><ele>489.0</ele><time>2026-04-11T14:26:25.006Z</time></trkpt><trkpt lat="43.3002783" lon="12.9063467"><ele>489.0</ele><time>2026-04-11T14:26:26.006Z</time></trkpt><trkpt lat="43.300345" lon="12.9062967"><ele>489.0</ele><time>2026-04-11T14:26:27.009Z</time></trkpt><trkpt lat="43.3004433" lon="12.9063417"><ele>489.0</ele><time>2026-04-11T14:26:29.006Z</time></trkpt><trkpt lat="43.3004683" lon="12.9064533"><ele>489.0</ele><time>2026-04-11T14:26:30.007Z</time></trkpt><trkpt lat="43.3004633" lon="12.9066867"><ele>489.0</ele><time>2026-04-11T14:26:31.007Z</time></trkpt><trkpt lat="43.30049" lon="12.90683"><ele>484.0</ele><time>2026-04-11T14:26:32.006Z</time></trkpt><trkpt lat="43.300525" lon="12.906985"><ele>479.0</ele><time>2026-04-11T14:26:33.007Z</time></trkpt><trkpt lat="43.30055" lon="12.9071183"><ele>474.0</ele><time>2026-04-11T14:26:34.004Z</time></trkpt><trkpt lat="43.3005683" lon="12.9072733"><ele>469.0</ele><time>2026-04-11T14:26:35.005Z</time></trkpt><trkpt lat="43.3005717" lon="12.9074417"><ele>464.5</ele><time>2026-04-11T14:26:36.006Z</time></trkpt><trkpt lat="43.30057" lon="12.907635"><ele>460.0</ele><time>2026-04-11T14:26:37.007Z</time></trkpt><trkpt lat="43.300575" lon="12.907845"><ele>455.5</ele><time>2026-04-11T14:26:38.008Z</time></trkpt><trkpt lat="43.3005883" lon="12.90805"><ele>451.0</ele><time>2026-04-11T14:26:39.007Z</time></trkpt><trkpt lat="43.3006067" lon="12.90825"><ele>459.25</ele><time>2026-04-11T14:26:40.007Z</time></trkpt><trkpt lat="43.3006183" lon="12.9084333"><ele>467.5</ele><time>2026-04-11T14:26:41.006Z</time></trkpt><trkpt lat="43.3006183" lon="12.9086017"><ele>475.75</ele><time>2026-04-11T14:26:42.007Z</time></trkpt><trkpt lat="43.3006133" lon="12.9087617"><ele>484.0</ele><time>2026-04-11T14:26:43.006Z</time></trkpt><trkpt lat="43.3006033" lon="12.908925"><ele>484.0</ele><time>2026-04-11T14:26:44.007Z</time></trkpt><trkpt lat="43.3005933" lon="12.9090933"><ele>484.0</ele><time>2026-04-11T14:26:45.008Z</time></trkpt><trkpt lat="43.3005817" lon="12.909255"><ele>484.0</ele><time>2026-04-11T14:26:46.007Z</time></trkpt><trkpt lat="43.3005783" lon="12.9094167"><ele>484.0</ele><time>2026-04-11T14:26:47.004Z</time></trkpt><trkpt lat="43.3005833" lon="12.9095917"><ele>482.0</ele><time>2026-04-11T14:26:48.007Z</time></trkpt><trkpt lat="43.3005933" lon="12.9097717"><ele>480.0</ele><time>2026-04-11T14:26:49.007Z</time></trkpt><trkpt lat="43.3006083" lon="12.909955"><ele>478.0</ele><time>2026-04-11T14:26:50.006Z</time></trkpt><trkpt lat="43.3006333" lon="12.9101433"><ele>476.0</ele><time>2026-04-11T14:26:51.007Z</time></trkpt><trkpt lat="43.300665" lon="12.91034"><ele>472.0</ele><time>2026-04-11T14:26:52.005Z</time></trkpt><trkpt lat="43.300695" lon="12.910545"><ele>468.0</ele><time>2026-04-11T14:26:53.006Z</time></trkpt><trkpt lat="43.3007233" lon="12.910755"><ele>464.0</ele><time>2026-04-11T14:26:54.006Z</time></trkpt><trkpt lat="43.3007567" lon="12.91097"><ele>461.0</ele><time>2026-04-11T14:26:55.005Z</time></trkpt><trkpt lat="43.3007917" lon="12.9111883"><ele>458.0</ele><time>2026-04-11T14:26:56.008Z</time></trkpt><trkpt lat="43.3008267" lon="12.911405"><ele>455.0</ele><time>2026-04-11T14:26:57.007Z</time></trkpt><trkpt lat="43.3008567" lon="12.9116217"><ele>454.0</ele><time>2026-04-11T14:26:58.007Z</time></trkpt><trkpt lat="43.3008883" lon="12.911835"><ele>453.0</ele><time>2026-04-11T14:26:59.005Z</time></trkpt><trkpt lat="43.30091" lon="12.91205"><ele>452.0</ele><time>2026-04-11T14:27:00.006Z</time></trkpt><trkpt lat="43.3009167" lon="12.9122583"><ele>452.0</ele><time>2026-04-11T14:27:01.007Z</time></trkpt><trkpt lat="43.3009283" lon="12.9124567"><ele>452.0</ele><time>2026-04-11T14:27:02.008Z</time></trkpt><trkpt lat="43.300935" lon="12.91265"><ele>452.0</ele><time>2026-04-11T14:27:03.007Z</time></trkpt><trkpt lat="43.30093" lon="12.912845"><ele>452.0</ele><time>2026-04-11T14:27:04.007Z</time></trkpt><trkpt lat="43.3009317" lon="12.9130433"><ele>452.25</ele><time>2026-04-11T14:27:05.006Z</time></trkpt><trkpt lat="43.300935" lon="12.9132417"><ele>452.5</ele><time>2026-04-11T14:27:06.005Z</time></trkpt><trkpt lat="43.3009367" lon="12.913425"><ele>452.75</ele><time>2026-04-11T14:27:07.008Z</time></trkpt><trkpt lat="43.30093" lon="12.9136017"><ele>453.0</ele><time>2026-04-11T14:27:08.006Z</time></trkpt><trkpt lat="43.3009267" lon="12.91377"><ele>451.5</ele><time>2026-04-11T14:27:09.008Z</time></trkpt><trkpt lat="43.3009133" lon="12.9139333"><ele>450.0</ele><time>2026-04-11T14:27:10.007Z</time></trkpt><trkpt lat="43.3008867" lon="12.9140933"><ele>448.5</ele><time>2026-04-11T14:27:11.007Z</time></trkpt><trkpt lat="43.3008717" lon="12.9142483"><ele>447.0</ele><time>2026-04-11T14:27:12.007Z</time></trkpt><trkpt lat="43.3008733" lon="12.9143867"><ele>445.40000000000003</ele><time>2026-04-11T14:27:13.007Z</time></trkpt><trkpt lat="43.300885" lon="12.9145117"><ele>443.80000000000007</ele><time>2026-04-11T14:27:14.006Z</time></trkpt><trkpt lat="43.3009167" lon="12.9146317"><ele>442.2</ele><time>2026-04-11T14:27:15.007Z</time></trkpt><trkpt lat="43.300965" lon="12.914755"><ele>440.6</ele><time>2026-04-11T14:27:16.005Z</time></trkpt><trkpt lat="43.301015" lon="12.9148733"><ele>439.0</ele><time>2026-04-11T14:27:17.007Z</time></trkpt><trkpt lat="43.30107" lon="12.9149767"><ele>439.00000000000006</ele><time>2026-04-11T14:27:18.006Z</time></trkpt><trkpt lat="43.3011283" lon="12.9150567"><ele>439.0</ele><time>2026-04-11T14:27:19.007Z</time></trkpt><trkpt lat="43.301185" lon="12.9151217"><ele>439.0</ele><time>2026-04-11T14:27:20.005Z</time></trkpt><trkpt lat="43.3012417" lon="12.91518"><ele>439.0</ele><time>2026-04-11T14:27:21.006Z</time></trkpt><trkpt lat="43.3013017" lon="12.9152433"><ele>439.00000000000006</ele><time>2026-04-11T14:27:22.005Z</time></trkpt><trkpt lat="43.3013583" lon="12.9153167"><ele>439.0</ele><time>2026-04-11T14:27:23.006Z</time></trkpt><trkpt lat="43.3014083" lon="12.9154"><ele>439.6</ele><time>2026-04-11T14:27:24.006Z</time></trkpt><trkpt lat="43.3014567" lon="12.91549"><ele>440.2</ele><time>2026-04-11T14:27:25.005Z</time></trkpt><trkpt lat="43.301515" lon="12.9155867"><ele>440.80000000000007</ele><time>2026-04-11T14:27:26.007Z</time></trkpt><trkpt lat="43.30158" lon="12.9156933"><ele>441.40000000000003</ele><time>2026-04-11T14:27:27.007Z</time></trkpt><trkpt lat="43.3016483" lon="12.9158"><ele>442.0</ele><time>2026-04-11T14:27:28.006Z</time></trkpt><trkpt lat="43.3017233" lon="12.9159017"><ele>437.20000000000005</ele><time>2026-04-11T14:27:29.007Z</time></trkpt><trkpt lat="43.3018" lon="12.916"><ele>432.40000000000003</ele><time>2026-04-11T14:27:30.005Z</time></trkpt><trkpt lat="43.3018717" lon="12.916105"><ele>427.6</ele><time>2026-04-11T14:27:31.005Z</time></trkpt><trkpt lat="43.301945" lon="12.9162217"><ele>422.79999999999995</ele><time>2026-04-11T14:27:32.005Z</time></trkpt><trkpt lat="43.3020167" lon="12.916355"><ele>418.0</ele><time>2026-04-11T14:27:33.007Z</time></trkpt><trkpt lat="43.30209" lon="12.9164833"><ele>418.0</ele><time>2026-04-11T14:27:34.005Z</time></trkpt><trkpt lat="43.30217" lon="12.9166083"><ele>418.0</ele><time>2026-04-11T14:27:35.006Z</time></trkpt><trkpt lat="43.3022683" lon="12.9167283"><ele>418.0</ele><time>2026-04-11T14:27:36.006Z</time></trkpt><trkpt lat="43.3023733" lon="12.9168467"><ele>418.0</ele><time>2026-04-11T14:27:37.005Z</time></trkpt><trkpt lat="43.3024683" lon="12.9169733"><ele>417.75</ele><time>2026-04-11T14:27:38.006Z</time></trkpt><trkpt lat="43.3025533" lon="12.917105"><ele>417.5</ele><time>2026-04-11T14:27:39.007Z</time></trkpt><trkpt lat="43.302635" lon="12.9172283"><ele>417.25</ele><time>2026-04-11T14:27:40.006Z</time></trkpt><trkpt lat="43.30272" lon="12.9173383"><ele>417.0</ele><time>2026-04-11T14:27:41.005Z</time></trkpt><trkpt lat="43.302795" lon="12.9174417"><ele>417.0</ele><time>2026-04-11T14:27:42.007Z</time></trkpt><trkpt lat="43.3028667" lon="12.9175467"><ele>417.0</ele><time>2026-04-11T14:27:43.006Z</time></trkpt><trkpt lat="43.3029317" lon="12.9176467"><ele>417.0</ele><time>2026-04-11T14:27:44.005Z</time></trkpt><trkpt lat="43.30299" lon="12.9177333"><ele>417.0</ele><time>2026-04-11T14:27:45.007Z</time></trkpt><trkpt lat="43.3030383" lon="12.9178033"><ele>417.0</ele><time>2026-04-11T14:27:46.007Z</time></trkpt><trkpt lat="43.3030817" lon="12.91787"><ele>417.0</ele><time>2026-04-11T14:27:47.006Z</time></trkpt><trkpt lat="43.3031167" lon="12.9179483"><ele>416.0</ele><time>2026-04-11T14:27:48.007Z</time></trkpt><trkpt lat="43.3031517" lon="12.91803"><ele>415.0</ele><time>2026-04-11T14:27:49.007Z</time></trkpt><trkpt lat="43.303185" lon="12.918105"><ele>414.0</ele><time>2026-04-11T14:27:50.007Z</time></trkpt><trkpt lat="43.3032783" lon="12.918215"><ele>413.0</ele><time>2026-04-11T14:27:52.008Z</time></trkpt><trkpt lat="43.3033917" lon="12.9182883"><ele>412.0</ele><time>2026-04-11T14:27:54.006Z</time></trkpt><trkpt lat="43.3034567" lon="12.9183183"><ele>412.00000000000006</ele><time>2026-04-11T14:27:55.007Z</time></trkpt><trkpt lat="43.3035283" lon="12.9183367"><ele>412.0</ele><time>2026-04-11T14:27:56.006Z</time></trkpt><trkpt lat="43.3036" lon="12.9183583"><ele>412.0</ele><time>2026-04-11T14:27:57.008Z</time></trkpt><trkpt lat="43.3036667" lon="12.9183767"><ele>412.0</ele><time>2026-04-11T14:27:58.006Z</time></trkpt><trkpt lat="43.3037283" lon="12.9184"><ele>412.00000000000006</ele><time>2026-04-11T14:27:59.007Z</time></trkpt><trkpt lat="43.3038317" lon="12.918415"><ele>412.0</ele><time>2026-04-11T14:28:01.006Z</time></trkpt><trkpt lat="43.303925" lon="12.918395"><ele>407.8</ele><time>2026-04-11T14:28:03.007Z</time></trkpt><trkpt lat="43.30402" lon="12.9184083"><ele>403.6</ele><time>2026-04-11T14:28:05.005Z</time></trkpt><trkpt lat="43.3041117" lon="12.9184817"><ele>399.40000000000003</ele><time>2026-04-11T14:28:07.007Z</time></trkpt><trkpt lat="43.3042067" lon="12.9185883"><ele>395.20000000000005</ele><time>2026-04-11T14:28:09.006Z</time></trkpt><trkpt lat="43.3042483" lon="12.91866"><ele>391.0</ele><time>2026-04-11T14:28:10.005Z</time></trkpt><trkpt lat="43.3042967" lon="12.918735"><ele>390.99999999999994</ele><time>2026-04-11T14:28:11.006Z</time></trkpt><trkpt lat="43.30434" lon="12.9188133"><ele>391.0</ele><time>2026-04-11T14:28:12.007Z</time></trkpt><trkpt lat="43.3043817" lon="12.918885"><ele>391.0</ele><time>2026-04-11T14:28:13.007Z</time></trkpt><trkpt lat="43.304425" lon="12.9189533"><ele>391.0</ele><time>2026-04-11T14:28:14.006Z</time></trkpt><trkpt lat="43.3044683" lon="12.91903"><ele>391.0</ele><time>2026-04-11T14:28:15.007Z</time></trkpt><trkpt lat="43.3045067" lon="12.9191167"><ele>390.99999999999994</ele><time>2026-04-11T14:28:16.006Z</time></trkpt><trkpt lat="43.3045433" lon="12.9192"><ele>391.0</ele><time>2026-04-11T14:28:17.006Z</time></trkpt><trkpt lat="43.3045783" lon="12.9192917"><ele>390.33333333333337</ele><time>2026-04-11T14:28:18.005Z</time></trkpt><trkpt lat="43.3046083" lon="12.9193817"><ele>389.6666666666667</ele><time>2026-04-11T14:28:19.006Z</time></trkpt><trkpt lat="43.3046383" lon="12.9194667"><ele>389.0</ele><time>2026-04-11T14:28:20.006Z</time></trkpt><trkpt lat="43.3046767" lon="12.9196067"><ele>388.33333333333337</ele><time>2026-04-11T14:28:22.007Z</time></trkpt><trkpt lat="43.30468" lon="12.9197083"><ele>387.6666666666667</ele><time>2026-04-11T14:28:24.006Z</time></trkpt><trkpt lat="43.3046033" lon="12.9197983"><ele>387.0</ele><time>2026-04-11T14:28:26.007Z</time></trkpt><trkpt lat="43.304505" lon="12.919875"><ele>387.0</ele><time>2026-04-11T14:28:28.007Z</time></trkpt><trkpt lat="43.304425" lon="12.9199283"><ele>387.0</ele><time>2026-04-11T14:28:30.006Z</time></trkpt><trkpt lat="43.30433" lon="12.9199683"><ele>387.0</ele><time>2026-04-11T14:28:32.007Z</time></trkpt><trkpt lat="43.304265" lon="12.9199967"><ele>387.0</ele><time>2026-04-11T14:28:33.008Z</time></trkpt><trkpt lat="43.304195" lon="12.92005"><ele>387.0</ele><time>2026-04-11T14:28:34.006Z</time></trkpt><trkpt lat="43.304125" lon="12.9201083"><ele>387.0</ele><time>2026-04-11T14:28:35.005Z</time></trkpt><trkpt lat="43.3040533" lon="12.920155"><ele>389.2857142857143</ele><time>2026-04-11T14:28:36.006Z</time></trkpt><trkpt lat="43.3039867" lon="12.9202067"><ele>391.57142857142856</ele><time>2026-04-11T14:28:37.005Z</time></trkpt><trkpt lat="43.3039283" lon="12.920255"><ele>393.8571428571429</ele><time>2026-04-11T14:28:38.006Z</time></trkpt><trkpt lat="43.3038717" lon="12.9203017"><ele>396.1428571428571</ele><time>2026-04-11T14:28:39.008Z</time></trkpt><trkpt lat="43.30381" lon="12.9203367"><ele>398.4285714285714</ele><time>2026-04-11T14:28:40.005Z</time></trkpt><trkpt lat="43.3037417" lon="12.920355"><ele>400.7142857142857</ele><time>2026-04-11T14:28:41.006Z</time></trkpt><trkpt lat="43.3036733" lon="12.9203617"><ele>403.0</ele><time>2026-04-11T14:28:42.007Z</time></trkpt><trkpt lat="43.3035533" lon="12.920335"><ele>401.1666666666667</ele><time>2026-04-11T14:28:44.007Z</time></trkpt><trkpt lat="43.3034283" lon="12.92029"><ele>399.33333333333337</ele><time>2026-04-11T14:28:46.006Z</time></trkpt><trkpt lat="43.3033567" lon="12.9202467"><ele>397.5</ele><time>2026-04-11T14:28:47.007Z</time></trkpt><trkpt lat="43.3032917" lon="12.9202033"><ele>395.66666666666663</ele><time>2026-04-11T14:28:48.008Z</time></trkpt><trkpt lat="43.3032233" lon="12.92015"><ele>393.8333333333333</ele><time>2026-04-11T14:28:49.008Z</time></trkpt><trkpt lat="43.303165" lon="12.9201"><ele>392.0</ele><time>2026-04-11T14:28:50.007Z</time></trkpt><trkpt lat="43.3030833" lon="12.92004"><ele>398.0</ele><time>2026-04-11T14:28:52.007Z</time></trkpt><trkpt lat="43.30299" lon="12.92003"><ele>404.0</ele><time>2026-04-11T14:28:54.006Z</time></trkpt><trkpt lat="43.3029017" lon="12.920025"><ele>410.0</ele><time>2026-04-11T14:28:56.007Z</time></trkpt><trkpt lat="43.3028033" lon="12.9199883"><ele>416.0</ele><time>2026-04-11T14:28:58.006Z</time></trkpt><trkpt lat="43.302685" lon="12.9199383"><ele>422.0</ele><time>2026-04-11T14:29:00.008Z</time></trkpt><trkpt lat="43.3026117" lon="12.9199083"><ele>421.99999999999994</ele><time>2026-04-11T14:29:01.007Z</time></trkpt><trkpt lat="43.3025417" lon="12.91987"><ele>422.0</ele><time>2026-04-11T14:29:02.003Z</time></trkpt><trkpt lat="43.3024583" lon="12.91983"><ele>422.0</ele><time>2026-04-11T14:29:03.004Z</time></trkpt><trkpt lat="43.3023867" lon="12.91979"><ele>422.0</ele><time>2026-04-11T14:29:04.006Z</time></trkpt><trkpt lat="43.302315" lon="12.91975"><ele>421.99999999999994</ele><time>2026-04-11T14:29:05.006Z</time></trkpt><trkpt lat="43.30225" lon="12.91971"><ele>422.0</ele><time>2026-04-11T14:29:06.007Z</time></trkpt><trkpt lat="43.30219" lon="12.9196717"><ele>428.49999999999994</ele><time>2026-04-11T14:29:07.007Z</time></trkpt><trkpt lat="43.3021217" lon="12.9196167"><ele>435.0</ele><time>2026-04-11T14:29:09.006Z</time></trkpt><trkpt lat="43.3020367" lon="12.9195867"><ele>441.5</ele><time>2026-04-11T14:29:11.007Z</time></trkpt><trkpt lat="43.3019183" lon="12.91956"><ele>448.0</ele><time>2026-04-11T14:29:13.005Z</time></trkpt><trkpt lat="43.3018517" lon="12.9195383"><ele>454.49999999999994</ele><time>2026-04-11T14:29:14.005Z</time></trkpt><trkpt lat="43.3017817" lon="12.919515"><ele>461.0</ele><time>2026-04-11T14:29:15.007Z</time></trkpt><trkpt lat="43.301695" lon="12.9194917"><ele>460.99999999999994</ele><time>2026-04-11T14:29:16.007Z</time></trkpt><trkpt lat="43.301635" lon="12.9194483"><ele>461.0</ele><time>2026-04-11T14:29:17.006Z</time></trkpt><trkpt lat="43.3015483" lon="12.91942"><ele>461.0</ele><time>2026-04-11T14:29:18.007Z</time></trkpt><trkpt lat="43.30146" lon="12.91938"><ele>461.0</ele><time>2026-04-11T14:29:19.006Z</time></trkpt><trkpt lat="43.301375" lon="12.9193367"><ele>460.99999999999994</ele><time>2026-04-11T14:29:20.006Z</time></trkpt><trkpt lat="43.3012933" lon="12.9192867"><ele>461.0</ele><time>2026-04-11T14:29:21.01Z</time></trkpt><trkpt lat="43.301225" lon="12.9192317"><ele>462.66666666666663</ele><time>2026-04-11T14:29:22.006Z</time></trkpt><trkpt lat="43.3011533" lon="12.91918"><ele>464.3333333333333</ele><time>2026-04-11T14:29:23.007Z</time></trkpt><trkpt lat="43.301085" lon="12.9191267"><ele>466.0</ele><time>2026-04-11T14:29:24.007Z</time></trkpt><trkpt lat="43.3010067" lon="12.9190717"><ele>467.66666666666663</ele><time>2026-04-11T14:29:25.007Z</time></trkpt><trkpt lat="43.30093" lon="12.919015"><ele>469.3333333333333</ele><time>2026-04-11T14:29:26.007Z</time></trkpt><trkpt lat="43.3008567" lon="12.9189667"><ele>471.0</ele><time>2026-04-11T14:29:27.006Z</time></trkpt><trkpt lat="43.3007917" lon="12.9189233"><ele>471.0</ele><time>2026-04-11T14:29:28.008Z</time></trkpt><trkpt lat="43.3007267" lon="12.91888"><ele>471.0</ele><time>2026-04-11T14:29:29.005Z</time></trkpt><trkpt lat="43.3006533" lon="12.9188367"><ele>471.0</ele><time>2026-04-11T14:29:30.007Z</time></trkpt><trkpt lat="43.3005767" lon="12.9187883"><ele>471.0</ele><time>2026-04-11T14:29:31.008Z</time></trkpt><trkpt lat="43.300495" lon="12.9187483"><ele>471.0</ele><time>2026-04-11T14:29:32.006Z</time></trkpt><trkpt lat="43.3004183" lon="12.9187167"><ele>471.0</ele><time>2026-04-11T14:29:33.007Z</time></trkpt><trkpt lat="43.300345" lon="12.9186933"><ele>476.5</ele><time>2026-04-11T14:29:34.006Z</time></trkpt><trkpt lat="43.30027" lon="12.918695"><ele>482.0</ele><time>2026-04-11T14:29:35.006Z</time></trkpt><trkpt lat="43.3001933" lon="12.9186883"><ele>487.5</ele><time>2026-04-11T14:29:36.007Z</time></trkpt><trkpt lat="43.30013" lon="12.91867"><ele>493.0</ele><time>2026-04-11T14:29:37.006Z</time></trkpt><trkpt lat="43.300025" lon="12.9186383"><ele>498.5</ele><time>2026-04-11T14:29:39.008Z</time></trkpt><trkpt lat="43.29996" lon="12.9186283"><ele>504.0</ele><time>2026-04-11T14:29:40.007Z</time></trkpt><trkpt lat="43.2998667" lon="12.9186217"><ele>504.0</ele><time>2026-04-11T14:29:42.012Z</time></trkpt><trkpt lat="43.299785" lon="12.9186067"><ele>504.0</ele><time>2026-04-11T14:29:44.007Z</time></trkpt><trkpt lat="43.2997" lon="12.9186"><ele>504.0</ele><time>2026-04-11T14:29:46.007Z</time></trkpt><trkpt lat="43.2997967" lon="12.918695"><ele>504.0</ele><time>2026-04-11T14:30:08.007Z</time></trkpt><trkpt lat="43.2998717" lon="12.9187867"><ele>504.0</ele><time>2026-04-11T14:30:10.008Z</time></trkpt><trkpt lat="43.29994" lon="12.9188483"><ele>504.0</ele><time>2026-04-11T14:30:11.006Z</time></trkpt><trkpt lat="43.3000017" lon="12.91891"><ele>504.0</ele><time>2026-04-11T14:30:12.006Z</time></trkpt><trkpt lat="43.3000517" lon="12.9189817"><ele>504.0</ele><time>2026-04-11T14:30:13.007Z</time></trkpt><trkpt lat="43.3000967" lon="12.919065"><ele>504.0</ele><time>2026-04-11T14:30:14.001Z</time></trkpt><trkpt lat="43.3001517" lon="12.91915"><ele>504.0</ele><time>2026-04-11T14:30:15.009Z</time></trkpt><trkpt lat="43.3002133" lon="12.9192333"><ele>504.0</ele><time>2026-04-11T14:30:16.006Z</time></trkpt><trkpt lat="43.300275" lon="12.91932"><ele>502.0</ele><time>2026-04-11T14:30:17.006Z</time></trkpt><trkpt lat="43.300335" lon="12.9194017"><ele>500.0</ele><time>2026-04-11T14:30:18.007Z</time></trkpt><trkpt lat="43.30039" lon="12.91948"><ele>498.0</ele><time>2026-04-11T14:30:19.006Z</time></trkpt><trkpt lat="43.3004367" lon="12.91955"><ele>496.0</ele><time>2026-04-11T14:30:20.008Z</time></trkpt><trkpt lat="43.300485" lon="12.9196133"><ele>494.0</ele><time>2026-04-11T14:30:21.007Z</time></trkpt><trkpt lat="43.300545" lon="12.9196733"><ele>492.0</ele><time>2026-04-11T14:30:22.006Z</time></trkpt><trkpt lat="43.3006067" lon="12.9197383"><ele>491.6666666666667</ele><time>2026-04-11T14:30:23.006Z</time></trkpt><trkpt lat="43.300665" lon="12.9198"><ele>491.33333333333337</ele><time>2026-04-11T14:30:24.006Z</time></trkpt><trkpt lat="43.3007233" lon="12.9198483"><ele>491.0</ele><time>2026-04-11T14:30:25.006Z</time></trkpt><trkpt lat="43.3008067" lon="12.9199183"><ele>490.6666666666667</ele><time>2026-04-11T14:30:27.008Z</time></trkpt><trkpt lat="43.30087" lon="12.9199767"><ele>490.33333333333337</ele><time>2026-04-11T14:30:30.007Z</time></trkpt><trkpt lat="43.3009383" lon="12.92007"><ele>490.0</ele><time>2026-04-11T14:30:32.006Z</time></trkpt><trkpt lat="43.3009967" lon="12.9201217"><ele>486.6666666666667</ele><time>2026-04-11T14:30:33.007Z</time></trkpt><trkpt lat="43.30106" lon="12.920165"><ele>483.33333333333337</ele><time>2026-04-11T14:30:34.008Z</time></trkpt><trkpt lat="43.301125" lon="12.9202033"><ele>480.0</ele><time>2026-04-11T14:30:35.003Z</time></trkpt><trkpt lat="43.301185" lon="12.9202417"><ele>476.66666666666663</ele><time>2026-04-11T14:30:36.01Z</time></trkpt><trkpt lat="43.30128" lon="12.9203117"><ele>473.3333333333333</ele><time>2026-04-11T14:30:38.007Z</time></trkpt><trkpt lat="43.3013267" lon="12.9204383"><ele>470.0</ele><time>2026-04-11T14:30:40.012Z</time></trkpt><trkpt lat="43.30135" lon="12.920535"><ele>469.99999999999994</ele><time>2026-04-11T14:30:42.008Z</time></trkpt><trkpt lat="43.3012967" lon="12.920585"><ele>470.0</ele><time>2026-04-11T14:30:44.01Z</time></trkpt><trkpt lat="43.3012183" lon="12.920605"><ele>470.0</ele><time>2026-04-11T14:30:45.007Z</time></trkpt><trkpt lat="43.3011367" lon="12.9206283"><ele>470.0</ele><time>2026-04-11T14:30:46.008Z</time></trkpt><trkpt lat="43.301065" lon="12.92064"><ele>469.99999999999994</ele><time>2026-04-11T14:30:47.006Z</time></trkpt><trkpt lat="43.300995" lon="12.920645"><ele>470.0</ele><time>2026-04-11T14:30:48.007Z</time></trkpt><trkpt lat="43.3009033" lon="12.9206367"><ele>469.99999999999994</ele><time>2026-04-11T14:30:50.007Z</time></trkpt><trkpt lat="43.300955" lon="12.9207233"><ele>470.0</ele><time>2026-04-11T14:30:54.006Z</time></trkpt><trkpt lat="43.301015" lon="12.92076"><ele>470.0</ele><time>2026-04-11T14:30:55.006Z</time></trkpt><trkpt lat="43.3010917" lon="12.9208067"><ele>470.0</ele><time>2026-04-11T14:30:56.007Z</time></trkpt><trkpt lat="43.3011917" lon="12.9208417"><ele>469.99999999999994</ele><time>2026-04-11T14:30:57.007Z</time></trkpt><trkpt lat="43.3012967" lon="12.9208617"><ele>470.0</ele><time>2026-04-11T14:30:58.007Z</time></trkpt><trkpt lat="43.3014033" lon="12.92089"><ele>463.5</ele><time>2026-04-11T14:30:59.007Z</time></trkpt><trkpt lat="43.3015167" lon="12.920945"><ele>457.0</ele><time>2026-04-11T14:31:00.008Z</time></trkpt><trkpt lat="43.301635" lon="12.9210183"><ele>450.5</ele><time>2026-04-11T14:31:01.006Z</time></trkpt><trkpt lat="43.3017617" lon="12.9210983"><ele>444.0</ele><time>2026-04-11T14:31:02.007Z</time></trkpt><trkpt lat="43.30189" lon="12.921185"><ele>444.0</ele><time>2026-04-11T14:31:03.008Z</time></trkpt><trkpt lat="43.3020133" lon="12.9212783"><ele>444.0</ele><time>2026-04-11T14:31:04.007Z</time></trkpt><trkpt lat="43.302135" lon="12.92136"><ele>444.0</ele><time>2026-04-11T14:31:05.007Z</time></trkpt><trkpt lat="43.3022533" lon="12.921435"><ele>444.0</ele><time>2026-04-11T14:31:06.008Z</time></trkpt><trkpt lat="43.3023633" lon="12.9215067"><ele>444.2</ele><time>2026-04-11T14:31:07.006Z</time></trkpt><trkpt lat="43.3024683" lon="12.9215783"><ele>444.4</ele><time>2026-04-11T14:31:08.008Z</time></trkpt><trkpt lat="43.3025683" lon="12.9216517"><ele>444.6</ele><time>2026-04-11T14:31:09.008Z</time></trkpt><trkpt lat="43.3026667" lon="12.92172"><ele>444.8</ele><time>2026-04-11T14:31:10.004Z</time></trkpt><trkpt lat="43.3027583" lon="12.9217767"><ele>445.0</ele><time>2026-04-11T14:31:11.007Z</time></trkpt><trkpt lat="43.3028433" lon="12.9218233"><ele>441.83333333333337</ele><time>2026-04-11T14:31:12.008Z</time></trkpt><trkpt lat="43.3029133" lon="12.9218733"><ele>438.6666666666667</ele><time>2026-04-11T14:31:13.007Z</time></trkpt><trkpt lat="43.3029767" lon="12.9219233"><ele>435.5</ele><time>2026-04-11T14:31:14.001Z</time></trkpt><trkpt lat="43.30305" lon="12.921975"><ele>432.33333333333337</ele><time>2026-04-11T14:31:15.003Z</time></trkpt><trkpt lat="43.3031283" lon="12.9220483"><ele>429.1666666666667</ele><time>2026-04-11T14:31:16.006Z</time></trkpt><trkpt lat="43.3032083" lon="12.92214"><ele>426.0</ele><time>2026-04-11T14:31:17.007Z</time></trkpt><trkpt lat="43.303285" lon="12.9222533"><ele>425.0</ele><time>2026-04-11T14:31:18.007Z</time></trkpt><trkpt lat="43.3033633" lon="12.92238"><ele>424.0</ele><time>2026-04-11T14:31:19.008Z</time></trkpt><trkpt lat="43.3034367" lon="12.9225133"><ele>423.0</ele><time>2026-04-11T14:31:20.007Z</time></trkpt><trkpt lat="43.3034983" lon="12.9226583"><ele>422.0</ele><time>2026-04-11T14:31:21.008Z</time></trkpt><trkpt lat="43.3035467" lon="12.9228017"><ele>419.8333333333333</ele><time>2026-04-11T14:31:22.007Z</time></trkpt><trkpt lat="43.30358" lon="12.9229283"><ele>417.66666666666663</ele><time>2026-04-11T14:31:23.007Z</time></trkpt><trkpt lat="43.30361" lon="12.9230283"><ele>415.5</ele><time>2026-04-11T14:31:24.008Z</time></trkpt><trkpt lat="43.30364" lon="12.9231117"><ele>413.33333333333337</ele><time>2026-04-11T14:31:25.007Z</time></trkpt><trkpt lat="43.3036767" lon="12.9232217"><ele>411.1666666666667</ele><time>2026-04-11T14:31:27.008Z</time></trkpt><trkpt lat="43.3035917" lon="12.9232333"><ele>409.0</ele><time>2026-04-11T14:31:35.006Z</time></trkpt><trkpt lat="43.303515" lon="12.9232217"><ele>409.0</ele><time>2026-04-11T14:31:37.008Z</time></trkpt><trkpt lat="43.303375" lon="12.9231883"><ele>409.0</ele><time>2026-04-11T14:31:39.006Z</time></trkpt><trkpt lat="43.3032767" lon="12.9231733"><ele>409.0</ele><time>2026-04-11T14:31:40.006Z</time></trkpt><trkpt lat="43.3031833" lon="12.9231683"><ele>409.0</ele><time>2026-04-11T14:31:41.006Z</time></trkpt><trkpt lat="43.3030933" lon="12.9231817"><ele>409.0</ele><time>2026-04-11T14:31:42.007Z</time></trkpt><trkpt lat="43.30301" lon="12.923215"><ele>409.2</ele><time>2026-04-11T14:31:43.008Z</time></trkpt><trkpt lat="43.3029383" lon="12.92328"><ele>409.4</ele><time>2026-04-11T14:31:44.012Z</time></trkpt><trkpt lat="43.30287" lon="12.9233617"><ele>409.6</ele><time>2026-04-11T14:31:45.008Z</time></trkpt><trkpt lat="43.3028133" lon="12.92347"><ele>409.8</ele><time>2026-04-11T14:31:46.006Z</time></trkpt><trkpt lat="43.30274" lon="12.92359"><ele>410.0</ele><time>2026-04-11T14:31:47.005Z</time></trkpt><trkpt lat="43.3026617" lon="12.9237233"><ele>410.0</ele><time>2026-04-11T14:31:48.006Z</time></trkpt><trkpt lat="43.3025717" lon="12.9238683"><ele>410.0</ele><time>2026-04-11T14:31:49.006Z</time></trkpt><trkpt lat="43.30248" lon="12.924015"><ele>410.0</ele><time>2026-04-11T14:31:50.006Z</time></trkpt><trkpt lat="43.302385" lon="12.924175"><ele>410.0</ele><time>2026-04-11T14:31:51.006Z</time></trkpt><trkpt lat="43.30228" lon="12.924335"><ele>413.5</ele><time>2026-04-11T14:31:52.005Z</time></trkpt><trkpt lat="43.3021783" lon="12.9244783"><ele>417.0</ele><time>2026-04-11T14:31:53.008Z</time></trkpt><trkpt lat="43.302075" lon="12.9246083"><ele>420.5</ele><time>2026-04-11T14:31:54.006Z</time></trkpt><trkpt lat="43.3019667" lon="12.92472"><ele>424.0</ele><time>2026-04-11T14:31:55.007Z</time></trkpt><trkpt lat="43.3018433" lon="12.9247983"><ele>424.0</ele><time>2026-04-11T14:31:56.006Z</time></trkpt><trkpt lat="43.3017067" lon="12.9248567"><ele>424.0</ele><time>2026-04-11T14:31:57.007Z</time></trkpt><trkpt lat="43.3015733" lon="12.92492"><ele>424.0</ele><time>2026-04-11T14:31:58.006Z</time></trkpt><trkpt lat="43.3014467" lon="12.9249967"><ele>424.0</ele><time>2026-04-11T14:31:59.007Z</time></trkpt><trkpt lat="43.30133" lon="12.925075"><ele>430.25</ele><time>2026-04-11T14:32:00.006Z</time></trkpt><trkpt lat="43.3012217" lon="12.9251533"><ele>436.5</ele><time>2026-04-11T14:32:01.006Z</time></trkpt><trkpt lat="43.3011217" lon="12.9252533"><ele>442.75</ele><time>2026-04-11T14:32:02.007Z</time></trkpt><trkpt lat="43.3010267" lon="12.92536"><ele>449.0</ele><time>2026-04-11T14:32:03.008Z</time></trkpt><trkpt lat="43.3009383" lon="12.9254667"><ele>449.0</ele><time>2026-04-11T14:32:04.005Z</time></trkpt><trkpt lat="43.3008317" lon="12.925555"><ele>449.0</ele><time>2026-04-11T14:32:05.004Z</time></trkpt><trkpt lat="43.300715" lon="12.9256367"><ele>449.0</ele><time>2026-04-11T14:32:06.007Z</time></trkpt><trkpt lat="43.3005933" lon="12.9257167"><ele>449.0</ele><time>2026-04-11T14:32:07.007Z</time></trkpt><trkpt lat="43.30046" lon="12.92578"><ele>451.75</ele><time>2026-04-11T14:32:08.003Z</time></trkpt><trkpt lat="43.3003217" lon="12.9258233"><ele>454.5</ele><time>2026-04-11T14:32:09.007Z</time></trkpt><trkpt lat="43.3001767" lon="12.9258467"><ele>457.25</ele><time>2026-04-11T14:32:10.007Z</time></trkpt><trkpt lat="43.3000283" lon="12.9258567"><ele>460.0</ele><time>2026-04-11T14:32:11.007Z</time></trkpt><trkpt lat="43.2998717" lon="12.9258067"><ele>462.0</ele><time>2026-04-11T14:32:12.008Z</time></trkpt><trkpt lat="43.29973" lon="12.92579"><ele>464.0</ele><time>2026-04-11T14:32:13.007Z</time></trkpt><trkpt lat="43.299585" lon="12.9257383"><ele>466.0</ele><time>2026-04-11T14:32:14.01Z</time></trkpt><trkpt lat="43.29945" lon="12.9257083"><ele>468.0</ele><time>2026-04-11T14:32:15.009Z</time></trkpt><trkpt lat="43.2993467" lon="12.9256933"><ele>468.0</ele><time>2026-04-11T14:32:16.006Z</time></trkpt><trkpt lat="43.2992517" lon="12.9256783"><ele>468.0</ele><time>2026-04-11T14:32:17.007Z</time></trkpt><trkpt lat="43.2991717" lon="12.9256617"><ele>468.0</ele><time>2026-04-11T14:32:18.006Z</time></trkpt><trkpt lat="43.2991" lon="12.9256617"><ele>468.0</ele><time>2026-04-11T14:32:19.006Z</time></trkpt><trkpt lat="43.29903" lon="12.9256833"><ele>468.0</ele><time>2026-04-11T14:32:20.007Z</time></trkpt><trkpt lat="43.2989533" lon="12.925725"><ele>468.0</ele><time>2026-04-11T14:32:21.007Z</time></trkpt><trkpt lat="43.2988733" lon="12.9258"><ele>468.25</ele><time>2026-04-11T14:32:22.007Z</time></trkpt><trkpt lat="43.2987783" lon="12.9258817"><ele>468.5</ele><time>2026-04-11T14:32:23.006Z</time></trkpt><trkpt lat="43.298675" lon="12.9259483"><ele>468.75</ele><time>2026-04-11T14:32:24.008Z</time></trkpt><trkpt lat="43.2985533" lon="12.9260067"><ele>469.0</ele><time>2026-04-11T14:32:25.007Z</time></trkpt><trkpt lat="43.2984283" lon="12.9260533"><ele>469.0</ele><time>2026-04-11T14:32:26.009Z</time></trkpt><trkpt lat="43.2982983" lon="12.9261033"><ele>469.0</ele><time>2026-04-11T14:32:27.007Z</time></trkpt><trkpt lat="43.2981733" lon="12.9261533"><ele>469.0</ele><time>2026-04-11T14:32:28.007Z</time></trkpt><trkpt lat="43.29805" lon="12.9261883"><ele>469.0</ele><time>2026-04-11T14:32:29.007Z</time></trkpt><trkpt lat="43.2979317" lon="12.9262083"><ele>465.79999999999995</ele><time>2026-04-11T14:32:30.008Z</time></trkpt><trkpt lat="43.2978083" lon="12.9262117"><ele>462.59999999999997</ele><time>2026-04-11T14:32:31.007Z</time></trkpt><trkpt lat="43.2977" lon="12.9262117"><ele>459.4</ele><time>2026-04-11T14:32:32.008Z</time></trkpt><trkpt lat="43.2976133" lon="12.9262283"><ele>456.2</ele><time>2026-04-11T14:32:33.008Z</time></trkpt><trkpt lat="43.2975133" lon="12.9262183"><ele>453.0</ele><time>2026-04-11T14:32:34.006Z</time></trkpt><trkpt lat="43.29743" lon="12.926215"><ele>453.0</ele><time>2026-04-11T14:32:35.006Z</time></trkpt><trkpt lat="43.2973417" lon="12.9262283"><ele>452.99999999999994</ele><time>2026-04-11T14:32:36.008Z</time></trkpt><trkpt lat="43.297255" lon="12.926275"><ele>452.99999999999994</ele><time>2026-04-11T14:32:37.008Z</time></trkpt><trkpt lat="43.2971467" lon="12.9263133"><ele>453.0</ele><time>2026-04-11T14:32:38.006Z</time></trkpt><trkpt lat="43.2970367" lon="12.926335"><ele>453.0</ele><time>2026-04-11T14:32:39.008Z</time></trkpt><trkpt lat="43.29692" lon="12.9263367"><ele>449.0</ele><time>2026-04-11T14:32:40.007Z</time></trkpt><trkpt lat="43.2968117" lon="12.9263533"><ele>445.0</ele><time>2026-04-11T14:32:41.006Z</time></trkpt><trkpt lat="43.2967017" lon="12.9263733"><ele>441.0</ele><time>2026-04-11T14:32:42.006Z</time></trkpt><trkpt lat="43.29659" lon="12.92639"><ele>437.0</ele><time>2026-04-11T14:32:43.007Z</time></trkpt><trkpt lat="43.2964717" lon="12.926415"><ele>433.75</ele><time>2026-04-11T14:32:44.006Z</time></trkpt><trkpt lat="43.29635" lon="12.9264383"><ele>430.5</ele><time>2026-04-11T14:32:45.006Z</time></trkpt><trkpt lat="43.2962267" lon="12.9264433"><ele>427.25</ele><time>2026-04-11T14:32:46.006Z</time></trkpt><trkpt lat="43.2961117" lon="12.9264517"><ele>424.0</ele><time>2026-04-11T14:32:47.006Z</time></trkpt><trkpt lat="43.296005" lon="12.92648"><ele>424.0</ele><time>2026-04-11T14:32:48.005Z</time></trkpt><trkpt lat="43.2959017" lon="12.92654"><ele>424.0</ele><time>2026-04-11T14:32:49.006Z</time></trkpt><trkpt lat="43.2957933" lon="12.9266383"><ele>424.0</ele><time>2026-04-11T14:32:50.007Z</time></trkpt><trkpt lat="43.2956783" lon="12.9267533"><ele>424.0</ele><time>2026-04-11T14:32:51.008Z</time></trkpt><trkpt lat="43.295565" lon="12.9268667"><ele>422.75</ele><time>2026-04-11T14:32:52.007Z</time></trkpt><trkpt lat="43.2954533" lon="12.9269767"><ele>421.5</ele><time>2026-04-11T14:32:53.006Z</time></trkpt><trkpt lat="43.2953333" lon="12.9270883"><ele>420.25</ele><time>2026-04-11T14:32:54.007Z</time></trkpt><trkpt lat="43.2952217" lon="12.9271983"><ele>419.0</ele><time>2026-04-11T14:32:55.006Z</time></trkpt><trkpt lat="43.2951233" lon="12.9273"><ele>419.0</ele><time>2026-04-11T14:32:56.002Z</time></trkpt><trkpt lat="43.2950417" lon="12.927415"><ele>419.0</ele><time>2026-04-11T14:32:57.007Z</time></trkpt><trkpt lat="43.2949783" lon="12.9275533"><ele>419.0</ele><time>2026-04-11T14:32:58.006Z</time></trkpt><trkpt lat="43.294925" lon="12.9277167"><ele>419.0</ele><time>2026-04-11T14:32:59.005Z</time></trkpt><trkpt lat="43.2948817" lon="12.9278983"><ele>416.75</ele><time>2026-04-11T14:33:00.007Z</time></trkpt><trkpt lat="43.2948367" lon="12.928085"><ele>414.5</ele><time>2026-04-11T14:33:01.007Z</time></trkpt><trkpt lat="43.294795" lon="12.9282717"><ele>412.25</ele><time>2026-04-11T14:33:02.007Z</time></trkpt><trkpt lat="43.2947567" lon="12.9284717"><ele>410.0</ele><time>2026-04-11T14:33:03.008Z</time></trkpt><trkpt lat="43.2947267" lon="12.92867"><ele>407.5</ele><time>2026-04-11T14:33:04.007Z</time></trkpt><trkpt lat="43.294705" lon="12.928865"><ele>405.0</ele><time>2026-04-11T14:33:05.007Z</time></trkpt><trkpt lat="43.2946867" lon="12.9290633"><ele>402.5</ele><time>2026-04-11T14:33:06.006Z</time></trkpt><trkpt lat="43.2946667" lon="12.9292367"><ele>400.0</ele><time>2026-04-11T14:33:07.007Z</time></trkpt><trkpt lat="43.2946483" lon="12.9293933"><ele>398.00000000000006</ele><time>2026-04-11T14:33:08.007Z</time></trkpt><trkpt lat="43.29462" lon="12.9295267"><ele>396.0</ele><time>2026-04-11T14:33:09.006Z</time></trkpt><trkpt lat="43.2945817" lon="12.92964"><ele>394.0</ele><time>2026-04-11T14:33:10.008Z</time></trkpt><trkpt lat="43.29453" lon="12.9297267"><ele>392.0</ele><time>2026-04-11T14:33:11.007Z</time></trkpt><trkpt lat="43.2944683" lon="12.929785"><ele>390.00000000000006</ele><time>2026-04-11T14:33:12.005Z</time></trkpt><trkpt lat="43.2944" lon="12.92982"><ele>388.0</ele><time>2026-04-11T14:33:13.007Z</time></trkpt><trkpt lat="43.2943117" lon="12.9298117"><ele>388.00000000000006</ele><time>2026-04-11T14:33:14.012Z</time></trkpt><trkpt lat="43.29423" lon="12.92978"><ele>388.0</ele><time>2026-04-11T14:33:15.006Z</time></trkpt><trkpt lat="43.2941517" lon="12.9297383"><ele>388.0</ele><time>2026-04-11T14:33:16.005Z</time></trkpt><trkpt lat="43.29407" lon="12.929685"><ele>388.0</ele><time>2026-04-11T14:33:17.007Z</time></trkpt><trkpt lat="43.2940117" lon="12.92961"><ele>388.00000000000006</ele><time>2026-04-11T14:33:18.006Z</time></trkpt><trkpt lat="43.2939633" lon="12.9295283"><ele>388.0</ele><time>2026-04-11T14:33:19.007Z</time></trkpt><trkpt lat="43.29392" lon="12.9294467"><ele>387.59999999999997</ele><time>2026-04-11T14:33:20.007Z</time></trkpt><trkpt lat="43.2938767" lon="12.929375"><ele>387.2</ele><time>2026-04-11T14:33:21.008Z</time></trkpt><trkpt lat="43.29378" lon="12.9292917"><ele>386.8</ele><time>2026-04-11T14:33:23.007Z</time></trkpt><trkpt lat="43.2936583" lon="12.92926"><ele>386.4</ele><time>2026-04-11T14:33:25.006Z</time></trkpt><trkpt lat="43.29359" lon="12.92926"><ele>386.0</ele><time>2026-04-11T14:33:26.006Z</time></trkpt><trkpt lat="43.2934883" lon="12.9292533"><ele>386.0</ele><time>2026-04-11T14:33:28.006Z</time></trkpt><trkpt lat="43.2934017" lon="12.9292283"><ele>386.0</ele><time>2026-04-11T14:33:30.007Z</time></trkpt><trkpt lat="43.2933117" lon="12.9291767"><ele>386.0</ele><time>2026-04-11T14:33:32.007Z</time></trkpt><trkpt lat="43.2932517" lon="12.9291217"><ele>386.0</ele><time>2026-04-11T14:33:33.007Z</time></trkpt><trkpt lat="43.2931767" lon="12.9290467"><ele>386.0</ele><time>2026-04-11T14:33:34.006Z</time></trkpt><trkpt lat="43.2930767" lon="12.9289717"><ele>387.5</ele><time>2026-04-11T14:33:35.007Z</time></trkpt><trkpt lat="43.2929733" lon="12.9288933"><ele>389.0</ele><time>2026-04-11T14:33:36.006Z</time></trkpt><trkpt lat="43.2928667" lon="12.928815"><ele>390.5</ele><time>2026-04-11T14:33:37.009Z</time></trkpt><trkpt lat="43.2927617" lon="12.9287417"><ele>392.0</ele><time>2026-04-11T14:33:38.008Z</time></trkpt><trkpt lat="43.292655" lon="12.92867"><ele>392.0</ele><time>2026-04-11T14:33:39.007Z</time></trkpt><trkpt lat="43.29255" lon="12.9286"><ele>392.0</ele><time>2026-04-11T14:33:40.006Z</time></trkpt><trkpt lat="43.29245" lon="12.9285417"><ele>392.0</ele><time>2026-04-11T14:33:41.007Z</time></trkpt><trkpt lat="43.2923583" lon="12.9284933"><ele>392.0</ele><time>2026-04-11T14:33:42.007Z</time></trkpt><trkpt lat="43.2922717" lon="12.9284567"><ele>392.0</ele><time>2026-04-11T14:33:43.006Z</time></trkpt><trkpt lat="43.292185" lon="12.9284267"><ele>392.6</ele><time>2026-04-11T14:33:44.009Z</time></trkpt><trkpt lat="43.2920917" lon="12.9284133"><ele>393.20000000000005</ele><time>2026-04-11T14:33:45.007Z</time></trkpt><trkpt lat="43.292" lon="12.9284"><ele>393.8</ele><time>2026-04-11T14:33:46.007Z</time></trkpt><trkpt lat="43.29191" lon="12.9283867"><ele>394.4</ele><time>2026-04-11T14:33:47.006Z</time></trkpt><trkpt lat="43.2918283" lon="12.9283583"><ele>395.0</ele><time>2026-04-11T14:33:48.006Z</time></trkpt><trkpt lat="43.2917433" lon="12.928315"><ele>395.0</ele><time>2026-04-11T14:33:49.006Z</time></trkpt><trkpt lat="43.2916533" lon="12.9282517"><ele>395.0</ele><time>2026-04-11T14:33:50.007Z</time></trkpt><trkpt lat="43.2915667" lon="12.928185"><ele>395.0</ele><time>2026-04-11T14:33:51.007Z</time></trkpt><trkpt lat="43.2914767" lon="12.9281133"><ele>395.0</ele><time>2026-04-11T14:33:52.006Z</time></trkpt><trkpt lat="43.291395" lon="12.9280467"><ele>395.0</ele><time>2026-04-11T14:33:53.006Z</time></trkpt><trkpt lat="43.29133" lon="12.9279833"><ele>395.8333333333333</ele><time>2026-04-11T14:33:54.007Z</time></trkpt><trkpt lat="43.2912667" lon="12.9279367"><ele>396.66666666666663</ele><time>2026-04-11T14:33:55.006Z</time></trkpt><trkpt lat="43.2911967" lon="12.92795"><ele>397.5</ele><time>2026-04-11T14:33:56.006Z</time></trkpt><trkpt lat="43.291135" lon="12.9279883"><ele>398.33333333333337</ele><time>2026-04-11T14:33:57.007Z</time></trkpt><trkpt lat="43.291085" lon="12.9280617"><ele>399.1666666666667</ele><time>2026-04-11T14:33:58.006Z</time></trkpt><trkpt lat="43.291025" lon="12.9281533"><ele>400.0</ele><time>2026-04-11T14:33:59.006Z</time></trkpt><trkpt lat="43.2909517" lon="12.928265"><ele>400.0</ele><time>2026-04-11T14:34:00.007Z</time></trkpt><trkpt lat="43.2908767" lon="12.9283683"><ele>400.0</ele><time>2026-04-11T14:34:01.007Z</time></trkpt><trkpt lat="43.2908067" lon="12.92847"><ele>400.0</ele><time>2026-04-11T14:34:02.006Z</time></trkpt><trkpt lat="43.2907483" lon="12.928565"><ele>400.0</ele><time>2026-04-11T14:34:03.006Z</time></trkpt><trkpt lat="43.2907017" lon="12.9286683"><ele>400.0</ele><time>2026-04-11T14:34:04.006Z</time></trkpt><trkpt lat="43.2907383" lon="12.92879"><ele>402.6</ele><time>2026-04-11T14:34:05.006Z</time></trkpt><trkpt lat="43.29079" lon="12.9288917"><ele>405.2</ele><time>2026-04-11T14:34:06.006Z</time></trkpt><trkpt lat="43.29085" lon="12.9289817"><ele>407.79999999999995</ele><time>2026-04-11T14:34:07.007Z</time></trkpt><trkpt lat="43.2909217" lon="12.9290633"><ele>410.4</ele><time>2026-04-11T14:34:08.006Z</time></trkpt><trkpt lat="43.2909933" lon="12.9291583"><ele>413.0</ele><time>2026-04-11T14:34:09.007Z</time></trkpt><trkpt lat="43.29106" lon="12.9292867"><ele>418.0</ele><time>2026-04-11T14:34:10.015Z</time></trkpt><trkpt lat="43.2911233" lon="12.929435"><ele>423.0</ele><time>2026-04-11T14:34:11.006Z</time></trkpt><trkpt lat="43.2911833" lon="12.9295983"><ele>428.0</ele><time>2026-04-11T14:34:12.007Z</time></trkpt><trkpt lat="43.291225" lon="12.9297733"><ele>433.0</ele><time>2026-04-11T14:34:13.006Z</time></trkpt><trkpt lat="43.2912517" lon="12.9299483"><ele>433.0</ele><time>2026-04-11T14:34:14.013Z</time></trkpt><trkpt lat="43.2912633" lon="12.930135"><ele>433.0</ele><time>2026-04-11T14:34:15.006Z</time></trkpt><trkpt lat="43.2912833" lon="12.930325"><ele>433.0</ele><time>2026-04-11T14:34:16.006Z</time></trkpt><trkpt lat="43.2913067" lon="12.9305217"><ele>433.0</ele><time>2026-04-11T14:34:17.005Z</time></trkpt><trkpt lat="43.291335" lon="12.9307167"><ele>430.75</ele><time>2026-04-11T14:34:18.007Z</time></trkpt><trkpt lat="43.2913683" lon="12.9309117"><ele>428.5</ele><time>2026-04-11T14:34:19.005Z</time></trkpt><trkpt lat="43.2914033" lon="12.9310767"><ele>426.25</ele><time>2026-04-11T14:34:20.008Z</time></trkpt><trkpt lat="43.2914367" lon="12.9312133"><ele>424.0</ele><time>2026-04-11T14:34:21.008Z</time></trkpt><trkpt lat="43.291415" lon="12.931315"><ele>424.0</ele><time>2026-04-11T14:34:22.007Z</time></trkpt><trkpt lat="43.2914117" lon="12.93142"><ele>424.0</ele><time>2026-04-11T14:34:23.006Z</time></trkpt><trkpt lat="43.291395" lon="12.93152"><ele>424.0</ele><time>2026-04-11T14:34:24.006Z</time></trkpt><trkpt lat="43.29135" lon="12.931615"><ele>424.0</ele><time>2026-04-11T14:34:25.007Z</time></trkpt><trkpt lat="43.2912833" lon="12.931715"><ele>424.0</ele><time>2026-04-11T14:34:26.006Z</time></trkpt><trkpt lat="43.2911733" lon="12.9317983"><ele>423.00000000000006</ele><time>2026-04-11T14:34:27.008Z</time></trkpt><trkpt lat="43.2910783" lon="12.9318783"><ele>422.0</ele><time>2026-04-11T14:34:28.007Z</time></trkpt><trkpt lat="43.2909867" lon="12.9319467"><ele>421.0</ele><time>2026-04-11T14:34:29.007Z</time></trkpt><trkpt lat="43.2909083" lon="12.9320083"><ele>420.0</ele><time>2026-04-11T14:34:30.006Z</time></trkpt><trkpt lat="43.290845" lon="12.9320633"><ele>419.00000000000006</ele><time>2026-04-11T14:34:31.007Z</time></trkpt><trkpt lat="43.29079" lon="12.9321133"><ele>418.0</ele><time>2026-04-11T14:34:32.007Z</time></trkpt><trkpt lat="43.29071" lon="12.932185"><ele>418.00000000000006</ele><time>2026-04-11T14:34:34.006Z</time></trkpt><trkpt lat="43.2906433" lon="12.9322217"><ele>418.0</ele><time>2026-04-11T14:34:36.008Z</time></trkpt><trkpt lat="43.2905667" lon="12.9322533"><ele>418.0</ele><time>2026-04-11T14:34:38.006Z</time></trkpt><trkpt lat="43.29047" lon="12.9323067"><ele>418.0</ele><time>2026-04-11T14:34:40.007Z</time></trkpt><trkpt lat="43.2904083" lon="12.9323367"><ele>418.00000000000006</ele><time>2026-04-11T14:34:41.007Z</time></trkpt><trkpt lat="43.2903417" lon="12.93237"><ele>418.0</ele><time>2026-04-11T14:34:42.006Z</time></trkpt><trkpt lat="43.2902783" lon="12.9324"><ele>418.2</ele><time>2026-04-11T14:34:43.007Z</time></trkpt><trkpt lat="43.2901933" lon="12.9325033"><ele>418.4</ele><time>2026-04-11T14:34:45.007Z</time></trkpt><trkpt lat="43.29017" lon="12.9326017"><ele>418.59999999999997</ele><time>2026-04-11T14:34:46.009Z</time></trkpt><trkpt lat="43.2901533" lon="12.9327117"><ele>418.79999999999995</ele><time>2026-04-11T14:34:47.006Z</time></trkpt><trkpt lat="43.2901383" lon="12.9328517"><ele>419.0</ele><time>2026-04-11T14:34:48.007Z</time></trkpt><trkpt lat="43.2901267" lon="12.9330067"><ele>419.0</ele><time>2026-04-11T14:34:49.007Z</time></trkpt><trkpt lat="43.2901117" lon="12.93315"><ele>419.0</ele><time>2026-04-11T14:34:50.007Z</time></trkpt><trkpt lat="43.2901" lon="12.9332783"><ele>419.0</ele><time>2026-04-11T14:34:51.007Z</time></trkpt><trkpt lat="43.2900933" lon="12.9334"><ele>419.0</ele><time>2026-04-11T14:34:52.007Z</time></trkpt><trkpt lat="43.290095" lon="12.9335217"><ele>419.0</ele><time>2026-04-11T14:34:53.008Z</time></trkpt><trkpt lat="43.2901017" lon="12.93364"><ele>418.49999999999994</ele><time>2026-04-11T14:34:54.007Z</time></trkpt><trkpt lat="43.290115" lon="12.93377"><ele>418.0</ele><time>2026-04-11T14:34:55.006Z</time></trkpt><trkpt lat="43.2901183" lon="12.93389"><ele>417.5</ele><time>2026-04-11T14:34:56.007Z</time></trkpt><trkpt lat="43.290135" lon="12.9340183"><ele>417.0</ele><time>2026-04-11T14:34:57.008Z</time></trkpt><trkpt lat="43.2901417" lon="12.934135"><ele>416.49999999999994</ele><time>2026-04-11T14:34:58.007Z</time></trkpt><trkpt lat="43.2901383" lon="12.9342533"><ele>416.0</ele><time>2026-04-11T14:34:59.004Z</time></trkpt><trkpt lat="43.2901333" lon="12.93435"><ele>414.8333333333333</ele><time>2026-04-11T14:35:00.006Z</time></trkpt><trkpt lat="43.290125" lon="12.9344517"><ele>413.66666666666663</ele><time>2026-04-11T14:35:01.007Z</time></trkpt><trkpt lat="43.290095" lon="12.9345517"><ele>412.5</ele><time>2026-04-11T14:35:02.006Z</time></trkpt><trkpt lat="43.2900467" lon="12.934655"><ele>411.33333333333337</ele><time>2026-04-11T14:35:03.009Z</time></trkpt><trkpt lat="43.2899933" lon="12.9347533"><ele>410.1666666666667</ele><time>2026-04-11T14:35:04.007Z</time></trkpt><trkpt lat="43.2899583" lon="12.934855"><ele>409.0</ele><time>2026-04-11T14:35:05.006Z</time></trkpt><trkpt lat="43.2899217" lon="12.9349367"><ele>407.0</ele><time>2026-04-11T14:35:06.007Z</time></trkpt><trkpt lat="43.2898667" lon="12.93507"><ele>405.0</ele><time>2026-04-11T14:35:08.004Z</time></trkpt><trkpt lat="43.289795" lon="12.93516"><ele>403.0</ele><time>2026-04-11T14:35:10.007Z</time></trkpt><trkpt lat="43.289685" lon="12.9352583"><ele>401.0</ele><time>2026-04-11T14:35:12.006Z</time></trkpt><trkpt lat="43.2896183" lon="12.9353117"><ele>399.0</ele><time>2026-04-11T14:35:13.009Z</time></trkpt><trkpt lat="43.2895533" lon="12.93536"><ele>399.0</ele><time>2026-04-11T14:35:14.008Z</time></trkpt><trkpt lat="43.28943" lon="12.9354133"><ele>399.0</ele><time>2026-04-11T14:35:16.007Z</time></trkpt><trkpt lat="43.2893517" lon="12.93544"><ele>399.0</ele><time>2026-04-11T14:35:17.006Z</time></trkpt><trkpt lat="43.289275" lon="12.9354783"><ele>399.0</ele><time>2026-04-11T14:35:18.006Z</time></trkpt><trkpt lat="43.2891933" lon="12.9355233"><ele>399.0</ele><time>2026-04-11T14:35:19.006Z</time></trkpt><trkpt lat="43.28912" lon="12.9355667"><ele>399.0</ele><time>2026-04-11T14:35:20.007Z</time></trkpt><trkpt lat="43.2890533" lon="12.93562"><ele>399.0</ele><time>2026-04-11T14:35:21.008Z</time></trkpt><trkpt lat="43.289" lon="12.935675"><ele>399.0</ele><time>2026-04-11T14:35:22.008Z</time></trkpt><trkpt lat="43.288945" lon="12.935725"><ele>399.0</ele><time>2026-04-11T14:35:23.008Z</time></trkpt><trkpt lat="43.288885" lon="12.935755"><ele>399.0</ele><time>2026-04-11T14:35:24.007Z</time></trkpt><trkpt lat="43.288805" lon="12.9357717"><ele>399.0</ele><time>2026-04-11T14:35:25.007Z</time></trkpt><trkpt lat="43.2887117" lon="12.9357883"><ele>399.0</ele><time>2026-04-11T14:35:26.005Z</time></trkpt><trkpt lat="43.2886067" lon="12.9358067"><ele>399.1666666666667</ele><time>2026-04-11T14:35:27.007Z</time></trkpt><trkpt lat="43.2885117" lon="12.935835"><ele>399.33333333333337</ele><time>2026-04-11T14:35:28.005Z</time></trkpt><trkpt lat="43.28843" lon="12.93586"><ele>399.5</ele><time>2026-04-11T14:35:29.006Z</time></trkpt><trkpt lat="43.2883683" lon="12.9359"><ele>399.6666666666667</ele><time>2026-04-11T14:35:30.008Z</time></trkpt><trkpt lat="43.2883083" lon="12.936005"><ele>399.83333333333337</ele><time>2026-04-11T14:35:32.007Z</time></trkpt><trkpt lat="43.2883033" lon="12.9361183"><ele>400.0</ele><time>2026-04-11T14:35:34.008Z</time></trkpt><trkpt lat="43.288345" lon="12.9362417"><ele>399.0</ele><time>2026-04-11T14:35:36.008Z</time></trkpt><trkpt lat="43.2883917" lon="12.9363"><ele>398.0</ele><time>2026-04-11T14:35:37.007Z</time></trkpt><trkpt lat="43.2884517" lon="12.93638"><ele>397.0</ele><time>2026-04-11T14:35:38.006Z</time></trkpt><trkpt lat="43.28852" lon="12.93648"><ele>396.0</ele><time>2026-04-11T14:35:39.008Z</time></trkpt><trkpt lat="43.288595" lon="12.93659"><ele>395.0</ele><time>2026-04-11T14:35:40.006Z</time></trkpt><trkpt lat="43.2886667" lon="12.9366967"><ele>395.6</ele><time>2026-04-11T14:35:41.006Z</time></trkpt><trkpt lat="43.2887433" lon="12.9368083"><ele>396.2</ele><time>2026-04-11T14:35:42.008Z</time></trkpt><trkpt lat="43.2888233" lon="12.9369233"><ele>396.79999999999995</ele><time>2026-04-11T14:35:43.007Z</time></trkpt><trkpt lat="43.2888983" lon="12.9370333"><ele>397.4</ele><time>2026-04-11T14:35:44.007Z</time></trkpt><trkpt lat="43.2889667" lon="12.9371317"><ele>398.0</ele><time>2026-04-11T14:35:45.008Z</time></trkpt><trkpt lat="43.289015" lon="12.9372333"><ele>396.79999999999995</ele><time>2026-04-11T14:35:46.007Z</time></trkpt><trkpt lat="43.289055" lon="12.9373517"><ele>395.6</ele><time>2026-04-11T14:35:47.005Z</time></trkpt><trkpt lat="43.28908" lon="12.9374683"><ele>394.4</ele><time>2026-04-11T14:35:48.007Z</time></trkpt><trkpt lat="43.2891033" lon="12.9375667"><ele>393.20000000000005</ele><time>2026-04-11T14:35:49.006Z</time></trkpt><trkpt lat="43.2891083" lon="12.9377283"><ele>392.0</ele><time>2026-04-11T14:35:51.007Z</time></trkpt><trkpt lat="43.2890633" lon="12.9378517"><ele>392.0</ele><time>2026-04-11T14:35:53.006Z</time></trkpt><trkpt lat="43.2889683" lon="12.93792"><ele>392.0</ele><time>2026-04-11T14:35:55.007Z</time></trkpt><trkpt lat="43.28889" lon="12.9379583"><ele>392.0</ele><time>2026-04-11T14:35:56.007Z</time></trkpt><trkpt lat="43.2888017" lon="12.9379967"><ele>392.0</ele><time>2026-04-11T14:35:57.007Z</time></trkpt><trkpt lat="43.288715" lon="12.9380333"><ele>392.0</ele><time>2026-04-11T14:35:58.007Z</time></trkpt><trkpt lat="43.28863" lon="12.93807"><ele>392.66666666666663</ele><time>2026-04-11T14:35:59.006Z</time></trkpt><trkpt lat="43.28855" lon="12.9381117"><ele>393.3333333333333</ele><time>2026-04-11T14:36:00.009Z</time></trkpt><trkpt lat="43.2884733" lon="12.93815"><ele>394.0</ele><time>2026-04-11T14:36:01.007Z</time></trkpt><trkpt lat="43.2883967" lon="12.9381917"><ele>394.66666666666663</ele><time>2026-04-11T14:36:02.006Z</time></trkpt><trkpt lat="43.288315" lon="12.93825"><ele>395.3333333333333</ele><time>2026-04-11T14:36:03.008Z</time></trkpt><trkpt lat="43.2882233" lon="12.9383167"><ele>396.0</ele><time>2026-04-11T14:36:04.007Z</time></trkpt><trkpt lat="43.2881283" lon="12.938385"><ele>397.8</ele><time>2026-04-11T14:36:05.005Z</time></trkpt><trkpt lat="43.2880333" lon="12.9384483"><ele>399.6</ele><time>2026-04-11T14:36:06.006Z</time></trkpt><trkpt lat="43.2879417" lon="12.9385133"><ele>401.4</ele><time>2026-04-11T14:36:07.005Z</time></trkpt><trkpt lat="43.2878433" lon="12.9385833"><ele>403.2</ele><time>2026-04-11T14:36:08.006Z</time></trkpt><trkpt lat="43.2877317" lon="12.938655"><ele>405.0</ele><time>2026-04-11T14:36:09.007Z</time></trkpt><trkpt lat="43.28762" lon="12.9387267"><ele>405.0</ele><time>2026-04-11T14:36:10.007Z</time></trkpt><trkpt lat="43.28751" lon="12.9387933"><ele>405.0</ele><time>2026-04-11T14:36:11.005Z</time></trkpt><trkpt lat="43.2873983" lon="12.9388533"><ele>405.0</ele><time>2026-04-11T14:36:12.008Z</time></trkpt><trkpt lat="43.287295" lon="12.9389133"><ele>405.0</ele><time>2026-04-11T14:36:13.007Z</time></trkpt><trkpt lat="43.28719" lon="12.9389633"><ele>406.6</ele><time>2026-04-11T14:36:14.007Z</time></trkpt><trkpt lat="43.28709" lon="12.93901"><ele>408.2</ele><time>2026-04-11T14:36:15.008Z</time></trkpt><trkpt lat="43.2869983" lon="12.9390433"><ele>409.79999999999995</ele><time>2026-04-11T14:36:16.006Z</time></trkpt><trkpt lat="43.28691" lon="12.9390667"><ele>411.4</ele><time>2026-04-11T14:36:17.006Z</time></trkpt><trkpt lat="43.2868183" lon="12.9390833"><ele>413.0</ele><time>2026-04-11T14:36:18.006Z</time></trkpt><trkpt lat="43.2867367" lon="12.9391017"><ele>412.99999999999994</ele><time>2026-04-11T14:36:19.007Z</time></trkpt><trkpt lat="43.286675" lon="12.9391633"><ele>413.0</ele><time>2026-04-11T14:36:20.007Z</time></trkpt><trkpt lat="43.2866517" lon="12.9392733"><ele>413.0</ele><time>2026-04-11T14:36:21.008Z</time></trkpt><trkpt lat="43.2866433" lon="12.9393967"><ele>413.0</ele><time>2026-04-11T14:36:22.009Z</time></trkpt><trkpt lat="43.2866383" lon="12.9395133"><ele>412.99999999999994</ele><time>2026-04-11T14:36:23.006Z</time></trkpt><trkpt lat="43.286625" lon="12.9396167"><ele>413.0</ele><time>2026-04-11T14:36:24.008Z</time></trkpt><trkpt lat="43.2865433" lon="12.9397083"><ele>414.59999999999997</ele><time>2026-04-11T14:36:26.007Z</time></trkpt><trkpt lat="43.2864683" lon="12.939705"><ele>416.2</ele><time>2026-04-11T14:36:27.007Z</time></trkpt><trkpt lat="43.2863867" lon="12.9397167"><ele>417.8</ele><time>2026-04-11T14:36:28.006Z</time></trkpt><trkpt lat="43.2863" lon="12.9397583"><ele>419.4</ele><time>2026-04-11T14:36:29.005Z</time></trkpt><trkpt lat="43.2862133" lon="12.9398333"><ele>421.0</ele><time>2026-04-11T14:36:30.007Z</time></trkpt><trkpt lat="43.2861267" lon="12.93993"><ele>422.8</ele><time>2026-04-11T14:36:31.008Z</time></trkpt><trkpt lat="43.2860383" lon="12.94003"><ele>424.6</ele><time>2026-04-11T14:36:32.008Z</time></trkpt><trkpt lat="43.28595" lon="12.9401317"><ele>426.4</ele><time>2026-04-11T14:36:33.008Z</time></trkpt><trkpt lat="43.285865" lon="12.9402367"><ele>428.2</ele><time>2026-04-11T14:36:34.007Z</time></trkpt><trkpt lat="43.2857917" lon="12.9403383"><ele>430.0</ele><time>2026-04-11T14:36:35.006Z</time></trkpt><trkpt lat="43.2857217" lon="12.9404283"><ele>432.4</ele><time>2026-04-11T14:36:36.006Z</time></trkpt><trkpt lat="43.285655" lon="12.9405133"><ele>434.8</ele><time>2026-04-11T14:36:37.007Z</time></trkpt><trkpt lat="43.28559" lon="12.9405883"><ele>437.20000000000005</ele><time>2026-04-11T14:36:38.007Z</time></trkpt><trkpt lat="43.28552" lon="12.9406567"><ele>439.6</ele><time>2026-04-11T14:36:39.009Z</time></trkpt><trkpt lat="43.2854367" lon="12.9407217"><ele>442.0</ele><time>2026-04-11T14:36:40.007Z</time></trkpt><trkpt lat="43.28535" lon="12.9407767"><ele>442.33333333333337</ele><time>2026-04-11T14:36:41.005Z</time></trkpt><trkpt lat="43.2852633" lon="12.9408183"><ele>442.6666666666667</ele><time>2026-04-11T14:36:42.006Z</time></trkpt><trkpt lat="43.28518" lon="12.9408567"><ele>443.0</ele><time>2026-04-11T14:36:43.008Z</time></trkpt><trkpt lat="43.2851017" lon="12.940895"><ele>443.33333333333337</ele><time>2026-04-11T14:36:44.006Z</time></trkpt><trkpt lat="43.2850333" lon="12.9409333"><ele>443.6666666666667</ele><time>2026-04-11T14:36:45.008Z</time></trkpt><trkpt lat="43.284955" lon="12.9409867"><ele>444.0</ele><time>2026-04-11T14:36:47.006Z</time></trkpt><trkpt lat="43.2849733" lon="12.9410733"><ele>445.2</ele><time>2026-04-11T14:36:50.007Z</time></trkpt><trkpt lat="43.2850583" lon="12.9411"><ele>446.4</ele><time>2026-04-11T14:36:51.007Z</time></trkpt><trkpt lat="43.285155" lon="12.9411367"><ele>447.6</ele><time>2026-04-11T14:36:52.009Z</time></trkpt><trkpt lat="43.2852383" lon="12.9411883"><ele>448.8</ele><time>2026-04-11T14:36:53.007Z</time></trkpt><trkpt lat="43.2853317" lon="12.941275"><ele>450.0</ele><time>2026-04-11T14:36:54.006Z</time></trkpt><trkpt lat="43.2854433" lon="12.9414"><ele>450.0</ele><time>2026-04-11T14:36:55.008Z</time></trkpt><trkpt lat="43.28555" lon="12.9415333"><ele>450.0</ele><time>2026-04-11T14:36:56.006Z</time></trkpt><trkpt lat="43.285655" lon="12.941665"><ele>450.0</ele><time>2026-04-11T14:36:57.006Z</time></trkpt><trkpt lat="43.2857567" lon="12.9418017"><ele>450.0</ele><time>2026-04-11T14:36:58.005Z</time></trkpt><trkpt lat="43.2858583" lon="12.94194"><ele>453.33333333333337</ele><time>2026-04-11T14:36:59.006Z</time></trkpt><trkpt lat="43.2859633" lon="12.9420883"><ele>456.6666666666667</ele><time>2026-04-11T14:37:00.021Z</time></trkpt><trkpt lat="43.2860733" lon="12.9422367"><ele>460.0</ele><time>2026-04-11T14:37:01.006Z</time></trkpt><trkpt lat="43.2861833" lon="12.9423833"><ele>460.0</ele><time>2026-04-11T14:37:02.007Z</time></trkpt><trkpt lat="43.2862967" lon="12.942535"><ele>460.0</ele><time>2026-04-11T14:37:03.007Z</time></trkpt><trkpt lat="43.286415" lon="12.942685"><ele>460.0</ele><time>2026-04-11T14:37:04.006Z</time></trkpt><trkpt lat="43.28653" lon="12.9428333"><ele>461.33333333333337</ele><time>2026-04-11T14:37:05.005Z</time></trkpt><trkpt lat="43.2866433" lon="12.94298"><ele>462.66666666666663</ele><time>2026-04-11T14:37:06.007Z</time></trkpt><trkpt lat="43.2867533" lon="12.9431283"><ele>464.0</ele><time>2026-04-11T14:37:07.001Z</time></trkpt><trkpt lat="43.286865" lon="12.9432783"><ele>467.0</ele><time>2026-04-11T14:37:08.007Z</time></trkpt><trkpt lat="43.2869817" lon="12.94343"><ele>470.0</ele><time>2026-04-11T14:37:09.006Z</time></trkpt><trkpt lat="43.2870967" lon="12.94358"><ele>473.0</ele><time>2026-04-11T14:37:10.005Z</time></trkpt><trkpt lat="43.2872133" lon="12.943735"><ele>473.0</ele><time>2026-04-11T14:37:11.006Z</time></trkpt><trkpt lat="43.2873167" lon="12.943905"><ele>473.0</ele><time>2026-04-11T14:37:12.007Z</time></trkpt><trkpt lat="43.287405" lon="12.9440883"><ele>473.0</ele><time>2026-04-11T14:37:13.005Z</time></trkpt><trkpt lat="43.2874883" lon="12.9442783"><ele>473.0</ele><time>2026-04-11T14:37:14.005Z</time></trkpt><trkpt lat="43.2875683" lon="12.9444717"><ele>473.0</ele><time>2026-04-11T14:37:15.008Z</time></trkpt><trkpt lat="43.2876467" lon="12.9446683"><ele>473.0</ele><time>2026-04-11T14:37:16.008Z</time></trkpt><trkpt lat="43.287725" lon="12.9448633"><ele>472.3333333333333</ele><time>2026-04-11T14:37:17.006Z</time></trkpt><trkpt lat="43.2878017" lon="12.9450583"><ele>471.66666666666663</ele><time>2026-04-11T14:37:18.007Z</time></trkpt><trkpt lat="43.28788" lon="12.9452517"><ele>471.0</ele><time>2026-04-11T14:37:19.008Z</time></trkpt><trkpt lat="43.28795" lon="12.9454433"><ele>471.0</ele><time>2026-04-11T14:37:20.006Z</time></trkpt><trkpt lat="43.28803" lon="12.9456267"><ele>471.0</ele><time>2026-04-11T14:37:21.008Z</time></trkpt><trkpt lat="43.2881317" lon="12.9457883"><ele>471.0</ele><time>2026-04-11T14:37:22.006Z</time></trkpt><trkpt lat="43.2882517" lon="12.9459267"><ele>471.33333333333337</ele><time>2026-04-11T14:37:23.002Z</time></trkpt><trkpt lat="43.2883833" lon="12.9460417"><ele>471.6666666666667</ele><time>2026-04-11T14:37:24.007Z</time></trkpt><trkpt lat="43.2885217" lon="12.94615"><ele>472.0</ele><time>2026-04-11T14:37:25.005Z</time></trkpt><trkpt lat="43.2886633" lon="12.9462517"><ele>472.0</ele><time>2026-04-11T14:37:26Z</time></trkpt><trkpt lat="43.2888033" lon="12.9463517"><ele>472.0</ele><time>2026-04-11T14:37:27.007Z</time></trkpt><trkpt lat="43.2889433" lon="12.94645"><ele>472.0</ele><time>2026-04-11T14:37:28.007Z</time></trkpt><trkpt lat="43.2890767" lon="12.9465467"><ele>474.5</ele><time>2026-04-11T14:37:29.007Z</time></trkpt><trkpt lat="43.2892033" lon="12.9466367"><ele>477.0</ele><time>2026-04-11T14:37:30.007Z</time></trkpt><trkpt lat="43.28932" lon="12.9467283"><ele>479.5</ele><time>2026-04-11T14:37:31.006Z</time></trkpt><trkpt lat="43.28943" lon="12.9468117"><ele>482.0</ele><time>2026-04-11T14:37:32.007Z</time></trkpt><trkpt lat="43.2895317" lon="12.9469183"><ele>482.5</ele><time>2026-04-11T14:37:33.007Z</time></trkpt><trkpt lat="43.2896367" lon="12.9470467"><ele>483.0</ele><time>2026-04-11T14:37:34.007Z</time></trkpt><trkpt lat="43.2897367" lon="12.9471783"><ele>483.5</ele><time>2026-04-11T14:37:35.006Z</time></trkpt><trkpt lat="43.289825" lon="12.94731"><ele>484.0</ele><time>2026-04-11T14:37:36.003Z</time></trkpt><trkpt lat="43.2898967" lon="12.9474333"><ele>485.0</ele><time>2026-04-11T14:37:37.007Z</time></trkpt><trkpt lat="43.2899583" lon="12.9475367"><ele>486.0</ele><time>2026-04-11T14:37:38.007Z</time></trkpt><trkpt lat="43.290025" lon="12.94761"><ele>487.0</ele><time>2026-04-11T14:37:39.008Z</time></trkpt><trkpt lat="43.2901067" lon="12.947665"><ele>488.0</ele><time>2026-04-11T14:37:40.008Z</time></trkpt><trkpt lat="43.290205" lon="12.9476933"><ele>489.0</ele><time>2026-04-11T14:37:41.007Z</time></trkpt><trkpt lat="43.2903017" lon="12.947715"><ele>490.0</ele><time>2026-04-11T14:37:42.007Z</time></trkpt><trkpt lat="43.2903917" lon="12.947735"><ele>491.0</ele><time>2026-04-11T14:37:43.006Z</time></trkpt><trkpt lat="43.2904767" lon="12.9477417"><ele>492.0</ele><time>2026-04-11T14:37:44.006Z</time></trkpt><trkpt lat="43.29056" lon="12.94777"><ele>493.0</ele><time>2026-04-11T14:37:45.007Z</time></trkpt><trkpt lat="43.2906367" lon="12.947785"><ele>494.0</ele><time>2026-04-11T14:37:46.008Z</time></trkpt><trkpt lat="43.2907117" lon="12.9478117"><ele>495.0</ele><time>2026-04-11T14:37:47.006Z</time></trkpt><trkpt lat="43.2907817" lon="12.9478567"><ele>495.0</ele><time>2026-04-11T14:37:48.004Z</time></trkpt><trkpt lat="43.2908583" lon="12.94793"><ele>495.0</ele><time>2026-04-11T14:37:49.007Z</time></trkpt><trkpt lat="43.2909267" lon="12.94805"><ele>495.0</ele><time>2026-04-11T14:37:50.007Z</time></trkpt><trkpt lat="43.290985" lon="12.9481733"><ele>495.0</ele><time>2026-04-11T14:37:51.007Z</time></trkpt><trkpt lat="43.2910283" lon="12.9483"><ele>495.0</ele><time>2026-04-11T14:37:52.006Z</time></trkpt><trkpt lat="43.29106" lon="12.9484333"><ele>495.1428571428571</ele><time>2026-04-11T14:37:53.005Z</time></trkpt><trkpt lat="43.29109" lon="12.94855"><ele>495.2857142857143</ele><time>2026-04-11T14:37:54.006Z</time></trkpt><trkpt lat="43.29112" lon="12.9486533"><ele>495.42857142857144</ele><time>2026-04-11T14:37:55.007Z</time></trkpt><trkpt lat="43.2911417" lon="12.948745"><ele>495.57142857142856</ele><time>2026-04-11T14:37:56.008Z</time></trkpt><trkpt lat="43.2911733" lon="12.9488317"><ele>495.7142857142858</ele><time>2026-04-11T14:37:57.007Z</time></trkpt><trkpt lat="43.291205" lon="12.9489067"><ele>495.8571428571429</ele><time>2026-04-11T14:37:58.006Z</time></trkpt><trkpt lat="43.2912417" lon="12.9489783"><ele>496.0</ele><time>2026-04-11T14:37:59.006Z</time></trkpt><trkpt lat="43.2912983" lon="12.9490317"><ele>496.00000000000006</ele><time>2026-04-11T14:38:00.006Z</time></trkpt><trkpt lat="43.2913583" lon="12.9490783"><ele>496.0</ele><time>2026-04-11T14:38:01.005Z</time></trkpt><trkpt lat="43.2914233" lon="12.9491167"><ele>496.0</ele><time>2026-04-11T14:38:02.006Z</time></trkpt><trkpt lat="43.2914833" lon="12.949145"><ele>496.0</ele><time>2026-04-11T14:38:03.007Z</time></trkpt><trkpt lat="43.2915767" lon="12.9491833"><ele>496.00000000000006</ele><time>2026-04-11T14:38:05.007Z</time></trkpt><trkpt lat="43.2916267" lon="12.9492583"><ele>496.0</ele><time>2026-04-11T14:38:08.006Z</time></trkpt><trkpt lat="43.2915833" lon="12.9493583"><ele>495.33333333333337</ele><time>2026-04-11T14:38:14.009Z</time></trkpt><trkpt lat="43.2915233" lon="12.9494633"><ele>494.6666666666667</ele><time>2026-04-11T14:38:16.007Z</time></trkpt><trkpt lat="43.291475" lon="12.9495817"><ele>494.0</ele><time>2026-04-11T14:38:18.006Z</time></trkpt><trkpt lat="43.2914617" lon="12.9496683"><ele>493.33333333333337</ele><time>2026-04-11T14:38:19.007Z</time></trkpt><trkpt lat="43.291485" lon="12.9497767"><ele>492.6666666666667</ele><time>2026-04-11T14:38:20.004Z</time></trkpt><trkpt lat="43.2915283" lon="12.949885"><ele>492.0</ele><time>2026-04-11T14:38:21.006Z</time></trkpt><trkpt lat="43.2915733" lon="12.9500033"><ele>490.8333333333333</ele><time>2026-04-11T14:38:22.005Z</time></trkpt><trkpt lat="43.2916217" lon="12.95013"><ele>489.66666666666663</ele><time>2026-04-11T14:38:23.006Z</time></trkpt><trkpt lat="43.2916717" lon="12.950245"><ele>488.5</ele><time>2026-04-11T14:38:24.006Z</time></trkpt><trkpt lat="43.291715" lon="12.9503383"><ele>487.3333333333333</ele><time>2026-04-11T14:38:25.005Z</time></trkpt><trkpt lat="43.29176" lon="12.9504267"><ele>486.16666666666663</ele><time>2026-04-11T14:38:26.006Z</time></trkpt><trkpt lat="43.2918117" lon="12.9505117"><ele>485.0</ele><time>2026-04-11T14:38:27.006Z</time></trkpt><trkpt lat="43.2918767" lon="12.9506083"><ele>485.0</ele><time>2026-04-11T14:38:28.006Z</time></trkpt><trkpt lat="43.2919683" lon="12.95069"><ele>485.0</ele><time>2026-04-11T14:38:29.006Z</time></trkpt><trkpt lat="43.2921033" lon="12.9507983"><ele>485.0</ele><time>2026-04-11T14:38:30.007Z</time></trkpt><trkpt lat="43.292235" lon="12.9508833"><ele>485.0</ele><time>2026-04-11T14:38:31.006Z</time></trkpt><trkpt lat="43.2923633" lon="12.9509583"><ele>482.5</ele><time>2026-04-11T14:38:32.006Z</time></trkpt><trkpt lat="43.292495" lon="12.9510317"><ele>480.0</ele><time>2026-04-11T14:38:33.008Z</time></trkpt><trkpt lat="43.2926233" lon="12.9511133"><ele>477.5</ele><time>2026-04-11T14:38:34.006Z</time></trkpt><trkpt lat="43.29274" lon="12.9511917"><ele>475.0</ele><time>2026-04-11T14:38:35.005Z</time></trkpt><trkpt lat="43.2928367" lon="12.9512617"><ele>475.0</ele><time>2026-04-11T14:38:36.005Z</time></trkpt><trkpt lat="43.2929183" lon="12.951335"><ele>475.0</ele><time>2026-04-11T14:38:37.005Z</time></trkpt><trkpt lat="43.29299" lon="12.95143"><ele>475.0</ele><time>2026-04-11T14:38:38.005Z</time></trkpt><trkpt lat="43.29306" lon="12.9515567"><ele>475.0</ele><time>2026-04-11T14:38:39.009Z</time></trkpt><trkpt lat="43.2931317" lon="12.9517133"><ele>475.0</ele><time>2026-04-11T14:38:40.006Z</time></trkpt><trkpt lat="43.2932033" lon="12.95188"><ele>470.25</ele><time>2026-04-11T14:38:41.007Z</time></trkpt><trkpt lat="43.2932833" lon="12.9520383"><ele>465.5</ele><time>2026-04-11T14:38:42.006Z</time></trkpt><trkpt lat="43.293365" lon="12.9521933"><ele>460.75</ele><time>2026-04-11T14:38:43.007Z</time></trkpt><trkpt lat="43.29345" lon="12.9523467"><ele>456.0</ele><time>2026-04-11T14:38:44.007Z</time></trkpt><trkpt lat="43.2935333" lon="12.9524983"><ele>451.5</ele><time>2026-04-11T14:38:45.006Z</time></trkpt><trkpt lat="43.2936167" lon="12.9526567"><ele>447.0</ele><time>2026-04-11T14:38:46.005Z</time></trkpt><trkpt lat="43.2937" lon="12.952815"><ele>442.5</ele><time>2026-04-11T14:38:47.006Z</time></trkpt><trkpt lat="43.29378" lon="12.95298"><ele>438.0</ele><time>2026-04-11T14:38:48.006Z</time></trkpt><trkpt lat="43.2938633" lon="12.9531367"><ele>438.0</ele><time>2026-04-11T14:38:49.006Z</time></trkpt><trkpt lat="43.2939567" lon="12.9532817"><ele>438.0</ele><time>2026-04-11T14:38:50.005Z</time></trkpt><trkpt lat="43.29404" lon="12.9534133"><ele>438.0</ele><time>2026-04-11T14:38:51.006Z</time></trkpt><trkpt lat="43.294115" lon="12.9535267"><ele>438.0</ele><time>2026-04-11T14:38:52.006Z</time></trkpt><trkpt lat="43.2941717" lon="12.953615"><ele>438.0</ele><time>2026-04-11T14:38:53.006Z</time></trkpt><trkpt lat="43.29424" lon="12.9536683"><ele>438.0</ele><time>2026-04-11T14:38:54.006Z</time></trkpt><trkpt lat="43.2943117" lon="12.9537033"><ele>438.0</ele><time>2026-04-11T14:38:55.007Z</time></trkpt><trkpt lat="43.294385" lon="12.95372"><ele>438.0</ele><time>2026-04-11T14:38:56.004Z</time></trkpt><trkpt lat="43.2944567" lon="12.9537267"><ele>438.0</ele><time>2026-04-11T14:38:57.008Z</time></trkpt><trkpt lat="43.2945283" lon="12.9537383"><ele>438.0</ele><time>2026-04-11T14:38:58.006Z</time></trkpt><trkpt lat="43.2945967" lon="12.9537517"><ele>438.0</ele><time>2026-04-11T14:38:59.006Z</time></trkpt><trkpt lat="43.29466" lon="12.95376"><ele>438.1666666666667</ele><time>2026-04-11T14:39:00.006Z</time></trkpt><trkpt lat="43.2947767" lon="12.9537833"><ele>438.33333333333337</ele><time>2026-04-11T14:39:02.006Z</time></trkpt><trkpt lat="43.294855" lon="12.9537867"><ele>438.5</ele><time>2026-04-11T14:39:04.007Z</time></trkpt><trkpt lat="43.2949417" lon="12.9538167"><ele>438.6666666666667</ele><time>2026-04-11T14:39:07.007Z</time></trkpt><trkpt lat="43.2950083" lon="12.95386"><ele>438.83333333333337</ele><time>2026-04-11T14:39:09.007Z</time></trkpt><trkpt lat="43.295075" lon="12.95392"><ele>439.0</ele><time>2026-04-11T14:39:11.005Z</time></trkpt><trkpt lat="43.295125" lon="12.9539917"><ele>439.00000000000006</ele><time>2026-04-11T14:39:13.005Z</time></trkpt><trkpt lat="43.295185" lon="12.95403"><ele>439.0</ele><time>2026-04-11T14:39:16.006Z</time></trkpt><trkpt lat="43.2952483" lon="12.95398"><ele>439.0</ele><time>2026-04-11T14:39:20.005Z</time></trkpt><trkpt lat="43.295335" lon="12.9539517"><ele>439.0</ele><time>2026-04-11T14:39:22.009Z</time></trkpt><trkpt lat="43.29543" lon="12.9539467"><ele>439.00000000000006</ele><time>2026-04-11T14:39:24.007Z</time></trkpt><trkpt lat="43.2955133" lon="12.9539533"><ele>439.0</ele><time>2026-04-11T14:39:26.008Z</time></trkpt><trkpt lat="43.2956033" lon="12.9539233"><ele>437.6666666666667</ele><time>2026-04-11T14:39:29.006Z</time></trkpt><trkpt lat="43.29568" lon="12.9538783"><ele>436.33333333333337</ele><time>2026-04-11T14:39:31.007Z</time></trkpt><trkpt lat="43.295745" lon="12.9538367"><ele>435.0</ele><time>2026-04-11T14:39:33.007Z</time></trkpt><trkpt lat="43.2958167" lon="12.9537817"><ele>433.66666666666663</ele><time>2026-04-11T14:39:37.007Z</time></trkpt><trkpt lat="43.2958333" lon="12.9536867"><ele>432.3333333333333</ele><time>2026-04-11T14:39:56.007Z</time></trkpt><trkpt lat="43.2958933" lon="12.9536033"><ele>431.0</ele><time>2026-04-11T14:40:10.007Z</time></trkpt><trkpt lat="43.29596" lon="12.9535467"><ele>430.99999999999994</ele><time>2026-04-11T14:40:13.006Z</time></trkpt><trkpt lat="43.29602" lon="12.9534883"><ele>431.0</ele><time>2026-04-11T14:40:16.006Z</time></trkpt><trkpt lat="43.2960833" lon="12.9534267"><ele>431.0</ele><time>2026-04-11T14:40:18.006Z</time></trkpt><trkpt lat="43.2961633" lon="12.9533433"><ele>431.0</ele><time>2026-04-11T14:40:20.007Z</time></trkpt><trkpt lat="43.2962367" lon="12.9532783"><ele>430.99999999999994</ele><time>2026-04-11T14:40:22.007Z</time></trkpt><trkpt lat="43.2963117" lon="12.95321"><ele>431.0</ele><time>2026-04-11T14:40:24.01Z</time></trkpt><trkpt lat="43.2964117" lon="12.9531017"><ele>431.66666666666663</ele><time>2026-04-11T14:40:26.007Z</time></trkpt><trkpt lat="43.29647" lon="12.9530467"><ele>432.3333333333333</ele><time>2026-04-11T14:40:27.008Z</time></trkpt><trkpt lat="43.2965367" lon="12.9530033"><ele>433.0</ele><time>2026-04-11T14:40:28.007Z</time></trkpt><trkpt lat="43.2966133" lon="12.9529733"><ele>433.66666666666663</ele><time>2026-04-11T14:40:29.005Z</time></trkpt><trkpt lat="43.2966967" lon="12.9529683"><ele>434.3333333333333</ele><time>2026-04-11T14:40:30.006Z</time></trkpt><trkpt lat="43.2967967" lon="12.9529617"><ele>435.0</ele><time>2026-04-11T14:40:31.007Z</time></trkpt><trkpt lat="43.2968883" lon="12.9529883"><ele>435.0</ele><time>2026-04-11T14:40:32.007Z</time></trkpt><trkpt lat="43.2969817" lon="12.9530133"><ele>435.0</ele><time>2026-04-11T14:40:33.006Z</time></trkpt><trkpt lat="43.297065" lon="12.953045"><ele>435.0</ele><time>2026-04-11T14:40:34.006Z</time></trkpt><trkpt lat="43.29714" lon="12.95308"><ele>435.0</ele><time>2026-04-11T14:40:35.006Z</time></trkpt><trkpt lat="43.2972033" lon="12.9531233"><ele>435.0</ele><time>2026-04-11T14:40:36.006Z</time></trkpt><trkpt lat="43.2972633" lon="12.9531633"><ele>435.0</ele><time>2026-04-11T14:40:37.007Z</time></trkpt><trkpt lat="43.29733" lon="12.9532117"><ele>435.1666666666667</ele><time>2026-04-11T14:40:38.005Z</time></trkpt><trkpt lat="43.2974" lon="12.9532717"><ele>435.33333333333337</ele><time>2026-04-11T14:40:39.007Z</time></trkpt><trkpt lat="43.2974783" lon="12.95334"><ele>435.5</ele><time>2026-04-11T14:40:40.006Z</time></trkpt><trkpt lat="43.297555" lon="12.9534133"><ele>435.6666666666667</ele><time>2026-04-11T14:40:41.006Z</time></trkpt><trkpt lat="43.2976267" lon="12.9534917"><ele>435.83333333333337</ele><time>2026-04-11T14:40:42.006Z</time></trkpt><trkpt lat="43.2976933" lon="12.9535683"><ele>436.0</ele><time>2026-04-11T14:40:43.006Z</time></trkpt><trkpt lat="43.297755" lon="12.953635"><ele>434.50000000000006</ele><time>2026-04-11T14:40:44.008Z</time></trkpt><trkpt lat="43.2978017" lon="12.953705"><ele>433.0</ele><time>2026-04-11T14:40:45.007Z</time></trkpt><trkpt lat="43.2978383" lon="12.9537817"><ele>431.5</ele><time>2026-04-11T14:40:46.006Z</time></trkpt><trkpt lat="43.297865" lon="12.9538717"><ele>430.0</ele><time>2026-04-11T14:40:47.006Z</time></trkpt><trkpt lat="43.29789" lon="12.953975"><ele>428.50000000000006</ele><time>2026-04-11T14:40:48.007Z</time></trkpt><trkpt lat="43.297905" lon="12.9540867"><ele>427.0</ele><time>2026-04-11T14:40:49.007Z</time></trkpt><trkpt lat="43.2979167" lon="12.9542033"><ele>425.83333333333337</ele><time>2026-04-11T14:40:50.005Z</time></trkpt><trkpt lat="43.2979283" lon="12.95432"><ele>424.6666666666667</ele><time>2026-04-11T14:40:51.006Z</time></trkpt><trkpt lat="43.29794" lon="12.9544417"><ele>423.5</ele><time>2026-04-11T14:40:52.006Z</time></trkpt><trkpt lat="43.2979467" lon="12.95456"><ele>422.33333333333337</ele><time>2026-04-11T14:40:53.006Z</time></trkpt><trkpt lat="43.2979483" lon="12.9546717"><ele>421.1666666666667</ele><time>2026-04-11T14:40:54.008Z</time></trkpt><trkpt lat="43.2979417" lon="12.95477"><ele>420.0</ele><time>2026-04-11T14:40:55.007Z</time></trkpt><trkpt lat="43.29792" lon="12.9549317"><ele>419.0</ele><time>2026-04-11T14:40:57.008Z</time></trkpt><trkpt lat="43.2979017" lon="12.9550667"><ele>418.0</ele><time>2026-04-11T14:40:59.006Z</time></trkpt><trkpt lat="43.2979167" lon="12.95518"><ele>417.0</ele><time>2026-04-11T14:41:01.007Z</time></trkpt><trkpt lat="43.2979083" lon="12.9553383"><ele>416.0</ele><time>2026-04-11T14:41:03.007Z</time></trkpt><trkpt lat="43.2979033" lon="12.9554417"><ele>415.0</ele><time>2026-04-11T14:41:04.007Z</time></trkpt><trkpt lat="43.2979083" lon="12.9555667"><ele>415.0</ele><time>2026-04-11T14:41:05.006Z</time></trkpt><trkpt lat="43.2979083" lon="12.9556983"><ele>415.0</ele><time>2026-04-11T14:41:06.005Z</time></trkpt><trkpt lat="43.297915" lon="12.9558383"><ele>415.0</ele><time>2026-04-11T14:41:07.007Z</time></trkpt><trkpt lat="43.2979217" lon="12.95598"><ele>415.0</ele><time>2026-04-11T14:41:08.006Z</time></trkpt><trkpt lat="43.2979283" lon="12.95612"><ele>415.0</ele><time>2026-04-11T14:41:09.007Z</time></trkpt><trkpt lat="43.2979167" lon="12.956255"><ele>414.25</ele><time>2026-04-11T14:41:10.006Z</time></trkpt><trkpt lat="43.2978733" lon="12.9563817"><ele>413.5</ele><time>2026-04-11T14:41:11.006Z</time></trkpt><trkpt lat="43.2978033" lon="12.956505"><ele>412.75</ele><time>2026-04-11T14:41:12.007Z</time></trkpt><trkpt lat="43.29772" lon="12.9566383"><ele>412.0</ele><time>2026-04-11T14:41:13.006Z</time></trkpt><trkpt lat="43.2976333" lon="12.956785"><ele>411.0</ele><time>2026-04-11T14:41:14.006Z</time></trkpt><trkpt lat="43.2975517" lon="12.9569267"><ele>410.0</ele><time>2026-04-11T14:41:15.007Z</time></trkpt><trkpt lat="43.2974783" lon="12.9570667"><ele>409.0</ele><time>2026-04-11T14:41:16.006Z</time></trkpt><trkpt lat="43.29741" lon="12.9571883"><ele>408.0</ele><time>2026-04-11T14:41:17.006Z</time></trkpt><trkpt lat="43.2973583" lon="12.95731"><ele>408.0</ele><time>2026-04-11T14:41:18.006Z</time></trkpt><trkpt lat="43.2973233" lon="12.95744"><ele>408.0</ele><time>2026-04-11T14:41:19.007Z</time></trkpt><trkpt lat="43.2973067" lon="12.9575717"><ele>408.0</ele><time>2026-04-11T14:41:20.006Z</time></trkpt><trkpt lat="43.2973067" lon="12.9577"><ele>408.0</ele><time>2026-04-11T14:41:21.007Z</time></trkpt><trkpt lat="43.297325" lon="12.957835"><ele>408.0</ele><time>2026-04-11T14:41:22.007Z</time></trkpt><trkpt lat="43.2973433" lon="12.95798"><ele>407.75</ele><time>2026-04-11T14:41:23.008Z</time></trkpt><trkpt lat="43.297365" lon="12.9581267"><ele>407.5</ele><time>2026-04-11T14:41:24.007Z</time></trkpt><trkpt lat="43.2973817" lon="12.95829"><ele>407.25</ele><time>2026-04-11T14:41:25.008Z</time></trkpt><trkpt lat="43.2973967" lon="12.958465"><ele>407.0</ele><time>2026-04-11T14:41:26.007Z</time></trkpt><trkpt lat="43.2974167" lon="12.9586517"><ele>407.0</ele><time>2026-04-11T14:41:27.008Z</time></trkpt><trkpt lat="43.2974383" lon="12.958845"><ele>407.0</ele><time>2026-04-11T14:41:28.005Z</time></trkpt><trkpt lat="43.2974633" lon="12.95904"><ele>407.0</ele><time>2026-04-11T14:41:29.006Z</time></trkpt><trkpt lat="43.2974883" lon="12.9592383"><ele>407.0</ele><time>2026-04-11T14:41:30.007Z</time></trkpt><trkpt lat="43.29752" lon="12.9594383"><ele>408.0</ele><time>2026-04-11T14:41:31.004Z</time></trkpt><trkpt lat="43.2975517" lon="12.95964"><ele>409.0</ele><time>2026-04-11T14:41:32.007Z</time></trkpt><trkpt lat="43.29758" lon="12.959845"><ele>410.0</ele><time>2026-04-11T14:41:33.006Z</time></trkpt><trkpt lat="43.2976067" lon="12.9600483"><ele>411.75</ele><time>2026-04-11T14:41:34.007Z</time></trkpt><trkpt lat="43.2976367" lon="12.96025"><ele>413.5</ele><time>2026-04-11T14:41:35.005Z</time></trkpt><trkpt lat="43.2976717" lon="12.96045"><ele>415.25</ele><time>2026-04-11T14:41:36.004Z</time></trkpt><trkpt lat="43.2977167" lon="12.9606433"><ele>417.0</ele><time>2026-04-11T14:41:37.006Z</time></trkpt><trkpt lat="43.2977683" lon="12.9608233"><ele>418.75</ele><time>2026-04-11T14:41:38.005Z</time></trkpt><trkpt lat="43.29783" lon="12.9609883"><ele>420.5</ele><time>2026-04-11T14:41:39.007Z</time></trkpt><trkpt lat="43.2978883" lon="12.961145"><ele>422.25</ele><time>2026-04-11T14:41:40.007Z</time></trkpt><trkpt lat="43.2979317" lon="12.961295"><ele>424.0</ele><time>2026-04-11T14:41:41.004Z</time></trkpt><trkpt lat="43.2979517" lon="12.9614333"><ele>424.0</ele><time>2026-04-11T14:41:42.005Z</time></trkpt><trkpt lat="43.29794" lon="12.9615633"><ele>424.0</ele><time>2026-04-11T14:41:43.007Z</time></trkpt><trkpt lat="43.2978983" lon="12.9616767"><ele>424.0</ele><time>2026-04-11T14:41:44.007Z</time></trkpt><trkpt lat="43.2978267" lon="12.9617883"><ele>424.0</ele><time>2026-04-11T14:41:45.007Z</time></trkpt><trkpt lat="43.2977367" lon="12.961905"><ele>424.0</ele><time>2026-04-11T14:41:46.004Z</time></trkpt><trkpt lat="43.29764" lon="12.962025"><ele>425.0</ele><time>2026-04-11T14:41:47.006Z</time></trkpt><trkpt lat="43.2975433" lon="12.9621467"><ele>426.0</ele><time>2026-04-11T14:41:48.007Z</time></trkpt><trkpt lat="43.2974567" lon="12.9622717"><ele>427.0</ele><time>2026-04-11T14:41:49.008Z</time></trkpt><trkpt lat="43.2973917" lon="12.962405"><ele>428.0</ele><time>2026-04-11T14:41:50.008Z</time></trkpt><trkpt lat="43.2973567" lon="12.9625483"><ele>428.75</ele><time>2026-04-11T14:41:51.007Z</time></trkpt><trkpt lat="43.29735" lon="12.9627017"><ele>429.5</ele><time>2026-04-11T14:41:52.008Z</time></trkpt><trkpt lat="43.29737" lon="12.9628533"><ele>430.25</ele><time>2026-04-11T14:41:53.007Z</time></trkpt><trkpt lat="43.29741" lon="12.963"><ele>431.0</ele><time>2026-04-11T14:41:54.007Z</time></trkpt><trkpt lat="43.297465" lon="12.96315"><ele>431.0</ele><time>2026-04-11T14:41:55.007Z</time></trkpt><trkpt lat="43.2975317" lon="12.9632983"><ele>431.0</ele><time>2026-04-11T14:41:56.006Z</time></trkpt><trkpt lat="43.2976" lon="12.9634467"><ele>431.0</ele><time>2026-04-11T14:41:57.007Z</time></trkpt><trkpt lat="43.2976767" lon="12.9635917"><ele>431.0</ele><time>2026-04-11T14:41:58.008Z</time></trkpt><trkpt lat="43.297755" lon="12.9637283"><ele>429.75</ele><time>2026-04-11T14:41:59.005Z</time></trkpt><trkpt lat="43.297845" lon="12.9638567"><ele>428.5</ele><time>2026-04-11T14:42:00.005Z</time></trkpt><trkpt lat="43.2979417" lon="12.9639767"><ele>427.25</ele><time>2026-04-11T14:42:01.007Z</time></trkpt><trkpt lat="43.2980367" lon="12.9640883"><ele>426.0</ele><time>2026-04-11T14:42:02.007Z</time></trkpt><trkpt lat="43.298135" lon="12.964185"><ele>422.75</ele><time>2026-04-11T14:42:03.008Z</time></trkpt><trkpt lat="43.2982367" lon="12.9642733"><ele>419.5</ele><time>2026-04-11T14:42:04.007Z</time></trkpt><trkpt lat="43.2983417" lon="12.964345"><ele>416.25</ele><time>2026-04-11T14:42:05.006Z</time></trkpt><trkpt lat="43.298455" lon="12.9643983"><ele>413.0</ele><time>2026-04-11T14:42:06.006Z</time></trkpt><trkpt lat="43.29857" lon="12.9644467"><ele>413.0</ele><time>2026-04-11T14:42:07.006Z</time></trkpt><trkpt lat="43.2986817" lon="12.9644867"><ele>413.0</ele><time>2026-04-11T14:42:08.002Z</time></trkpt><trkpt lat="43.2987917" lon="12.9645317"><ele>413.0</ele><time>2026-04-11T14:42:09.007Z</time></trkpt><trkpt lat="43.2988983" lon="12.9645917"><ele>413.0</ele><time>2026-04-11T14:42:10.008Z</time></trkpt><trkpt lat="43.2990067" lon="12.9646583"><ele>412.75</ele><time>2026-04-11T14:42:11Z</time></trkpt><trkpt lat="43.2991133" lon="12.9647283"><ele>412.5</ele><time>2026-04-11T14:42:12.007Z</time></trkpt><trkpt lat="43.2992167" lon="12.9648017"><ele>412.25</ele><time>2026-04-11T14:42:13.006Z</time></trkpt><trkpt lat="43.2993167" lon="12.964875"><ele>412.0</ele><time>2026-04-11T14:42:14.006Z</time></trkpt><trkpt lat="43.299415" lon="12.96494"><ele>412.0</ele><time>2026-04-11T14:42:15.007Z</time></trkpt><trkpt lat="43.2995083" lon="12.9650067"><ele>412.0</ele><time>2026-04-11T14:42:16.002Z</time></trkpt><trkpt lat="43.2996033" lon="12.96507"><ele>412.0</ele><time>2026-04-11T14:42:17.005Z</time></trkpt><trkpt lat="43.2996933" lon="12.965135"><ele>412.0</ele><time>2026-04-11T14:42:18.003Z</time></trkpt><trkpt lat="43.2997767" lon="12.9652"><ele>412.0</ele><time>2026-04-11T14:42:19.008Z</time></trkpt><trkpt lat="43.2998567" lon="12.9652683"><ele>411.40000000000003</ele><time>2026-04-11T14:42:20.002Z</time></trkpt><trkpt lat="43.299935" lon="12.965335"><ele>410.8</ele><time>2026-04-11T14:42:21.009Z</time></trkpt><trkpt lat="43.3000133" lon="12.965405"><ele>410.2</ele><time>2026-04-11T14:42:22.005Z</time></trkpt><trkpt lat="43.3000917" lon="12.9654783"><ele>409.6</ele><time>2026-04-11T14:42:23.006Z</time></trkpt><trkpt lat="43.3001717" lon="12.9655533"><ele>409.0</ele><time>2026-04-11T14:42:24.006Z</time></trkpt><trkpt lat="43.3002517" lon="12.9656367"><ele>409.0</ele><time>2026-04-11T14:42:25.008Z</time></trkpt><trkpt lat="43.3003317" lon="12.965725"><ele>409.0</ele><time>2026-04-11T14:42:26.006Z</time></trkpt><trkpt lat="43.30041" lon="12.9658167"><ele>409.0</ele><time>2026-04-11T14:42:27.007Z</time></trkpt><trkpt lat="43.30049" lon="12.9659017"><ele>409.0</ele><time>2026-04-11T14:42:28.007Z</time></trkpt><trkpt lat="43.3005667" lon="12.9659933"><ele>409.0</ele><time>2026-04-11T14:42:29.006Z</time></trkpt><trkpt lat="43.30064" lon="12.9660867"><ele>407.4</ele><time>2026-04-11T14:42:30.007Z</time></trkpt><trkpt lat="43.3007083" lon="12.9661833"><ele>405.79999999999995</ele><time>2026-04-11T14:42:31.007Z</time></trkpt><trkpt lat="43.3007817" lon="12.96627"><ele>404.20000000000005</ele><time>2026-04-11T14:42:32.007Z</time></trkpt><trkpt lat="43.3008667" lon="12.9663483"><ele>402.6</ele><time>2026-04-11T14:42:33.004Z</time></trkpt><trkpt lat="43.30096" lon="12.96641"><ele>401.0</ele><time>2026-04-11T14:42:34.007Z</time></trkpt><trkpt lat="43.3010567" lon="12.9664817"><ele>401.0</ele><time>2026-04-11T14:42:35.007Z</time></trkpt><trkpt lat="43.3011467" lon="12.966575"><ele>401.0</ele><time>2026-04-11T14:42:36.007Z</time></trkpt><trkpt lat="43.3012333" lon="12.966685"><ele>401.0</ele><time>2026-04-11T14:42:37.009Z</time></trkpt><trkpt lat="43.30132" lon="12.9667967"><ele>401.0</ele><time>2026-04-11T14:42:38.006Z</time></trkpt><trkpt lat="43.3014033" lon="12.9669083"><ele>399.4</ele><time>2026-04-11T14:42:39.007Z</time></trkpt><trkpt lat="43.30149" lon="12.9669983"><ele>397.8</ele><time>2026-04-11T14:42:40.012Z</time></trkpt><trkpt lat="43.3015783" lon="12.9670567"><ele>396.2</ele><time>2026-04-11T14:42:41.006Z</time></trkpt><trkpt lat="43.3016733" lon="12.9671"><ele>394.59999999999997</ele><time>2026-04-11T14:42:42.006Z</time></trkpt><trkpt lat="43.3017733" lon="12.967135"><ele>393.0</ele><time>2026-04-11T14:42:43.007Z</time></trkpt><trkpt lat="43.3018717" lon="12.967165"><ele>393.0</ele><time>2026-04-11T14:42:44.006Z</time></trkpt><trkpt lat="43.301965" lon="12.96718"><ele>393.0</ele><time>2026-04-11T14:42:45.007Z</time></trkpt><trkpt lat="43.302045" lon="12.967195"><ele>393.0</ele><time>2026-04-11T14:42:46.006Z</time></trkpt><trkpt lat="43.3021483" lon="12.9672317"><ele>393.0</ele><time>2026-04-11T14:42:48.007Z</time></trkpt><trkpt lat="43.3022183" lon="12.9672883"><ele>393.0</ele><time>2026-04-11T14:43:02.006Z</time></trkpt><trkpt lat="43.3022833" lon="12.9673567"><ele>393.0</ele><time>2026-04-11T14:43:05.007Z</time></trkpt><trkpt lat="43.3023367" lon="12.9674317"><ele>391.4</ele><time>2026-04-11T14:43:06.008Z</time></trkpt><trkpt lat="43.3023933" lon="12.9675283"><ele>389.79999999999995</ele><time>2026-04-11T14:43:07.007Z</time></trkpt><trkpt lat="43.302445" lon="12.9676383"><ele>388.2</ele><time>2026-04-11T14:43:08.007Z</time></trkpt><trkpt lat="43.3025" lon="12.9677617"><ele>386.6</ele><time>2026-04-11T14:43:09.007Z</time></trkpt><trkpt lat="43.3025567" lon="12.967885"><ele>385.0</ele><time>2026-04-11T14:43:10.005Z</time></trkpt><trkpt lat="43.3026233" lon="12.967995"><ele>385.0</ele><time>2026-04-11T14:43:11.008Z</time></trkpt><trkpt lat="43.3027" lon="12.9681017"><ele>385.0</ele><time>2026-04-11T14:43:12.007Z</time></trkpt><trkpt lat="43.3027817" lon="12.9682067"><ele>385.0</ele><time>2026-04-11T14:43:13.007Z</time></trkpt><trkpt lat="43.3028733" lon="12.968305"><ele>385.0</ele><time>2026-04-11T14:43:14.007Z</time></trkpt><trkpt lat="43.3029667" lon="12.9684017"><ele>383.25</ele><time>2026-04-11T14:43:15.01Z</time></trkpt><trkpt lat="43.3030617" lon="12.9685067"><ele>381.5</ele><time>2026-04-11T14:43:16.006Z</time></trkpt><trkpt lat="43.3031533" lon="12.9686117"><ele>379.75</ele><time>2026-04-11T14:43:17.006Z</time></trkpt><trkpt lat="43.3032467" lon="12.9687067"><ele>378.0</ele><time>2026-04-11T14:43:18.007Z</time></trkpt><trkpt lat="43.30333" lon="12.9687967"><ele>378.0</ele><time>2026-04-11T14:43:19.007Z</time></trkpt><trkpt lat="43.30342" lon="12.9688733"><ele>378.0</ele><time>2026-04-11T14:43:20.007Z</time></trkpt><trkpt lat="43.3035133" lon="12.9689417"><ele>378.0</ele><time>2026-04-11T14:43:21.003Z</time></trkpt><trkpt lat="43.3036033" lon="12.969"><ele>378.0</ele><time>2026-04-11T14:43:22.007Z</time></trkpt><trkpt lat="43.3036767" lon="12.9690567"><ele>378.0</ele><time>2026-04-11T14:43:23.006Z</time></trkpt><trkpt lat="43.3037533" lon="12.9691217"><ele>376.2</ele><time>2026-04-11T14:43:24.008Z</time></trkpt><trkpt lat="43.30382" lon="12.9692133"><ele>374.4</ele><time>2026-04-11T14:43:25.008Z</time></trkpt><trkpt lat="43.3038867" lon="12.9693167"><ele>372.59999999999997</ele><time>2026-04-11T14:43:26.007Z</time></trkpt><trkpt lat="43.3039533" lon="12.96943"><ele>370.79999999999995</ele><time>2026-04-11T14:43:27.006Z</time></trkpt><trkpt lat="43.3040167" lon="12.9695583"><ele>369.0</ele><time>2026-04-11T14:43:28.007Z</time></trkpt><trkpt lat="43.3040767" lon="12.9696933"><ele>369.0</ele><time>2026-04-11T14:43:29.002Z</time></trkpt><trkpt lat="43.3041367" lon="12.96983"><ele>369.0</ele><time>2026-04-11T14:43:30.01Z</time></trkpt><trkpt lat="43.3041967" lon="12.9699683"><ele>369.0</ele><time>2026-04-11T14:43:31.008Z</time></trkpt><trkpt lat="43.3042533" lon="12.970105"><ele>369.0</ele><time>2026-04-11T14:43:32.008Z</time></trkpt><trkpt lat="43.304305" lon="12.9702317"><ele>367.0</ele><time>2026-04-11T14:43:33.008Z</time></trkpt><trkpt lat="43.3043567" lon="12.9703333"><ele>365.0</ele><time>2026-04-11T14:43:34.008Z</time></trkpt><trkpt lat="43.3044083" lon="12.9704083"><ele>363.0</ele><time>2026-04-11T14:43:35.006Z</time></trkpt><trkpt lat="43.3044683" lon="12.970445"><ele>361.0</ele><time>2026-04-11T14:43:36.007Z</time></trkpt><trkpt lat="43.3045333" lon="12.97045"><ele>359.0</ele><time>2026-04-11T14:43:37.007Z</time></trkpt><trkpt lat="43.3046017" lon="12.9704233"><ele>357.0</ele><time>2026-04-11T14:43:38.009Z</time></trkpt><trkpt lat="43.3046767" lon="12.970365"><ele>356.6</ele><time>2026-04-11T14:43:39.008Z</time></trkpt><trkpt lat="43.304755" lon="12.9702733"><ele>356.20000000000005</ele><time>2026-04-11T14:43:40.007Z</time></trkpt><trkpt lat="43.30484" lon="12.97019"><ele>355.8</ele><time>2026-04-11T14:43:41.006Z</time></trkpt><trkpt lat="43.3049333" lon="12.9701183"><ele>355.4</ele><time>2026-04-11T14:43:42.005Z</time></trkpt><trkpt lat="43.30503" lon="12.97006"><ele>355.0</ele><time>2026-04-11T14:43:43.006Z</time></trkpt><trkpt lat="43.3051233" lon="12.9700183"><ele>355.0</ele><time>2026-04-11T14:43:44.007Z</time></trkpt><trkpt lat="43.305205" lon="12.9699867"><ele>355.0</ele><time>2026-04-11T14:43:45.009Z</time></trkpt><trkpt lat="43.305285" lon="12.9699733"><ele>355.0</ele><time>2026-04-11T14:43:46.008Z</time></trkpt><trkpt lat="43.3053767" lon="12.9699833"><ele>355.0</ele><time>2026-04-11T14:43:47.005Z</time></trkpt><trkpt lat="43.305475" lon="12.9700117"><ele>355.0</ele><time>2026-04-11T14:43:48.006Z</time></trkpt><trkpt lat="43.3055667" lon="12.9700567"><ele>353.16666666666663</ele><time>2026-04-11T14:43:49.007Z</time></trkpt><trkpt lat="43.3056517" lon="12.9701067"><ele>351.3333333333333</ele><time>2026-04-11T14:43:50.006Z</time></trkpt><trkpt lat="43.305735" lon="12.9701533"><ele>349.5</ele><time>2026-04-11T14:43:51.008Z</time></trkpt><trkpt lat="43.3058167" lon="12.9701967"><ele>347.6666666666667</ele><time>2026-04-11T14:43:52.013Z</time></trkpt><trkpt lat="43.3058967" lon="12.970235"><ele>345.83333333333337</ele><time>2026-04-11T14:43:53.005Z</time></trkpt><trkpt lat="43.3059833" lon="12.9702733"><ele>344.0</ele><time>2026-04-11T14:43:54.007Z</time></trkpt><trkpt lat="43.3060733" lon="12.9703117"><ele>344.0</ele><time>2026-04-11T14:43:55.006Z</time></trkpt><trkpt lat="43.3061817" lon="12.9703333"><ele>344.0</ele><time>2026-04-11T14:43:56.007Z</time></trkpt><trkpt lat="43.3062983" lon="12.9703517"><ele>344.0</ele><time>2026-04-11T14:43:57.008Z</time></trkpt><trkpt lat="43.30642" lon="12.970375"><ele>344.0</ele><time>2026-04-11T14:43:58.007Z</time></trkpt><trkpt lat="43.3065433" lon="12.9704033"><ele>342.25</ele><time>2026-04-11T14:43:59.005Z</time></trkpt><trkpt lat="43.3066667" lon="12.97043"><ele>340.5</ele><time>2026-04-11T14:44:00.006Z</time></trkpt><trkpt lat="43.3067933" lon="12.9704633"><ele>338.75</ele><time>2026-04-11T14:44:01.007Z</time></trkpt><trkpt lat="43.3069167" lon="12.9704933"><ele>337.0</ele><time>2026-04-11T14:44:02.007Z</time></trkpt><trkpt lat="43.30704" lon="12.9705317"><ele>337.0</ele><time>2026-04-11T14:44:03.009Z</time></trkpt><trkpt lat="43.307165" lon="12.9705717"><ele>337.0</ele><time>2026-04-11T14:44:04.008Z</time></trkpt><trkpt lat="43.3072933" lon="12.9706017"><ele>337.0</ele><time>2026-04-11T14:44:05.007Z</time></trkpt><trkpt lat="43.3074267" lon="12.970625"><ele>337.0</ele><time>2026-04-11T14:44:06.008Z</time></trkpt><trkpt lat="43.30756" lon="12.97065"><ele>336.0</ele><time>2026-04-11T14:44:07.008Z</time></trkpt><trkpt lat="43.307695" lon="12.970675"><ele>335.0</ele><time>2026-04-11T14:44:08.007Z</time></trkpt><trkpt lat="43.30783" lon="12.9707033"><ele>334.0</ele><time>2026-04-11T14:44:09.006Z</time></trkpt><trkpt lat="43.3079633" lon="12.9707383"><ele>333.0</ele><time>2026-04-11T14:44:10.008Z</time></trkpt><trkpt lat="43.3080933" lon="12.9707867"><ele>331.0</ele><time>2026-04-11T14:44:11.007Z</time></trkpt><trkpt lat="43.3082183" lon="12.97084"><ele>329.0</ele><time>2026-04-11T14:44:12.008Z</time></trkpt><trkpt lat="43.308345" lon="12.9708833"><ele>327.0</ele><time>2026-04-11T14:44:13.007Z</time></trkpt><trkpt lat="43.3084733" lon="12.9709017"><ele>325.0</ele><time>2026-04-11T14:44:14.006Z</time></trkpt><trkpt lat="43.3086" lon="12.9708983"><ele>325.0</ele><time>2026-04-11T14:44:15.007Z</time></trkpt><trkpt lat="43.3087267" lon="12.970875"><ele>325.0</ele><time>2026-04-11T14:44:16.007Z</time></trkpt><trkpt lat="43.3088483" lon="12.9708383"><ele>325.0</ele><time>2026-04-11T14:44:17.007Z</time></trkpt><trkpt lat="43.308975" lon="12.9708133"><ele>325.0</ele><time>2026-04-11T14:44:18.005Z</time></trkpt><trkpt lat="43.3091017" lon="12.9708117"><ele>323.0</ele><time>2026-04-11T14:44:19.006Z</time></trkpt><trkpt lat="43.3092233" lon="12.9708467"><ele>321.0</ele><time>2026-04-11T14:44:20.004Z</time></trkpt><trkpt lat="43.3093417" lon="12.97091"><ele>319.0</ele><time>2026-04-11T14:44:21.008Z</time></trkpt><trkpt lat="43.30946" lon="12.970995"><ele>317.0</ele><time>2026-04-11T14:44:22.007Z</time></trkpt><trkpt lat="43.3095817" lon="12.9710817"><ele>315.5</ele><time>2026-04-11T14:44:23.005Z</time></trkpt><trkpt lat="43.3097083" lon="12.9711633"><ele>314.0</ele><time>2026-04-11T14:44:24.006Z</time></trkpt><trkpt lat="43.3098383" lon="12.97124"><ele>312.5</ele><time>2026-04-11T14:44:25.008Z</time></trkpt><trkpt lat="43.3099733" lon="12.971315"><ele>311.0</ele><time>2026-04-11T14:44:26.009Z</time></trkpt><trkpt lat="43.3101033" lon="12.9713933"><ele>309.25</ele><time>2026-04-11T14:44:27.008Z</time></trkpt><trkpt lat="43.3102333" lon="12.9714767"><ele>307.5</ele><time>2026-04-11T14:44:28.006Z</time></trkpt><trkpt lat="43.31036" lon="12.9715633"><ele>305.75</ele><time>2026-04-11T14:44:29.008Z</time></trkpt><trkpt lat="43.3104867" lon="12.9716483"><ele>304.0</ele><time>2026-04-11T14:44:30.006Z</time></trkpt><trkpt lat="43.3106133" lon="12.9717283"><ele>300.5</ele><time>2026-04-11T14:44:31.008Z</time></trkpt><trkpt lat="43.3107317" lon="12.9718167"><ele>297.0</ele><time>2026-04-11T14:44:32.005Z</time></trkpt><trkpt lat="43.310835" lon="12.9719233"><ele>293.5</ele><time>2026-04-11T14:44:33.007Z</time></trkpt><trkpt lat="43.310935" lon="12.97203"><ele>290.0</ele><time>2026-04-11T14:44:34.008Z</time></trkpt><trkpt lat="43.311045" lon="12.9721083"><ele>290.0</ele><time>2026-04-11T14:44:35.007Z</time></trkpt><trkpt lat="43.3111733" lon="12.972155"><ele>290.0</ele><time>2026-04-11T14:44:36.007Z</time></trkpt><trkpt lat="43.31131" lon="12.9721817"><ele>290.0</ele><time>2026-04-11T14:44:37.007Z</time></trkpt><trkpt lat="43.311455" lon="12.972195"><ele>290.0</ele><time>2026-04-11T14:44:38.007Z</time></trkpt><trkpt lat="43.3115933" lon="12.9722067"><ele>288.2</ele><time>2026-04-11T14:44:39.008Z</time></trkpt><trkpt lat="43.3117183" lon="12.9722267"><ele>286.4</ele><time>2026-04-11T14:44:40.008Z</time></trkpt><trkpt lat="43.3118267" lon="12.9722733"><ele>284.6</ele><time>2026-04-11T14:44:41.008Z</time></trkpt><trkpt lat="43.3119133" lon="12.9723533"><ele>282.8</ele><time>2026-04-11T14:44:42.008Z</time></trkpt><trkpt lat="43.31198" lon="12.9724633"><ele>281.0</ele><time>2026-04-11T14:44:43.007Z</time></trkpt><trkpt lat="43.3120367" lon="12.9725917"><ele>280.75</ele><time>2026-04-11T14:44:44.007Z</time></trkpt><trkpt lat="43.3120933" lon="12.9727367"><ele>280.5</ele><time>2026-04-11T14:44:45.007Z</time></trkpt><trkpt lat="43.3121517" lon="12.9728933"><ele>280.25</ele><time>2026-04-11T14:44:46.007Z</time></trkpt><trkpt lat="43.3122117" lon="12.9730533"><ele>280.0</ele><time>2026-04-11T14:44:47.007Z</time></trkpt><trkpt lat="43.31228" lon="12.9732133"><ele>278.5</ele><time>2026-04-11T14:44:48.008Z</time></trkpt><trkpt lat="43.31236" lon="12.9733667"><ele>277.0</ele><time>2026-04-11T14:44:49.007Z</time></trkpt><trkpt lat="43.3124433" lon="12.9735067"><ele>275.5</ele><time>2026-04-11T14:44:50.008Z</time></trkpt><trkpt lat="43.3125383" lon="12.97364"><ele>274.0</ele><time>2026-04-11T14:44:51.007Z</time></trkpt><trkpt lat="43.3126467" lon="12.97377"><ele>274.0</ele><time>2026-04-11T14:44:52.007Z</time></trkpt><trkpt lat="43.3127567" lon="12.9739"><ele>274.0</ele><time>2026-04-11T14:44:53.006Z</time></trkpt><trkpt lat="43.312845" lon="12.974035"><ele>274.0</ele><time>2026-04-11T14:44:54.008Z</time></trkpt><trkpt lat="43.312895" lon="12.9741817"><ele>274.0</ele><time>2026-04-11T14:44:55.007Z</time></trkpt><trkpt lat="43.312915" lon="12.974335"><ele>274.25</ele><time>2026-04-11T14:44:56.007Z</time></trkpt><trkpt lat="43.3129267" lon="12.9744933"><ele>274.5</ele><time>2026-04-11T14:44:57.007Z</time></trkpt><trkpt lat="43.312935" lon="12.97466"><ele>274.75</ele><time>2026-04-11T14:44:58.008Z</time></trkpt><trkpt lat="43.312945" lon="12.9748267"><ele>275.0</ele><time>2026-04-11T14:44:59.007Z</time></trkpt><trkpt lat="43.3129533" lon="12.974985"><ele>274.8</ele><time>2026-04-11T14:45:00.009Z</time></trkpt><trkpt lat="43.312965" lon="12.97512"><ele>274.6</ele><time>2026-04-11T14:45:01.008Z</time></trkpt><trkpt lat="43.312975" lon="12.97523"><ele>274.4</ele><time>2026-04-11T14:45:02.008Z</time></trkpt><trkpt lat="43.3130083" lon="12.9753583"><ele>274.2</ele><time>2026-04-11T14:45:04.008Z</time></trkpt><trkpt lat="43.3130633" lon="12.97531"><ele>274.0</ele><time>2026-04-11T14:45:17.005Z</time></trkpt><trkpt lat="43.3131667" lon="12.9752633"><ele>274.0</ele><time>2026-04-11T14:45:19.006Z</time></trkpt><trkpt lat="43.31325" lon="12.975225"><ele>274.0</ele><time>2026-04-11T14:45:20.005Z</time></trkpt><trkpt lat="43.31335" lon="12.9751717"><ele>274.0</ele><time>2026-04-11T14:45:21.007Z</time></trkpt><trkpt lat="43.313465" lon="12.97511"><ele>274.0</ele><time>2026-04-11T14:45:22.007Z</time></trkpt><trkpt lat="43.31359" lon="12.9750567"><ele>274.0</ele><time>2026-04-11T14:45:23.006Z</time></trkpt><trkpt lat="43.313725" lon="12.975015"><ele>274.3333333333333</ele><time>2026-04-11T14:45:24.006Z</time></trkpt><trkpt lat="43.31387" lon="12.9749883"><ele>274.6666666666667</ele><time>2026-04-11T14:45:25.006Z</time></trkpt><trkpt lat="43.3140217" lon="12.974985"><ele>275.0</ele><time>2026-04-11T14:45:26.007Z</time></trkpt><trkpt lat="43.314175" lon="12.9750117"><ele>274.6666666666667</ele><time>2026-04-11T14:45:27.007Z</time></trkpt><trkpt lat="43.314325" lon="12.9750617"><ele>274.3333333333333</ele><time>2026-04-11T14:45:28.007Z</time></trkpt><trkpt lat="43.3144717" lon="12.9751367"><ele>274.0</ele><time>2026-04-11T14:45:29.007Z</time></trkpt><trkpt lat="43.3146133" lon="12.97523"><ele>274.0</ele><time>2026-04-11T14:45:30.007Z</time></trkpt><trkpt lat="43.31475" lon="12.975335"><ele>274.0</ele><time>2026-04-11T14:45:31.007Z</time></trkpt><trkpt lat="43.3148817" lon="12.9754467"><ele>274.0</ele><time>2026-04-11T14:45:32.005Z</time></trkpt><trkpt lat="43.3150117" lon="12.9755667"><ele>274.0</ele><time>2026-04-11T14:45:33.008Z</time></trkpt><trkpt lat="43.3151333" lon="12.9757017"><ele>274.0</ele><time>2026-04-11T14:45:34.008Z</time></trkpt><trkpt lat="43.3152433" lon="12.975855"><ele>274.0</ele><time>2026-04-11T14:45:35.008Z</time></trkpt><trkpt lat="43.315335" lon="12.976025"><ele>273.0</ele><time>2026-04-11T14:45:36.007Z</time></trkpt><trkpt lat="43.3154067" lon="12.9762067"><ele>272.0</ele><time>2026-04-11T14:45:37.006Z</time></trkpt><trkpt lat="43.3154567" lon="12.9763967"><ele>271.0</ele><time>2026-04-11T14:45:38.006Z</time></trkpt><trkpt lat="43.31549" lon="12.97659"><ele>270.0</ele><time>2026-04-11T14:45:39.007Z</time></trkpt><trkpt lat="43.3155133" lon="12.976775"><ele>269.25</ele><time>2026-04-11T14:45:40.007Z</time></trkpt><trkpt lat="43.31555" lon="12.976955"><ele>268.5</ele><time>2026-04-11T14:45:41.006Z</time></trkpt><trkpt lat="43.31561" lon="12.977125"><ele>267.75</ele><time>2026-04-11T14:45:42.006Z</time></trkpt><trkpt lat="43.315695" lon="12.97729"><ele>267.0</ele><time>2026-04-11T14:45:43.005Z</time></trkpt><trkpt lat="43.3157983" lon="12.9774467"><ele>265.5</ele><time>2026-04-11T14:45:44.005Z</time></trkpt><trkpt lat="43.3159083" lon="12.9776"><ele>264.0</ele><time>2026-04-11T14:45:45.005Z</time></trkpt><trkpt lat="43.3160183" lon="12.9777417"><ele>262.5</ele><time>2026-04-11T14:45:46.005Z</time></trkpt><trkpt lat="43.316135" lon="12.977845"><ele>261.0</ele><time>2026-04-11T14:45:47.006Z</time></trkpt><trkpt lat="43.3162667" lon="12.9779"><ele>260.6666666666667</ele><time>2026-04-11T14:45:48.006Z</time></trkpt><trkpt lat="43.31641" lon="12.97792"><ele>260.33333333333337</ele><time>2026-04-11T14:45:49.006Z</time></trkpt><trkpt lat="43.3165683" lon="12.977915"><ele>260.0</ele><time>2026-04-11T14:45:50.006Z</time></trkpt><trkpt lat="43.3167233" lon="12.9778983"><ele>260.0</ele><time>2026-04-11T14:45:51.008Z</time></trkpt><trkpt lat="43.3168817" lon="12.9778767"><ele>260.0</ele><time>2026-04-11T14:45:52.006Z</time></trkpt><trkpt lat="43.3170383" lon="12.97786"><ele>260.0</ele><time>2026-04-11T14:45:53.006Z</time></trkpt><trkpt lat="43.3171917" lon="12.9778467"><ele>259.0</ele><time>2026-04-11T14:45:54.006Z</time></trkpt><trkpt lat="43.317345" lon="12.97783"><ele>258.0</ele><time>2026-04-11T14:45:55.007Z</time></trkpt><trkpt lat="43.3174983" lon="12.9778133"><ele>257.0</ele><time>2026-04-11T14:45:56.006Z</time></trkpt><trkpt lat="43.31765" lon="12.977805"><ele>257.0</ele><time>2026-04-11T14:45:57.006Z</time></trkpt><trkpt lat="43.3178017" lon="12.9777967"><ele>257.0</ele><time>2026-04-11T14:45:58.007Z</time></trkpt><trkpt lat="43.3179533" lon="12.9777883"><ele>257.0</ele><time>2026-04-11T14:45:59.006Z</time></trkpt><trkpt lat="43.3181083" lon="12.9777767"><ele>257.0</ele><time>2026-04-11T14:46:00.006Z</time></trkpt><trkpt lat="43.3182617" lon="12.977765"><ele>257.0</ele><time>2026-04-11T14:46:01.004Z</time></trkpt><trkpt lat="43.3184183" lon="12.9777533"><ele>257.0</ele><time>2026-04-11T14:46:02.006Z</time></trkpt><trkpt lat="43.318575" lon="12.9777417"><ele>257.0</ele><time>2026-04-11T14:46:03.006Z</time></trkpt><trkpt lat="43.31873" lon="12.9777333"><ele>257.0</ele><time>2026-04-11T14:46:04.005Z</time></trkpt><trkpt lat="43.31888" lon="12.977725"><ele>257.0</ele><time>2026-04-11T14:46:05.006Z</time></trkpt><trkpt lat="43.3190317" lon="12.977715"><ele>257.0</ele><time>2026-04-11T14:46:06.006Z</time></trkpt><trkpt lat="43.319185" lon="12.9777067"><ele>257.0</ele><time>2026-04-11T14:46:07.007Z</time></trkpt><trkpt lat="43.3193433" lon="12.977715"><ele>257.0</ele><time>2026-04-11T14:46:08.006Z</time></trkpt><trkpt lat="43.3195" lon="12.97775"><ele>257.0</ele><time>2026-04-11T14:46:09.007Z</time></trkpt><trkpt lat="43.3196533" lon="12.9778033"><ele>257.0</ele><time>2026-04-11T14:46:10.007Z</time></trkpt><trkpt lat="43.3198033" lon="12.977865"><ele>257.0</ele><time>2026-04-11T14:46:11.006Z</time></trkpt><trkpt lat="43.3199483" lon="12.9779367"><ele>257.0</ele><time>2026-04-11T14:46:12.006Z</time></trkpt><trkpt lat="43.32009" lon="12.978015"><ele>257.0</ele><time>2026-04-11T14:46:13.007Z</time></trkpt><trkpt lat="43.3202267" lon="12.9780983"><ele>257.0</ele><time>2026-04-11T14:46:14.005Z</time></trkpt><trkpt lat="43.32035" lon="12.9781883"><ele>257.0</ele><time>2026-04-11T14:46:15.007Z</time></trkpt><trkpt lat="43.3204483" lon="12.9782783"><ele>257.0</ele><time>2026-04-11T14:46:16.006Z</time></trkpt><trkpt lat="43.3205333" lon="12.9783533"><ele>257.0</ele><time>2026-04-11T14:46:17.005Z</time></trkpt><trkpt lat="43.32061" lon="12.9784233"><ele>257.0</ele><time>2026-04-11T14:46:18.006Z</time></trkpt><trkpt lat="43.3206917" lon="12.9785017"><ele>257.0</ele><time>2026-04-11T14:46:19.007Z</time></trkpt><trkpt lat="43.320775" lon="12.9786017"><ele>257.0</ele><time>2026-04-11T14:46:20.008Z</time></trkpt><trkpt lat="43.32086" lon="12.97872"><ele>257.0</ele><time>2026-04-11T14:46:21.009Z</time></trkpt><trkpt lat="43.3209433" lon="12.9788583"><ele>257.0</ele><time>2026-04-11T14:46:22.007Z</time></trkpt><trkpt lat="43.3210267" lon="12.97901"><ele>257.0</ele><time>2026-04-11T14:46:23.004Z</time></trkpt><trkpt lat="43.32111" lon="12.979165"><ele>257.0</ele><time>2026-04-11T14:46:24.005Z</time></trkpt><trkpt lat="43.3211867" lon="12.9793283"><ele>257.0</ele><time>2026-04-11T14:46:25.007Z</time></trkpt><trkpt lat="43.3212533" lon="12.9794967"><ele>257.0</ele><time>2026-04-11T14:46:26.006Z</time></trkpt><trkpt lat="43.3213017" lon="12.9796733"><ele>257.0</ele><time>2026-04-11T14:46:27.007Z</time></trkpt><trkpt lat="43.3213333" lon="12.979855"><ele>257.0</ele><time>2026-04-11T14:46:28.006Z</time></trkpt><trkpt lat="43.32136" lon="12.9800333"><ele>256.25</ele><time>2026-04-11T14:46:29.006Z</time></trkpt><trkpt lat="43.3213817" lon="12.980215"><ele>255.5</ele><time>2026-04-11T14:46:30.005Z</time></trkpt><trkpt lat="43.3214067" lon="12.9803967"><ele>254.75</ele><time>2026-04-11T14:46:31.007Z</time></trkpt><trkpt lat="43.3214333" lon="12.9805817"><ele>254.0</ele><time>2026-04-11T14:46:32.007Z</time></trkpt><trkpt lat="43.32146" lon="12.9807667"><ele>253.5</ele><time>2026-04-11T14:46:33.007Z</time></trkpt><trkpt lat="43.321485" lon="12.9809483"><ele>253.0</ele><time>2026-04-11T14:46:34.007Z</time></trkpt><trkpt lat="43.3215117" lon="12.9811267"><ele>252.5</ele><time>2026-04-11T14:46:35.005Z</time></trkpt><trkpt lat="43.32154" lon="12.9812983"><ele>252.0</ele><time>2026-04-11T14:46:36.006Z</time></trkpt><trkpt lat="43.321565" lon="12.9814667"><ele>252.0</ele><time>2026-04-11T14:46:37.005Z</time></trkpt><trkpt lat="43.3215867" lon="12.981625"><ele>252.0</ele><time>2026-04-11T14:46:38.006Z</time></trkpt><trkpt lat="43.321605" lon="12.9817767"><ele>252.0</ele><time>2026-04-11T14:46:39.007Z</time></trkpt><trkpt lat="43.3216217" lon="12.9819233"><ele>252.0</ele><time>2026-04-11T14:46:40.006Z</time></trkpt><trkpt lat="43.3216383" lon="12.982065"><ele>252.0</ele><time>2026-04-11T14:46:41.007Z</time></trkpt><trkpt lat="43.32165" lon="12.9822"><ele>252.83333333333334</ele><time>2026-04-11T14:46:42.004Z</time></trkpt><trkpt lat="43.3216417" lon="12.982325"><ele>253.66666666666669</ele><time>2026-04-11T14:46:43.006Z</time></trkpt><trkpt lat="43.32162" lon="12.982435"><ele>254.5</ele><time>2026-04-11T14:46:44.007Z</time></trkpt><trkpt lat="43.3215983" lon="12.982535"><ele>255.33333333333334</ele><time>2026-04-11T14:46:45.008Z</time></trkpt><trkpt lat="43.3215733" lon="12.9826267"><ele>256.1666666666667</ele><time>2026-04-11T14:46:46.007Z</time></trkpt><trkpt lat="43.3215483" lon="12.9827083"><ele>257.0</ele><time>2026-04-11T14:46:47.006Z</time></trkpt><trkpt lat="43.3215017" lon="12.9828217"><ele>259.0</ele><time>2026-04-11T14:46:49.004Z</time></trkpt><trkpt lat="43.3214717" lon="12.9829517"><ele>261.0</ele><time>2026-04-11T14:46:59.005Z</time></trkpt><trkpt lat="43.3214417" lon="12.9830333"><ele>263.0</ele><time>2026-04-11T14:47:00.007Z</time></trkpt><trkpt lat="43.3213917" lon="12.9831417"><ele>265.0</ele><time>2026-04-11T14:47:01.007Z</time></trkpt><trkpt lat="43.3213067" lon="12.9833167"><ele>267.0</ele><time>2026-04-11T14:47:02.007Z</time></trkpt><trkpt lat="43.3212267" lon="12.9835"><ele>269.0</ele><time>2026-04-11T14:47:03.009Z</time></trkpt><trkpt lat="43.3211317" lon="12.9836833"><ele>271.0</ele><time>2026-04-11T14:47:04.007Z</time></trkpt><trkpt lat="43.3210367" lon="12.9838533"><ele>273.0</ele><time>2026-04-11T14:47:05.006Z</time></trkpt><trkpt lat="43.320955" lon="12.9840183"><ele>272.75</ele><time>2026-04-11T14:47:06.007Z</time></trkpt><trkpt lat="43.3208733" lon="12.9841817"><ele>272.5</ele><time>2026-04-11T14:47:07.006Z</time></trkpt><trkpt lat="43.32079" lon="12.984345"><ele>272.25</ele><time>2026-04-11T14:47:08.006Z</time></trkpt><trkpt lat="43.3207133" lon="12.9845033"><ele>272.0</ele><time>2026-04-11T14:47:09.006Z</time></trkpt><trkpt lat="43.3206433" lon="12.98466"><ele>272.0</ele><time>2026-04-11T14:47:10.006Z</time></trkpt><trkpt lat="43.3205867" lon="12.9848017"><ele>272.0</ele><time>2026-04-11T14:47:11.007Z</time></trkpt><trkpt lat="43.3205467" lon="12.9849233"><ele>272.0</ele><time>2026-04-11T14:47:12.006Z</time></trkpt><trkpt lat="43.320525" lon="12.9850417"><ele>272.0</ele><time>2026-04-11T14:47:13.007Z</time></trkpt><trkpt lat="43.3205133" lon="12.9851533"><ele>272.0</ele><time>2026-04-11T14:47:14.007Z</time></trkpt><trkpt lat="43.3205017" lon="12.98525"><ele>272.1666666666667</ele><time>2026-04-11T14:47:15.007Z</time></trkpt><trkpt lat="43.3204883" lon="12.9853817"><ele>272.33333333333337</ele><time>2026-04-11T14:47:17.006Z</time></trkpt><trkpt lat="43.3205383" lon="12.985475"><ele>272.5</ele><time>2026-04-11T14:47:29.007Z</time></trkpt><trkpt lat="43.3205983" lon="12.9855033"><ele>272.6666666666667</ele><time>2026-04-11T14:47:30.008Z</time></trkpt><trkpt lat="43.320685" lon="12.9855233"><ele>272.8333333333333</ele><time>2026-04-11T14:47:31.007Z</time></trkpt><trkpt lat="43.3207983" lon="12.985545"><ele>273.0</ele><time>2026-04-11T14:47:32.008Z</time></trkpt><trkpt lat="43.320925" lon="12.9855683"><ele>273.0</ele><time>2026-04-11T14:47:33.007Z</time></trkpt><trkpt lat="43.3210583" lon="12.9855933"><ele>273.0</ele><time>2026-04-11T14:47:34.006Z</time></trkpt><trkpt lat="43.3211983" lon="12.9856183"><ele>273.0</ele><time>2026-04-11T14:47:35.005Z</time></trkpt><trkpt lat="43.3213433" lon="12.985645"><ele>273.0</ele><time>2026-04-11T14:47:36.006Z</time></trkpt><trkpt lat="43.321485" lon="12.985685"><ele>272.75</ele><time>2026-04-11T14:47:37.007Z</time></trkpt><trkpt lat="43.321625" lon="12.9857333"><ele>272.5</ele><time>2026-04-11T14:47:38.005Z</time></trkpt><trkpt lat="43.3217567" lon="12.9858083"><ele>272.25</ele><time>2026-04-11T14:47:39.006Z</time></trkpt><trkpt lat="43.3218817" lon="12.9858867"><ele>272.0</ele><time>2026-04-11T14:47:40.005Z</time></trkpt><trkpt lat="43.3219933" lon="12.9859783"><ele>271.75</ele><time>2026-04-11T14:47:41.006Z</time></trkpt><trkpt lat="43.3220917" lon="12.9860767"><ele>271.5</ele><time>2026-04-11T14:47:42.005Z</time></trkpt><trkpt lat="43.3221833" lon="12.9861767"><ele>271.25</ele><time>2026-04-11T14:47:43.008Z</time></trkpt><trkpt lat="43.322265" lon="12.9862817"><ele>271.0</ele><time>2026-04-11T14:47:44.005Z</time></trkpt><trkpt lat="43.3223517" lon="12.9863867"><ele>271.25</ele><time>2026-04-11T14:47:45.005Z</time></trkpt><trkpt lat="43.3224467" lon="12.9864817"><ele>271.5</ele><time>2026-04-11T14:47:46.007Z</time></trkpt><trkpt lat="43.32254" lon="12.9865867"><ele>271.75</ele><time>2026-04-11T14:47:47.003Z</time></trkpt><trkpt lat="43.3226333" lon="12.9866917"><ele>272.0</ele><time>2026-04-11T14:47:48.005Z</time></trkpt><trkpt lat="43.322725" lon="12.9867967"><ele>272.0</ele><time>2026-04-11T14:47:49.006Z</time></trkpt><trkpt lat="43.32282" lon="12.9868983"><ele>272.0</ele><time>2026-04-11T14:47:50.007Z</time></trkpt><trkpt lat="43.3229167" lon="12.9869983"><ele>272.0</ele><time>2026-04-11T14:47:51.007Z</time></trkpt><trkpt lat="43.3230133" lon="12.9870983"><ele>272.0</ele><time>2026-04-11T14:47:52.006Z</time></trkpt><trkpt lat="43.3231083" lon="12.9872"><ele>271.25</ele><time>2026-04-11T14:47:53.006Z</time></trkpt><trkpt lat="43.3232067" lon="12.9873017"><ele>270.5</ele><time>2026-04-11T14:47:54.006Z</time></trkpt><trkpt lat="43.3233083" lon="12.987405"><ele>269.75</ele><time>2026-04-11T14:47:55.005Z</time></trkpt><trkpt lat="43.323415" lon="12.9875083"><ele>269.0</ele><time>2026-04-11T14:47:56.006Z</time></trkpt><trkpt lat="43.32352" lon="12.987615"><ele>268.75</ele><time>2026-04-11T14:47:57.006Z</time></trkpt><trkpt lat="43.3236217" lon="12.9877133"><ele>268.5</ele><time>2026-04-11T14:47:58.005Z</time></trkpt><trkpt lat="43.3237167" lon="12.9878117"><ele>268.25</ele><time>2026-04-11T14:47:59.005Z</time></trkpt><trkpt lat="43.32381" lon="12.9879017"><ele>268.0</ele><time>2026-04-11T14:48:00.005Z</time></trkpt><trkpt lat="43.3239" lon="12.987985"><ele>267.8</ele><time>2026-04-11T14:48:01.006Z</time></trkpt><trkpt lat="43.323985" lon="12.988065"><ele>267.6</ele><time>2026-04-11T14:48:02.005Z</time></trkpt><trkpt lat="43.32407" lon="12.9881483"><ele>267.4</ele><time>2026-04-11T14:48:03.007Z</time></trkpt><trkpt lat="43.3241633" lon="12.9882367"><ele>267.2</ele><time>2026-04-11T14:48:04.007Z</time></trkpt><trkpt lat="43.3242583" lon="12.9883317"><ele>267.0</ele><time>2026-04-11T14:48:05.005Z</time></trkpt><trkpt lat="43.3243533" lon="12.9884267"><ele>267.0</ele><time>2026-04-11T14:48:06.006Z</time></trkpt><trkpt lat="43.32445" lon="12.9885233"><ele>267.0</ele><time>2026-04-11T14:48:07.004Z</time></trkpt><trkpt lat="43.3245483" lon="12.9886217"><ele>267.0</ele><time>2026-04-11T14:48:08.003Z</time></trkpt><trkpt lat="43.32465" lon="12.98872"><ele>267.0</ele><time>2026-04-11T14:48:09.005Z</time></trkpt><trkpt lat="43.3247483" lon="12.9888167"><ele>266.25</ele><time>2026-04-11T14:48:10.005Z</time></trkpt><trkpt lat="43.32485" lon="12.9889167"><ele>265.5</ele><time>2026-04-11T14:48:11.006Z</time></trkpt><trkpt lat="43.3249467" lon="12.9890183"><ele>264.75</ele><time>2026-04-11T14:48:12.007Z</time></trkpt><trkpt lat="43.3250417" lon="12.9891183"><ele>264.0</ele><time>2026-04-11T14:48:13.005Z</time></trkpt><trkpt lat="43.3251367" lon="12.98922"><ele>263.75</ele><time>2026-04-11T14:48:14.007Z</time></trkpt><trkpt lat="43.325235" lon="12.98932"><ele>263.5</ele><time>2026-04-11T14:48:15.006Z</time></trkpt><trkpt lat="43.3253333" lon="12.9894217"><ele>263.25</ele><time>2026-04-11T14:48:16.006Z</time></trkpt><trkpt lat="43.3254367" lon="12.9895217"><ele>263.0</ele><time>2026-04-11T14:48:17.004Z</time></trkpt><trkpt lat="43.3255417" lon="12.9896233"><ele>262.5</ele><time>2026-04-11T14:48:18.002Z</time></trkpt><trkpt lat="43.3256417" lon="12.9897267"><ele>262.0</ele><time>2026-04-11T14:48:19.008Z</time></trkpt><trkpt lat="43.32574" lon="12.989825"><ele>261.5</ele><time>2026-04-11T14:48:20.006Z</time></trkpt><trkpt lat="43.3258367" lon="12.98992"><ele>261.0</ele><time>2026-04-11T14:48:21.007Z</time></trkpt><trkpt lat="43.3259267" lon="12.990015"><ele>261.0</ele><time>2026-04-11T14:48:22.007Z</time></trkpt><trkpt lat="43.3260167" lon="12.9901083"><ele>261.0</ele><time>2026-04-11T14:48:23.007Z</time></trkpt><trkpt lat="43.3261067" lon="12.9901983"><ele>261.0</ele><time>2026-04-11T14:48:24.008Z</time></trkpt><trkpt lat="43.3261967" lon="12.9902883"><ele>261.0</ele><time>2026-04-11T14:48:25.005Z</time></trkpt><trkpt lat="43.3262883" lon="12.9903833"><ele>261.0</ele><time>2026-04-11T14:48:26.005Z</time></trkpt><trkpt lat="43.326385" lon="12.9904817"><ele>261.0</ele><time>2026-04-11T14:48:27.007Z</time></trkpt><trkpt lat="43.3264833" lon="12.9905817"><ele>261.0</ele><time>2026-04-11T14:48:28.005Z</time></trkpt><trkpt lat="43.3265817" lon="12.9906817"><ele>261.0</ele><time>2026-04-11T14:48:29.005Z</time></trkpt><trkpt lat="43.3266767" lon="12.9907817"><ele>261.0</ele><time>2026-04-11T14:48:30.006Z</time></trkpt><trkpt lat="43.326775" lon="12.990875"><ele>261.0</ele><time>2026-04-11T14:48:31.007Z</time></trkpt><trkpt lat="43.3268733" lon="12.990965"><ele>261.0</ele><time>2026-04-11T14:48:32.006Z</time></trkpt><trkpt lat="43.32697" lon="12.99106"><ele>261.0</ele><time>2026-04-11T14:48:33.007Z</time></trkpt><trkpt lat="43.3270683" lon="12.9911567"><ele>261.0</ele><time>2026-04-11T14:48:34.006Z</time></trkpt><trkpt lat="43.32717" lon="12.9912567"><ele>261.0</ele><time>2026-04-11T14:48:35.005Z</time></trkpt><trkpt lat="43.3272767" lon="12.9913667"><ele>261.0</ele><time>2026-04-11T14:48:36.006Z</time></trkpt><trkpt lat="43.3273833" lon="12.9914733"><ele>261.0</ele><time>2026-04-11T14:48:37.007Z</time></trkpt><trkpt lat="43.3274883" lon="12.9915767"><ele>261.75</ele><time>2026-04-11T14:48:38.005Z</time></trkpt><trkpt lat="43.3275933" lon="12.99168"><ele>262.5</ele><time>2026-04-11T14:48:39.007Z</time></trkpt><trkpt lat="43.3276983" lon="12.9917867"><ele>263.25</ele><time>2026-04-11T14:48:40.005Z</time></trkpt><trkpt lat="43.3278033" lon="12.99189"><ele>264.0</ele><time>2026-04-11T14:48:41.007Z</time></trkpt><trkpt lat="43.3279067" lon="12.9919933"><ele>264.0</ele><time>2026-04-11T14:48:42.005Z</time></trkpt><trkpt lat="43.32801" lon="12.9920983"><ele>264.0</ele><time>2026-04-11T14:48:43.007Z</time></trkpt><trkpt lat="43.3281167" lon="12.9922017"><ele>264.0</ele><time>2026-04-11T14:48:44.006Z</time></trkpt><trkpt lat="43.3282233" lon="12.9923017"><ele>264.0</ele><time>2026-04-11T14:48:45.007Z</time></trkpt><trkpt lat="43.3283317" lon="12.992405"><ele>263.25</ele><time>2026-04-11T14:48:46.006Z</time></trkpt><trkpt lat="43.3284433" lon="12.9925083"><ele>262.5</ele><time>2026-04-11T14:48:47.002Z</time></trkpt><trkpt lat="43.328555" lon="12.9926183"><ele>261.75</ele><time>2026-04-11T14:48:48.008Z</time></trkpt><trkpt lat="43.3286683" lon="12.9927317"><ele>261.0</ele><time>2026-04-11T14:48:49.007Z</time></trkpt><trkpt lat="43.3287833" lon="12.99285"><ele>260.0</ele><time>2026-04-11T14:48:50.007Z</time></trkpt><trkpt lat="43.3289017" lon="12.9929683"><ele>259.0</ele><time>2026-04-11T14:48:51.007Z</time></trkpt><trkpt lat="43.32902" lon="12.993085"><ele>258.0</ele><time>2026-04-11T14:48:52.007Z</time></trkpt><trkpt lat="43.3291333" lon="12.9932017"><ele>257.0</ele><time>2026-04-11T14:48:53.006Z</time></trkpt><trkpt lat="43.3292483" lon="12.99332"><ele>256.6666666666667</ele><time>2026-04-11T14:48:54.007Z</time></trkpt><trkpt lat="43.329365" lon="12.9934283"><ele>256.3333333333333</ele><time>2026-04-11T14:48:55.007Z</time></trkpt><trkpt lat="43.32949" lon="12.99354"><ele>256.0</ele><time>2026-04-11T14:48:56.006Z</time></trkpt><trkpt lat="43.329625" lon="12.9936667"><ele>255.66666666666666</ele><time>2026-04-11T14:48:57.008Z</time></trkpt><trkpt lat="43.329775" lon="12.99381"><ele>255.33333333333331</ele><time>2026-04-11T14:48:58.004Z</time></trkpt><trkpt lat="43.3299383" lon="12.9939683"><ele>255.0</ele><time>2026-04-11T14:48:59.005Z</time></trkpt><trkpt lat="43.3301083" lon="12.9941417"><ele>255.0</ele><time>2026-04-11T14:49:00.007Z</time></trkpt><trkpt lat="43.33028" lon="12.9943233"><ele>255.0</ele><time>2026-04-11T14:49:01.007Z</time></trkpt><trkpt lat="43.33045" lon="12.994505"><ele>255.0</ele><time>2026-04-11T14:49:02.005Z</time></trkpt><trkpt lat="43.3306167" lon="12.9946833"><ele>254.33333333333331</ele><time>2026-04-11T14:49:03.008Z</time></trkpt><trkpt lat="43.330785" lon="12.9948583"><ele>253.66666666666666</ele><time>2026-04-11T14:49:04.007Z</time></trkpt><trkpt lat="43.3309517" lon="12.9950283"><ele>253.0</ele><time>2026-04-11T14:49:05.007Z</time></trkpt><trkpt lat="43.3311167" lon="12.995195"><ele>253.0</ele><time>2026-04-11T14:49:06.006Z</time></trkpt><trkpt lat="43.33128" lon="12.99536"><ele>253.0</ele><time>2026-04-11T14:49:07.007Z</time></trkpt><trkpt lat="43.3314417" lon="12.9955233"><ele>253.0</ele><time>2026-04-11T14:49:08.006Z</time></trkpt><trkpt lat="43.331605" lon="12.995685"><ele>254.0</ele><time>2026-04-11T14:49:09.007Z</time></trkpt><trkpt lat="43.3317683" lon="12.9958483"><ele>255.0</ele><time>2026-04-11T14:49:10.006Z</time></trkpt><trkpt lat="43.3319333" lon="12.9960133"><ele>256.0</ele><time>2026-04-11T14:49:11.007Z</time></trkpt><trkpt lat="43.3320967" lon="12.9961783"><ele>254.66666666666666</ele><time>2026-04-11T14:49:12.006Z</time></trkpt><trkpt lat="43.3322633" lon="12.9963417"><ele>253.33333333333331</ele><time>2026-04-11T14:49:13.007Z</time></trkpt><trkpt lat="43.3324283" lon="12.996505"><ele>252.0</ele><time>2026-04-11T14:49:14.007Z</time></trkpt><trkpt lat="43.332595" lon="12.9966683"><ele>252.33333333333331</ele><time>2026-04-11T14:49:15.005Z</time></trkpt><trkpt lat="43.33276" lon="12.9968317"><ele>252.66666666666666</ele><time>2026-04-11T14:49:16.006Z</time></trkpt><trkpt lat="43.3329217" lon="12.9969933"><ele>253.0</ele><time>2026-04-11T14:49:17.006Z</time></trkpt><trkpt lat="43.333085" lon="12.9971533"><ele>253.0</ele><time>2026-04-11T14:49:18.007Z</time></trkpt><trkpt lat="43.333245" lon="12.9973117"><ele>253.0</ele><time>2026-04-11T14:49:19.004Z</time></trkpt><trkpt lat="43.333405" lon="12.9974667"><ele>253.0</ele><time>2026-04-11T14:49:20.007Z</time></trkpt><trkpt lat="43.3335633" lon="12.9976217"><ele>253.0</ele><time>2026-04-11T14:49:21.007Z</time></trkpt><trkpt lat="43.3337267" lon="12.9977733"><ele>253.0</ele><time>2026-04-11T14:49:22.009Z</time></trkpt><trkpt lat="43.33389" lon="12.9979183"><ele>253.0</ele><time>2026-04-11T14:49:23.008Z</time></trkpt><trkpt lat="43.3340567" lon="12.9980567"><ele>253.0</ele><time>2026-04-11T14:49:24.008Z</time></trkpt><trkpt lat="43.334225" lon="12.9981883"><ele>253.0</ele><time>2026-04-11T14:49:25.008Z</time></trkpt><trkpt lat="43.3343983" lon="12.9983117"><ele>253.0</ele><time>2026-04-11T14:49:26.008Z</time></trkpt><trkpt lat="43.3345733" lon="12.9984283"><ele>255.0</ele><time>2026-04-11T14:49:27.006Z</time></trkpt><trkpt lat="43.334755" lon="12.9985367"><ele>257.0</ele><time>2026-04-11T14:49:28.006Z</time></trkpt><trkpt lat="43.3349417" lon="12.9986383"><ele>259.0</ele><time>2026-04-11T14:49:29.007Z</time></trkpt><trkpt lat="43.3351283" lon="12.998735"><ele>259.0</ele><time>2026-04-11T14:49:30.007Z</time></trkpt><trkpt lat="43.335315" lon="12.9988217"><ele>259.0</ele><time>2026-04-11T14:49:31.005Z</time></trkpt><trkpt lat="43.335505" lon="12.9989"><ele>259.0</ele><time>2026-04-11T14:49:32.005Z</time></trkpt><trkpt lat="43.335695" lon="12.9989667"><ele>257.3333333333333</ele><time>2026-04-11T14:49:33.007Z</time></trkpt><trkpt lat="43.335885" lon="12.9990233"><ele>255.66666666666669</ele><time>2026-04-11T14:49:34.007Z</time></trkpt><trkpt lat="43.3360767" lon="12.9990717"><ele>254.0</ele><time>2026-04-11T14:49:35.007Z</time></trkpt><trkpt lat="43.3362683" lon="12.9991083"><ele>252.66666666666669</ele><time>2026-04-11T14:49:36.007Z</time></trkpt><trkpt lat="43.336465" lon="12.9991333"><ele>251.33333333333331</ele><time>2026-04-11T14:49:37.007Z</time></trkpt><trkpt lat="43.336665" lon="12.9991433"><ele>250.0</ele><time>2026-04-11T14:49:38.006Z</time></trkpt><trkpt lat="43.3368617" lon="12.9991483"><ele>250.0</ele><time>2026-04-11T14:49:39.008Z</time></trkpt><trkpt lat="43.33706" lon="12.9991467"><ele>250.0</ele><time>2026-04-11T14:49:40.005Z</time></trkpt><trkpt lat="43.3372567" lon="12.999135"><ele>250.0</ele><time>2026-04-11T14:49:41.006Z</time></trkpt><trkpt lat="43.33745" lon="12.9991183"><ele>249.66666666666666</ele><time>2026-04-11T14:49:42.005Z</time></trkpt><trkpt lat="43.33764" lon="12.9990983"><ele>249.33333333333331</ele><time>2026-04-11T14:49:43.006Z</time></trkpt><trkpt lat="43.33783" lon="12.9990767"><ele>249.0</ele><time>2026-04-11T14:49:44.006Z</time></trkpt><trkpt lat="43.3380217" lon="12.999055"><ele>249.66666666666669</ele><time>2026-04-11T14:49:45.008Z</time></trkpt><trkpt lat="43.3382117" lon="12.9990317"><ele>250.33333333333334</ele><time>2026-04-11T14:49:46.006Z</time></trkpt><trkpt lat="43.3384" lon="12.9990117"><ele>251.0</ele><time>2026-04-11T14:49:47.006Z</time></trkpt><trkpt lat="43.3385867" lon="12.99899"><ele>251.0</ele><time>2026-04-11T14:49:48.006Z</time></trkpt><trkpt lat="43.3387717" lon="12.9989683"><ele>251.0</ele><time>2026-04-11T14:49:49.008Z</time></trkpt><trkpt lat="43.3389583" lon="12.99894"><ele>251.0</ele><time>2026-04-11T14:49:50.007Z</time></trkpt><trkpt lat="43.3391433" lon="12.9989167"><ele>251.66666666666669</ele><time>2026-04-11T14:49:51.007Z</time></trkpt><trkpt lat="43.3393267" lon="12.9988883"><ele>252.33333333333331</ele><time>2026-04-11T14:49:52.006Z</time></trkpt><trkpt lat="43.3395083" lon="12.9988633"><ele>253.0</ele><time>2026-04-11T14:49:53.007Z</time></trkpt><trkpt lat="43.3396967" lon="12.998835"><ele>253.33333333333331</ele><time>2026-04-11T14:49:54.007Z</time></trkpt><trkpt lat="43.33989" lon="12.9988117"><ele>253.66666666666669</ele><time>2026-04-11T14:49:55.007Z</time></trkpt><trkpt lat="43.3400867" lon="12.998785"><ele>254.0</ele><time>2026-04-11T14:49:56.006Z</time></trkpt><trkpt lat="43.3402817" lon="12.9987583"><ele>254.0</ele><time>2026-04-11T14:49:57.006Z</time></trkpt><trkpt lat="43.3404733" lon="12.9987367"><ele>254.0</ele><time>2026-04-11T14:49:58.007Z</time></trkpt><trkpt lat="43.3406683" lon="12.99871"><ele>254.0</ele><time>2026-04-11T14:49:59.006Z</time></trkpt><trkpt lat="43.3408617" lon="12.9986817"><ele>253.66666666666669</ele><time>2026-04-11T14:50:00.009Z</time></trkpt><trkpt lat="43.3410567" lon="12.9986533"><ele>253.33333333333331</ele><time>2026-04-11T14:50:01.006Z</time></trkpt><trkpt lat="43.3412517" lon="12.9986233"><ele>253.0</ele><time>2026-04-11T14:50:02.005Z</time></trkpt><trkpt lat="43.3414467" lon="12.9985983"><ele>253.66666666666666</ele><time>2026-04-11T14:50:03.007Z</time></trkpt><trkpt lat="43.3416417" lon="12.9985783"><ele>254.33333333333331</ele><time>2026-04-11T14:50:04.008Z</time></trkpt><trkpt lat="43.341835" lon="12.9985567"><ele>255.0</ele><time>2026-04-11T14:50:05.006Z</time></trkpt><trkpt lat="43.3420317" lon="12.9985267"><ele>254.33333333333331</ele><time>2026-04-11T14:50:06.006Z</time></trkpt><trkpt lat="43.3422267" lon="12.9984983"><ele>253.66666666666666</ele><time>2026-04-11T14:50:07.007Z</time></trkpt><trkpt lat="43.3424183" lon="12.9984717"><ele>253.0</ele><time>2026-04-11T14:50:08.004Z</time></trkpt><trkpt lat="43.3426117" lon="12.9984433"><ele>253.0</ele><time>2026-04-11T14:50:09.006Z</time></trkpt><trkpt lat="43.342805" lon="12.9984117"><ele>253.0</ele><time>2026-04-11T14:50:10.006Z</time></trkpt><trkpt lat="43.342995" lon="12.998385"><ele>253.0</ele><time>2026-04-11T14:50:11.007Z</time></trkpt><trkpt lat="43.3431833" lon="12.9983533"><ele>252.33333333333331</ele><time>2026-04-11T14:50:12.005Z</time></trkpt><trkpt lat="43.34336" lon="12.9983383"><ele>251.66666666666669</ele><time>2026-04-11T14:50:13.006Z</time></trkpt><trkpt lat="43.3435333" lon="12.9983217"><ele>251.0</ele><time>2026-04-11T14:50:14.007Z</time></trkpt><trkpt lat="43.3437017" lon="12.9983083"><ele>248.33333333333334</ele><time>2026-04-11T14:50:15.007Z</time></trkpt><trkpt lat="43.3438617" lon="12.9982967"><ele>245.66666666666669</ele><time>2026-04-11T14:50:16.005Z</time></trkpt><trkpt lat="43.3440133" lon="12.9982833"><ele>243.0</ele><time>2026-04-11T14:50:17.007Z</time></trkpt><trkpt lat="43.3441567" lon="12.99827"><ele>242.60000000000002</ele><time>2026-04-11T14:50:18.008Z</time></trkpt><trkpt lat="43.34429" lon="12.9982567"><ele>242.20000000000002</ele><time>2026-04-11T14:50:19.004Z</time></trkpt><trkpt lat="43.3444" lon="12.99824"><ele>241.8</ele><time>2026-04-11T14:50:20.004Z</time></trkpt><trkpt lat="43.3444867" lon="12.99823"><ele>241.4</ele><time>2026-04-11T14:50:21.006Z</time></trkpt><trkpt lat="43.3445533" lon="12.9982233"><ele>241.0</ele><time>2026-04-11T14:50:22.006Z</time></trkpt><trkpt lat="43.344635" lon="12.9982433"><ele>241.0</ele><time>2026-04-11T14:50:24.006Z</time></trkpt></trkseg></trk></gpx>